<?xml version="1.0" encoding="UTF-8" standalone="no" ?>
<gpx xmlns="http://www.topografix.com/GPX/1/1" xmlns:xsi="http://www.w3.org/2001/XMLSchema-instance" xsi:schemaLocation="http://www.topografix.com/GPX/1/1 http://www.topografix.com/GPX/1/1/gpx.xsd" version="1.1" creator="VisuGPX - https://www.visugpx.com">
  <metadata>
    <name>Bourg-Saint-Maurice Cyclisme</name>
  </metadata>
  <trk>
    <name><![CDATA[Bourg-Saint-Maurice Cyclisme]]></name>
    <trkseg>
      <trkpt lat="45.61341" lon="6.76648">
        <ele>847.59997558594</ele>
        <time>2020-06-26T10:24:08.000Z</time>
      </trkpt>
      <trkpt lat="45.61345" lon="6.76656">
        <ele>847</ele>
        <time>2020-06-26T10:24:11.000Z</time>
      </trkpt>
      <trkpt lat="45.61348" lon="6.76658">
        <ele>846.79998779297</ele>
        <time>2020-06-26T10:24:12.000Z</time>
      </trkpt>
      <trkpt lat="45.61354" lon="6.76658">
        <ele>846.40002441406</ele>
        <time>2020-06-26T10:24:14.000Z</time>
      </trkpt>
      <trkpt lat="45.61357" lon="6.76657">
        <ele>846.20001220703</ele>
        <time>2020-06-26T10:24:15.000Z</time>
      </trkpt>
      <trkpt lat="45.61362" lon="6.76656">
        <ele>845.79998779297</ele>
        <time>2020-06-26T10:24:17.000Z</time>
      </trkpt>
      <trkpt lat="45.61379" lon="6.76648">
        <ele>845.59997558594</ele>
        <time>2020-06-26T10:24:23.000Z</time>
      </trkpt>
      <trkpt lat="45.61384" lon="6.76647">
        <ele>845.40002441406</ele>
        <time>2020-06-26T10:24:27.000Z</time>
      </trkpt>
      <trkpt lat="45.61385" lon="6.76646">
        <ele>845.40002441406</ele>
        <time>2020-06-26T10:24:28.000Z</time>
      </trkpt>
      <trkpt lat="45.61395" lon="6.76649">
        <ele>844.79998779297</ele>
        <time>2020-06-26T10:24:32.000Z</time>
      </trkpt>
      <trkpt lat="45.61399" lon="6.76652">
        <ele>844.79998779297</ele>
        <time>2020-06-26T10:24:33.000Z</time>
      </trkpt>
      <trkpt lat="45.61409" lon="6.76667">
        <ele>844.59997558594</ele>
        <time>2020-06-26T10:24:36.000Z</time>
      </trkpt>
      <trkpt lat="45.61421" lon="6.76691">
        <ele>844.40002441406</ele>
        <time>2020-06-26T10:24:40.000Z</time>
      </trkpt>
      <trkpt lat="45.61426" lon="6.76702">
        <ele>844</ele>
        <time>2020-06-26T10:24:42.000Z</time>
      </trkpt>
      <trkpt lat="45.61436" lon="6.76718">
        <ele>842.79998779297</ele>
        <time>2020-06-26T10:24:45.000Z</time>
      </trkpt>
      <trkpt lat="45.61442" lon="6.7673">
        <ele>841.79998779297</ele>
        <time>2020-06-26T10:24:47.000Z</time>
      </trkpt>
      <trkpt lat="45.61446" lon="6.76737">
        <ele>841.59997558594</ele>
        <time>2020-06-26T10:24:48.000Z</time>
      </trkpt>
      <trkpt lat="45.61458" lon="6.7676">
        <ele>840.59997558594</ele>
        <time>2020-06-26T10:24:51.000Z</time>
      </trkpt>
      <trkpt lat="45.61467" lon="6.76777">
        <ele>840</ele>
        <time>2020-06-26T10:24:53.000Z</time>
      </trkpt>
      <trkpt lat="45.61472" lon="6.76786">
        <ele>839.59997558594</ele>
        <time>2020-06-26T10:24:54.000Z</time>
      </trkpt>
      <trkpt lat="45.61489" lon="6.76815">
        <ele>838.40002441406</ele>
        <time>2020-06-26T10:24:57.000Z</time>
      </trkpt>
      <trkpt lat="45.61494" lon="6.76825">
        <ele>838</ele>
        <time>2020-06-26T10:24:58.000Z</time>
      </trkpt>
      <trkpt lat="45.61506" lon="6.76848">
        <ele>837</ele>
        <time>2020-06-26T10:25:00.000Z</time>
      </trkpt>
      <trkpt lat="45.61517" lon="6.76872">
        <ele>835.59997558594</ele>
        <time>2020-06-26T10:25:02.000Z</time>
      </trkpt>
      <trkpt lat="45.61527" lon="6.76891">
        <ele>834.20001220703</ele>
        <time>2020-06-26T10:25:04.000Z</time>
      </trkpt>
      <trkpt lat="45.6154" lon="6.76917">
        <ele>832.59997558594</ele>
        <time>2020-06-26T10:25:07.000Z</time>
      </trkpt>
      <trkpt lat="45.61545" lon="6.76925">
        <ele>831.59997558594</ele>
        <time>2020-06-26T10:25:08.000Z</time>
      </trkpt>
      <trkpt lat="45.61551" lon="6.76934">
        <ele>830.79998779297</ele>
        <time>2020-06-26T10:25:09.000Z</time>
      </trkpt>
      <trkpt lat="45.61557" lon="6.76942">
        <ele>830.20001220703</ele>
        <time>2020-06-26T10:25:10.000Z</time>
      </trkpt>
      <trkpt lat="45.6158" lon="6.7697">
        <ele>829.59997558594</ele>
        <time>2020-06-26T10:25:14.000Z</time>
      </trkpt>
      <trkpt lat="45.61591" lon="6.76981">
        <ele>829.20001220703</ele>
        <time>2020-06-26T10:25:16.000Z</time>
      </trkpt>
      <trkpt lat="45.61608" lon="6.76996">
        <ele>827.59997558594</ele>
        <time>2020-06-26T10:25:19.000Z</time>
      </trkpt>
      <trkpt lat="45.61615" lon="6.77001">
        <ele>827</ele>
        <time>2020-06-26T10:25:20.000Z</time>
      </trkpt>
      <trkpt lat="45.61628" lon="6.77009">
        <ele>826.20001220703</ele>
        <time>2020-06-26T10:25:22.000Z</time>
      </trkpt>
      <trkpt lat="45.61658" lon="6.77023">
        <ele>825.40002441406</ele>
        <time>2020-06-26T10:25:26.000Z</time>
      </trkpt>
      <trkpt lat="45.61666" lon="6.77026">
        <ele>824.79998779297</ele>
        <time>2020-06-26T10:25:27.000Z</time>
      </trkpt>
      <trkpt lat="45.61682" lon="6.77033">
        <ele>823.79998779297</ele>
        <time>2020-06-26T10:25:29.000Z</time>
      </trkpt>
      <trkpt lat="45.61708" lon="6.77044">
        <ele>822.79998779297</ele>
        <time>2020-06-26T10:25:32.000Z</time>
      </trkpt>
      <trkpt lat="45.61744" lon="6.7706">
        <ele>821.59997558594</ele>
        <time>2020-06-26T10:25:36.000Z</time>
      </trkpt>
      <trkpt lat="45.61764" lon="6.77068">
        <ele>821</ele>
        <time>2020-06-26T10:25:38.000Z</time>
      </trkpt>
      <trkpt lat="45.61773" lon="6.77072">
        <ele>820.40002441406</ele>
        <time>2020-06-26T10:25:39.000Z</time>
      </trkpt>
      <trkpt lat="45.61793" lon="6.7708">
        <ele>819</ele>
        <time>2020-06-26T10:25:41.000Z</time>
      </trkpt>
      <trkpt lat="45.61821" lon="6.77089">
        <ele>817.59997558594</ele>
        <time>2020-06-26T10:25:44.000Z</time>
      </trkpt>
      <trkpt lat="45.61837" lon="6.77095">
        <ele>816</ele>
        <time>2020-06-26T10:25:47.000Z</time>
      </trkpt>
      <trkpt lat="45.61842" lon="6.77097">
        <ele>815.40002441406</ele>
        <time>2020-06-26T10:25:48.000Z</time>
      </trkpt>
      <trkpt lat="45.61846" lon="6.77099">
        <ele>815</ele>
        <time>2020-06-26T10:25:49.000Z</time>
      </trkpt>
      <trkpt lat="45.61851" lon="6.77101">
        <ele>814.59997558594</ele>
        <time>2020-06-26T10:25:50.000Z</time>
      </trkpt>
      <trkpt lat="45.61861" lon="6.77102">
        <ele>814.59997558594</ele>
        <time>2020-06-26T10:25:52.000Z</time>
      </trkpt>
      <trkpt lat="45.61887" lon="6.77098">
        <ele>814</ele>
        <time>2020-06-26T10:25:57.000Z</time>
      </trkpt>
      <trkpt lat="45.61892" lon="6.77098">
        <ele>814</ele>
        <time>2020-06-26T10:25:58.000Z</time>
      </trkpt>
      <trkpt lat="45.61939" lon="6.77098">
        <ele>813.59997558594</ele>
        <time>2020-06-26T10:26:07.000Z</time>
      </trkpt>
      <trkpt lat="45.61975" lon="6.77099">
        <ele>813.79998779297</ele>
        <time>2020-06-26T10:26:15.000Z</time>
      </trkpt>
      <trkpt lat="45.62006" lon="6.77104">
        <ele>814.59997558594</ele>
        <time>2020-06-26T10:26:22.000Z</time>
      </trkpt>
      <trkpt lat="45.6201" lon="6.77105">
        <ele>814.59997558594</ele>
        <time>2020-06-26T10:26:23.000Z</time>
      </trkpt>
      <trkpt lat="45.62024" lon="6.7712">
        <ele>814.79998779297</ele>
        <time>2020-06-26T10:26:27.000Z</time>
      </trkpt>
      <trkpt lat="45.62027" lon="6.77124">
        <ele>814.79998779297</ele>
        <time>2020-06-26T10:26:28.000Z</time>
      </trkpt>
      <trkpt lat="45.62041" lon="6.77135">
        <ele>814.79998779297</ele>
        <time>2020-06-26T10:26:31.000Z</time>
      </trkpt>
      <trkpt lat="45.62046" lon="6.77139">
        <ele>814.79998779297</ele>
        <time>2020-06-26T10:26:32.000Z</time>
      </trkpt>
      <trkpt lat="45.62053" lon="6.77152">
        <ele>814.59997558594</ele>
        <time>2020-06-26T10:26:34.000Z</time>
      </trkpt>
      <trkpt lat="45.62072" lon="6.77199">
        <ele>813.79998779297</ele>
        <time>2020-06-26T10:26:40.000Z</time>
      </trkpt>
      <trkpt lat="45.62095" lon="6.77262">
        <ele>812.79998779297</ele>
        <time>2020-06-26T10:26:48.000Z</time>
      </trkpt>
      <trkpt lat="45.62118" lon="6.77318">
        <ele>812.20001220703</ele>
        <time>2020-06-26T10:26:55.000Z</time>
      </trkpt>
      <trkpt lat="45.62132" lon="6.77354">
        <ele>811.79998779297</ele>
        <time>2020-06-26T10:26:59.000Z</time>
      </trkpt>
      <trkpt lat="45.62143" lon="6.77383">
        <ele>811.40002441406</ele>
        <time>2020-06-26T10:27:02.000Z</time>
      </trkpt>
      <trkpt lat="45.6215" lon="6.77402">
        <ele>810.59997558594</ele>
        <time>2020-06-26T10:27:04.000Z</time>
      </trkpt>
      <trkpt lat="45.62169" lon="6.77451">
        <ele>810.20001220703</ele>
        <time>2020-06-26T10:27:09.000Z</time>
      </trkpt>
      <trkpt lat="45.62179" lon="6.77479">
        <ele>809.40002441406</ele>
        <time>2020-06-26T10:27:12.000Z</time>
      </trkpt>
      <trkpt lat="45.62202" lon="6.77532">
        <ele>808.40002441406</ele>
        <time>2020-06-26T10:27:18.000Z</time>
      </trkpt>
      <trkpt lat="45.62209" lon="6.77549">
        <ele>808.40002441406</ele>
        <time>2020-06-26T10:27:20.000Z</time>
      </trkpt>
      <trkpt lat="45.62212" lon="6.77557">
        <ele>808.20001220703</ele>
        <time>2020-06-26T10:27:21.000Z</time>
      </trkpt>
      <trkpt lat="45.62227" lon="6.77588">
        <ele>808</ele>
        <time>2020-06-26T10:27:25.000Z</time>
      </trkpt>
      <trkpt lat="45.62255" lon="6.77653">
        <ele>808</ele>
        <time>2020-06-26T10:27:34.000Z</time>
      </trkpt>
      <trkpt lat="45.62285" lon="6.77722">
        <ele>808.79998779297</ele>
        <time>2020-06-26T10:27:44.000Z</time>
      </trkpt>
      <trkpt lat="45.62308" lon="6.77774">
        <ele>809.20001220703</ele>
        <time>2020-06-26T10:27:52.000Z</time>
      </trkpt>
      <trkpt lat="45.62313" lon="6.77787">
        <ele>809.40002441406</ele>
        <time>2020-06-26T10:27:54.000Z</time>
      </trkpt>
      <trkpt lat="45.62326" lon="6.77828">
        <ele>809.79998779297</ele>
        <time>2020-06-26T10:28:00.000Z</time>
      </trkpt>
      <trkpt lat="45.62332" lon="6.77855">
        <ele>810</ele>
        <time>2020-06-26T10:28:04.000Z</time>
      </trkpt>
      <trkpt lat="45.62346" lon="6.77862">
        <ele>810.40002441406</ele>
        <time>2020-06-26T10:28:07.000Z</time>
      </trkpt>
      <trkpt lat="45.62352" lon="6.77862">
        <ele>810.40002441406</ele>
        <time>2020-06-26T10:28:08.000Z</time>
      </trkpt>
      <trkpt lat="45.62358" lon="6.77862">
        <ele>810.59997558594</ele>
        <time>2020-06-26T10:28:09.000Z</time>
      </trkpt>
      <trkpt lat="45.62363" lon="6.77862">
        <ele>810.59997558594</ele>
        <time>2020-06-26T10:28:10.000Z</time>
      </trkpt>
      <trkpt lat="45.62373" lon="6.77866">
        <ele>810.79998779297</ele>
        <time>2020-06-26T10:28:12.000Z</time>
      </trkpt>
      <trkpt lat="45.62386" lon="6.77877">
        <ele>811</ele>
        <time>2020-06-26T10:28:15.000Z</time>
      </trkpt>
      <trkpt lat="45.62393" lon="6.77886">
        <ele>811.20001220703</ele>
        <time>2020-06-26T10:28:17.000Z</time>
      </trkpt>
      <trkpt lat="45.62407" lon="6.77901">
        <ele>811.40002441406</ele>
        <time>2020-06-26T10:28:21.000Z</time>
      </trkpt>
      <trkpt lat="45.6241" lon="6.77905">
        <ele>811.40002441406</ele>
        <time>2020-06-26T10:28:22.000Z</time>
      </trkpt>
      <trkpt lat="45.62413" lon="6.77909">
        <ele>811.59997558594</ele>
        <time>2020-06-26T10:28:23.000Z</time>
      </trkpt>
      <trkpt lat="45.62426" lon="6.77926">
        <ele>812.40002441406</ele>
        <time>2020-06-26T10:28:27.000Z</time>
      </trkpt>
      <trkpt lat="45.62436" lon="6.7794">
        <ele>812.40002441406</ele>
        <time>2020-06-26T10:28:30.000Z</time>
      </trkpt>
      <trkpt lat="45.62439" lon="6.77944">
        <ele>812.40002441406</ele>
        <time>2020-06-26T10:28:31.000Z</time>
      </trkpt>
      <trkpt lat="45.6246" lon="6.7797">
        <ele>813.59997558594</ele>
        <time>2020-06-26T10:28:37.000Z</time>
      </trkpt>
      <trkpt lat="45.62471" lon="6.77984">
        <ele>814</ele>
        <time>2020-06-26T10:28:40.000Z</time>
      </trkpt>
      <trkpt lat="45.62475" lon="6.77988">
        <ele>814</ele>
        <time>2020-06-26T10:28:41.000Z</time>
      </trkpt>
      <trkpt lat="45.62489" lon="6.78007">
        <ele>814.59997558594</ele>
        <time>2020-06-26T10:28:45.000Z</time>
      </trkpt>
      <trkpt lat="45.62502" lon="6.78027">
        <ele>815</ele>
        <time>2020-06-26T10:28:49.000Z</time>
      </trkpt>
      <trkpt lat="45.62514" lon="6.7805">
        <ele>815.59997558594</ele>
        <time>2020-06-26T10:28:53.000Z</time>
      </trkpt>
      <trkpt lat="45.62529" lon="6.78085">
        <ele>816</ele>
        <time>2020-06-26T10:28:59.000Z</time>
      </trkpt>
      <trkpt lat="45.62539" lon="6.78121">
        <ele>816.59997558594</ele>
        <time>2020-06-26T10:29:05.000Z</time>
      </trkpt>
      <trkpt lat="45.62542" lon="6.78133">
        <ele>817.20001220703</ele>
        <time>2020-06-26T10:29:07.000Z</time>
      </trkpt>
      <trkpt lat="45.62548" lon="6.7815">
        <ele>817.79998779297</ele>
        <time>2020-06-26T10:29:10.000Z</time>
      </trkpt>
      <trkpt lat="45.62553" lon="6.78175">
        <ele>818.59997558594</ele>
        <time>2020-06-26T10:29:14.000Z</time>
      </trkpt>
      <trkpt lat="45.62557" lon="6.78188">
        <ele>818.79998779297</ele>
        <time>2020-06-26T10:29:16.000Z</time>
      </trkpt>
      <trkpt lat="45.62559" lon="6.78201">
        <ele>819.20001220703</ele>
        <time>2020-06-26T10:29:18.000Z</time>
      </trkpt>
      <trkpt lat="45.62561" lon="6.78227">
        <ele>819.79998779297</ele>
        <time>2020-06-26T10:29:22.000Z</time>
      </trkpt>
      <trkpt lat="45.62561" lon="6.78246">
        <ele>819.79998779297</ele>
        <time>2020-06-26T10:29:25.000Z</time>
      </trkpt>
      <trkpt lat="45.6256" lon="6.78284">
        <ele>820.20001220703</ele>
        <time>2020-06-26T10:29:31.000Z</time>
      </trkpt>
      <trkpt lat="45.6256" lon="6.78308">
        <ele>820.79998779297</ele>
        <time>2020-06-26T10:29:35.000Z</time>
      </trkpt>
      <trkpt lat="45.62562" lon="6.78319">
        <ele>821.40002441406</ele>
        <time>2020-06-26T10:29:37.000Z</time>
      </trkpt>
      <trkpt lat="45.62564" lon="6.7833">
        <ele>822.40002441406</ele>
        <time>2020-06-26T10:29:39.000Z</time>
      </trkpt>
      <trkpt lat="45.62572" lon="6.78364">
        <ele>823.59997558594</ele>
        <time>2020-06-26T10:29:45.000Z</time>
      </trkpt>
      <trkpt lat="45.62574" lon="6.78375">
        <ele>823.79998779297</ele>
        <time>2020-06-26T10:29:47.000Z</time>
      </trkpt>
      <trkpt lat="45.62579" lon="6.78392">
        <ele>824.59997558594</ele>
        <time>2020-06-26T10:29:50.000Z</time>
      </trkpt>
      <trkpt lat="45.6259" lon="6.78429">
        <ele>825.79998779297</ele>
        <time>2020-06-26T10:29:56.000Z</time>
      </trkpt>
      <trkpt lat="45.62601" lon="6.78472">
        <ele>826.79998779297</ele>
        <time>2020-06-26T10:30:03.000Z</time>
      </trkpt>
      <trkpt lat="45.62605" lon="6.78483">
        <ele>827</ele>
        <time>2020-06-26T10:30:05.000Z</time>
      </trkpt>
      <trkpt lat="45.62615" lon="6.78516">
        <ele>828</ele>
        <time>2020-06-26T10:30:11.000Z</time>
      </trkpt>
      <trkpt lat="45.6262" lon="6.78533">
        <ele>828.79998779297</ele>
        <time>2020-06-26T10:30:14.000Z</time>
      </trkpt>
      <trkpt lat="45.62623" lon="6.78538">
        <ele>829</ele>
        <time>2020-06-26T10:30:15.000Z</time>
      </trkpt>
      <trkpt lat="45.62625" lon="6.78544">
        <ele>829.20001220703</ele>
        <time>2020-06-26T10:30:16.000Z</time>
      </trkpt>
      <trkpt lat="45.62628" lon="6.78548">
        <ele>829.40002441406</ele>
        <time>2020-06-26T10:30:17.000Z</time>
      </trkpt>
      <trkpt lat="45.62638" lon="6.78561">
        <ele>829.79998779297</ele>
        <time>2020-06-26T10:30:20.000Z</time>
      </trkpt>
      <trkpt lat="45.62651" lon="6.78576">
        <ele>830.20001220703</ele>
        <time>2020-06-26T10:30:24.000Z</time>
      </trkpt>
      <trkpt lat="45.62667" lon="6.78593">
        <ele>831.40002441406</ele>
        <time>2020-06-26T10:30:29.000Z</time>
      </trkpt>
      <trkpt lat="45.62679" lon="6.7861">
        <ele>832.40002441406</ele>
        <time>2020-06-26T10:30:34.000Z</time>
      </trkpt>
      <trkpt lat="45.62684" lon="6.78619">
        <ele>833</ele>
        <time>2020-06-26T10:30:36.000Z</time>
      </trkpt>
      <trkpt lat="45.62691" lon="6.78633">
        <ele>833.40002441406</ele>
        <time>2020-06-26T10:30:39.000Z</time>
      </trkpt>
      <trkpt lat="45.62698" lon="6.78655">
        <ele>834</ele>
        <time>2020-06-26T10:30:43.000Z</time>
      </trkpt>
      <trkpt lat="45.62705" lon="6.78685">
        <ele>834.59997558594</ele>
        <time>2020-06-26T10:30:48.000Z</time>
      </trkpt>
      <trkpt lat="45.62707" lon="6.78702">
        <ele>835</ele>
        <time>2020-06-26T10:30:51.000Z</time>
      </trkpt>
      <trkpt lat="45.62706" lon="6.7872">
        <ele>835.40002441406</ele>
        <time>2020-06-26T10:30:54.000Z</time>
      </trkpt>
      <trkpt lat="45.62704" lon="6.78737">
        <ele>835.59997558594</ele>
        <time>2020-06-26T10:30:57.000Z</time>
      </trkpt>
      <trkpt lat="45.62704" lon="6.78742">
        <ele>835.59997558594</ele>
        <time>2020-06-26T10:30:58.000Z</time>
      </trkpt>
      <trkpt lat="45.62702" lon="6.78779">
        <ele>836.79998779297</ele>
        <time>2020-06-26T10:31:05.000Z</time>
      </trkpt>
      <trkpt lat="45.627" lon="6.78804">
        <ele>838</ele>
        <time>2020-06-26T10:31:10.000Z</time>
      </trkpt>
      <trkpt lat="45.62699" lon="6.7883">
        <ele>839.20001220703</ele>
        <time>2020-06-26T10:31:15.000Z</time>
      </trkpt>
      <trkpt lat="45.62697" lon="6.78856">
        <ele>840.40002441406</ele>
        <time>2020-06-26T10:31:20.000Z</time>
      </trkpt>
      <trkpt lat="45.62694" lon="6.78887">
        <ele>841.59997558594</ele>
        <time>2020-06-26T10:31:26.000Z</time>
      </trkpt>
      <trkpt lat="45.62692" lon="6.78914">
        <ele>842.59997558594</ele>
        <time>2020-06-26T10:31:31.000Z</time>
      </trkpt>
      <trkpt lat="45.62691" lon="6.78945">
        <ele>843.59997558594</ele>
        <time>2020-06-26T10:31:37.000Z</time>
      </trkpt>
      <trkpt lat="45.6269" lon="6.78955">
        <ele>843.79998779297</ele>
        <time>2020-06-26T10:31:39.000Z</time>
      </trkpt>
      <trkpt lat="45.62687" lon="6.78978">
        <ele>844.79998779297</ele>
        <time>2020-06-26T10:31:45.000Z</time>
      </trkpt>
      <trkpt lat="45.62686" lon="6.78996">
        <ele>846</ele>
        <time>2020-06-26T10:31:50.000Z</time>
      </trkpt>
      <trkpt lat="45.62685" lon="6.79003">
        <ele>846.20001220703</ele>
        <time>2020-06-26T10:31:52.000Z</time>
      </trkpt>
      <trkpt lat="45.62685" lon="6.79009">
        <ele>846.79998779297</ele>
        <time>2020-06-26T10:31:54.000Z</time>
      </trkpt>
      <trkpt lat="45.62684" lon="6.79012">
        <ele>847.20001220703</ele>
        <time>2020-06-26T10:31:55.000Z</time>
      </trkpt>
      <trkpt lat="45.62683" lon="6.79025">
        <ele>847.59997558594</ele>
        <time>2020-06-26T10:31:58.000Z</time>
      </trkpt>
      <trkpt lat="45.62682" lon="6.79036">
        <ele>848</ele>
        <time>2020-06-26T10:32:00.000Z</time>
      </trkpt>
      <trkpt lat="45.62681" lon="6.7905">
        <ele>848.59997558594</ele>
        <time>2020-06-26T10:32:03.000Z</time>
      </trkpt>
      <trkpt lat="45.62678" lon="6.79078">
        <ele>849.20001220703</ele>
        <time>2020-06-26T10:32:08.000Z</time>
      </trkpt>
      <trkpt lat="45.62677" lon="6.79083">
        <ele>849.40002441406</ele>
        <time>2020-06-26T10:32:09.000Z</time>
      </trkpt>
      <trkpt lat="45.62671" lon="6.79111">
        <ele>850.40002441406</ele>
        <time>2020-06-26T10:32:14.000Z</time>
      </trkpt>
      <trkpt lat="45.62669" lon="6.79117">
        <ele>850.59997558594</ele>
        <time>2020-06-26T10:32:15.000Z</time>
      </trkpt>
      <trkpt lat="45.62664" lon="6.79136">
        <ele>851.40002441406</ele>
        <time>2020-06-26T10:32:19.000Z</time>
      </trkpt>
      <trkpt lat="45.62661" lon="6.79146">
        <ele>851.59997558594</ele>
        <time>2020-06-26T10:32:21.000Z</time>
      </trkpt>
      <trkpt lat="45.62657" lon="6.79163">
        <ele>852.59997558594</ele>
        <time>2020-06-26T10:32:25.000Z</time>
      </trkpt>
      <trkpt lat="45.62655" lon="6.79172">
        <ele>853</ele>
        <time>2020-06-26T10:32:27.000Z</time>
      </trkpt>
      <trkpt lat="45.62653" lon="6.79184">
        <ele>853.79998779297</ele>
        <time>2020-06-26T10:32:30.000Z</time>
      </trkpt>
      <trkpt lat="45.62652" lon="6.79193">
        <ele>854.40002441406</ele>
        <time>2020-06-26T10:32:32.000Z</time>
      </trkpt>
      <trkpt lat="45.62649" lon="6.79209">
        <ele>855</ele>
        <time>2020-06-26T10:32:36.000Z</time>
      </trkpt>
      <trkpt lat="45.62648" lon="6.79214">
        <ele>855.20001220703</ele>
        <time>2020-06-26T10:32:37.000Z</time>
      </trkpt>
      <trkpt lat="45.62643" lon="6.79233">
        <ele>856</ele>
        <time>2020-06-26T10:32:41.000Z</time>
      </trkpt>
      <trkpt lat="45.6264" lon="6.79245">
        <ele>856.40002441406</ele>
        <time>2020-06-26T10:32:43.000Z</time>
      </trkpt>
      <trkpt lat="45.62635" lon="6.79265">
        <ele>856.79998779297</ele>
        <time>2020-06-26T10:32:47.000Z</time>
      </trkpt>
      <trkpt lat="45.62633" lon="6.79275">
        <ele>857</ele>
        <time>2020-06-26T10:32:49.000Z</time>
      </trkpt>
      <trkpt lat="45.62625" lon="6.793">
        <ele>858</ele>
        <time>2020-06-26T10:32:54.000Z</time>
      </trkpt>
      <trkpt lat="45.62621" lon="6.79314">
        <ele>858.40002441406</ele>
        <time>2020-06-26T10:32:57.000Z</time>
      </trkpt>
      <trkpt lat="45.62616" lon="6.79329">
        <ele>859.20001220703</ele>
        <time>2020-06-26T10:33:00.000Z</time>
      </trkpt>
      <trkpt lat="45.62606" lon="6.79354">
        <ele>860.40002441406</ele>
        <time>2020-06-26T10:33:05.000Z</time>
      </trkpt>
      <trkpt lat="45.62587" lon="6.79385">
        <ele>861.20001220703</ele>
        <time>2020-06-26T10:33:12.000Z</time>
      </trkpt>
      <trkpt lat="45.62581" lon="6.79393">
        <ele>861.40002441406</ele>
        <time>2020-06-26T10:33:14.000Z</time>
      </trkpt>
      <trkpt lat="45.62567" lon="6.79409">
        <ele>862.40002441406</ele>
        <time>2020-06-26T10:33:19.000Z</time>
      </trkpt>
      <trkpt lat="45.62554" lon="6.79421">
        <ele>863</ele>
        <time>2020-06-26T10:33:23.000Z</time>
      </trkpt>
      <trkpt lat="45.62548" lon="6.79427">
        <ele>863.40002441406</ele>
        <time>2020-06-26T10:33:25.000Z</time>
      </trkpt>
      <trkpt lat="45.62539" lon="6.79433">
        <ele>864</ele>
        <time>2020-06-26T10:33:28.000Z</time>
      </trkpt>
      <trkpt lat="45.62536" lon="6.79433">
        <ele>864.20001220703</ele>
        <time>2020-06-26T10:33:29.000Z</time>
      </trkpt>
      <trkpt lat="45.62529" lon="6.79435">
        <ele>864.40002441406</ele>
        <time>2020-06-26T10:33:31.000Z</time>
      </trkpt>
      <trkpt lat="45.62523" lon="6.79442">
        <ele>864.79998779297</ele>
        <time>2020-06-26T10:33:33.000Z</time>
      </trkpt>
      <trkpt lat="45.62521" lon="6.79451">
        <ele>865.40002441406</ele>
        <time>2020-06-26T10:33:35.000Z</time>
      </trkpt>
      <trkpt lat="45.6252" lon="6.79461">
        <ele>865.79998779297</ele>
        <time>2020-06-26T10:33:37.000Z</time>
      </trkpt>
      <trkpt lat="45.62512" lon="6.79483">
        <ele>866.59997558594</ele>
        <time>2020-06-26T10:33:42.000Z</time>
      </trkpt>
      <trkpt lat="45.6251" lon="6.79487">
        <ele>866.59997558594</ele>
        <time>2020-06-26T10:33:43.000Z</time>
      </trkpt>
      <trkpt lat="45.62496" lon="6.79516">
        <ele>867.20001220703</ele>
        <time>2020-06-26T10:33:50.000Z</time>
      </trkpt>
      <trkpt lat="45.62492" lon="6.79523">
        <ele>867.59997558594</ele>
        <time>2020-06-26T10:33:52.000Z</time>
      </trkpt>
      <trkpt lat="45.62479" lon="6.79547">
        <ele>868.59997558594</ele>
        <time>2020-06-26T10:33:58.000Z</time>
      </trkpt>
      <trkpt lat="45.62466" lon="6.79574">
        <ele>869.40002441406</ele>
        <time>2020-06-26T10:34:05.000Z</time>
      </trkpt>
      <trkpt lat="45.62461" lon="6.79581">
        <ele>869.79998779297</ele>
        <time>2020-06-26T10:34:07.000Z</time>
      </trkpt>
      <trkpt lat="45.62452" lon="6.796">
        <ele>870.59997558594</ele>
        <time>2020-06-26T10:34:12.000Z</time>
      </trkpt>
      <trkpt lat="45.6245" lon="6.79604">
        <ele>871</ele>
        <time>2020-06-26T10:34:13.000Z</time>
      </trkpt>
      <trkpt lat="45.62439" lon="6.79625">
        <ele>872.20001220703</ele>
        <time>2020-06-26T10:34:18.000Z</time>
      </trkpt>
      <trkpt lat="45.62435" lon="6.79634">
        <ele>872.59997558594</ele>
        <time>2020-06-26T10:34:20.000Z</time>
      </trkpt>
      <trkpt lat="45.62427" lon="6.79653">
        <ele>873.20001220703</ele>
        <time>2020-06-26T10:34:24.000Z</time>
      </trkpt>
      <trkpt lat="45.62423" lon="6.79662">
        <ele>873.40002441406</ele>
        <time>2020-06-26T10:34:26.000Z</time>
      </trkpt>
      <trkpt lat="45.6241" lon="6.7969">
        <ele>874.40002441406</ele>
        <time>2020-06-26T10:34:32.000Z</time>
      </trkpt>
      <trkpt lat="45.62406" lon="6.797">
        <ele>874.79998779297</ele>
        <time>2020-06-26T10:34:34.000Z</time>
      </trkpt>
      <trkpt lat="45.62389" lon="6.79738">
        <ele>875.59997558594</ele>
        <time>2020-06-26T10:34:42.000Z</time>
      </trkpt>
      <trkpt lat="45.62386" lon="6.79743">
        <ele>875.79998779297</ele>
        <time>2020-06-26T10:34:43.000Z</time>
      </trkpt>
      <trkpt lat="45.62378" lon="6.79762">
        <ele>876.59997558594</ele>
        <time>2020-06-26T10:34:47.000Z</time>
      </trkpt>
      <trkpt lat="45.62363" lon="6.79795">
        <ele>877.40002441406</ele>
        <time>2020-06-26T10:34:54.000Z</time>
      </trkpt>
      <trkpt lat="45.62361" lon="6.79799">
        <ele>878</ele>
        <time>2020-06-26T10:34:55.000Z</time>
      </trkpt>
      <trkpt lat="45.62349" lon="6.79822">
        <ele>879</ele>
        <time>2020-06-26T10:35:00.000Z</time>
      </trkpt>
      <trkpt lat="45.62341" lon="6.79839">
        <ele>880</ele>
        <time>2020-06-26T10:35:04.000Z</time>
      </trkpt>
      <trkpt lat="45.62339" lon="6.79843">
        <ele>880.20001220703</ele>
        <time>2020-06-26T10:35:05.000Z</time>
      </trkpt>
      <trkpt lat="45.62325" lon="6.7987">
        <ele>881.20001220703</ele>
        <time>2020-06-26T10:35:11.000Z</time>
      </trkpt>
      <trkpt lat="45.62323" lon="6.79874">
        <ele>881.40002441406</ele>
        <time>2020-06-26T10:35:12.000Z</time>
      </trkpt>
      <trkpt lat="45.62316" lon="6.79889">
        <ele>881.79998779297</ele>
        <time>2020-06-26T10:35:15.000Z</time>
      </trkpt>
      <trkpt lat="45.6231" lon="6.79905">
        <ele>882.20001220703</ele>
        <time>2020-06-26T10:35:18.000Z</time>
      </trkpt>
      <trkpt lat="45.62308" lon="6.7991">
        <ele>882.40002441406</ele>
        <time>2020-06-26T10:35:19.000Z</time>
      </trkpt>
      <trkpt lat="45.62297" lon="6.7994">
        <ele>883.40002441406</ele>
        <time>2020-06-26T10:35:25.000Z</time>
      </trkpt>
      <trkpt lat="45.62282" lon="6.79965">
        <ele>884.40002441406</ele>
        <time>2020-06-26T10:35:31.000Z</time>
      </trkpt>
      <trkpt lat="45.62279" lon="6.79969">
        <ele>884.40002441406</ele>
        <time>2020-06-26T10:35:32.000Z</time>
      </trkpt>
      <trkpt lat="45.62266" lon="6.79984">
        <ele>885.40002441406</ele>
        <time>2020-06-26T10:35:36.000Z</time>
      </trkpt>
      <trkpt lat="45.62263" lon="6.79988">
        <ele>885.59997558594</ele>
        <time>2020-06-26T10:35:37.000Z</time>
      </trkpt>
      <trkpt lat="45.62251" lon="6.80005">
        <ele>886.40002441406</ele>
        <time>2020-06-26T10:35:42.000Z</time>
      </trkpt>
      <trkpt lat="45.62245" lon="6.80012">
        <ele>886.40002441406</ele>
        <time>2020-06-26T10:35:44.000Z</time>
      </trkpt>
      <trkpt lat="45.6223" lon="6.80036">
        <ele>887.40002441406</ele>
        <time>2020-06-26T10:35:49.000Z</time>
      </trkpt>
      <trkpt lat="45.62227" lon="6.8004">
        <ele>887.40002441406</ele>
        <time>2020-06-26T10:35:50.000Z</time>
      </trkpt>
      <trkpt lat="45.62216" lon="6.80058">
        <ele>888.40002441406</ele>
        <time>2020-06-26T10:35:54.000Z</time>
      </trkpt>
      <trkpt lat="45.62212" lon="6.80068">
        <ele>888.79998779297</ele>
        <time>2020-06-26T10:35:56.000Z</time>
      </trkpt>
      <trkpt lat="45.62209" lon="6.80073">
        <ele>888.79998779297</ele>
        <time>2020-06-26T10:35:57.000Z</time>
      </trkpt>
      <trkpt lat="45.62202" lon="6.80088">
        <ele>889.20001220703</ele>
        <time>2020-06-26T10:36:00.000Z</time>
      </trkpt>
      <trkpt lat="45.62198" lon="6.80098">
        <ele>889.40002441406</ele>
        <time>2020-06-26T10:36:02.000Z</time>
      </trkpt>
      <trkpt lat="45.62189" lon="6.80118">
        <ele>890.20001220703</ele>
        <time>2020-06-26T10:36:06.000Z</time>
      </trkpt>
      <trkpt lat="45.62184" lon="6.80129">
        <ele>890.40002441406</ele>
        <time>2020-06-26T10:36:08.000Z</time>
      </trkpt>
      <trkpt lat="45.62179" lon="6.8014">
        <ele>890.79998779297</ele>
        <time>2020-06-26T10:36:10.000Z</time>
      </trkpt>
      <trkpt lat="45.62173" lon="6.8015">
        <ele>891</ele>
        <time>2020-06-26T10:36:12.000Z</time>
      </trkpt>
      <trkpt lat="45.62169" lon="6.80168">
        <ele>891.40002441406</ele>
        <time>2020-06-26T10:36:15.000Z</time>
      </trkpt>
      <trkpt lat="45.6217" lon="6.80174">
        <ele>891.59997558594</ele>
        <time>2020-06-26T10:36:16.000Z</time>
      </trkpt>
      <trkpt lat="45.62171" lon="6.80179">
        <ele>891.59997558594</ele>
        <time>2020-06-26T10:36:17.000Z</time>
      </trkpt>
      <trkpt lat="45.62172" lon="6.80196">
        <ele>891.79998779297</ele>
        <time>2020-06-26T10:36:20.000Z</time>
      </trkpt>
      <trkpt lat="45.62164" lon="6.8022">
        <ele>892.59997558594</ele>
        <time>2020-06-26T10:36:25.000Z</time>
      </trkpt>
      <trkpt lat="45.62159" lon="6.80234">
        <ele>893.59997558594</ele>
        <time>2020-06-26T10:36:28.000Z</time>
      </trkpt>
      <trkpt lat="45.62152" lon="6.80256">
        <ele>894.59997558594</ele>
        <time>2020-06-26T10:36:33.000Z</time>
      </trkpt>
      <trkpt lat="45.62141" lon="6.8029">
        <ele>896</ele>
        <time>2020-06-26T10:36:40.000Z</time>
      </trkpt>
      <trkpt lat="45.62139" lon="6.80296">
        <ele>896.20001220703</ele>
        <time>2020-06-26T10:36:41.000Z</time>
      </trkpt>
      <trkpt lat="45.62131" lon="6.80325">
        <ele>897.20001220703</ele>
        <time>2020-06-26T10:36:46.000Z</time>
      </trkpt>
      <trkpt lat="45.62125" lon="6.80346">
        <ele>898.40002441406</ele>
        <time>2020-06-26T10:36:50.000Z</time>
      </trkpt>
      <trkpt lat="45.62117" lon="6.80371">
        <ele>899.40002441406</ele>
        <time>2020-06-26T10:36:55.000Z</time>
      </trkpt>
      <trkpt lat="45.62114" lon="6.80381">
        <ele>899.59997558594</ele>
        <time>2020-06-26T10:36:57.000Z</time>
      </trkpt>
      <trkpt lat="45.62106" lon="6.80406">
        <ele>900.59997558594</ele>
        <time>2020-06-26T10:37:02.000Z</time>
      </trkpt>
      <trkpt lat="45.62104" lon="6.80416">
        <ele>901</ele>
        <time>2020-06-26T10:37:04.000Z</time>
      </trkpt>
      <trkpt lat="45.62099" lon="6.80437">
        <ele>901.59997558594</ele>
        <time>2020-06-26T10:37:08.000Z</time>
      </trkpt>
      <trkpt lat="45.62096" lon="6.80453">
        <ele>902</ele>
        <time>2020-06-26T10:37:11.000Z</time>
      </trkpt>
      <trkpt lat="45.62093" lon="6.80475">
        <ele>902.79998779297</ele>
        <time>2020-06-26T10:37:15.000Z</time>
      </trkpt>
      <trkpt lat="45.62092" lon="6.80501">
        <ele>903.79998779297</ele>
        <time>2020-06-26T10:37:20.000Z</time>
      </trkpt>
      <trkpt lat="45.62092" lon="6.8053">
        <ele>904.79998779297</ele>
        <time>2020-06-26T10:37:26.000Z</time>
      </trkpt>
      <trkpt lat="45.62093" lon="6.80539">
        <ele>905.40002441406</ele>
        <time>2020-06-26T10:37:28.000Z</time>
      </trkpt>
      <trkpt lat="45.62094" lon="6.80563">
        <ele>906</ele>
        <time>2020-06-26T10:37:33.000Z</time>
      </trkpt>
      <trkpt lat="45.62095" lon="6.80572">
        <ele>906.40002441406</ele>
        <time>2020-06-26T10:37:35.000Z</time>
      </trkpt>
      <trkpt lat="45.62095" lon="6.8059">
        <ele>907</ele>
        <time>2020-06-26T10:37:39.000Z</time>
      </trkpt>
      <trkpt lat="45.62096" lon="6.80606">
        <ele>907.40002441406</ele>
        <time>2020-06-26T10:37:42.000Z</time>
      </trkpt>
      <trkpt lat="45.62098" lon="6.80625">
        <ele>908</ele>
        <time>2020-06-26T10:37:46.000Z</time>
      </trkpt>
      <trkpt lat="45.621" lon="6.80656">
        <ele>909</ele>
        <time>2020-06-26T10:37:52.000Z</time>
      </trkpt>
      <trkpt lat="45.621" lon="6.80661">
        <ele>909.20001220703</ele>
        <time>2020-06-26T10:37:53.000Z</time>
      </trkpt>
      <trkpt lat="45.62103" lon="6.8069">
        <ele>910.40002441406</ele>
        <time>2020-06-26T10:37:59.000Z</time>
      </trkpt>
      <trkpt lat="45.62103" lon="6.80695">
        <ele>910.59997558594</ele>
        <time>2020-06-26T10:38:00.000Z</time>
      </trkpt>
      <trkpt lat="45.62104" lon="6.80715">
        <ele>911.40002441406</ele>
        <time>2020-06-26T10:38:04.000Z</time>
      </trkpt>
      <trkpt lat="45.62106" lon="6.80738">
        <ele>912.40002441406</ele>
        <time>2020-06-26T10:38:09.000Z</time>
      </trkpt>
      <trkpt lat="45.62106" lon="6.80743">
        <ele>912.59997558594</ele>
        <time>2020-06-26T10:38:10.000Z</time>
      </trkpt>
      <trkpt lat="45.62108" lon="6.80772">
        <ele>913.59997558594</ele>
        <time>2020-06-26T10:38:16.000Z</time>
      </trkpt>
      <trkpt lat="45.62109" lon="6.80786">
        <ele>914.20001220703</ele>
        <time>2020-06-26T10:38:19.000Z</time>
      </trkpt>
      <trkpt lat="45.62111" lon="6.808">
        <ele>914.79998779297</ele>
        <time>2020-06-26T10:38:22.000Z</time>
      </trkpt>
      <trkpt lat="45.62112" lon="6.80814">
        <ele>915</ele>
        <time>2020-06-26T10:38:25.000Z</time>
      </trkpt>
      <trkpt lat="45.62112" lon="6.80838">
        <ele>915.79998779297</ele>
        <time>2020-06-26T10:38:30.000Z</time>
      </trkpt>
      <trkpt lat="45.62114" lon="6.80857">
        <ele>916.20001220703</ele>
        <time>2020-06-26T10:38:34.000Z</time>
      </trkpt>
      <trkpt lat="45.62115" lon="6.80872">
        <ele>916.79998779297</ele>
        <time>2020-06-26T10:38:37.000Z</time>
      </trkpt>
      <trkpt lat="45.62117" lon="6.80902">
        <ele>917.79998779297</ele>
        <time>2020-06-26T10:38:43.000Z</time>
      </trkpt>
      <trkpt lat="45.62117" lon="6.80907">
        <ele>918.20001220703</ele>
        <time>2020-06-26T10:38:44.000Z</time>
      </trkpt>
      <trkpt lat="45.6212" lon="6.80942">
        <ele>919.20001220703</ele>
        <time>2020-06-26T10:38:51.000Z</time>
      </trkpt>
      <trkpt lat="45.62121" lon="6.80962">
        <ele>920</ele>
        <time>2020-06-26T10:38:55.000Z</time>
      </trkpt>
      <trkpt lat="45.62122" lon="6.80978">
        <ele>920.40002441406</ele>
        <time>2020-06-26T10:38:58.000Z</time>
      </trkpt>
      <trkpt lat="45.62124" lon="6.81017">
        <ele>921.20001220703</ele>
        <time>2020-06-26T10:39:06.000Z</time>
      </trkpt>
      <trkpt lat="45.62124" lon="6.81022">
        <ele>921.40002441406</ele>
        <time>2020-06-26T10:39:07.000Z</time>
      </trkpt>
      <trkpt lat="45.62129" lon="6.8105">
        <ele>922.79998779297</ele>
        <time>2020-06-26T10:39:13.000Z</time>
      </trkpt>
      <trkpt lat="45.62131" lon="6.81054">
        <ele>922.79998779297</ele>
        <time>2020-06-26T10:39:14.000Z</time>
      </trkpt>
      <trkpt lat="45.62146" lon="6.81069">
        <ele>923.59997558594</ele>
        <time>2020-06-26T10:39:19.000Z</time>
      </trkpt>
      <trkpt lat="45.62149" lon="6.8107">
        <ele>923.79998779297</ele>
        <time>2020-06-26T10:39:20.000Z</time>
      </trkpt>
      <trkpt lat="45.62162" lon="6.8107">
        <ele>924</ele>
        <time>2020-06-26T10:39:24.000Z</time>
      </trkpt>
      <trkpt lat="45.62178" lon="6.81059">
        <ele>924.79998779297</ele>
        <time>2020-06-26T10:39:29.000Z</time>
      </trkpt>
      <trkpt lat="45.62187" lon="6.81036">
        <ele>925.20001220703</ele>
        <time>2020-06-26T10:39:34.000Z</time>
      </trkpt>
      <trkpt lat="45.62194" lon="6.81006">
        <ele>925.79998779297</ele>
        <time>2020-06-26T10:39:40.000Z</time>
      </trkpt>
      <trkpt lat="45.62198" lon="6.80987">
        <ele>926.40002441406</ele>
        <time>2020-06-26T10:39:44.000Z</time>
      </trkpt>
      <trkpt lat="45.62201" lon="6.80973">
        <ele>927</ele>
        <time>2020-06-26T10:39:47.000Z</time>
      </trkpt>
      <trkpt lat="45.62208" lon="6.80937">
        <ele>927.79998779297</ele>
        <time>2020-06-26T10:39:55.000Z</time>
      </trkpt>
      <trkpt lat="45.62209" lon="6.80933">
        <ele>928</ele>
        <time>2020-06-26T10:39:56.000Z</time>
      </trkpt>
      <trkpt lat="45.62215" lon="6.80906">
        <ele>929.20001220703</ele>
        <time>2020-06-26T10:40:02.000Z</time>
      </trkpt>
      <trkpt lat="45.62219" lon="6.80887">
        <ele>930</ele>
        <time>2020-06-26T10:40:06.000Z</time>
      </trkpt>
      <trkpt lat="45.62221" lon="6.80882">
        <ele>930.20001220703</ele>
        <time>2020-06-26T10:40:07.000Z</time>
      </trkpt>
      <trkpt lat="45.62227" lon="6.80849">
        <ele>931.20001220703</ele>
        <time>2020-06-26T10:40:14.000Z</time>
      </trkpt>
      <trkpt lat="45.6223" lon="6.80835">
        <ele>931.79998779297</ele>
        <time>2020-06-26T10:40:17.000Z</time>
      </trkpt>
      <trkpt lat="45.62234" lon="6.80821">
        <ele>932.40002441406</ele>
        <time>2020-06-26T10:40:20.000Z</time>
      </trkpt>
      <trkpt lat="45.62241" lon="6.80811">
        <ele>933</ele>
        <time>2020-06-26T10:40:23.000Z</time>
      </trkpt>
      <trkpt lat="45.62245" lon="6.80811">
        <ele>933.20001220703</ele>
        <time>2020-06-26T10:40:24.000Z</time>
      </trkpt>
      <trkpt lat="45.62249" lon="6.80812">
        <ele>933.40002441406</ele>
        <time>2020-06-26T10:40:25.000Z</time>
      </trkpt>
      <trkpt lat="45.62252" lon="6.80814">
        <ele>933.59997558594</ele>
        <time>2020-06-26T10:40:26.000Z</time>
      </trkpt>
      <trkpt lat="45.62257" lon="6.80831">
        <ele>934</ele>
        <time>2020-06-26T10:40:30.000Z</time>
      </trkpt>
      <trkpt lat="45.62258" lon="6.80836">
        <ele>934.20001220703</ele>
        <time>2020-06-26T10:40:31.000Z</time>
      </trkpt>
      <trkpt lat="45.62259" lon="6.80845">
        <ele>934.40002441406</ele>
        <time>2020-06-26T10:40:33.000Z</time>
      </trkpt>
      <trkpt lat="45.62261" lon="6.80864">
        <ele>935.20001220703</ele>
        <time>2020-06-26T10:40:37.000Z</time>
      </trkpt>
      <trkpt lat="45.62263" lon="6.80874">
        <ele>935.79998779297</ele>
        <time>2020-06-26T10:40:39.000Z</time>
      </trkpt>
      <trkpt lat="45.62265" lon="6.80892">
        <ele>936.79998779297</ele>
        <time>2020-06-26T10:40:43.000Z</time>
      </trkpt>
      <trkpt lat="45.62268" lon="6.80918">
        <ele>938</ele>
        <time>2020-06-26T10:40:49.000Z</time>
      </trkpt>
      <trkpt lat="45.62271" lon="6.80935">
        <ele>939</ele>
        <time>2020-06-26T10:40:53.000Z</time>
      </trkpt>
      <trkpt lat="45.62271" lon="6.80939">
        <ele>939.20001220703</ele>
        <time>2020-06-26T10:40:54.000Z</time>
      </trkpt>
      <trkpt lat="45.62275" lon="6.80964">
        <ele>940.20001220703</ele>
        <time>2020-06-26T10:41:00.000Z</time>
      </trkpt>
      <trkpt lat="45.62277" lon="6.80985">
        <ele>941.40002441406</ele>
        <time>2020-06-26T10:41:05.000Z</time>
      </trkpt>
      <trkpt lat="45.62278" lon="6.8099">
        <ele>941.59997558594</ele>
        <time>2020-06-26T10:41:06.000Z</time>
      </trkpt>
      <trkpt lat="45.62279" lon="6.81002">
        <ele>942.40002441406</ele>
        <time>2020-06-26T10:41:09.000Z</time>
      </trkpt>
      <trkpt lat="45.62283" lon="6.81032">
        <ele>943.59997558594</ele>
        <time>2020-06-26T10:41:16.000Z</time>
      </trkpt>
      <trkpt lat="45.62287" lon="6.81061">
        <ele>944.79998779297</ele>
        <time>2020-06-26T10:41:23.000Z</time>
      </trkpt>
      <trkpt lat="45.62291" lon="6.81082">
        <ele>945.79998779297</ele>
        <time>2020-06-26T10:41:28.000Z</time>
      </trkpt>
      <trkpt lat="45.62299" lon="6.81099">
        <ele>946.59997558594</ele>
        <time>2020-06-26T10:41:33.000Z</time>
      </trkpt>
      <trkpt lat="45.62302" lon="6.81102">
        <ele>947</ele>
        <time>2020-06-26T10:41:34.000Z</time>
      </trkpt>
      <trkpt lat="45.6231" lon="6.81102">
        <ele>947.59997558594</ele>
        <time>2020-06-26T10:41:37.000Z</time>
      </trkpt>
      <trkpt lat="45.62315" lon="6.81098">
        <ele>948</ele>
        <time>2020-06-26T10:41:39.000Z</time>
      </trkpt>
      <trkpt lat="45.62321" lon="6.81088">
        <ele>948.40002441406</ele>
        <time>2020-06-26T10:41:42.000Z</time>
      </trkpt>
      <trkpt lat="45.62329" lon="6.81071">
        <ele>949</ele>
        <time>2020-06-26T10:41:47.000Z</time>
      </trkpt>
      <trkpt lat="45.62335" lon="6.81056">
        <ele>949.59997558594</ele>
        <time>2020-06-26T10:41:51.000Z</time>
      </trkpt>
      <trkpt lat="45.62343" lon="6.8104">
        <ele>950.40002441406</ele>
        <time>2020-06-26T10:41:56.000Z</time>
      </trkpt>
      <trkpt lat="45.62348" lon="6.8103">
        <ele>951.20001220703</ele>
        <time>2020-06-26T10:41:59.000Z</time>
      </trkpt>
      <trkpt lat="45.62349" lon="6.81027">
        <ele>951.40002441406</ele>
        <time>2020-06-26T10:42:00.000Z</time>
      </trkpt>
      <trkpt lat="45.62358" lon="6.81005">
        <ele>952.59997558594</ele>
        <time>2020-06-26T10:42:06.000Z</time>
      </trkpt>
      <trkpt lat="45.6236" lon="6.81002">
        <ele>952.79998779297</ele>
        <time>2020-06-26T10:42:07.000Z</time>
      </trkpt>
      <trkpt lat="45.62369" lon="6.80984">
        <ele>953.59997558594</ele>
        <time>2020-06-26T10:42:13.000Z</time>
      </trkpt>
      <trkpt lat="45.62372" lon="6.80977">
        <ele>954</ele>
        <time>2020-06-26T10:42:15.000Z</time>
      </trkpt>
      <trkpt lat="45.62377" lon="6.80965">
        <ele>954.59997558594</ele>
        <time>2020-06-26T10:42:18.000Z</time>
      </trkpt>
      <trkpt lat="45.62385" lon="6.80946">
        <ele>955.79998779297</ele>
        <time>2020-06-26T10:42:23.000Z</time>
      </trkpt>
      <trkpt lat="45.62387" lon="6.80942">
        <ele>956</ele>
        <time>2020-06-26T10:42:24.000Z</time>
      </trkpt>
      <trkpt lat="45.62395" lon="6.80923">
        <ele>956.79998779297</ele>
        <time>2020-06-26T10:42:29.000Z</time>
      </trkpt>
      <trkpt lat="45.62404" lon="6.80899">
        <ele>958</ele>
        <time>2020-06-26T10:42:35.000Z</time>
      </trkpt>
      <trkpt lat="45.62413" lon="6.80877">
        <ele>959</ele>
        <time>2020-06-26T10:42:41.000Z</time>
      </trkpt>
      <trkpt lat="45.62422" lon="6.80855">
        <ele>959.79998779297</ele>
        <time>2020-06-26T10:42:47.000Z</time>
      </trkpt>
      <trkpt lat="45.62424" lon="6.80852">
        <ele>960.20001220703</ele>
        <time>2020-06-26T10:42:48.000Z</time>
      </trkpt>
      <trkpt lat="45.62436" lon="6.80823">
        <ele>961</ele>
        <time>2020-06-26T10:42:56.000Z</time>
      </trkpt>
      <trkpt lat="45.62438" lon="6.80819">
        <ele>961.20001220703</ele>
        <time>2020-06-26T10:42:57.000Z</time>
      </trkpt>
      <trkpt lat="45.62447" lon="6.80809">
        <ele>962.20001220703</ele>
        <time>2020-06-26T10:43:01.000Z</time>
      </trkpt>
      <trkpt lat="45.6245" lon="6.80809">
        <ele>962.59997558594</ele>
        <time>2020-06-26T10:43:02.000Z</time>
      </trkpt>
      <trkpt lat="45.62456" lon="6.8081">
        <ele>963.40002441406</ele>
        <time>2020-06-26T10:43:04.000Z</time>
      </trkpt>
      <trkpt lat="45.62463" lon="6.80817">
        <ele>963.79998779297</ele>
        <time>2020-06-26T10:43:07.000Z</time>
      </trkpt>
      <trkpt lat="45.62467" lon="6.80831">
        <ele>964.40002441406</ele>
        <time>2020-06-26T10:43:11.000Z</time>
      </trkpt>
      <trkpt lat="45.62469" lon="6.8084">
        <ele>965</ele>
        <time>2020-06-26T10:43:13.000Z</time>
      </trkpt>
      <trkpt lat="45.6247" lon="6.80848">
        <ele>965.40002441406</ele>
        <time>2020-06-26T10:43:15.000Z</time>
      </trkpt>
      <trkpt lat="45.62471" lon="6.80865">
        <ele>966.59997558594</ele>
        <time>2020-06-26T10:43:19.000Z</time>
      </trkpt>
      <trkpt lat="45.62474" lon="6.80882">
        <ele>967.40002441406</ele>
        <time>2020-06-26T10:43:23.000Z</time>
      </trkpt>
      <trkpt lat="45.62474" lon="6.80886">
        <ele>967.59997558594</ele>
        <time>2020-06-26T10:43:24.000Z</time>
      </trkpt>
      <trkpt lat="45.62478" lon="6.80907">
        <ele>968.59997558594</ele>
        <time>2020-06-26T10:43:29.000Z</time>
      </trkpt>
      <trkpt lat="45.6248" lon="6.8092">
        <ele>969.20001220703</ele>
        <time>2020-06-26T10:43:32.000Z</time>
      </trkpt>
      <trkpt lat="45.62481" lon="6.80924">
        <ele>969.79998779297</ele>
        <time>2020-06-26T10:43:33.000Z</time>
      </trkpt>
      <trkpt lat="45.62484" lon="6.80948">
        <ele>971</ele>
        <time>2020-06-26T10:43:39.000Z</time>
      </trkpt>
      <trkpt lat="45.62485" lon="6.8096">
        <ele>971.59997558594</ele>
        <time>2020-06-26T10:43:42.000Z</time>
      </trkpt>
      <trkpt lat="45.62487" lon="6.80968">
        <ele>972</ele>
        <time>2020-06-26T10:43:44.000Z</time>
      </trkpt>
      <trkpt lat="45.6249" lon="6.80997">
        <ele>973</ele>
        <time>2020-06-26T10:43:51.000Z</time>
      </trkpt>
      <trkpt lat="45.62491" lon="6.81002">
        <ele>973.20001220703</ele>
        <time>2020-06-26T10:43:52.000Z</time>
      </trkpt>
      <trkpt lat="45.62493" lon="6.81019">
        <ele>974.20001220703</ele>
        <time>2020-06-26T10:43:56.000Z</time>
      </trkpt>
      <trkpt lat="45.62496" lon="6.81037">
        <ele>975</ele>
        <time>2020-06-26T10:44:00.000Z</time>
      </trkpt>
      <trkpt lat="45.62496" lon="6.81041">
        <ele>975.20001220703</ele>
        <time>2020-06-26T10:44:01.000Z</time>
      </trkpt>
      <trkpt lat="45.62499" lon="6.81062">
        <ele>976.20001220703</ele>
        <time>2020-06-26T10:44:06.000Z</time>
      </trkpt>
      <trkpt lat="45.625" lon="6.81074">
        <ele>976.79998779297</ele>
        <time>2020-06-26T10:44:09.000Z</time>
      </trkpt>
      <trkpt lat="45.62502" lon="6.81086">
        <ele>977.40002441406</ele>
        <time>2020-06-26T10:44:12.000Z</time>
      </trkpt>
      <trkpt lat="45.62507" lon="6.81112">
        <ele>978.79998779297</ele>
        <time>2020-06-26T10:44:18.000Z</time>
      </trkpt>
      <trkpt lat="45.62512" lon="6.81145">
        <ele>979.59997558594</ele>
        <time>2020-06-26T10:44:26.000Z</time>
      </trkpt>
      <trkpt lat="45.62513" lon="6.81149">
        <ele>979.79998779297</ele>
        <time>2020-06-26T10:44:27.000Z</time>
      </trkpt>
      <trkpt lat="45.6252" lon="6.81164">
        <ele>981</ele>
        <time>2020-06-26T10:44:31.000Z</time>
      </trkpt>
      <trkpt lat="45.62522" lon="6.81166">
        <ele>981.20001220703</ele>
        <time>2020-06-26T10:44:32.000Z</time>
      </trkpt>
      <trkpt lat="45.62535" lon="6.81168">
        <ele>982</ele>
        <time>2020-06-26T10:44:36.000Z</time>
      </trkpt>
      <trkpt lat="45.62538" lon="6.81166">
        <ele>982</ele>
        <time>2020-06-26T10:44:37.000Z</time>
      </trkpt>
      <trkpt lat="45.62548" lon="6.81154">
        <ele>982.79998779297</ele>
        <time>2020-06-26T10:44:41.000Z</time>
      </trkpt>
      <trkpt lat="45.62552" lon="6.81141">
        <ele>983.20001220703</ele>
        <time>2020-06-26T10:44:44.000Z</time>
      </trkpt>
      <trkpt lat="45.62558" lon="6.81121">
        <ele>983.79998779297</ele>
        <time>2020-06-26T10:44:49.000Z</time>
      </trkpt>
      <trkpt lat="45.62561" lon="6.81113">
        <ele>984</ele>
        <time>2020-06-26T10:44:51.000Z</time>
      </trkpt>
      <trkpt lat="45.6257" lon="6.81085">
        <ele>984.79998779297</ele>
        <time>2020-06-26T10:44:58.000Z</time>
      </trkpt>
      <trkpt lat="45.62572" lon="6.81078">
        <ele>985.20001220703</ele>
        <time>2020-06-26T10:45:00.000Z</time>
      </trkpt>
      <trkpt lat="45.62579" lon="6.81059">
        <ele>986.20001220703</ele>
        <time>2020-06-26T10:45:05.000Z</time>
      </trkpt>
      <trkpt lat="45.6258" lon="6.81055">
        <ele>986.40002441406</ele>
        <time>2020-06-26T10:45:06.000Z</time>
      </trkpt>
      <trkpt lat="45.62588" lon="6.81032">
        <ele>987.59997558594</ele>
        <time>2020-06-26T10:45:12.000Z</time>
      </trkpt>
      <trkpt lat="45.62593" lon="6.81016">
        <ele>988.20001220703</ele>
        <time>2020-06-26T10:45:16.000Z</time>
      </trkpt>
      <trkpt lat="45.62597" lon="6.81008">
        <ele>988.59997558594</ele>
        <time>2020-06-26T10:45:18.000Z</time>
      </trkpt>
      <trkpt lat="45.62607" lon="6.80986">
        <ele>989.59997558594</ele>
        <time>2020-06-26T10:45:24.000Z</time>
      </trkpt>
      <trkpt lat="45.62612" lon="6.80976">
        <ele>990</ele>
        <time>2020-06-26T10:45:27.000Z</time>
      </trkpt>
      <trkpt lat="45.62618" lon="6.80966">
        <ele>990.79998779297</ele>
        <time>2020-06-26T10:45:30.000Z</time>
      </trkpt>
      <trkpt lat="45.62633" lon="6.80944">
        <ele>991.59997558594</ele>
        <time>2020-06-26T10:45:37.000Z</time>
      </trkpt>
      <trkpt lat="45.62635" lon="6.8094">
        <ele>991.59997558594</ele>
        <time>2020-06-26T10:45:38.000Z</time>
      </trkpt>
      <trkpt lat="45.62645" lon="6.80924">
        <ele>992.59997558594</ele>
        <time>2020-06-26T10:45:43.000Z</time>
      </trkpt>
      <trkpt lat="45.62657" lon="6.8091">
        <ele>993.20001220703</ele>
        <time>2020-06-26T10:45:48.000Z</time>
      </trkpt>
      <trkpt lat="45.62667" lon="6.80908">
        <ele>993.79998779297</ele>
        <time>2020-06-26T10:45:51.000Z</time>
      </trkpt>
      <trkpt lat="45.6267" lon="6.80909">
        <ele>993.79998779297</ele>
        <time>2020-06-26T10:45:52.000Z</time>
      </trkpt>
      <trkpt lat="45.62679" lon="6.80922">
        <ele>994</ele>
        <time>2020-06-26T10:45:56.000Z</time>
      </trkpt>
      <trkpt lat="45.6268" lon="6.8094">
        <ele>995</ele>
        <time>2020-06-26T10:46:00.000Z</time>
      </trkpt>
      <trkpt lat="45.6268" lon="6.80949">
        <ele>995.20001220703</ele>
        <time>2020-06-26T10:46:02.000Z</time>
      </trkpt>
      <trkpt lat="45.62679" lon="6.8097">
        <ele>996.20001220703</ele>
        <time>2020-06-26T10:46:07.000Z</time>
      </trkpt>
      <trkpt lat="45.62679" lon="6.80992">
        <ele>997.20001220703</ele>
        <time>2020-06-26T10:46:12.000Z</time>
      </trkpt>
      <trkpt lat="45.62679" lon="6.80997">
        <ele>997.20001220703</ele>
        <time>2020-06-26T10:46:13.000Z</time>
      </trkpt>
      <trkpt lat="45.62678" lon="6.81026">
        <ele>998.20001220703</ele>
        <time>2020-06-26T10:46:20.000Z</time>
      </trkpt>
      <trkpt lat="45.62678" lon="6.8103">
        <ele>998.40002441406</ele>
        <time>2020-06-26T10:46:21.000Z</time>
      </trkpt>
      <trkpt lat="45.62677" lon="6.81046">
        <ele>999.40002441406</ele>
        <time>2020-06-26T10:46:25.000Z</time>
      </trkpt>
      <trkpt lat="45.62677" lon="6.81063">
        <ele>1000.4000244141</ele>
        <time>2020-06-26T10:46:29.000Z</time>
      </trkpt>
      <trkpt lat="45.62677" lon="6.81076">
        <ele>1001</ele>
        <time>2020-06-26T10:46:32.000Z</time>
      </trkpt>
      <trkpt lat="45.6268" lon="6.81093">
        <ele>1001.5999755859</ele>
        <time>2020-06-26T10:46:36.000Z</time>
      </trkpt>
      <trkpt lat="45.62683" lon="6.81114">
        <ele>1002.799987793</ele>
        <time>2020-06-26T10:46:41.000Z</time>
      </trkpt>
      <trkpt lat="45.62684" lon="6.81123">
        <ele>1003</ele>
        <time>2020-06-26T10:46:43.000Z</time>
      </trkpt>
      <trkpt lat="45.62686" lon="6.81144">
        <ele>1003.799987793</ele>
        <time>2020-06-26T10:46:48.000Z</time>
      </trkpt>
      <trkpt lat="45.62688" lon="6.81166">
        <ele>1005</ele>
        <time>2020-06-26T10:46:53.000Z</time>
      </trkpt>
      <trkpt lat="45.62687" lon="6.81195">
        <ele>1006</ele>
        <time>2020-06-26T10:47:00.000Z</time>
      </trkpt>
      <trkpt lat="45.62687" lon="6.81199">
        <ele>1006.200012207</ele>
        <time>2020-06-26T10:47:01.000Z</time>
      </trkpt>
      <trkpt lat="45.62685" lon="6.8122">
        <ele>1007</ele>
        <time>2020-06-26T10:47:06.000Z</time>
      </trkpt>
      <trkpt lat="45.6268" lon="6.81236">
        <ele>1007.4000244141</ele>
        <time>2020-06-26T10:47:10.000Z</time>
      </trkpt>
      <trkpt lat="45.62672" lon="6.81247">
        <ele>1008.200012207</ele>
        <time>2020-06-26T10:47:14.000Z</time>
      </trkpt>
      <trkpt lat="45.62667" lon="6.81251">
        <ele>1008.4000244141</ele>
        <time>2020-06-26T10:47:16.000Z</time>
      </trkpt>
      <trkpt lat="45.62662" lon="6.81255">
        <ele>1009.200012207</ele>
        <time>2020-06-26T10:47:18.000Z</time>
      </trkpt>
      <trkpt lat="45.62649" lon="6.81268">
        <ele>1009.799987793</ele>
        <time>2020-06-26T10:47:23.000Z</time>
      </trkpt>
      <trkpt lat="45.62646" lon="6.8127">
        <ele>1010.200012207</ele>
        <time>2020-06-26T10:47:24.000Z</time>
      </trkpt>
      <trkpt lat="45.6263" lon="6.81285">
        <ele>1011.200012207</ele>
        <time>2020-06-26T10:47:30.000Z</time>
      </trkpt>
      <trkpt lat="45.62628" lon="6.81287">
        <ele>1011.4000244141</ele>
        <time>2020-06-26T10:47:31.000Z</time>
      </trkpt>
      <trkpt lat="45.6262" lon="6.81293">
        <ele>1012.200012207</ele>
        <time>2020-06-26T10:47:34.000Z</time>
      </trkpt>
      <trkpt lat="45.62611" lon="6.81299">
        <ele>1012.799987793</ele>
        <time>2020-06-26T10:47:37.000Z</time>
      </trkpt>
      <trkpt lat="45.62599" lon="6.81302">
        <ele>1013.4000244141</ele>
        <time>2020-06-26T10:47:41.000Z</time>
      </trkpt>
      <trkpt lat="45.62592" lon="6.81302">
        <ele>1014.200012207</ele>
        <time>2020-06-26T10:47:43.000Z</time>
      </trkpt>
      <trkpt lat="45.62586" lon="6.81301">
        <ele>1014.5999755859</ele>
        <time>2020-06-26T10:47:45.000Z</time>
      </trkpt>
      <trkpt lat="45.62572" lon="6.81293">
        <ele>1015.5999755859</ele>
        <time>2020-06-26T10:47:50.000Z</time>
      </trkpt>
      <trkpt lat="45.6257" lon="6.81291">
        <ele>1015.5999755859</ele>
        <time>2020-06-26T10:47:51.000Z</time>
      </trkpt>
      <trkpt lat="45.62559" lon="6.81282">
        <ele>1016.5999755859</ele>
        <time>2020-06-26T10:47:55.000Z</time>
      </trkpt>
      <trkpt lat="45.62549" lon="6.81274">
        <ele>1017.5999755859</ele>
        <time>2020-06-26T10:47:59.000Z</time>
      </trkpt>
      <trkpt lat="45.62546" lon="6.81273">
        <ele>1017.799987793</ele>
        <time>2020-06-26T10:48:00.000Z</time>
      </trkpt>
      <trkpt lat="45.62532" lon="6.8127">
        <ele>1018.799987793</ele>
        <time>2020-06-26T10:48:05.000Z</time>
      </trkpt>
      <trkpt lat="45.62529" lon="6.81271">
        <ele>1019</ele>
        <time>2020-06-26T10:48:06.000Z</time>
      </trkpt>
      <trkpt lat="45.62517" lon="6.8128">
        <ele>1019.799987793</ele>
        <time>2020-06-26T10:48:10.000Z</time>
      </trkpt>
      <trkpt lat="45.62509" lon="6.81287">
        <ele>1020.5999755859</ele>
        <time>2020-06-26T10:48:13.000Z</time>
      </trkpt>
      <trkpt lat="45.62502" lon="6.81295">
        <ele>1021</ele>
        <time>2020-06-26T10:48:16.000Z</time>
      </trkpt>
      <trkpt lat="45.62497" lon="6.81301">
        <ele>1021.200012207</ele>
        <time>2020-06-26T10:48:18.000Z</time>
      </trkpt>
      <trkpt lat="45.62486" lon="6.81309">
        <ele>1022</ele>
        <time>2020-06-26T10:48:22.000Z</time>
      </trkpt>
      <trkpt lat="45.62467" lon="6.8132">
        <ele>1022.799987793</ele>
        <time>2020-06-26T10:48:29.000Z</time>
      </trkpt>
      <trkpt lat="45.62465" lon="6.81322">
        <ele>1023</ele>
        <time>2020-06-26T10:48:30.000Z</time>
      </trkpt>
      <trkpt lat="45.62448" lon="6.81336">
        <ele>1024.1999511719</ele>
        <time>2020-06-26T10:48:36.000Z</time>
      </trkpt>
      <trkpt lat="45.62446" lon="6.81339">
        <ele>1024.5999755859</ele>
        <time>2020-06-26T10:48:37.000Z</time>
      </trkpt>
      <trkpt lat="45.62435" lon="6.81356">
        <ele>1025.1999511719</ele>
        <time>2020-06-26T10:48:42.000Z</time>
      </trkpt>
      <trkpt lat="45.62431" lon="6.81364">
        <ele>1025.4000244141</ele>
        <time>2020-06-26T10:48:44.000Z</time>
      </trkpt>
      <trkpt lat="45.62422" lon="6.81384">
        <ele>1026.4000244141</ele>
        <time>2020-06-26T10:48:49.000Z</time>
      </trkpt>
      <trkpt lat="45.62416" lon="6.81395">
        <ele>1027</ele>
        <time>2020-06-26T10:48:52.000Z</time>
      </trkpt>
      <trkpt lat="45.62408" lon="6.81409">
        <ele>1027.4000244141</ele>
        <time>2020-06-26T10:48:56.000Z</time>
      </trkpt>
      <trkpt lat="45.62404" lon="6.81415">
        <ele>1027.5999755859</ele>
        <time>2020-06-26T10:48:58.000Z</time>
      </trkpt>
      <trkpt lat="45.62393" lon="6.81426">
        <ele>1028.4000244141</ele>
        <time>2020-06-26T10:49:03.000Z</time>
      </trkpt>
      <trkpt lat="45.62388" lon="6.81429">
        <ele>1028.8000488281</ele>
        <time>2020-06-26T10:49:05.000Z</time>
      </trkpt>
      <trkpt lat="45.62379" lon="6.81434">
        <ele>1029.5999755859</ele>
        <time>2020-06-26T10:49:09.000Z</time>
      </trkpt>
      <trkpt lat="45.62368" lon="6.8144">
        <ele>1030.4000244141</ele>
        <time>2020-06-26T10:49:13.000Z</time>
      </trkpt>
      <trkpt lat="45.62362" lon="6.81442">
        <ele>1030.5999755859</ele>
        <time>2020-06-26T10:49:15.000Z</time>
      </trkpt>
      <trkpt lat="45.62348" lon="6.81448">
        <ele>1031.8000488281</ele>
        <time>2020-06-26T10:49:20.000Z</time>
      </trkpt>
      <trkpt lat="45.62333" lon="6.81458">
        <ele>1033</ele>
        <time>2020-06-26T10:49:25.000Z</time>
      </trkpt>
      <trkpt lat="45.62324" lon="6.81466">
        <ele>1033.5999755859</ele>
        <time>2020-06-26T10:49:28.000Z</time>
      </trkpt>
      <trkpt lat="45.62317" lon="6.81471">
        <ele>1034</ele>
        <time>2020-06-26T10:49:30.000Z</time>
      </trkpt>
      <trkpt lat="45.62296" lon="6.81489">
        <ele>1034.8000488281</ele>
        <time>2020-06-26T10:49:37.000Z</time>
      </trkpt>
      <trkpt lat="45.62277" lon="6.81503">
        <ele>1036</ele>
        <time>2020-06-26T10:49:44.000Z</time>
      </trkpt>
      <trkpt lat="45.62261" lon="6.81521">
        <ele>1037</ele>
        <time>2020-06-26T10:49:50.000Z</time>
      </trkpt>
      <trkpt lat="45.62259" lon="6.81524">
        <ele>1037.1999511719</ele>
        <time>2020-06-26T10:49:51.000Z</time>
      </trkpt>
      <trkpt lat="45.62249" lon="6.81548">
        <ele>1038.1999511719</ele>
        <time>2020-06-26T10:49:57.000Z</time>
      </trkpt>
      <trkpt lat="45.62248" lon="6.81553">
        <ele>1038.4000244141</ele>
        <time>2020-06-26T10:49:58.000Z</time>
      </trkpt>
      <trkpt lat="45.62245" lon="6.81571">
        <ele>1039.1999511719</ele>
        <time>2020-06-26T10:50:02.000Z</time>
      </trkpt>
      <trkpt lat="45.62239" lon="6.81595">
        <ele>1040.1999511719</ele>
        <time>2020-06-26T10:50:07.000Z</time>
      </trkpt>
      <trkpt lat="45.62238" lon="6.816">
        <ele>1040.1999511719</ele>
        <time>2020-06-26T10:50:08.000Z</time>
      </trkpt>
      <trkpt lat="45.62227" lon="6.81624">
        <ele>1041</ele>
        <time>2020-06-26T10:50:14.000Z</time>
      </trkpt>
      <trkpt lat="45.62222" lon="6.8163">
        <ele>1041.4000244141</ele>
        <time>2020-06-26T10:50:16.000Z</time>
      </trkpt>
      <trkpt lat="45.62205" lon="6.81644">
        <ele>1042.4000244141</ele>
        <time>2020-06-26T10:50:22.000Z</time>
      </trkpt>
      <trkpt lat="45.62202" lon="6.81647">
        <ele>1042.4000244141</ele>
        <time>2020-06-26T10:50:23.000Z</time>
      </trkpt>
      <trkpt lat="45.62185" lon="6.81661">
        <ele>1043.5999755859</ele>
        <time>2020-06-26T10:50:29.000Z</time>
      </trkpt>
      <trkpt lat="45.62171" lon="6.81672">
        <ele>1044.5999755859</ele>
        <time>2020-06-26T10:50:34.000Z</time>
      </trkpt>
      <trkpt lat="45.62161" lon="6.81682">
        <ele>1045.8000488281</ele>
        <time>2020-06-26T10:50:38.000Z</time>
      </trkpt>
      <trkpt lat="45.62144" lon="6.81703">
        <ele>1046.8000488281</ele>
        <time>2020-06-26T10:50:45.000Z</time>
      </trkpt>
      <trkpt lat="45.62142" lon="6.81707">
        <ele>1047</ele>
        <time>2020-06-26T10:50:46.000Z</time>
      </trkpt>
      <trkpt lat="45.62132" lon="6.81721">
        <ele>1047.8000488281</ele>
        <time>2020-06-26T10:50:50.000Z</time>
      </trkpt>
      <trkpt lat="45.62119" lon="6.81744">
        <ele>1049</ele>
        <time>2020-06-26T10:50:56.000Z</time>
      </trkpt>
      <trkpt lat="45.62104" lon="6.81779">
        <ele>1050</ele>
        <time>2020-06-26T10:51:04.000Z</time>
      </trkpt>
      <trkpt lat="45.62103" lon="6.81784">
        <ele>1050</ele>
        <time>2020-06-26T10:51:05.000Z</time>
      </trkpt>
      <trkpt lat="45.62094" lon="6.81811">
        <ele>1051</ele>
        <time>2020-06-26T10:51:11.000Z</time>
      </trkpt>
      <trkpt lat="45.62089" lon="6.81835">
        <ele>1051.8000488281</ele>
        <time>2020-06-26T10:51:17.000Z</time>
      </trkpt>
      <trkpt lat="45.62088" lon="6.81839">
        <ele>1052</ele>
        <time>2020-06-26T10:51:18.000Z</time>
      </trkpt>
      <trkpt lat="45.62084" lon="6.81862">
        <ele>1052.5999755859</ele>
        <time>2020-06-26T10:51:23.000Z</time>
      </trkpt>
      <trkpt lat="45.62083" lon="6.81872">
        <ele>1053</ele>
        <time>2020-06-26T10:51:25.000Z</time>
      </trkpt>
      <trkpt lat="45.62078" lon="6.81899">
        <ele>1054</ele>
        <time>2020-06-26T10:51:30.000Z</time>
      </trkpt>
      <trkpt lat="45.62075" lon="6.81909">
        <ele>1054.1999511719</ele>
        <time>2020-06-26T10:51:32.000Z</time>
      </trkpt>
      <trkpt lat="45.6207" lon="6.81934">
        <ele>1055.1999511719</ele>
        <time>2020-06-26T10:51:37.000Z</time>
      </trkpt>
      <trkpt lat="45.62066" lon="6.81943">
        <ele>1055.4000244141</ele>
        <time>2020-06-26T10:51:39.000Z</time>
      </trkpt>
      <trkpt lat="45.6206" lon="6.81956">
        <ele>1055.5999755859</ele>
        <time>2020-06-26T10:51:42.000Z</time>
      </trkpt>
      <trkpt lat="45.62046" lon="6.81984">
        <ele>1056.4000244141</ele>
        <time>2020-06-26T10:51:48.000Z</time>
      </trkpt>
      <trkpt lat="45.62038" lon="6.81996">
        <ele>1056.8000488281</ele>
        <time>2020-06-26T10:51:51.000Z</time>
      </trkpt>
      <trkpt lat="45.62034" lon="6.82004">
        <ele>1057.1999511719</ele>
        <time>2020-06-26T10:51:53.000Z</time>
      </trkpt>
      <trkpt lat="45.6202" lon="6.82029">
        <ele>1058.5999755859</ele>
        <time>2020-06-26T10:51:59.000Z</time>
      </trkpt>
      <trkpt lat="45.62012" lon="6.82045">
        <ele>1059.1999511719</ele>
        <time>2020-06-26T10:52:03.000Z</time>
      </trkpt>
      <trkpt lat="45.62008" lon="6.82052">
        <ele>1059.8000488281</ele>
        <time>2020-06-26T10:52:05.000Z</time>
      </trkpt>
      <trkpt lat="45.61997" lon="6.82071">
        <ele>1060.8000488281</ele>
        <time>2020-06-26T10:52:10.000Z</time>
      </trkpt>
      <trkpt lat="45.61991" lon="6.82081">
        <ele>1061.8000488281</ele>
        <time>2020-06-26T10:52:13.000Z</time>
      </trkpt>
      <trkpt lat="45.61987" lon="6.82086">
        <ele>1062.1999511719</ele>
        <time>2020-06-26T10:52:15.000Z</time>
      </trkpt>
      <trkpt lat="45.61982" lon="6.82093">
        <ele>1062.5999755859</ele>
        <time>2020-06-26T10:52:18.000Z</time>
      </trkpt>
      <trkpt lat="45.61978" lon="6.82102">
        <ele>1063.1999511719</ele>
        <time>2020-06-26T10:52:20.000Z</time>
      </trkpt>
      <trkpt lat="45.61968" lon="6.82128">
        <ele>1064</ele>
        <time>2020-06-26T10:52:26.000Z</time>
      </trkpt>
      <trkpt lat="45.61957" lon="6.82145">
        <ele>1065.1999511719</ele>
        <time>2020-06-26T10:52:31.000Z</time>
      </trkpt>
      <trkpt lat="45.61956" lon="6.82148">
        <ele>1065.4000244141</ele>
        <time>2020-06-26T10:52:32.000Z</time>
      </trkpt>
      <trkpt lat="45.61948" lon="6.82164">
        <ele>1066.4000244141</ele>
        <time>2020-06-26T10:52:37.000Z</time>
      </trkpt>
      <trkpt lat="45.61946" lon="6.82168">
        <ele>1066.5999755859</ele>
        <time>2020-06-26T10:52:38.000Z</time>
      </trkpt>
      <trkpt lat="45.61938" lon="6.82183">
        <ele>1067.4000244141</ele>
        <time>2020-06-26T10:52:42.000Z</time>
      </trkpt>
      <trkpt lat="45.6193" lon="6.82203">
        <ele>1068.4000244141</ele>
        <time>2020-06-26T10:52:47.000Z</time>
      </trkpt>
      <trkpt lat="45.61929" lon="6.82208">
        <ele>1068.5999755859</ele>
        <time>2020-06-26T10:52:48.000Z</time>
      </trkpt>
      <trkpt lat="45.61919" lon="6.82232">
        <ele>1069.5999755859</ele>
        <time>2020-06-26T10:52:54.000Z</time>
      </trkpt>
      <trkpt lat="45.61916" lon="6.82239">
        <ele>1069.8000488281</ele>
        <time>2020-06-26T10:52:56.000Z</time>
      </trkpt>
      <trkpt lat="45.61908" lon="6.82257">
        <ele>1070.8000488281</ele>
        <time>2020-06-26T10:53:01.000Z</time>
      </trkpt>
      <trkpt lat="45.61904" lon="6.82267">
        <ele>1071.1999511719</ele>
        <time>2020-06-26T10:53:04.000Z</time>
      </trkpt>
      <trkpt lat="45.61898" lon="6.82282">
        <ele>1071.8000488281</ele>
        <time>2020-06-26T10:53:08.000Z</time>
      </trkpt>
      <trkpt lat="45.61892" lon="6.82302">
        <ele>1073</ele>
        <time>2020-06-26T10:53:13.000Z</time>
      </trkpt>
      <trkpt lat="45.61891" lon="6.82323">
        <ele>1074</ele>
        <time>2020-06-26T10:53:18.000Z</time>
      </trkpt>
      <trkpt lat="45.61889" lon="6.82331">
        <ele>1074.1999511719</ele>
        <time>2020-06-26T10:53:20.000Z</time>
      </trkpt>
      <trkpt lat="45.61884" lon="6.8235">
        <ele>1075</ele>
        <time>2020-06-26T10:53:24.000Z</time>
      </trkpt>
      <trkpt lat="45.6188" lon="6.82364">
        <ele>1075.4000244141</ele>
        <time>2020-06-26T10:53:27.000Z</time>
      </trkpt>
      <trkpt lat="45.61866" lon="6.82389">
        <ele>1075.8000488281</ele>
        <time>2020-06-26T10:53:34.000Z</time>
      </trkpt>
      <trkpt lat="45.61861" lon="6.82393">
        <ele>1076</ele>
        <time>2020-06-26T10:53:36.000Z</time>
      </trkpt>
      <trkpt lat="45.61848" lon="6.82401">
        <ele>1077</ele>
        <time>2020-06-26T10:53:41.000Z</time>
      </trkpt>
      <trkpt lat="45.61844" lon="6.82404">
        <ele>1077.1999511719</ele>
        <time>2020-06-26T10:53:43.000Z</time>
      </trkpt>
      <trkpt lat="45.61837" lon="6.82415">
        <ele>1078.1999511719</ele>
        <time>2020-06-26T10:53:47.000Z</time>
      </trkpt>
      <trkpt lat="45.61835" lon="6.82419">
        <ele>1078.5999755859</ele>
        <time>2020-06-26T10:53:48.000Z</time>
      </trkpt>
      <trkpt lat="45.61831" lon="6.82435">
        <ele>1079.1999511719</ele>
        <time>2020-06-26T10:53:52.000Z</time>
      </trkpt>
      <trkpt lat="45.61826" lon="6.82451">
        <ele>1079.8000488281</ele>
        <time>2020-06-26T10:53:56.000Z</time>
      </trkpt>
      <trkpt lat="45.6182" lon="6.82467">
        <ele>1080.4000244141</ele>
        <time>2020-06-26T10:54:00.000Z</time>
      </trkpt>
      <trkpt lat="45.61815" lon="6.82487">
        <ele>1081.1999511719</ele>
        <time>2020-06-26T10:54:05.000Z</time>
      </trkpt>
      <trkpt lat="45.61813" lon="6.82496">
        <ele>1081.4000244141</ele>
        <time>2020-06-26T10:54:07.000Z</time>
      </trkpt>
      <trkpt lat="45.6181" lon="6.82517">
        <ele>1082.4000244141</ele>
        <time>2020-06-26T10:54:12.000Z</time>
      </trkpt>
      <trkpt lat="45.6181" lon="6.82526">
        <ele>1083.1999511719</ele>
        <time>2020-06-26T10:54:14.000Z</time>
      </trkpt>
      <trkpt lat="45.61809" lon="6.82533">
        <ele>1083.5999755859</ele>
        <time>2020-06-26T10:54:16.000Z</time>
      </trkpt>
      <trkpt lat="45.61809" lon="6.82558">
        <ele>1084.5999755859</ele>
        <time>2020-06-26T10:54:22.000Z</time>
      </trkpt>
      <trkpt lat="45.61811" lon="6.8258">
        <ele>1085.8000488281</ele>
        <time>2020-06-26T10:54:28.000Z</time>
      </trkpt>
      <trkpt lat="45.61811" lon="6.82583">
        <ele>1086.1999511719</ele>
        <time>2020-06-26T10:54:29.000Z</time>
      </trkpt>
      <trkpt lat="45.6181" lon="6.82596">
        <ele>1087</ele>
        <time>2020-06-26T10:54:32.000Z</time>
      </trkpt>
      <trkpt lat="45.61809" lon="6.82616">
        <ele>1087.8000488281</ele>
        <time>2020-06-26T10:54:36.000Z</time>
      </trkpt>
      <trkpt lat="45.61809" lon="6.8262">
        <ele>1088.1999511719</ele>
        <time>2020-06-26T10:54:37.000Z</time>
      </trkpt>
      <trkpt lat="45.6181" lon="6.82646">
        <ele>1089.4000244141</ele>
        <time>2020-06-26T10:54:42.000Z</time>
      </trkpt>
      <trkpt lat="45.61811" lon="6.82651">
        <ele>1089.5999755859</ele>
        <time>2020-06-26T10:54:43.000Z</time>
      </trkpt>
      <trkpt lat="45.61823" lon="6.82681">
        <ele>1090.1999511719</ele>
        <time>2020-06-26T10:54:50.000Z</time>
      </trkpt>
      <trkpt lat="45.61825" lon="6.82686">
        <ele>1090.4000244141</ele>
        <time>2020-06-26T10:54:51.000Z</time>
      </trkpt>
      <trkpt lat="45.61838" lon="6.82717">
        <ele>1091</ele>
        <time>2020-06-26T10:54:58.000Z</time>
      </trkpt>
      <trkpt lat="45.61846" lon="6.82734">
        <ele>1091.5999755859</ele>
        <time>2020-06-26T10:55:02.000Z</time>
      </trkpt>
      <trkpt lat="45.6185" lon="6.82752">
        <ele>1092.1999511719</ele>
        <time>2020-06-26T10:55:06.000Z</time>
      </trkpt>
      <trkpt lat="45.61852" lon="6.82761">
        <ele>1092.5999755859</ele>
        <time>2020-06-26T10:55:08.000Z</time>
      </trkpt>
      <trkpt lat="45.61854" lon="6.82782">
        <ele>1093.1999511719</ele>
        <time>2020-06-26T10:55:13.000Z</time>
      </trkpt>
      <trkpt lat="45.61855" lon="6.82786">
        <ele>1093.5999755859</ele>
        <time>2020-06-26T10:55:14.000Z</time>
      </trkpt>
      <trkpt lat="45.61857" lon="6.82806">
        <ele>1094.4000244141</ele>
        <time>2020-06-26T10:55:19.000Z</time>
      </trkpt>
      <trkpt lat="45.61857" lon="6.82824">
        <ele>1095.5999755859</ele>
        <time>2020-06-26T10:55:23.000Z</time>
      </trkpt>
      <trkpt lat="45.61857" lon="6.82833">
        <ele>1095.8000488281</ele>
        <time>2020-06-26T10:55:25.000Z</time>
      </trkpt>
      <trkpt lat="45.6186" lon="6.82865">
        <ele>1096.4000244141</ele>
        <time>2020-06-26T10:55:32.000Z</time>
      </trkpt>
      <trkpt lat="45.61863" lon="6.82873">
        <ele>1096.5999755859</ele>
        <time>2020-06-26T10:55:34.000Z</time>
      </trkpt>
      <trkpt lat="45.61867" lon="6.82886">
        <ele>1096.8000488281</ele>
        <time>2020-06-26T10:55:37.000Z</time>
      </trkpt>
      <trkpt lat="45.6188" lon="6.82918">
        <ele>1097</ele>
        <time>2020-06-26T10:55:44.000Z</time>
      </trkpt>
      <trkpt lat="45.61896" lon="6.82935">
        <ele>1097</ele>
        <time>2020-06-26T10:55:49.000Z</time>
      </trkpt>
      <trkpt lat="45.61906" lon="6.82943">
        <ele>1097.4000244141</ele>
        <time>2020-06-26T10:55:52.000Z</time>
      </trkpt>
      <trkpt lat="45.61915" lon="6.82952">
        <ele>1098</ele>
        <time>2020-06-26T10:55:55.000Z</time>
      </trkpt>
      <trkpt lat="45.61918" lon="6.82967">
        <ele>1098.5999755859</ele>
        <time>2020-06-26T10:55:58.000Z</time>
      </trkpt>
      <trkpt lat="45.61913" lon="6.82991">
        <ele>1098.8000488281</ele>
        <time>2020-06-26T10:56:03.000Z</time>
      </trkpt>
      <trkpt lat="45.61908" lon="6.83014">
        <ele>1099</ele>
        <time>2020-06-26T10:56:08.000Z</time>
      </trkpt>
      <trkpt lat="45.61899" lon="6.83048">
        <ele>1099.1999511719</ele>
        <time>2020-06-26T10:56:15.000Z</time>
      </trkpt>
      <trkpt lat="45.61885" lon="6.83069">
        <ele>1099.1999511719</ele>
        <time>2020-06-26T10:56:21.000Z</time>
      </trkpt>
      <trkpt lat="45.6188" lon="6.83074">
        <ele>1099.8000488281</ele>
        <time>2020-06-26T10:56:23.000Z</time>
      </trkpt>
      <trkpt lat="45.61872" lon="6.83081">
        <ele>1100.4000244141</ele>
        <time>2020-06-26T10:56:26.000Z</time>
      </trkpt>
      <trkpt lat="45.61863" lon="6.83083">
        <ele>1100.5999755859</ele>
        <time>2020-06-26T10:56:29.000Z</time>
      </trkpt>
      <trkpt lat="45.61859" lon="6.83083">
        <ele>1100.8000488281</ele>
        <time>2020-06-26T10:56:30.000Z</time>
      </trkpt>
      <trkpt lat="45.61855" lon="6.83083">
        <ele>1100.8000488281</ele>
        <time>2020-06-26T10:56:31.000Z</time>
      </trkpt>
      <trkpt lat="45.61843" lon="6.83084">
        <ele>1101.8000488281</ele>
        <time>2020-06-26T10:56:34.000Z</time>
      </trkpt>
      <trkpt lat="45.61832" lon="6.83088">
        <ele>1102.1999511719</ele>
        <time>2020-06-26T10:56:37.000Z</time>
      </trkpt>
      <trkpt lat="45.6182" lon="6.83091">
        <ele>1103</ele>
        <time>2020-06-26T10:56:40.000Z</time>
      </trkpt>
      <trkpt lat="45.61808" lon="6.83095">
        <ele>1103.5999755859</ele>
        <time>2020-06-26T10:56:43.000Z</time>
      </trkpt>
      <trkpt lat="45.6177" lon="6.8311">
        <ele>1103.8000488281</ele>
        <time>2020-06-26T10:56:52.000Z</time>
      </trkpt>
      <trkpt lat="45.61763" lon="6.83112">
        <ele>1103.8000488281</ele>
        <time>2020-06-26T10:56:54.000Z</time>
      </trkpt>
      <trkpt lat="45.61751" lon="6.83115">
        <ele>1104</ele>
        <time>2020-06-26T10:56:57.000Z</time>
      </trkpt>
      <trkpt lat="45.61736" lon="6.83124">
        <ele>1105</ele>
        <time>2020-06-26T10:57:02.000Z</time>
      </trkpt>
      <trkpt lat="45.61725" lon="6.83137">
        <ele>1105.5999755859</ele>
        <time>2020-06-26T10:57:06.000Z</time>
      </trkpt>
      <trkpt lat="45.61715" lon="6.83153">
        <ele>1106</ele>
        <time>2020-06-26T10:57:10.000Z</time>
      </trkpt>
      <trkpt lat="45.61709" lon="6.83159">
        <ele>1106</ele>
        <time>2020-06-26T10:57:12.000Z</time>
      </trkpt>
      <trkpt lat="45.61692" lon="6.83183">
        <ele>1107</ele>
        <time>2020-06-26T10:57:18.000Z</time>
      </trkpt>
      <trkpt lat="45.61674" lon="6.83206">
        <ele>1108</ele>
        <time>2020-06-26T10:57:24.000Z</time>
      </trkpt>
      <trkpt lat="45.61671" lon="6.83209">
        <ele>1108.1999511719</ele>
        <time>2020-06-26T10:57:25.000Z</time>
      </trkpt>
      <trkpt lat="45.61652" lon="6.83234">
        <ele>1108.8000488281</ele>
        <time>2020-06-26T10:57:31.000Z</time>
      </trkpt>
      <trkpt lat="45.61644" lon="6.83249">
        <ele>1109</ele>
        <time>2020-06-26T10:57:35.000Z</time>
      </trkpt>
      <trkpt lat="45.61642" lon="6.83253">
        <ele>1109.1999511719</ele>
        <time>2020-06-26T10:57:36.000Z</time>
      </trkpt>
      <trkpt lat="45.61634" lon="6.83273">
        <ele>1109.5999755859</ele>
        <time>2020-06-26T10:57:42.000Z</time>
      </trkpt>
      <trkpt lat="45.61626" lon="6.83295">
        <ele>1109.8000488281</ele>
        <time>2020-06-26T10:57:48.000Z</time>
      </trkpt>
      <trkpt lat="45.61622" lon="6.83308">
        <ele>1110.1999511719</ele>
        <time>2020-06-26T10:57:51.000Z</time>
      </trkpt>
      <trkpt lat="45.61618" lon="6.83332">
        <ele>1110.5999755859</ele>
        <time>2020-06-26T10:57:56.000Z</time>
      </trkpt>
      <trkpt lat="45.61616" lon="6.83352">
        <ele>1111.1999511719</ele>
        <time>2020-06-26T10:58:00.000Z</time>
      </trkpt>
      <trkpt lat="45.61611" lon="6.83373">
        <ele>1111.1999511719</ele>
        <time>2020-06-26T10:58:05.000Z</time>
      </trkpt>
      <trkpt lat="45.61605" lon="6.83408">
        <ele>1111.8000488281</ele>
        <time>2020-06-26T10:58:13.000Z</time>
      </trkpt>
      <trkpt lat="45.61603" lon="6.83417">
        <ele>1112</ele>
        <time>2020-06-26T10:58:15.000Z</time>
      </trkpt>
      <trkpt lat="45.61594" lon="6.8344">
        <ele>1112.4000244141</ele>
        <time>2020-06-26T10:58:20.000Z</time>
      </trkpt>
      <trkpt lat="45.61578" lon="6.83462">
        <ele>1112.8000488281</ele>
        <time>2020-06-26T10:58:26.000Z</time>
      </trkpt>
      <trkpt lat="45.61574" lon="6.83469">
        <ele>1113.1999511719</ele>
        <time>2020-06-26T10:58:28.000Z</time>
      </trkpt>
      <trkpt lat="45.61567" lon="6.83485">
        <ele>1113.8000488281</ele>
        <time>2020-06-26T10:58:32.000Z</time>
      </trkpt>
      <trkpt lat="45.61563" lon="6.83492">
        <ele>1114.1999511719</ele>
        <time>2020-06-26T10:58:34.000Z</time>
      </trkpt>
      <trkpt lat="45.61548" lon="6.83514">
        <ele>1115.1999511719</ele>
        <time>2020-06-26T10:58:40.000Z</time>
      </trkpt>
      <trkpt lat="45.61532" lon="6.83544">
        <ele>1116</ele>
        <time>2020-06-26T10:58:48.000Z</time>
      </trkpt>
      <trkpt lat="45.61531" lon="6.83549">
        <ele>1116.1999511719</ele>
        <time>2020-06-26T10:58:49.000Z</time>
      </trkpt>
      <trkpt lat="45.61517" lon="6.83575">
        <ele>1117.1999511719</ele>
        <time>2020-06-26T10:58:55.000Z</time>
      </trkpt>
      <trkpt lat="45.61498" lon="6.8361">
        <ele>1118</ele>
        <time>2020-06-26T10:59:03.000Z</time>
      </trkpt>
      <trkpt lat="45.61495" lon="6.83614">
        <ele>1118</ele>
        <time>2020-06-26T10:59:04.000Z</time>
      </trkpt>
      <trkpt lat="45.61487" lon="6.83638">
        <ele>1118.5999755859</ele>
        <time>2020-06-26T10:59:09.000Z</time>
      </trkpt>
      <trkpt lat="45.61481" lon="6.8366">
        <ele>1119.1999511719</ele>
        <time>2020-06-26T10:59:13.000Z</time>
      </trkpt>
      <trkpt lat="45.61476" lon="6.83674">
        <ele>1119.5999755859</ele>
        <time>2020-06-26T10:59:16.000Z</time>
      </trkpt>
      <trkpt lat="45.61464" lon="6.83691">
        <ele>1120.1999511719</ele>
        <time>2020-06-26T10:59:20.000Z</time>
      </trkpt>
      <trkpt lat="45.61451" lon="6.83708">
        <ele>1120.8000488281</ele>
        <time>2020-06-26T10:59:24.000Z</time>
      </trkpt>
      <trkpt lat="45.61436" lon="6.83727">
        <ele>1121</ele>
        <time>2020-06-26T10:59:29.000Z</time>
      </trkpt>
      <trkpt lat="45.61428" lon="6.8374">
        <ele>1121.5999755859</ele>
        <time>2020-06-26T10:59:32.000Z</time>
      </trkpt>
      <trkpt lat="45.61422" lon="6.83753">
        <ele>1122</ele>
        <time>2020-06-26T10:59:35.000Z</time>
      </trkpt>
      <trkpt lat="45.61417" lon="6.83772">
        <ele>1122.5999755859</ele>
        <time>2020-06-26T10:59:39.000Z</time>
      </trkpt>
      <trkpt lat="45.61414" lon="6.83787">
        <ele>1123</ele>
        <time>2020-06-26T10:59:42.000Z</time>
      </trkpt>
      <trkpt lat="45.6141" lon="6.83807">
        <ele>1123.5999755859</ele>
        <time>2020-06-26T10:59:46.000Z</time>
      </trkpt>
      <trkpt lat="45.61405" lon="6.83832">
        <ele>1124.1999511719</ele>
        <time>2020-06-26T10:59:51.000Z</time>
      </trkpt>
      <trkpt lat="45.61405" lon="6.83846">
        <ele>1124.8000488281</ele>
        <time>2020-06-26T10:59:54.000Z</time>
      </trkpt>
      <trkpt lat="45.61405" lon="6.83851">
        <ele>1125.1999511719</ele>
        <time>2020-06-26T10:59:55.000Z</time>
      </trkpt>
      <trkpt lat="45.61406" lon="6.8388">
        <ele>1126.4000244141</ele>
        <time>2020-06-26T11:00:00.000Z</time>
      </trkpt>
      <trkpt lat="45.61406" lon="6.83885">
        <ele>1126.5999755859</ele>
        <time>2020-06-26T11:00:01.000Z</time>
      </trkpt>
      <trkpt lat="45.61407" lon="6.83929">
        <ele>1127.1999511719</ele>
        <time>2020-06-26T11:00:09.000Z</time>
      </trkpt>
      <trkpt lat="45.61406" lon="6.83941">
        <ele>1127.4000244141</ele>
        <time>2020-06-26T11:00:11.000Z</time>
      </trkpt>
      <trkpt lat="45.61406" lon="6.83946">
        <ele>1127.5999755859</ele>
        <time>2020-06-26T11:00:12.000Z</time>
      </trkpt>
      <trkpt lat="45.61401" lon="6.83963">
        <ele>1128</ele>
        <time>2020-06-26T11:00:15.000Z</time>
      </trkpt>
      <trkpt lat="45.61388" lon="6.84001">
        <ele>1128.1999511719</ele>
        <time>2020-06-26T11:00:22.000Z</time>
      </trkpt>
      <trkpt lat="45.61378" lon="6.84037">
        <ele>1129.4000244141</ele>
        <time>2020-06-26T11:00:29.000Z</time>
      </trkpt>
      <trkpt lat="45.61364" lon="6.84068">
        <ele>1130.5999755859</ele>
        <time>2020-06-26T11:00:36.000Z</time>
      </trkpt>
      <trkpt lat="45.61362" lon="6.84073">
        <ele>1130.5999755859</ele>
        <time>2020-06-26T11:00:37.000Z</time>
      </trkpt>
      <trkpt lat="45.61356" lon="6.84093">
        <ele>1131.4000244141</ele>
        <time>2020-06-26T11:00:41.000Z</time>
      </trkpt>
      <trkpt lat="45.61346" lon="6.84125">
        <ele>1132.1999511719</ele>
        <time>2020-06-26T11:00:47.000Z</time>
      </trkpt>
      <trkpt lat="45.61343" lon="6.84135">
        <ele>1132.4000244141</ele>
        <time>2020-06-26T11:00:49.000Z</time>
      </trkpt>
      <trkpt lat="45.61331" lon="6.84172">
        <ele>1133.1999511719</ele>
        <time>2020-06-26T11:00:56.000Z</time>
      </trkpt>
      <trkpt lat="45.61327" lon="6.84181">
        <ele>1133.4000244141</ele>
        <time>2020-06-26T11:00:58.000Z</time>
      </trkpt>
      <trkpt lat="45.61315" lon="6.84214">
        <ele>1134.1999511719</ele>
        <time>2020-06-26T11:01:05.000Z</time>
      </trkpt>
      <trkpt lat="45.61308" lon="6.84233">
        <ele>1134.4000244141</ele>
        <time>2020-06-26T11:01:09.000Z</time>
      </trkpt>
      <trkpt lat="45.61302" lon="6.84247">
        <ele>1134.5999755859</ele>
        <time>2020-06-26T11:01:12.000Z</time>
      </trkpt>
      <trkpt lat="45.61288" lon="6.8429">
        <ele>1135.5999755859</ele>
        <time>2020-06-26T11:01:21.000Z</time>
      </trkpt>
      <trkpt lat="45.61287" lon="6.84295">
        <ele>1135.5999755859</ele>
        <time>2020-06-26T11:01:22.000Z</time>
      </trkpt>
      <trkpt lat="45.6128" lon="6.84323">
        <ele>1136.5999755859</ele>
        <time>2020-06-26T11:01:27.000Z</time>
      </trkpt>
      <trkpt lat="45.61273" lon="6.84346">
        <ele>1137</ele>
        <time>2020-06-26T11:01:31.000Z</time>
      </trkpt>
      <trkpt lat="45.61256" lon="6.84385">
        <ele>1137</ele>
        <time>2020-06-26T11:01:37.000Z</time>
      </trkpt>
      <trkpt lat="45.61247" lon="6.84405">
        <ele>1137</ele>
        <time>2020-06-26T11:01:40.000Z</time>
      </trkpt>
      <trkpt lat="45.61239" lon="6.84426">
        <ele>1137</ele>
        <time>2020-06-26T11:01:43.000Z</time>
      </trkpt>
      <trkpt lat="45.6122" lon="6.84468">
        <ele>1136.5999755859</ele>
        <time>2020-06-26T11:01:49.000Z</time>
      </trkpt>
      <trkpt lat="45.61213" lon="6.84497">
        <ele>1136.4000244141</ele>
        <time>2020-06-26T11:01:53.000Z</time>
      </trkpt>
      <trkpt lat="45.61212" lon="6.84513">
        <ele>1136</ele>
        <time>2020-06-26T11:01:55.000Z</time>
      </trkpt>
      <trkpt lat="45.61212" lon="6.84536">
        <ele>1135.5999755859</ele>
        <time>2020-06-26T11:01:58.000Z</time>
      </trkpt>
      <trkpt lat="45.61211" lon="6.84556">
        <ele>1135.1999511719</ele>
        <time>2020-06-26T11:02:01.000Z</time>
      </trkpt>
      <trkpt lat="45.6121" lon="6.84567">
        <ele>1135.1999511719</ele>
        <time>2020-06-26T11:02:03.000Z</time>
      </trkpt>
      <trkpt lat="45.61206" lon="6.84593">
        <ele>1135.1999511719</ele>
        <time>2020-06-26T11:02:08.000Z</time>
      </trkpt>
      <trkpt lat="45.612" lon="6.84613">
        <ele>1136.1999511719</ele>
        <time>2020-06-26T11:02:13.000Z</time>
      </trkpt>
      <trkpt lat="45.61189" lon="6.84633">
        <ele>1137.5999755859</ele>
        <time>2020-06-26T11:02:18.000Z</time>
      </trkpt>
      <trkpt lat="45.61182" lon="6.84641">
        <ele>1138.4000244141</ele>
        <time>2020-06-26T11:02:20.000Z</time>
      </trkpt>
      <trkpt lat="45.61179" lon="6.84645">
        <ele>1138.5999755859</ele>
        <time>2020-06-26T11:02:21.000Z</time>
      </trkpt>
      <trkpt lat="45.61167" lon="6.84663">
        <ele>1139.5999755859</ele>
        <time>2020-06-26T11:02:26.000Z</time>
      </trkpt>
      <trkpt lat="45.61164" lon="6.84667">
        <ele>1139.8000488281</ele>
        <time>2020-06-26T11:02:27.000Z</time>
      </trkpt>
      <trkpt lat="45.61157" lon="6.84689">
        <ele>1140.8000488281</ele>
        <time>2020-06-26T11:02:32.000Z</time>
      </trkpt>
      <trkpt lat="45.61157" lon="6.84707">
        <ele>1141.8000488281</ele>
        <time>2020-06-26T11:02:36.000Z</time>
      </trkpt>
      <trkpt lat="45.61159" lon="6.84715">
        <ele>1142.4000244141</ele>
        <time>2020-06-26T11:02:38.000Z</time>
      </trkpt>
      <trkpt lat="45.61162" lon="6.84719">
        <ele>1143</ele>
        <time>2020-06-26T11:02:40.000Z</time>
      </trkpt>
      <trkpt lat="45.61168" lon="6.84721">
        <ele>1143.1999511719</ele>
        <time>2020-06-26T11:02:42.000Z</time>
      </trkpt>
      <trkpt lat="45.61182" lon="6.84717">
        <ele>1144</ele>
        <time>2020-06-26T11:02:46.000Z</time>
      </trkpt>
      <trkpt lat="45.61184" lon="6.84716">
        <ele>1144.4000244141</ele>
        <time>2020-06-26T11:02:47.000Z</time>
      </trkpt>
      <trkpt lat="45.61189" lon="6.84712">
        <ele>1145.1999511719</ele>
        <time>2020-06-26T11:02:49.000Z</time>
      </trkpt>
      <trkpt lat="45.61201" lon="6.847">
        <ele>1146.1999511719</ele>
        <time>2020-06-26T11:02:54.000Z</time>
      </trkpt>
      <trkpt lat="45.61214" lon="6.84687">
        <ele>1147.4000244141</ele>
        <time>2020-06-26T11:03:00.000Z</time>
      </trkpt>
      <trkpt lat="45.61226" lon="6.84672">
        <ele>1148.5999755859</ele>
        <time>2020-06-26T11:03:06.000Z</time>
      </trkpt>
      <trkpt lat="45.61231" lon="6.84664">
        <ele>1149.8000488281</ele>
        <time>2020-06-26T11:03:09.000Z</time>
      </trkpt>
      <trkpt lat="45.6124" lon="6.8465">
        <ele>1150.5999755859</ele>
        <time>2020-06-26T11:03:14.000Z</time>
      </trkpt>
      <trkpt lat="45.61245" lon="6.84638">
        <ele>1152.1999511719</ele>
        <time>2020-06-26T11:03:18.000Z</time>
      </trkpt>
      <trkpt lat="45.61247" lon="6.84627">
        <ele>1152.8000488281</ele>
        <time>2020-06-26T11:03:21.000Z</time>
      </trkpt>
      <trkpt lat="45.61248" lon="6.84623">
        <ele>1153</ele>
        <time>2020-06-26T11:03:22.000Z</time>
      </trkpt>
      <trkpt lat="45.61248" lon="6.84619">
        <ele>1153.1999511719</ele>
        <time>2020-06-26T11:03:23.000Z</time>
      </trkpt>
      <trkpt lat="45.61246" lon="6.84604">
        <ele>1154</ele>
        <time>2020-06-26T11:03:27.000Z</time>
      </trkpt>
      <trkpt lat="45.61246" lon="6.846">
        <ele>1154.1999511719</ele>
        <time>2020-06-26T11:03:28.000Z</time>
      </trkpt>
      <trkpt lat="45.61244" lon="6.8459">
        <ele>1155</ele>
        <time>2020-06-26T11:03:31.000Z</time>
      </trkpt>
      <trkpt lat="45.61245" lon="6.84588">
        <ele>1155.1999511719</ele>
        <time>2020-06-26T11:03:32.000Z</time>
      </trkpt>
      <trkpt lat="45.61246" lon="6.84586">
        <ele>1155.4000244141</ele>
        <time>2020-06-26T11:03:33.000Z</time>
      </trkpt>
      <trkpt lat="45.61249" lon="6.84583">
        <ele>1155.8000488281</ele>
        <time>2020-06-26T11:03:35.000Z</time>
      </trkpt>
      <trkpt lat="45.61256" lon="6.84587">
        <ele>1156.4000244141</ele>
        <time>2020-06-26T11:03:39.000Z</time>
      </trkpt>
      <trkpt lat="45.61257" lon="6.84589">
        <ele>1156.5999755859</ele>
        <time>2020-06-26T11:03:40.000Z</time>
      </trkpt>
      <trkpt lat="45.61257" lon="6.846">
        <ele>1157</ele>
        <time>2020-06-26T11:03:44.000Z</time>
      </trkpt>
      <trkpt lat="45.61257" lon="6.84603">
        <ele>1157.1999511719</ele>
        <time>2020-06-26T11:03:45.000Z</time>
      </trkpt>
      <trkpt lat="45.61256" lon="6.8461">
        <ele>1157.4000244141</ele>
        <time>2020-06-26T11:03:47.000Z</time>
      </trkpt>
      <trkpt lat="45.61254" lon="6.84627">
        <ele>1157.8000488281</ele>
        <time>2020-06-26T11:03:52.000Z</time>
      </trkpt>
      <trkpt lat="45.61254" lon="6.8464">
        <ele>1158.1999511719</ele>
        <time>2020-06-26T11:03:56.000Z</time>
      </trkpt>
      <trkpt lat="45.61253" lon="6.84653">
        <ele>1159</ele>
        <time>2020-06-26T11:04:00.000Z</time>
      </trkpt>
      <trkpt lat="45.61251" lon="6.84659">
        <ele>1159.1999511719</ele>
        <time>2020-06-26T11:04:02.000Z</time>
      </trkpt>
      <trkpt lat="45.61248" lon="6.84672">
        <ele>1160.4000244141</ele>
        <time>2020-06-26T11:04:06.000Z</time>
      </trkpt>
      <trkpt lat="45.61247" lon="6.84678">
        <ele>1160.8000488281</ele>
        <time>2020-06-26T11:04:08.000Z</time>
      </trkpt>
      <trkpt lat="45.61245" lon="6.84689">
        <ele>1161.5999755859</ele>
        <time>2020-06-26T11:04:11.000Z</time>
      </trkpt>
      <trkpt lat="45.61244" lon="6.84703">
        <ele>1163</ele>
        <time>2020-06-26T11:04:15.000Z</time>
      </trkpt>
      <trkpt lat="45.61243" lon="6.84709">
        <ele>1163.4000244141</ele>
        <time>2020-06-26T11:04:17.000Z</time>
      </trkpt>
      <trkpt lat="45.61243" lon="6.84716">
        <ele>1164</ele>
        <time>2020-06-26T11:04:19.000Z</time>
      </trkpt>
      <trkpt lat="45.6124" lon="6.84732">
        <ele>1165</ele>
        <time>2020-06-26T11:04:24.000Z</time>
      </trkpt>
      <trkpt lat="45.6124" lon="6.84745">
        <ele>1165.8000488281</ele>
        <time>2020-06-26T11:04:28.000Z</time>
      </trkpt>
      <trkpt lat="45.61241" lon="6.84762">
        <ele>1167</ele>
        <time>2020-06-26T11:04:33.000Z</time>
      </trkpt>
      <trkpt lat="45.61241" lon="6.84765">
        <ele>1167.4000244141</ele>
        <time>2020-06-26T11:04:34.000Z</time>
      </trkpt>
      <trkpt lat="45.61241" lon="6.84778">
        <ele>1168.1999511719</ele>
        <time>2020-06-26T11:04:38.000Z</time>
      </trkpt>
      <trkpt lat="45.6124" lon="6.84787">
        <ele>1169</ele>
        <time>2020-06-26T11:04:41.000Z</time>
      </trkpt>
      <trkpt lat="45.61239" lon="6.8479">
        <ele>1169.4000244141</ele>
        <time>2020-06-26T11:04:42.000Z</time>
      </trkpt>
      <trkpt lat="45.61236" lon="6.84798">
        <ele>1170.4000244141</ele>
        <time>2020-06-26T11:04:45.000Z</time>
      </trkpt>
      <trkpt lat="45.61233" lon="6.84806">
        <ele>1170.8000488281</ele>
        <time>2020-06-26T11:04:48.000Z</time>
      </trkpt>
      <trkpt lat="45.61229" lon="6.84812">
        <ele>1171.4000244141</ele>
        <time>2020-06-26T11:04:51.000Z</time>
      </trkpt>
      <trkpt lat="45.61223" lon="6.84818">
        <ele>1172.4000244141</ele>
        <time>2020-06-26T11:04:55.000Z</time>
      </trkpt>
      <trkpt lat="45.61217" lon="6.84826">
        <ele>1173.4000244141</ele>
        <time>2020-06-26T11:04:59.000Z</time>
      </trkpt>
      <trkpt lat="45.61213" lon="6.84832">
        <ele>1174</ele>
        <time>2020-06-26T11:05:02.000Z</time>
      </trkpt>
      <trkpt lat="45.6121" lon="6.8484">
        <ele>1174.8000488281</ele>
        <time>2020-06-26T11:05:05.000Z</time>
      </trkpt>
      <trkpt lat="45.61208" lon="6.84855">
        <ele>1175.8000488281</ele>
        <time>2020-06-26T11:05:10.000Z</time>
      </trkpt>
      <trkpt lat="45.6121" lon="6.84869">
        <ele>1177</ele>
        <time>2020-06-26T11:05:15.000Z</time>
      </trkpt>
      <trkpt lat="45.61211" lon="6.84882">
        <ele>1177.8000488281</ele>
        <time>2020-06-26T11:05:19.000Z</time>
      </trkpt>
      <trkpt lat="45.61211" lon="6.84885">
        <ele>1178.1999511719</ele>
        <time>2020-06-26T11:05:20.000Z</time>
      </trkpt>
      <trkpt lat="45.61213" lon="6.84903">
        <ele>1179.4000244141</ele>
        <time>2020-06-26T11:05:26.000Z</time>
      </trkpt>
      <trkpt lat="45.61214" lon="6.8491">
        <ele>1179.8000488281</ele>
        <time>2020-06-26T11:05:28.000Z</time>
      </trkpt>
      <trkpt lat="45.61215" lon="6.84916">
        <ele>1180.4000244141</ele>
        <time>2020-06-26T11:05:30.000Z</time>
      </trkpt>
      <trkpt lat="45.61218" lon="6.84932">
        <ele>1181.4000244141</ele>
        <time>2020-06-26T11:05:35.000Z</time>
      </trkpt>
      <trkpt lat="45.6122" lon="6.84944">
        <ele>1182.1999511719</ele>
        <time>2020-06-26T11:05:39.000Z</time>
      </trkpt>
      <trkpt lat="45.6122" lon="6.8495">
        <ele>1182.8000488281</ele>
        <time>2020-06-26T11:05:41.000Z</time>
      </trkpt>
      <trkpt lat="45.61221" lon="6.84964">
        <ele>1183.8000488281</ele>
        <time>2020-06-26T11:05:46.000Z</time>
      </trkpt>
      <trkpt lat="45.61223" lon="6.84979">
        <ele>1184.8000488281</ele>
        <time>2020-06-26T11:05:52.000Z</time>
      </trkpt>
      <trkpt lat="45.61223" lon="6.84982">
        <ele>1185</ele>
        <time>2020-06-26T11:05:53.000Z</time>
      </trkpt>
      <trkpt lat="45.61223" lon="6.84998">
        <ele>1186</ele>
        <time>2020-06-26T11:05:58.000Z</time>
      </trkpt>
      <trkpt lat="45.61223" lon="6.85011">
        <ele>1186.8000488281</ele>
        <time>2020-06-26T11:06:02.000Z</time>
      </trkpt>
      <trkpt lat="45.61223" lon="6.85014">
        <ele>1187</ele>
        <time>2020-06-26T11:06:03.000Z</time>
      </trkpt>
      <trkpt lat="45.61222" lon="6.85033">
        <ele>1188.1999511719</ele>
        <time>2020-06-26T11:06:09.000Z</time>
      </trkpt>
      <trkpt lat="45.61221" lon="6.85039">
        <ele>1188.8000488281</ele>
        <time>2020-06-26T11:06:11.000Z</time>
      </trkpt>
      <trkpt lat="45.6122" lon="6.85046">
        <ele>1189.1999511719</ele>
        <time>2020-06-26T11:06:13.000Z</time>
      </trkpt>
      <trkpt lat="45.6122" lon="6.85062">
        <ele>1190</ele>
        <time>2020-06-26T11:06:18.000Z</time>
      </trkpt>
      <trkpt lat="45.6122" lon="6.85069">
        <ele>1190.5999755859</ele>
        <time>2020-06-26T11:06:20.000Z</time>
      </trkpt>
      <trkpt lat="45.6122" lon="6.85078">
        <ele>1191.1999511719</ele>
        <time>2020-06-26T11:06:23.000Z</time>
      </trkpt>
      <trkpt lat="45.61222" lon="6.85094">
        <ele>1192.4000244141</ele>
        <time>2020-06-26T11:06:28.000Z</time>
      </trkpt>
      <trkpt lat="45.61223" lon="6.8511">
        <ele>1193.4000244141</ele>
        <time>2020-06-26T11:06:33.000Z</time>
      </trkpt>
      <trkpt lat="45.61223" lon="6.85125">
        <ele>1194.8000488281</ele>
        <time>2020-06-26T11:06:38.000Z</time>
      </trkpt>
      <trkpt lat="45.61223" lon="6.85128">
        <ele>1195</ele>
        <time>2020-06-26T11:06:39.000Z</time>
      </trkpt>
      <trkpt lat="45.61223" lon="6.85142">
        <ele>1196</ele>
        <time>2020-06-26T11:06:43.000Z</time>
      </trkpt>
      <trkpt lat="45.61224" lon="6.85155">
        <ele>1196.5999755859</ele>
        <time>2020-06-26T11:06:47.000Z</time>
      </trkpt>
      <trkpt lat="45.61224" lon="6.85158">
        <ele>1196.8000488281</ele>
        <time>2020-06-26T11:06:48.000Z</time>
      </trkpt>
      <trkpt lat="45.61225" lon="6.85173">
        <ele>1198</ele>
        <time>2020-06-26T11:06:53.000Z</time>
      </trkpt>
      <trkpt lat="45.61227" lon="6.85186">
        <ele>1199.1999511719</ele>
        <time>2020-06-26T11:06:57.000Z</time>
      </trkpt>
      <trkpt lat="45.6123" lon="6.85203">
        <ele>1200.4000244141</ele>
        <time>2020-06-26T11:07:02.000Z</time>
      </trkpt>
      <trkpt lat="45.6123" lon="6.85217">
        <ele>1201</ele>
        <time>2020-06-26T11:07:06.000Z</time>
      </trkpt>
      <trkpt lat="45.61229" lon="6.85221">
        <ele>1201.4000244141</ele>
        <time>2020-06-26T11:07:07.000Z</time>
      </trkpt>
      <trkpt lat="45.61224" lon="6.85237">
        <ele>1202.1999511719</ele>
        <time>2020-06-26T11:07:12.000Z</time>
      </trkpt>
      <trkpt lat="45.61222" lon="6.85242">
        <ele>1202.5999755859</ele>
        <time>2020-06-26T11:07:14.000Z</time>
      </trkpt>
      <trkpt lat="45.61215" lon="6.85255">
        <ele>1203.4000244141</ele>
        <time>2020-06-26T11:07:19.000Z</time>
      </trkpt>
      <trkpt lat="45.6121" lon="6.85263">
        <ele>1204</ele>
        <time>2020-06-26T11:07:22.000Z</time>
      </trkpt>
      <trkpt lat="45.61208" lon="6.85272">
        <ele>1204.5999755859</ele>
        <time>2020-06-26T11:07:25.000Z</time>
      </trkpt>
      <trkpt lat="45.61205" lon="6.85286">
        <ele>1205.4000244141</ele>
        <time>2020-06-26T11:07:29.000Z</time>
      </trkpt>
      <trkpt lat="45.61206" lon="6.85297">
        <ele>1205.8000488281</ele>
        <time>2020-06-26T11:07:32.000Z</time>
      </trkpt>
      <trkpt lat="45.61209" lon="6.85302">
        <ele>1206.4000244141</ele>
        <time>2020-06-26T11:07:34.000Z</time>
      </trkpt>
      <trkpt lat="45.61216" lon="6.85304">
        <ele>1206.8000488281</ele>
        <time>2020-06-26T11:07:37.000Z</time>
      </trkpt>
      <trkpt lat="45.61218" lon="6.85301">
        <ele>1206.8000488281</ele>
        <time>2020-06-26T11:07:38.000Z</time>
      </trkpt>
      <trkpt lat="45.61221" lon="6.85296">
        <ele>1207.1999511719</ele>
        <time>2020-06-26T11:07:40.000Z</time>
      </trkpt>
      <trkpt lat="45.61226" lon="6.85289">
        <ele>1207.5999755859</ele>
        <time>2020-06-26T11:07:43.000Z</time>
      </trkpt>
      <trkpt lat="45.61227" lon="6.85286">
        <ele>1207.8000488281</ele>
        <time>2020-06-26T11:07:44.000Z</time>
      </trkpt>
      <trkpt lat="45.61234" lon="6.8527">
        <ele>1209</ele>
        <time>2020-06-26T11:07:50.000Z</time>
      </trkpt>
      <trkpt lat="45.61242" lon="6.85259">
        <ele>1210.4000244141</ele>
        <time>2020-06-26T11:07:55.000Z</time>
      </trkpt>
      <trkpt lat="45.61247" lon="6.85252">
        <ele>1211.1999511719</ele>
        <time>2020-06-26T11:07:58.000Z</time>
      </trkpt>
      <trkpt lat="45.61249" lon="6.8525">
        <ele>1211.4000244141</ele>
        <time>2020-06-26T11:07:59.000Z</time>
      </trkpt>
      <trkpt lat="45.61255" lon="6.85236">
        <ele>1212.5999755859</ele>
        <time>2020-06-26T11:08:04.000Z</time>
      </trkpt>
      <trkpt lat="45.61257" lon="6.85233">
        <ele>1213.1999511719</ele>
        <time>2020-06-26T11:08:05.000Z</time>
      </trkpt>
      <trkpt lat="45.61258" lon="6.85229">
        <ele>1213.4000244141</ele>
        <time>2020-06-26T11:08:06.000Z</time>
      </trkpt>
      <trkpt lat="45.61258" lon="6.85226">
        <ele>1213.5999755859</ele>
        <time>2020-06-26T11:08:07.000Z</time>
      </trkpt>
      <trkpt lat="45.61261" lon="6.85211">
        <ele>1214.5999755859</ele>
        <time>2020-06-26T11:08:12.000Z</time>
      </trkpt>
      <trkpt lat="45.61262" lon="6.85205">
        <ele>1215</ele>
        <time>2020-06-26T11:08:14.000Z</time>
      </trkpt>
      <trkpt lat="45.61263" lon="6.85199">
        <ele>1215.5999755859</ele>
        <time>2020-06-26T11:08:16.000Z</time>
      </trkpt>
      <trkpt lat="45.61267" lon="6.85185">
        <ele>1216.8000488281</ele>
        <time>2020-06-26T11:08:21.000Z</time>
      </trkpt>
      <trkpt lat="45.61269" lon="6.85177">
        <ele>1217.5999755859</ele>
        <time>2020-06-26T11:08:24.000Z</time>
      </trkpt>
      <trkpt lat="45.61272" lon="6.85172">
        <ele>1217.8000488281</ele>
        <time>2020-06-26T11:08:26.000Z</time>
      </trkpt>
      <trkpt lat="45.61277" lon="6.85163">
        <ele>1218.8000488281</ele>
        <time>2020-06-26T11:08:30.000Z</time>
      </trkpt>
      <trkpt lat="45.61279" lon="6.85159">
        <ele>1219.1999511719</ele>
        <time>2020-06-26T11:08:32.000Z</time>
      </trkpt>
      <trkpt lat="45.61282" lon="6.85155">
        <ele>1220</ele>
        <time>2020-06-26T11:08:34.000Z</time>
      </trkpt>
      <trkpt lat="45.61289" lon="6.85143">
        <ele>1221.1999511719</ele>
        <time>2020-06-26T11:08:39.000Z</time>
      </trkpt>
      <trkpt lat="45.61293" lon="6.85136">
        <ele>1222</ele>
        <time>2020-06-26T11:08:42.000Z</time>
      </trkpt>
      <trkpt lat="45.61296" lon="6.85132">
        <ele>1222.1999511719</ele>
        <time>2020-06-26T11:08:44.000Z</time>
      </trkpt>
      <trkpt lat="45.61303" lon="6.85121">
        <ele>1223.4000244141</ele>
        <time>2020-06-26T11:08:49.000Z</time>
      </trkpt>
      <trkpt lat="45.61311" lon="6.8511">
        <ele>1224.1999511719</ele>
        <time>2020-06-26T11:08:54.000Z</time>
      </trkpt>
      <trkpt lat="45.61313" lon="6.85108">
        <ele>1224.5999755859</ele>
        <time>2020-06-26T11:08:55.000Z</time>
      </trkpt>
      <trkpt lat="45.61322" lon="6.85099">
        <ele>1225.8000488281</ele>
        <time>2020-06-26T11:09:00.000Z</time>
      </trkpt>
      <trkpt lat="45.61327" lon="6.85094">
        <ele>1226.8000488281</ele>
        <time>2020-06-26T11:09:03.000Z</time>
      </trkpt>
      <trkpt lat="45.61329" lon="6.85092">
        <ele>1227</ele>
        <time>2020-06-26T11:09:04.000Z</time>
      </trkpt>
      <trkpt lat="45.61337" lon="6.85082">
        <ele>1227.8000488281</ele>
        <time>2020-06-26T11:09:09.000Z</time>
      </trkpt>
      <trkpt lat="45.6134" lon="6.85078">
        <ele>1228</ele>
        <time>2020-06-26T11:09:11.000Z</time>
      </trkpt>
      <trkpt lat="45.61345" lon="6.85067">
        <ele>1229</ele>
        <time>2020-06-26T11:09:15.000Z</time>
      </trkpt>
      <trkpt lat="45.61347" lon="6.85054">
        <ele>1229.8000488281</ele>
        <time>2020-06-26T11:09:19.000Z</time>
      </trkpt>
      <trkpt lat="45.61349" lon="6.85048">
        <ele>1230.1999511719</ele>
        <time>2020-06-26T11:09:21.000Z</time>
      </trkpt>
      <trkpt lat="45.61352" lon="6.85028">
        <ele>1231.1999511719</ele>
        <time>2020-06-26T11:09:27.000Z</time>
      </trkpt>
      <trkpt lat="45.61355" lon="6.85013">
        <ele>1232.4000244141</ele>
        <time>2020-06-26T11:09:32.000Z</time>
      </trkpt>
      <trkpt lat="45.61356" lon="6.85011">
        <ele>1232.5999755859</ele>
        <time>2020-06-26T11:09:33.000Z</time>
      </trkpt>
      <trkpt lat="45.61358" lon="6.85">
        <ele>1233.1999511719</ele>
        <time>2020-06-26T11:09:37.000Z</time>
      </trkpt>
      <trkpt lat="45.6136" lon="6.84991">
        <ele>1234.1999511719</ele>
        <time>2020-06-26T11:09:40.000Z</time>
      </trkpt>
      <trkpt lat="45.61361" lon="6.84987">
        <ele>1234.4000244141</ele>
        <time>2020-06-26T11:09:41.000Z</time>
      </trkpt>
      <trkpt lat="45.61363" lon="6.84971">
        <ele>1235.4000244141</ele>
        <time>2020-06-26T11:09:46.000Z</time>
      </trkpt>
      <trkpt lat="45.61364" lon="6.84965">
        <ele>1235.5999755859</ele>
        <time>2020-06-26T11:09:48.000Z</time>
      </trkpt>
      <trkpt lat="45.61365" lon="6.84949">
        <ele>1236.4000244141</ele>
        <time>2020-06-26T11:09:53.000Z</time>
      </trkpt>
      <trkpt lat="45.61367" lon="6.84939">
        <ele>1237.4000244141</ele>
        <time>2020-06-26T11:09:56.000Z</time>
      </trkpt>
      <trkpt lat="45.61368" lon="6.84933">
        <ele>1238</ele>
        <time>2020-06-26T11:09:58.000Z</time>
      </trkpt>
      <trkpt lat="45.6137" lon="6.84927">
        <ele>1238.5999755859</ele>
        <time>2020-06-26T11:10:00.000Z</time>
      </trkpt>
      <trkpt lat="45.61374" lon="6.84904">
        <ele>1239.5999755859</ele>
        <time>2020-06-26T11:10:07.000Z</time>
      </trkpt>
      <trkpt lat="45.61375" lon="6.84901">
        <ele>1239.8000488281</ele>
        <time>2020-06-26T11:10:08.000Z</time>
      </trkpt>
      <trkpt lat="45.61375" lon="6.84887">
        <ele>1240.8000488281</ele>
        <time>2020-06-26T11:10:12.000Z</time>
      </trkpt>
      <trkpt lat="45.61375" lon="6.84874">
        <ele>1241.5999755859</ele>
        <time>2020-06-26T11:10:16.000Z</time>
      </trkpt>
      <trkpt lat="45.61374" lon="6.84871">
        <ele>1241.5999755859</ele>
        <time>2020-06-26T11:10:17.000Z</time>
      </trkpt>
      <trkpt lat="45.61375" lon="6.84853">
        <ele>1242.5999755859</ele>
        <time>2020-06-26T11:10:22.000Z</time>
      </trkpt>
      <trkpt lat="45.61378" lon="6.84843">
        <ele>1243.1999511719</ele>
        <time>2020-06-26T11:10:25.000Z</time>
      </trkpt>
      <trkpt lat="45.61384" lon="6.84833">
        <ele>1243.8000488281</ele>
        <time>2020-06-26T11:10:29.000Z</time>
      </trkpt>
      <trkpt lat="45.61387" lon="6.84833">
        <ele>1244</ele>
        <time>2020-06-26T11:10:30.000Z</time>
      </trkpt>
      <trkpt lat="45.61392" lon="6.84839">
        <ele>1244.8000488281</ele>
        <time>2020-06-26T11:10:34.000Z</time>
      </trkpt>
      <trkpt lat="45.61391" lon="6.84852">
        <ele>1245.8000488281</ele>
        <time>2020-06-26T11:10:38.000Z</time>
      </trkpt>
      <trkpt lat="45.6139" lon="6.84856">
        <ele>1246.1999511719</ele>
        <time>2020-06-26T11:10:39.000Z</time>
      </trkpt>
      <trkpt lat="45.6139" lon="6.84875">
        <ele>1247</ele>
        <time>2020-06-26T11:10:44.000Z</time>
      </trkpt>
      <trkpt lat="45.6139" lon="6.84886">
        <ele>1247.5999755859</ele>
        <time>2020-06-26T11:10:47.000Z</time>
      </trkpt>
      <trkpt lat="45.6139" lon="6.84897">
        <ele>1248.1999511719</ele>
        <time>2020-06-26T11:10:50.000Z</time>
      </trkpt>
      <trkpt lat="45.61388" lon="6.84918">
        <ele>1249.1999511719</ele>
        <time>2020-06-26T11:10:56.000Z</time>
      </trkpt>
      <trkpt lat="45.61386" lon="6.84936">
        <ele>1250.4000244141</ele>
        <time>2020-06-26T11:11:01.000Z</time>
      </trkpt>
      <trkpt lat="45.61383" lon="6.84945">
        <ele>1250.8000488281</ele>
        <time>2020-06-26T11:11:04.000Z</time>
      </trkpt>
      <trkpt lat="45.61381" lon="6.84955">
        <ele>1251.4000244141</ele>
        <time>2020-06-26T11:11:07.000Z</time>
      </trkpt>
      <trkpt lat="45.61378" lon="6.84971">
        <ele>1252.1999511719</ele>
        <time>2020-06-26T11:11:12.000Z</time>
      </trkpt>
      <trkpt lat="45.61378" lon="6.84981">
        <ele>1253</ele>
        <time>2020-06-26T11:11:15.000Z</time>
      </trkpt>
      <trkpt lat="45.61378" lon="6.84988">
        <ele>1253.4000244141</ele>
        <time>2020-06-26T11:11:17.000Z</time>
      </trkpt>
      <trkpt lat="45.61381" lon="6.85004">
        <ele>1254.5999755859</ele>
        <time>2020-06-26T11:11:22.000Z</time>
      </trkpt>
      <trkpt lat="45.61382" lon="6.85007">
        <ele>1254.8000488281</ele>
        <time>2020-06-26T11:11:23.000Z</time>
      </trkpt>
      <trkpt lat="45.61384" lon="6.85017">
        <ele>1255.5999755859</ele>
        <time>2020-06-26T11:11:26.000Z</time>
      </trkpt>
      <trkpt lat="45.61389" lon="6.85033">
        <ele>1256.8000488281</ele>
        <time>2020-06-26T11:11:31.000Z</time>
      </trkpt>
      <trkpt lat="45.6139" lon="6.85036">
        <ele>1257</ele>
        <time>2020-06-26T11:11:32.000Z</time>
      </trkpt>
      <trkpt lat="45.61393" lon="6.85048">
        <ele>1257.8000488281</ele>
        <time>2020-06-26T11:11:36.000Z</time>
      </trkpt>
      <trkpt lat="45.61397" lon="6.8506">
        <ele>1258.5999755859</ele>
        <time>2020-06-26T11:11:40.000Z</time>
      </trkpt>
      <trkpt lat="45.61398" lon="6.85063">
        <ele>1258.8000488281</ele>
        <time>2020-06-26T11:11:41.000Z</time>
      </trkpt>
      <trkpt lat="45.61401" lon="6.85073">
        <ele>1260</ele>
        <time>2020-06-26T11:11:45.000Z</time>
      </trkpt>
      <trkpt lat="45.61402" lon="6.85075">
        <ele>1260.4000244141</ele>
        <time>2020-06-26T11:11:46.000Z</time>
      </trkpt>
      <trkpt lat="45.61405" lon="6.85088">
        <ele>1261.1999511719</ele>
        <time>2020-06-26T11:11:50.000Z</time>
      </trkpt>
      <trkpt lat="45.61409" lon="6.85098">
        <ele>1261.5999755859</ele>
        <time>2020-06-26T11:11:53.000Z</time>
      </trkpt>
      <trkpt lat="45.61411" lon="6.851">
        <ele>1262.1999511719</ele>
        <time>2020-06-26T11:11:54.000Z</time>
      </trkpt>
      <trkpt lat="45.61417" lon="6.85118">
        <ele>1263.4000244141</ele>
        <time>2020-06-26T11:12:00.000Z</time>
      </trkpt>
      <trkpt lat="45.61417" lon="6.85121">
        <ele>1263.5999755859</ele>
        <time>2020-06-26T11:12:01.000Z</time>
      </trkpt>
      <trkpt lat="45.61415" lon="6.85139">
        <ele>1264.5999755859</ele>
        <time>2020-06-26T11:12:06.000Z</time>
      </trkpt>
      <trkpt lat="45.61414" lon="6.85146">
        <ele>1265.1999511719</ele>
        <time>2020-06-26T11:12:08.000Z</time>
      </trkpt>
      <trkpt lat="45.61411" lon="6.85156">
        <ele>1265.8000488281</ele>
        <time>2020-06-26T11:12:11.000Z</time>
      </trkpt>
      <trkpt lat="45.61408" lon="6.85176">
        <ele>1266.8000488281</ele>
        <time>2020-06-26T11:12:17.000Z</time>
      </trkpt>
      <trkpt lat="45.61407" lon="6.85179">
        <ele>1267</ele>
        <time>2020-06-26T11:12:18.000Z</time>
      </trkpt>
      <trkpt lat="45.61407" lon="6.85192">
        <ele>1267.5999755859</ele>
        <time>2020-06-26T11:12:22.000Z</time>
      </trkpt>
      <trkpt lat="45.61406" lon="6.85206">
        <ele>1268.8000488281</ele>
        <time>2020-06-26T11:12:26.000Z</time>
      </trkpt>
      <trkpt lat="45.61405" lon="6.85216">
        <ele>1269.5999755859</ele>
        <time>2020-06-26T11:12:29.000Z</time>
      </trkpt>
      <trkpt lat="45.61405" lon="6.85219">
        <ele>1270</ele>
        <time>2020-06-26T11:12:30.000Z</time>
      </trkpt>
      <trkpt lat="45.61404" lon="6.85235">
        <ele>1271</ele>
        <time>2020-06-26T11:12:35.000Z</time>
      </trkpt>
      <trkpt lat="45.61404" lon="6.85245">
        <ele>1271.5999755859</ele>
        <time>2020-06-26T11:12:38.000Z</time>
      </trkpt>
      <trkpt lat="45.61403" lon="6.85251">
        <ele>1272.1999511719</ele>
        <time>2020-06-26T11:12:40.000Z</time>
      </trkpt>
      <trkpt lat="45.61404" lon="6.8527">
        <ele>1273.1999511719</ele>
        <time>2020-06-26T11:12:46.000Z</time>
      </trkpt>
      <trkpt lat="45.61404" lon="6.85273">
        <ele>1273.4000244141</ele>
        <time>2020-06-26T11:12:47.000Z</time>
      </trkpt>
      <trkpt lat="45.61404" lon="6.85286">
        <ele>1274.4000244141</ele>
        <time>2020-06-26T11:12:51.000Z</time>
      </trkpt>
      <trkpt lat="45.61401" lon="6.85297">
        <ele>1275.5999755859</ele>
        <time>2020-06-26T11:12:55.000Z</time>
      </trkpt>
      <trkpt lat="45.61395" lon="6.85312">
        <ele>1276.4000244141</ele>
        <time>2020-06-26T11:13:01.000Z</time>
      </trkpt>
      <trkpt lat="45.61391" lon="6.85323">
        <ele>1277.4000244141</ele>
        <time>2020-06-26T11:13:05.000Z</time>
      </trkpt>
      <trkpt lat="45.6139" lon="6.85325">
        <ele>1277.8000488281</ele>
        <time>2020-06-26T11:13:06.000Z</time>
      </trkpt>
      <trkpt lat="45.61387" lon="6.85336">
        <ele>1278.5999755859</ele>
        <time>2020-06-26T11:13:10.000Z</time>
      </trkpt>
      <trkpt lat="45.61382" lon="6.85349">
        <ele>1279.5999755859</ele>
        <time>2020-06-26T11:13:15.000Z</time>
      </trkpt>
      <trkpt lat="45.61379" lon="6.85353">
        <ele>1280</ele>
        <time>2020-06-26T11:13:17.000Z</time>
      </trkpt>
      <trkpt lat="45.61375" lon="6.8536">
        <ele>1281</ele>
        <time>2020-06-26T11:13:20.000Z</time>
      </trkpt>
      <trkpt lat="45.61368" lon="6.85371">
        <ele>1282</ele>
        <time>2020-06-26T11:13:25.000Z</time>
      </trkpt>
      <trkpt lat="45.61366" lon="6.85373">
        <ele>1282.4000244141</ele>
        <time>2020-06-26T11:13:26.000Z</time>
      </trkpt>
      <trkpt lat="45.61359" lon="6.85381">
        <ele>1283</ele>
        <time>2020-06-26T11:13:30.000Z</time>
      </trkpt>
      <trkpt lat="45.61352" lon="6.85392">
        <ele>1284.1999511719</ele>
        <time>2020-06-26T11:13:35.000Z</time>
      </trkpt>
      <trkpt lat="45.61344" lon="6.85402">
        <ele>1285.4000244141</ele>
        <time>2020-06-26T11:13:40.000Z</time>
      </trkpt>
      <trkpt lat="45.61337" lon="6.85409">
        <ele>1286.4000244141</ele>
        <time>2020-06-26T11:13:44.000Z</time>
      </trkpt>
      <trkpt lat="45.61328" lon="6.85418">
        <ele>1287.5999755859</ele>
        <time>2020-06-26T11:13:49.000Z</time>
      </trkpt>
      <trkpt lat="45.61321" lon="6.85424">
        <ele>1288.5999755859</ele>
        <time>2020-06-26T11:13:53.000Z</time>
      </trkpt>
      <trkpt lat="45.61312" lon="6.85436">
        <ele>1289.8000488281</ele>
        <time>2020-06-26T11:13:59.000Z</time>
      </trkpt>
      <trkpt lat="45.61309" lon="6.85441">
        <ele>1290.1999511719</ele>
        <time>2020-06-26T11:14:01.000Z</time>
      </trkpt>
      <trkpt lat="45.61306" lon="6.85448">
        <ele>1291.1999511719</ele>
        <time>2020-06-26T11:14:04.000Z</time>
      </trkpt>
      <trkpt lat="45.61302" lon="6.85461">
        <ele>1292.4000244141</ele>
        <time>2020-06-26T11:14:09.000Z</time>
      </trkpt>
      <trkpt lat="45.61299" lon="6.85474">
        <ele>1293.5999755859</ele>
        <time>2020-06-26T11:14:14.000Z</time>
      </trkpt>
      <trkpt lat="45.61296" lon="6.85485">
        <ele>1294.4000244141</ele>
        <time>2020-06-26T11:14:18.000Z</time>
      </trkpt>
      <trkpt lat="45.61293" lon="6.855">
        <ele>1295.5999755859</ele>
        <time>2020-06-26T11:14:23.000Z</time>
      </trkpt>
      <trkpt lat="45.61289" lon="6.85516">
        <ele>1296.5999755859</ele>
        <time>2020-06-26T11:14:28.000Z</time>
      </trkpt>
      <trkpt lat="45.61289" lon="6.85519">
        <ele>1297</ele>
        <time>2020-06-26T11:14:29.000Z</time>
      </trkpt>
      <trkpt lat="45.61286" lon="6.85531">
        <ele>1298</ele>
        <time>2020-06-26T11:14:33.000Z</time>
      </trkpt>
      <trkpt lat="45.61286" lon="6.85534">
        <ele>1298.1999511719</ele>
        <time>2020-06-26T11:14:34.000Z</time>
      </trkpt>
      <trkpt lat="45.61283" lon="6.85546">
        <ele>1299.1999511719</ele>
        <time>2020-06-26T11:14:38.000Z</time>
      </trkpt>
      <trkpt lat="45.6128" lon="6.85561">
        <ele>1300</ele>
        <time>2020-06-26T11:14:43.000Z</time>
      </trkpt>
      <trkpt lat="45.61279" lon="6.85567">
        <ele>1300.5999755859</ele>
        <time>2020-06-26T11:14:45.000Z</time>
      </trkpt>
      <trkpt lat="45.61277" lon="6.85576">
        <ele>1301.4000244141</ele>
        <time>2020-06-26T11:14:48.000Z</time>
      </trkpt>
      <trkpt lat="45.61276" lon="6.85586">
        <ele>1302.1999511719</ele>
        <time>2020-06-26T11:14:51.000Z</time>
      </trkpt>
      <trkpt lat="45.61276" lon="6.85589">
        <ele>1302.4000244141</ele>
        <time>2020-06-26T11:14:52.000Z</time>
      </trkpt>
      <trkpt lat="45.61274" lon="6.85604">
        <ele>1303.5999755859</ele>
        <time>2020-06-26T11:14:57.000Z</time>
      </trkpt>
      <trkpt lat="45.61273" lon="6.85613">
        <ele>1304.1999511719</ele>
        <time>2020-06-26T11:15:00.000Z</time>
      </trkpt>
      <trkpt lat="45.61271" lon="6.85619">
        <ele>1304.5999755859</ele>
        <time>2020-06-26T11:15:02.000Z</time>
      </trkpt>
      <trkpt lat="45.61268" lon="6.85633">
        <ele>1305.5999755859</ele>
        <time>2020-06-26T11:15:07.000Z</time>
      </trkpt>
      <trkpt lat="45.61265" lon="6.85645">
        <ele>1306.4000244141</ele>
        <time>2020-06-26T11:15:11.000Z</time>
      </trkpt>
      <trkpt lat="45.61265" lon="6.85648">
        <ele>1306.5999755859</ele>
        <time>2020-06-26T11:15:12.000Z</time>
      </trkpt>
      <trkpt lat="45.61263" lon="6.85662">
        <ele>1307.8000488281</ele>
        <time>2020-06-26T11:15:16.000Z</time>
      </trkpt>
      <trkpt lat="45.61263" lon="6.85674">
        <ele>1308.8000488281</ele>
        <time>2020-06-26T11:15:20.000Z</time>
      </trkpt>
      <trkpt lat="45.61264" lon="6.85681">
        <ele>1309.1999511719</ele>
        <time>2020-06-26T11:15:22.000Z</time>
      </trkpt>
      <trkpt lat="45.61264" lon="6.8569">
        <ele>1310</ele>
        <time>2020-06-26T11:15:25.000Z</time>
      </trkpt>
      <trkpt lat="45.61266" lon="6.85706">
        <ele>1311.1999511719</ele>
        <time>2020-06-26T11:15:30.000Z</time>
      </trkpt>
      <trkpt lat="45.61266" lon="6.85712">
        <ele>1311.5999755859</ele>
        <time>2020-06-26T11:15:32.000Z</time>
      </trkpt>
      <trkpt lat="45.61267" lon="6.85724">
        <ele>1312.4000244141</ele>
        <time>2020-06-26T11:15:36.000Z</time>
      </trkpt>
      <trkpt lat="45.61269" lon="6.85738">
        <ele>1313.1999511719</ele>
        <time>2020-06-26T11:15:41.000Z</time>
      </trkpt>
      <trkpt lat="45.61271" lon="6.85744">
        <ele>1313.8000488281</ele>
        <time>2020-06-26T11:15:43.000Z</time>
      </trkpt>
      <trkpt lat="45.61273" lon="6.8575">
        <ele>1314.4000244141</ele>
        <time>2020-06-26T11:15:45.000Z</time>
      </trkpt>
      <trkpt lat="45.6128" lon="6.85763">
        <ele>1315.5999755859</ele>
        <time>2020-06-26T11:15:50.000Z</time>
      </trkpt>
      <trkpt lat="45.61282" lon="6.85765">
        <ele>1315.8000488281</ele>
        <time>2020-06-26T11:15:51.000Z</time>
      </trkpt>
      <trkpt lat="45.61287" lon="6.85772">
        <ele>1316.5999755859</ele>
        <time>2020-06-26T11:15:54.000Z</time>
      </trkpt>
      <trkpt lat="45.61292" lon="6.85786">
        <ele>1317.8000488281</ele>
        <time>2020-06-26T11:15:59.000Z</time>
      </trkpt>
      <trkpt lat="45.61293" lon="6.85801">
        <ele>1318.5999755859</ele>
        <time>2020-06-26T11:16:04.000Z</time>
      </trkpt>
      <trkpt lat="45.61293" lon="6.85807">
        <ele>1319.4000244141</ele>
        <time>2020-06-26T11:16:06.000Z</time>
      </trkpt>
      <trkpt lat="45.61292" lon="6.8581">
        <ele>1319.5999755859</ele>
        <time>2020-06-26T11:16:07.000Z</time>
      </trkpt>
      <trkpt lat="45.61286" lon="6.85827">
        <ele>1321</ele>
        <time>2020-06-26T11:16:13.000Z</time>
      </trkpt>
      <trkpt lat="45.61285" lon="6.8583">
        <ele>1321.1999511719</ele>
        <time>2020-06-26T11:16:14.000Z</time>
      </trkpt>
      <trkpt lat="45.61282" lon="6.85842">
        <ele>1322.1999511719</ele>
        <time>2020-06-26T11:16:18.000Z</time>
      </trkpt>
      <trkpt lat="45.61276" lon="6.85858">
        <ele>1323.1999511719</ele>
        <time>2020-06-26T11:16:23.000Z</time>
      </trkpt>
      <trkpt lat="45.61275" lon="6.85861">
        <ele>1323.1999511719</ele>
        <time>2020-06-26T11:16:24.000Z</time>
      </trkpt>
      <trkpt lat="45.61273" lon="6.85879">
        <ele>1324.1999511719</ele>
        <time>2020-06-26T11:16:29.000Z</time>
      </trkpt>
      <trkpt lat="45.61271" lon="6.85893">
        <ele>1325</ele>
        <time>2020-06-26T11:16:33.000Z</time>
      </trkpt>
      <trkpt lat="45.61271" lon="6.85901">
        <ele>1325.4000244141</ele>
        <time>2020-06-26T11:16:35.000Z</time>
      </trkpt>
      <trkpt lat="45.61269" lon="6.85916">
        <ele>1326.4000244141</ele>
        <time>2020-06-26T11:16:39.000Z</time>
      </trkpt>
      <trkpt lat="45.61269" lon="6.8592">
        <ele>1326.4000244141</ele>
        <time>2020-06-26T11:16:40.000Z</time>
      </trkpt>
      <trkpt lat="45.61267" lon="6.85935">
        <ele>1327.4000244141</ele>
        <time>2020-06-26T11:16:44.000Z</time>
      </trkpt>
      <trkpt lat="45.61265" lon="6.85949">
        <ele>1328.1999511719</ele>
        <time>2020-06-26T11:16:48.000Z</time>
      </trkpt>
      <trkpt lat="45.61264" lon="6.85953">
        <ele>1328.4000244141</ele>
        <time>2020-06-26T11:16:49.000Z</time>
      </trkpt>
      <trkpt lat="45.61261" lon="6.85984">
        <ele>1329.4000244141</ele>
        <time>2020-06-26T11:16:57.000Z</time>
      </trkpt>
      <trkpt lat="45.61258" lon="6.86003">
        <ele>1330.4000244141</ele>
        <time>2020-06-26T11:17:02.000Z</time>
      </trkpt>
      <trkpt lat="45.61255" lon="6.86023">
        <ele>1331</ele>
        <time>2020-06-26T11:17:07.000Z</time>
      </trkpt>
      <trkpt lat="45.61255" lon="6.86027">
        <ele>1331.4000244141</ele>
        <time>2020-06-26T11:17:08.000Z</time>
      </trkpt>
      <trkpt lat="45.61253" lon="6.86043">
        <ele>1332.4000244141</ele>
        <time>2020-06-26T11:17:12.000Z</time>
      </trkpt>
      <trkpt lat="45.61251" lon="6.86055">
        <ele>1332.8000488281</ele>
        <time>2020-06-26T11:17:15.000Z</time>
      </trkpt>
      <trkpt lat="45.61251" lon="6.86063">
        <ele>1333.4000244141</ele>
        <time>2020-06-26T11:17:17.000Z</time>
      </trkpt>
      <trkpt lat="45.61251" lon="6.86082">
        <ele>1334.4000244141</ele>
        <time>2020-06-26T11:17:22.000Z</time>
      </trkpt>
      <trkpt lat="45.61255" lon="6.86089">
        <ele>1335</ele>
        <time>2020-06-26T11:17:25.000Z</time>
      </trkpt>
      <trkpt lat="45.61258" lon="6.86089">
        <ele>1335</ele>
        <time>2020-06-26T11:17:26.000Z</time>
      </trkpt>
      <trkpt lat="45.61262" lon="6.86086">
        <ele>1335.4000244141</ele>
        <time>2020-06-26T11:17:28.000Z</time>
      </trkpt>
      <trkpt lat="45.61265" lon="6.86082">
        <ele>1335.8000488281</ele>
        <time>2020-06-26T11:17:30.000Z</time>
      </trkpt>
      <trkpt lat="45.61268" lon="6.86078">
        <ele>1336.4000244141</ele>
        <time>2020-06-26T11:17:34.000Z</time>
      </trkpt>
      <trkpt lat="45.61269" lon="6.86073">
        <ele>1336.8000488281</ele>
        <time>2020-06-26T11:17:37.000Z</time>
      </trkpt>
      <trkpt lat="45.61271" lon="6.8607">
        <ele>1337.4000244141</ele>
        <time>2020-06-26T11:17:39.000Z</time>
      </trkpt>
      <trkpt lat="45.61272" lon="6.86069">
        <ele>1337.5999755859</ele>
        <time>2020-06-26T11:17:40.000Z</time>
      </trkpt>
      <trkpt lat="45.61274" lon="6.86064">
        <ele>1338</ele>
        <time>2020-06-26T11:17:43.000Z</time>
      </trkpt>
      <trkpt lat="45.61279" lon="6.86051">
        <ele>1338.5999755859</ele>
        <time>2020-06-26T11:17:49.000Z</time>
      </trkpt>
      <trkpt lat="45.6128" lon="6.86049">
        <ele>1338.8000488281</ele>
        <time>2020-06-26T11:17:50.000Z</time>
      </trkpt>
      <trkpt lat="45.61288" lon="6.86031">
        <ele>1339.8000488281</ele>
        <time>2020-06-26T11:17:58.000Z</time>
      </trkpt>
      <trkpt lat="45.61289" lon="6.86029">
        <ele>1339.8000488281</ele>
        <time>2020-06-26T11:17:59.000Z</time>
      </trkpt>
      <trkpt lat="45.61292" lon="6.86023">
        <ele>1340.8000488281</ele>
        <time>2020-06-26T11:18:02.000Z</time>
      </trkpt>
      <trkpt lat="45.61296" lon="6.86016">
        <ele>1341.1999511719</ele>
        <time>2020-06-26T11:18:05.000Z</time>
      </trkpt>
      <trkpt lat="45.613" lon="6.86011">
        <ele>1341.8000488281</ele>
        <time>2020-06-26T11:18:08.000Z</time>
      </trkpt>
      <trkpt lat="45.61305" lon="6.86004">
        <ele>1342.8000488281</ele>
        <time>2020-06-26T11:18:12.000Z</time>
      </trkpt>
      <trkpt lat="45.61306" lon="6.86002">
        <ele>1342.8000488281</ele>
        <time>2020-06-26T11:18:13.000Z</time>
      </trkpt>
      <trkpt lat="45.61314" lon="6.85993">
        <ele>1343.8000488281</ele>
        <time>2020-06-26T11:18:18.000Z</time>
      </trkpt>
      <trkpt lat="45.61315" lon="6.85991">
        <ele>1344</ele>
        <time>2020-06-26T11:18:19.000Z</time>
      </trkpt>
      <trkpt lat="45.61321" lon="6.85979">
        <ele>1345</ele>
        <time>2020-06-26T11:18:24.000Z</time>
      </trkpt>
      <trkpt lat="45.61325" lon="6.8597">
        <ele>1345.8000488281</ele>
        <time>2020-06-26T11:18:28.000Z</time>
      </trkpt>
      <trkpt lat="45.61326" lon="6.85968">
        <ele>1346</ele>
        <time>2020-06-26T11:18:29.000Z</time>
      </trkpt>
      <trkpt lat="45.61331" lon="6.85953">
        <ele>1347</ele>
        <time>2020-06-26T11:18:35.000Z</time>
      </trkpt>
      <trkpt lat="45.61333" lon="6.85943">
        <ele>1348</ele>
        <time>2020-06-26T11:18:39.000Z</time>
      </trkpt>
      <trkpt lat="45.61335" lon="6.85937">
        <ele>1348.4000244141</ele>
        <time>2020-06-26T11:18:41.000Z</time>
      </trkpt>
      <trkpt lat="45.61337" lon="6.85923">
        <ele>1349</ele>
        <time>2020-06-26T11:18:46.000Z</time>
      </trkpt>
      <trkpt lat="45.61339" lon="6.85911">
        <ele>1349.8000488281</ele>
        <time>2020-06-26T11:18:50.000Z</time>
      </trkpt>
      <trkpt lat="45.6134" lon="6.85908">
        <ele>1350</ele>
        <time>2020-06-26T11:18:51.000Z</time>
      </trkpt>
      <trkpt lat="45.61344" lon="6.85892">
        <ele>1351.1999511719</ele>
        <time>2020-06-26T11:18:57.000Z</time>
      </trkpt>
      <trkpt lat="45.61346" lon="6.85887">
        <ele>1351.8000488281</ele>
        <time>2020-06-26T11:18:59.000Z</time>
      </trkpt>
      <trkpt lat="45.61349" lon="6.85879">
        <ele>1352.1999511719</ele>
        <time>2020-06-26T11:19:02.000Z</time>
      </trkpt>
      <trkpt lat="45.61355" lon="6.85867">
        <ele>1353.4000244141</ele>
        <time>2020-06-26T11:19:07.000Z</time>
      </trkpt>
      <trkpt lat="45.61359" lon="6.85859">
        <ele>1354.4000244141</ele>
        <time>2020-06-26T11:19:10.000Z</time>
      </trkpt>
      <trkpt lat="45.6136" lon="6.85857">
        <ele>1354.5999755859</ele>
        <time>2020-06-26T11:19:11.000Z</time>
      </trkpt>
      <trkpt lat="45.61367" lon="6.85846">
        <ele>1355.5999755859</ele>
        <time>2020-06-26T11:19:16.000Z</time>
      </trkpt>
      <trkpt lat="45.61371" lon="6.8584">
        <ele>1356.5999755859</ele>
        <time>2020-06-26T11:19:20.000Z</time>
      </trkpt>
      <trkpt lat="45.61378" lon="6.85828">
        <ele>1357.5999755859</ele>
        <time>2020-06-26T11:19:26.000Z</time>
      </trkpt>
      <trkpt lat="45.61381" lon="6.85825">
        <ele>1358.1999511719</ele>
        <time>2020-06-26T11:19:28.000Z</time>
      </trkpt>
      <trkpt lat="45.61385" lon="6.85821">
        <ele>1358.8000488281</ele>
        <time>2020-06-26T11:19:30.000Z</time>
      </trkpt>
      <trkpt lat="45.61388" lon="6.85818">
        <ele>1359</ele>
        <time>2020-06-26T11:19:32.000Z</time>
      </trkpt>
      <trkpt lat="45.61394" lon="6.85814">
        <ele>1359.5999755859</ele>
        <time>2020-06-26T11:19:35.000Z</time>
      </trkpt>
      <trkpt lat="45.61396" lon="6.85812">
        <ele>1359.8000488281</ele>
        <time>2020-06-26T11:19:36.000Z</time>
      </trkpt>
      <trkpt lat="45.61404" lon="6.85808">
        <ele>1360.8000488281</ele>
        <time>2020-06-26T11:19:40.000Z</time>
      </trkpt>
      <trkpt lat="45.6141" lon="6.85805">
        <ele>1361.5999755859</ele>
        <time>2020-06-26T11:19:43.000Z</time>
      </trkpt>
      <trkpt lat="45.61413" lon="6.85802">
        <ele>1362</ele>
        <time>2020-06-26T11:19:45.000Z</time>
      </trkpt>
      <trkpt lat="45.61423" lon="6.85798">
        <ele>1363</ele>
        <time>2020-06-26T11:19:50.000Z</time>
      </trkpt>
      <trkpt lat="45.61427" lon="6.85796">
        <ele>1363.4000244141</ele>
        <time>2020-06-26T11:19:52.000Z</time>
      </trkpt>
      <trkpt lat="45.61433" lon="6.85792">
        <ele>1364</ele>
        <time>2020-06-26T11:19:55.000Z</time>
      </trkpt>
      <trkpt lat="45.61442" lon="6.85784">
        <ele>1365</ele>
        <time>2020-06-26T11:20:00.000Z</time>
      </trkpt>
      <trkpt lat="45.61448" lon="6.85776">
        <ele>1366</ele>
        <time>2020-06-26T11:20:04.000Z</time>
      </trkpt>
      <trkpt lat="45.61452" lon="6.85765">
        <ele>1367.1999511719</ele>
        <time>2020-06-26T11:20:08.000Z</time>
      </trkpt>
      <trkpt lat="45.6145" lon="6.8575">
        <ele>1368.1999511719</ele>
        <time>2020-06-26T11:20:13.000Z</time>
      </trkpt>
      <trkpt lat="45.61444" lon="6.85737">
        <ele>1369.4000244141</ele>
        <time>2020-06-26T11:20:18.000Z</time>
      </trkpt>
      <trkpt lat="45.61441" lon="6.8573">
        <ele>1369.8000488281</ele>
        <time>2020-06-26T11:20:21.000Z</time>
      </trkpt>
      <trkpt lat="45.61438" lon="6.85725">
        <ele>1370.1999511719</ele>
        <time>2020-06-26T11:20:23.000Z</time>
      </trkpt>
      <trkpt lat="45.61434" lon="6.85711">
        <ele>1371.4000244141</ele>
        <time>2020-06-26T11:20:28.000Z</time>
      </trkpt>
      <trkpt lat="45.61433" lon="6.85708">
        <ele>1371.5999755859</ele>
        <time>2020-06-26T11:20:29.000Z</time>
      </trkpt>
      <trkpt lat="45.6143" lon="6.85697">
        <ele>1372.5999755859</ele>
        <time>2020-06-26T11:20:33.000Z</time>
      </trkpt>
      <trkpt lat="45.61427" lon="6.85688">
        <ele>1373.1999511719</ele>
        <time>2020-06-26T11:20:36.000Z</time>
      </trkpt>
      <trkpt lat="45.61424" lon="6.85678">
        <ele>1373.5999755859</ele>
        <time>2020-06-26T11:20:39.000Z</time>
      </trkpt>
      <trkpt lat="45.61421" lon="6.85666">
        <ele>1374.4000244141</ele>
        <time>2020-06-26T11:20:43.000Z</time>
      </trkpt>
      <trkpt lat="45.61421" lon="6.85662">
        <ele>1374.5999755859</ele>
        <time>2020-06-26T11:20:44.000Z</time>
      </trkpt>
      <trkpt lat="45.61416" lon="6.8564">
        <ele>1376</ele>
        <time>2020-06-26T11:20:50.000Z</time>
      </trkpt>
      <trkpt lat="45.61416" lon="6.85623">
        <ele>1377</ele>
        <time>2020-06-26T11:20:55.000Z</time>
      </trkpt>
      <trkpt lat="45.61416" lon="6.85616">
        <ele>1377.4000244141</ele>
        <time>2020-06-26T11:20:57.000Z</time>
      </trkpt>
      <trkpt lat="45.61417" lon="6.85606">
        <ele>1378.1999511719</ele>
        <time>2020-06-26T11:21:00.000Z</time>
      </trkpt>
      <trkpt lat="45.61419" lon="6.85596">
        <ele>1379</ele>
        <time>2020-06-26T11:21:03.000Z</time>
      </trkpt>
      <trkpt lat="45.61422" lon="6.85586">
        <ele>1379.8000488281</ele>
        <time>2020-06-26T11:21:06.000Z</time>
      </trkpt>
      <trkpt lat="45.61425" lon="6.8558">
        <ele>1380</ele>
        <time>2020-06-26T11:21:08.000Z</time>
      </trkpt>
      <trkpt lat="45.61434" lon="6.85569">
        <ele>1381</ele>
        <time>2020-06-26T11:21:13.000Z</time>
      </trkpt>
      <trkpt lat="45.61437" lon="6.85568">
        <ele>1381.1999511719</ele>
        <time>2020-06-26T11:21:14.000Z</time>
      </trkpt>
      <trkpt lat="45.61445" lon="6.8556">
        <ele>1382.4000244141</ele>
        <time>2020-06-26T11:21:18.000Z</time>
      </trkpt>
      <trkpt lat="45.61449" lon="6.85555">
        <ele>1382.5999755859</ele>
        <time>2020-06-26T11:21:20.000Z</time>
      </trkpt>
      <trkpt lat="45.61457" lon="6.85548">
        <ele>1383.4000244141</ele>
        <time>2020-06-26T11:21:23.000Z</time>
      </trkpt>
      <trkpt lat="45.61474" lon="6.85531">
        <ele>1384.4000244141</ele>
        <time>2020-06-26T11:21:30.000Z</time>
      </trkpt>
      <trkpt lat="45.61477" lon="6.85529">
        <ele>1384.8000488281</ele>
        <time>2020-06-26T11:21:31.000Z</time>
      </trkpt>
      <trkpt lat="45.6149" lon="6.85514">
        <ele>1385.5999755859</ele>
        <time>2020-06-26T11:21:36.000Z</time>
      </trkpt>
      <trkpt lat="45.61499" lon="6.85502">
        <ele>1386</ele>
        <time>2020-06-26T11:21:40.000Z</time>
      </trkpt>
      <trkpt lat="45.61508" lon="6.85489">
        <ele>1386.5999755859</ele>
        <time>2020-06-26T11:21:44.000Z</time>
      </trkpt>
      <trkpt lat="45.61523" lon="6.8547">
        <ele>1387.4000244141</ele>
        <time>2020-06-26T11:21:50.000Z</time>
      </trkpt>
      <trkpt lat="45.61528" lon="6.85464">
        <ele>1387.8000488281</ele>
        <time>2020-06-26T11:21:52.000Z</time>
      </trkpt>
      <trkpt lat="45.61547" lon="6.85442">
        <ele>1389.1999511719</ele>
        <time>2020-06-26T11:22:00.000Z</time>
      </trkpt>
      <trkpt lat="45.6156" lon="6.85425">
        <ele>1390.1999511719</ele>
        <time>2020-06-26T11:22:06.000Z</time>
      </trkpt>
      <trkpt lat="45.6157" lon="6.8541">
        <ele>1391.4000244141</ele>
        <time>2020-06-26T11:22:11.000Z</time>
      </trkpt>
      <trkpt lat="45.61575" lon="6.85406">
        <ele>1391.8000488281</ele>
        <time>2020-06-26T11:22:13.000Z</time>
      </trkpt>
      <trkpt lat="45.6158" lon="6.85403">
        <ele>1392.4000244141</ele>
        <time>2020-06-26T11:22:15.000Z</time>
      </trkpt>
      <trkpt lat="45.61597" lon="6.85392">
        <ele>1393.1999511719</ele>
        <time>2020-06-26T11:22:21.000Z</time>
      </trkpt>
      <trkpt lat="45.616" lon="6.85389">
        <ele>1393.4000244141</ele>
        <time>2020-06-26T11:22:22.000Z</time>
      </trkpt>
      <trkpt lat="45.61608" lon="6.85374">
        <ele>1394</ele>
        <time>2020-06-26T11:22:26.000Z</time>
      </trkpt>
      <trkpt lat="45.61617" lon="6.85358">
        <ele>1394.4000244141</ele>
        <time>2020-06-26T11:22:30.000Z</time>
      </trkpt>
      <trkpt lat="45.6163" lon="6.85339">
        <ele>1395</ele>
        <time>2020-06-26T11:22:35.000Z</time>
      </trkpt>
      <trkpt lat="45.61638" lon="6.85329">
        <ele>1395.4000244141</ele>
        <time>2020-06-26T11:22:38.000Z</time>
      </trkpt>
      <trkpt lat="45.61653" lon="6.85307">
        <ele>1396</ele>
        <time>2020-06-26T11:22:44.000Z</time>
      </trkpt>
      <trkpt lat="45.61662" lon="6.85286">
        <ele>1396.5999755859</ele>
        <time>2020-06-26T11:22:49.000Z</time>
      </trkpt>
      <trkpt lat="45.6167" lon="6.85266">
        <ele>1397.4000244141</ele>
        <time>2020-06-26T11:22:54.000Z</time>
      </trkpt>
      <trkpt lat="45.61674" lon="6.85258">
        <ele>1398</ele>
        <time>2020-06-26T11:22:56.000Z</time>
      </trkpt>
      <trkpt lat="45.61682" lon="6.85238">
        <ele>1398.8000488281</ele>
        <time>2020-06-26T11:23:01.000Z</time>
      </trkpt>
      <trkpt lat="45.61684" lon="6.8523">
        <ele>1399.1999511719</ele>
        <time>2020-06-26T11:23:03.000Z</time>
      </trkpt>
      <trkpt lat="45.61686" lon="6.85217">
        <ele>1400</ele>
        <time>2020-06-26T11:23:06.000Z</time>
      </trkpt>
      <trkpt lat="45.61688" lon="6.85198">
        <ele>1401</ele>
        <time>2020-06-26T11:23:10.000Z</time>
      </trkpt>
      <trkpt lat="45.61689" lon="6.85195">
        <ele>1401.4000244141</ele>
        <time>2020-06-26T11:23:11.000Z</time>
      </trkpt>
      <trkpt lat="45.61695" lon="6.85193">
        <ele>1401.8000488281</ele>
        <time>2020-06-26T11:23:13.000Z</time>
      </trkpt>
      <trkpt lat="45.61698" lon="6.85198">
        <ele>1402.1999511719</ele>
        <time>2020-06-26T11:23:15.000Z</time>
      </trkpt>
      <trkpt lat="45.61698" lon="6.85202">
        <ele>1402.1999511719</ele>
        <time>2020-06-26T11:23:16.000Z</time>
      </trkpt>
      <trkpt lat="45.61695" lon="6.85214">
        <ele>1402.8000488281</ele>
        <time>2020-06-26T11:23:19.000Z</time>
      </trkpt>
      <trkpt lat="45.61694" lon="6.85218">
        <ele>1403.4000244141</ele>
        <time>2020-06-26T11:23:20.000Z</time>
      </trkpt>
      <trkpt lat="45.61693" lon="6.85239">
        <ele>1404.1999511719</ele>
        <time>2020-06-26T11:23:25.000Z</time>
      </trkpt>
      <trkpt lat="45.61692" lon="6.85243">
        <ele>1404.8000488281</ele>
        <time>2020-06-26T11:23:26.000Z</time>
      </trkpt>
      <trkpt lat="45.61692" lon="6.85251">
        <ele>1405.1999511719</ele>
        <time>2020-06-26T11:23:28.000Z</time>
      </trkpt>
      <trkpt lat="45.61688" lon="6.85269">
        <ele>1406.5999755859</ele>
        <time>2020-06-26T11:23:33.000Z</time>
      </trkpt>
      <trkpt lat="45.61686" lon="6.85276">
        <ele>1406.8000488281</ele>
        <time>2020-06-26T11:23:35.000Z</time>
      </trkpt>
      <trkpt lat="45.61683" lon="6.85287">
        <ele>1407.4000244141</ele>
        <time>2020-06-26T11:23:38.000Z</time>
      </trkpt>
      <trkpt lat="45.61677" lon="6.85304">
        <ele>1408.4000244141</ele>
        <time>2020-06-26T11:23:43.000Z</time>
      </trkpt>
      <trkpt lat="45.61671" lon="6.85317">
        <ele>1409.5999755859</ele>
        <time>2020-06-26T11:23:47.000Z</time>
      </trkpt>
      <trkpt lat="45.61662" lon="6.85332">
        <ele>1410.5999755859</ele>
        <time>2020-06-26T11:23:52.000Z</time>
      </trkpt>
      <trkpt lat="45.61656" lon="6.85345">
        <ele>1411.8000488281</ele>
        <time>2020-06-26T11:23:56.000Z</time>
      </trkpt>
      <trkpt lat="45.6165" lon="6.8536">
        <ele>1412.5999755859</ele>
        <time>2020-06-26T11:24:00.000Z</time>
      </trkpt>
      <trkpt lat="45.61644" lon="6.8538">
        <ele>1413.5999755859</ele>
        <time>2020-06-26T11:24:05.000Z</time>
      </trkpt>
      <trkpt lat="45.61639" lon="6.85397">
        <ele>1414.4000244141</ele>
        <time>2020-06-26T11:24:09.000Z</time>
      </trkpt>
      <trkpt lat="45.61637" lon="6.85401">
        <ele>1414.8000488281</ele>
        <time>2020-06-26T11:24:10.000Z</time>
      </trkpt>
      <trkpt lat="45.61629" lon="6.85427">
        <ele>1415.8000488281</ele>
        <time>2020-06-26T11:24:16.000Z</time>
      </trkpt>
      <trkpt lat="45.61625" lon="6.85445">
        <ele>1416</ele>
        <time>2020-06-26T11:24:20.000Z</time>
      </trkpt>
      <trkpt lat="45.61623" lon="6.85453">
        <ele>1416.5999755859</ele>
        <time>2020-06-26T11:24:22.000Z</time>
      </trkpt>
      <trkpt lat="45.61622" lon="6.85472">
        <ele>1417.5999755859</ele>
        <time>2020-06-26T11:24:26.000Z</time>
      </trkpt>
      <trkpt lat="45.61621" lon="6.85477">
        <ele>1417.8000488281</ele>
        <time>2020-06-26T11:24:27.000Z</time>
      </trkpt>
      <trkpt lat="45.61621" lon="6.85495">
        <ele>1418.8000488281</ele>
        <time>2020-06-26T11:24:31.000Z</time>
      </trkpt>
      <trkpt lat="45.61618" lon="6.85514">
        <ele>1419.5999755859</ele>
        <time>2020-06-26T11:24:35.000Z</time>
      </trkpt>
      <trkpt lat="45.61616" lon="6.85522">
        <ele>1419.8000488281</ele>
        <time>2020-06-26T11:24:37.000Z</time>
      </trkpt>
      <trkpt lat="45.61609" lon="6.85548">
        <ele>1420.5999755859</ele>
        <time>2020-06-26T11:24:43.000Z</time>
      </trkpt>
      <trkpt lat="45.61607" lon="6.85556">
        <ele>1420.8000488281</ele>
        <time>2020-06-26T11:24:45.000Z</time>
      </trkpt>
      <trkpt lat="45.61601" lon="6.85578">
        <ele>1422</ele>
        <time>2020-06-26T11:24:50.000Z</time>
      </trkpt>
      <trkpt lat="45.61599" lon="6.85587">
        <ele>1422.1999511719</ele>
        <time>2020-06-26T11:24:52.000Z</time>
      </trkpt>
      <trkpt lat="45.61596" lon="6.856">
        <ele>1423</ele>
        <time>2020-06-26T11:24:55.000Z</time>
      </trkpt>
      <trkpt lat="45.6159" lon="6.85637">
        <ele>1424</ele>
        <time>2020-06-26T11:25:03.000Z</time>
      </trkpt>
      <trkpt lat="45.6159" lon="6.85659">
        <ele>1425</ele>
        <time>2020-06-26T11:25:08.000Z</time>
      </trkpt>
      <trkpt lat="45.61592" lon="6.85677">
        <ele>1426.1999511719</ele>
        <time>2020-06-26T11:25:12.000Z</time>
      </trkpt>
      <trkpt lat="45.61595" lon="6.85697">
        <ele>1427.4000244141</ele>
        <time>2020-06-26T11:25:17.000Z</time>
      </trkpt>
      <trkpt lat="45.61596" lon="6.85714">
        <ele>1428.4000244141</ele>
        <time>2020-06-26T11:25:21.000Z</time>
      </trkpt>
      <trkpt lat="45.61595" lon="6.85726">
        <ele>1429.4000244141</ele>
        <time>2020-06-26T11:25:24.000Z</time>
      </trkpt>
      <trkpt lat="45.61594" lon="6.85742">
        <ele>1430.5999755859</ele>
        <time>2020-06-26T11:25:28.000Z</time>
      </trkpt>
      <trkpt lat="45.61594" lon="6.85746">
        <ele>1430.8000488281</ele>
        <time>2020-06-26T11:25:29.000Z</time>
      </trkpt>
      <trkpt lat="45.61591" lon="6.85761">
        <ele>1431.8000488281</ele>
        <time>2020-06-26T11:25:33.000Z</time>
      </trkpt>
      <trkpt lat="45.61589" lon="6.85776">
        <ele>1432.5999755859</ele>
        <time>2020-06-26T11:25:37.000Z</time>
      </trkpt>
      <trkpt lat="45.61588" lon="6.8578">
        <ele>1432.8000488281</ele>
        <time>2020-06-26T11:25:38.000Z</time>
      </trkpt>
      <trkpt lat="45.61586" lon="6.85791">
        <ele>1433.5999755859</ele>
        <time>2020-06-26T11:25:41.000Z</time>
      </trkpt>
      <trkpt lat="45.61578" lon="6.85816">
        <ele>1434.8000488281</ele>
        <time>2020-06-26T11:25:48.000Z</time>
      </trkpt>
      <trkpt lat="45.6157" lon="6.85827">
        <ele>1435.8000488281</ele>
        <time>2020-06-26T11:25:52.000Z</time>
      </trkpt>
      <trkpt lat="45.61563" lon="6.85832">
        <ele>1436.4000244141</ele>
        <time>2020-06-26T11:25:55.000Z</time>
      </trkpt>
      <trkpt lat="45.61557" lon="6.85834">
        <ele>1436.5999755859</ele>
        <time>2020-06-26T11:25:57.000Z</time>
      </trkpt>
      <trkpt lat="45.61546" lon="6.85837">
        <ele>1437.4000244141</ele>
        <time>2020-06-26T11:26:01.000Z</time>
      </trkpt>
      <trkpt lat="45.61541" lon="6.85841">
        <ele>1437.8000488281</ele>
        <time>2020-06-26T11:26:03.000Z</time>
      </trkpt>
      <trkpt lat="45.61535" lon="6.85853">
        <ele>1438.5999755859</ele>
        <time>2020-06-26T11:26:06.000Z</time>
      </trkpt>
      <trkpt lat="45.61533" lon="6.85857">
        <ele>1439</ele>
        <time>2020-06-26T11:26:07.000Z</time>
      </trkpt>
      <trkpt lat="45.61532" lon="6.85876">
        <ele>1439.5999755859</ele>
        <time>2020-06-26T11:26:11.000Z</time>
      </trkpt>
      <trkpt lat="45.61533" lon="6.85885">
        <ele>1439.8000488281</ele>
        <time>2020-06-26T11:26:13.000Z</time>
      </trkpt>
      <trkpt lat="45.61534" lon="6.85912">
        <ele>1441</ele>
        <time>2020-06-26T11:26:19.000Z</time>
      </trkpt>
      <trkpt lat="45.61534" lon="6.85931">
        <ele>1442</ele>
        <time>2020-06-26T11:26:24.000Z</time>
      </trkpt>
      <trkpt lat="45.61534" lon="6.85939">
        <ele>1442.1999511719</ele>
        <time>2020-06-26T11:26:26.000Z</time>
      </trkpt>
      <trkpt lat="45.61535" lon="6.85954">
        <ele>1443.1999511719</ele>
        <time>2020-06-26T11:26:30.000Z</time>
      </trkpt>
      <trkpt lat="45.61536" lon="6.85974">
        <ele>1444.1999511719</ele>
        <time>2020-06-26T11:26:35.000Z</time>
      </trkpt>
      <trkpt lat="45.61537" lon="6.85977">
        <ele>1444.5999755859</ele>
        <time>2020-06-26T11:26:36.000Z</time>
      </trkpt>
      <trkpt lat="45.61538" lon="6.85992">
        <ele>1445.4000244141</ele>
        <time>2020-06-26T11:26:40.000Z</time>
      </trkpt>
      <trkpt lat="45.61539" lon="6.86007">
        <ele>1446.5999755859</ele>
        <time>2020-06-26T11:26:44.000Z</time>
      </trkpt>
      <trkpt lat="45.6154" lon="6.86018">
        <ele>1447.4000244141</ele>
        <time>2020-06-26T11:26:47.000Z</time>
      </trkpt>
      <trkpt lat="45.61541" lon="6.86022">
        <ele>1447.5999755859</ele>
        <time>2020-06-26T11:26:48.000Z</time>
      </trkpt>
      <trkpt lat="45.61545" lon="6.86037">
        <ele>1448.5999755859</ele>
        <time>2020-06-26T11:26:52.000Z</time>
      </trkpt>
      <trkpt lat="45.61549" lon="6.86056">
        <ele>1449.5999755859</ele>
        <time>2020-06-26T11:26:57.000Z</time>
      </trkpt>
      <trkpt lat="45.61552" lon="6.86063">
        <ele>1450</ele>
        <time>2020-06-26T11:26:59.000Z</time>
      </trkpt>
      <trkpt lat="45.61554" lon="6.86075">
        <ele>1450.5999755859</ele>
        <time>2020-06-26T11:27:02.000Z</time>
      </trkpt>
      <trkpt lat="45.61556" lon="6.86092">
        <ele>1451.5999755859</ele>
        <time>2020-06-26T11:27:06.000Z</time>
      </trkpt>
      <trkpt lat="45.61557" lon="6.86096">
        <ele>1452</ele>
        <time>2020-06-26T11:27:07.000Z</time>
      </trkpt>
      <trkpt lat="45.61558" lon="6.86108">
        <ele>1452.8000488281</ele>
        <time>2020-06-26T11:27:10.000Z</time>
      </trkpt>
      <trkpt lat="45.61561" lon="6.86128">
        <ele>1453.8000488281</ele>
        <time>2020-06-26T11:27:15.000Z</time>
      </trkpt>
      <trkpt lat="45.61564" lon="6.86135">
        <ele>1454.4000244141</ele>
        <time>2020-06-26T11:27:17.000Z</time>
      </trkpt>
      <trkpt lat="45.61567" lon="6.86143">
        <ele>1454.8000488281</ele>
        <time>2020-06-26T11:27:19.000Z</time>
      </trkpt>
      <trkpt lat="45.61574" lon="6.86161">
        <ele>1455.8000488281</ele>
        <time>2020-06-26T11:27:24.000Z</time>
      </trkpt>
      <trkpt lat="45.61575" lon="6.86165">
        <ele>1456</ele>
        <time>2020-06-26T11:27:25.000Z</time>
      </trkpt>
      <trkpt lat="45.61582" lon="6.86187">
        <ele>1457.1999511719</ele>
        <time>2020-06-26T11:27:31.000Z</time>
      </trkpt>
      <trkpt lat="45.61583" lon="6.86199">
        <ele>1457.5999755859</ele>
        <time>2020-06-26T11:27:34.000Z</time>
      </trkpt>
      <trkpt lat="45.61585" lon="6.86211">
        <ele>1458</ele>
        <time>2020-06-26T11:27:37.000Z</time>
      </trkpt>
      <trkpt lat="45.61585" lon="6.86231">
        <ele>1459</ele>
        <time>2020-06-26T11:27:42.000Z</time>
      </trkpt>
      <trkpt lat="45.61585" lon="6.86235">
        <ele>1459.1999511719</ele>
        <time>2020-06-26T11:27:43.000Z</time>
      </trkpt>
      <trkpt lat="45.61583" lon="6.86251">
        <ele>1460</ele>
        <time>2020-06-26T11:27:47.000Z</time>
      </trkpt>
      <trkpt lat="45.6158" lon="6.8627">
        <ele>1461</ele>
        <time>2020-06-26T11:27:52.000Z</time>
      </trkpt>
      <trkpt lat="45.61579" lon="6.86274">
        <ele>1461.4000244141</ele>
        <time>2020-06-26T11:27:53.000Z</time>
      </trkpt>
      <trkpt lat="45.6158" lon="6.86289">
        <ele>1462</ele>
        <time>2020-06-26T11:27:57.000Z</time>
      </trkpt>
      <trkpt lat="45.61582" lon="6.86291">
        <ele>1462.1999511719</ele>
        <time>2020-06-26T11:27:58.000Z</time>
      </trkpt>
      <trkpt lat="45.6159" lon="6.86288">
        <ele>1462.8000488281</ele>
        <time>2020-06-26T11:28:01.000Z</time>
      </trkpt>
      <trkpt lat="45.61594" lon="6.86282">
        <ele>1463.1999511719</ele>
        <time>2020-06-26T11:28:03.000Z</time>
      </trkpt>
      <trkpt lat="45.61601" lon="6.86269">
        <ele>1464.4000244141</ele>
        <time>2020-06-26T11:28:07.000Z</time>
      </trkpt>
      <trkpt lat="45.61603" lon="6.86266">
        <ele>1464.1999511719</ele>
        <time>2020-06-26T11:28:08.000Z</time>
      </trkpt>
      <trkpt lat="45.6161" lon="6.86245">
        <ele>1465.1999511719</ele>
        <time>2020-06-26T11:28:14.000Z</time>
      </trkpt>
      <trkpt lat="45.61613" lon="6.86234">
        <ele>1466.1999511719</ele>
        <time>2020-06-26T11:28:17.000Z</time>
      </trkpt>
      <trkpt lat="45.61615" lon="6.8622">
        <ele>1467.4000244141</ele>
        <time>2020-06-26T11:28:21.000Z</time>
      </trkpt>
      <trkpt lat="45.61615" lon="6.86207">
        <ele>1468.4000244141</ele>
        <time>2020-06-26T11:28:25.000Z</time>
      </trkpt>
      <trkpt lat="45.61615" lon="6.862">
        <ele>1468.5999755859</ele>
        <time>2020-06-26T11:28:27.000Z</time>
      </trkpt>
      <trkpt lat="45.61614" lon="6.8619">
        <ele>1469.4000244141</ele>
        <time>2020-06-26T11:28:30.000Z</time>
      </trkpt>
      <trkpt lat="45.61612" lon="6.86174">
        <ele>1470.5999755859</ele>
        <time>2020-06-26T11:28:35.000Z</time>
      </trkpt>
      <trkpt lat="45.61612" lon="6.86171">
        <ele>1470.8000488281</ele>
        <time>2020-06-26T11:28:36.000Z</time>
      </trkpt>
      <trkpt lat="45.61612" lon="6.86161">
        <ele>1471.5999755859</ele>
        <time>2020-06-26T11:28:39.000Z</time>
      </trkpt>
      <trkpt lat="45.61614" lon="6.86148">
        <ele>1472.5999755859</ele>
        <time>2020-06-26T11:28:43.000Z</time>
      </trkpt>
      <trkpt lat="45.61615" lon="6.86136">
        <ele>1473.8000488281</ele>
        <time>2020-06-26T11:28:47.000Z</time>
      </trkpt>
      <trkpt lat="45.61616" lon="6.8612">
        <ele>1475</ele>
        <time>2020-06-26T11:28:52.000Z</time>
      </trkpt>
      <trkpt lat="45.61618" lon="6.86105">
        <ele>1476</ele>
        <time>2020-06-26T11:28:57.000Z</time>
      </trkpt>
      <trkpt lat="45.61619" lon="6.86102">
        <ele>1476.1999511719</ele>
        <time>2020-06-26T11:28:58.000Z</time>
      </trkpt>
      <trkpt lat="45.61621" lon="6.8609">
        <ele>1477.4000244141</ele>
        <time>2020-06-26T11:29:02.000Z</time>
      </trkpt>
      <trkpt lat="45.61623" lon="6.86079">
        <ele>1478.5999755859</ele>
        <time>2020-06-26T11:29:06.000Z</time>
      </trkpt>
      <trkpt lat="45.61626" lon="6.86071">
        <ele>1479.1999511719</ele>
        <time>2020-06-26T11:29:09.000Z</time>
      </trkpt>
      <trkpt lat="45.61629" lon="6.86063">
        <ele>1479.4000244141</ele>
        <time>2020-06-26T11:29:12.000Z</time>
      </trkpt>
      <trkpt lat="45.61633" lon="6.86053">
        <ele>1480.1999511719</ele>
        <time>2020-06-26T11:29:16.000Z</time>
      </trkpt>
      <trkpt lat="45.61636" lon="6.86045">
        <ele>1480.4000244141</ele>
        <time>2020-06-26T11:29:19.000Z</time>
      </trkpt>
      <trkpt lat="45.6164" lon="6.86034">
        <ele>1481.4000244141</ele>
        <time>2020-06-26T11:29:23.000Z</time>
      </trkpt>
      <trkpt lat="45.61642" lon="6.86025">
        <ele>1482.1999511719</ele>
        <time>2020-06-26T11:29:26.000Z</time>
      </trkpt>
      <trkpt lat="45.61643" lon="6.8602">
        <ele>1482.5999755859</ele>
        <time>2020-06-26T11:29:28.000Z</time>
      </trkpt>
      <trkpt lat="45.61645" lon="6.86008">
        <ele>1483.4000244141</ele>
        <time>2020-06-26T11:29:32.000Z</time>
      </trkpt>
      <trkpt lat="45.61645" lon="6.86002">
        <ele>1484</ele>
        <time>2020-06-26T11:29:34.000Z</time>
      </trkpt>
      <trkpt lat="45.61646" lon="6.85999">
        <ele>1484.4000244141</ele>
        <time>2020-06-26T11:29:35.000Z</time>
      </trkpt>
      <trkpt lat="45.61648" lon="6.85985">
        <ele>1485.5999755859</ele>
        <time>2020-06-26T11:29:40.000Z</time>
      </trkpt>
      <trkpt lat="45.6165" lon="6.85976">
        <ele>1486.1999511719</ele>
        <time>2020-06-26T11:29:43.000Z</time>
      </trkpt>
      <trkpt lat="45.61651" lon="6.8597">
        <ele>1486.5999755859</ele>
        <time>2020-06-26T11:29:45.000Z</time>
      </trkpt>
      <trkpt lat="45.61656" lon="6.85957">
        <ele>1487.8000488281</ele>
        <time>2020-06-26T11:29:50.000Z</time>
      </trkpt>
      <trkpt lat="45.61659" lon="6.85952">
        <ele>1488.1999511719</ele>
        <time>2020-06-26T11:29:52.000Z</time>
      </trkpt>
      <trkpt lat="45.61665" lon="6.85943">
        <ele>1489</ele>
        <time>2020-06-26T11:29:56.000Z</time>
      </trkpt>
      <trkpt lat="45.61671" lon="6.85931">
        <ele>1490</ele>
        <time>2020-06-26T11:30:01.000Z</time>
      </trkpt>
      <trkpt lat="45.61674" lon="6.85926">
        <ele>1490.4000244141</ele>
        <time>2020-06-26T11:30:03.000Z</time>
      </trkpt>
      <trkpt lat="45.61679" lon="6.85918">
        <ele>1491</ele>
        <time>2020-06-26T11:30:07.000Z</time>
      </trkpt>
      <trkpt lat="45.61685" lon="6.85909">
        <ele>1492.1999511719</ele>
        <time>2020-06-26T11:30:11.000Z</time>
      </trkpt>
      <trkpt lat="45.61687" lon="6.85904">
        <ele>1492.4000244141</ele>
        <time>2020-06-26T11:30:13.000Z</time>
      </trkpt>
      <trkpt lat="45.61691" lon="6.85897">
        <ele>1493.1999511719</ele>
        <time>2020-06-26T11:30:16.000Z</time>
      </trkpt>
      <trkpt lat="45.61697" lon="6.85886">
        <ele>1494.4000244141</ele>
        <time>2020-06-26T11:30:21.000Z</time>
      </trkpt>
      <trkpt lat="45.61699" lon="6.85881">
        <ele>1494.5999755859</ele>
        <time>2020-06-26T11:30:23.000Z</time>
      </trkpt>
      <trkpt lat="45.61706" lon="6.8587">
        <ele>1495.1999511719</ele>
        <time>2020-06-26T11:30:28.000Z</time>
      </trkpt>
      <trkpt lat="45.61715" lon="6.85861">
        <ele>1496</ele>
        <time>2020-06-26T11:30:33.000Z</time>
      </trkpt>
      <trkpt lat="45.61717" lon="6.85859">
        <ele>1496.1999511719</ele>
        <time>2020-06-26T11:30:34.000Z</time>
      </trkpt>
      <trkpt lat="45.61724" lon="6.8585">
        <ele>1497.5999755859</ele>
        <time>2020-06-26T11:30:38.000Z</time>
      </trkpt>
      <trkpt lat="45.61727" lon="6.85845">
        <ele>1498.1999511719</ele>
        <time>2020-06-26T11:30:40.000Z</time>
      </trkpt>
      <trkpt lat="45.61729" lon="6.8584">
        <ele>1498.5999755859</ele>
        <time>2020-06-26T11:30:42.000Z</time>
      </trkpt>
      <trkpt lat="45.61736" lon="6.85824">
        <ele>1499.8000488281</ele>
        <time>2020-06-26T11:30:48.000Z</time>
      </trkpt>
      <trkpt lat="45.61741" lon="6.85814">
        <ele>1500</ele>
        <time>2020-06-26T11:30:52.000Z</time>
      </trkpt>
      <trkpt lat="45.61744" lon="6.85809">
        <ele>1500.5999755859</ele>
        <time>2020-06-26T11:30:54.000Z</time>
      </trkpt>
      <trkpt lat="45.61752" lon="6.85799">
        <ele>1501.8000488281</ele>
        <time>2020-06-26T11:30:59.000Z</time>
      </trkpt>
      <trkpt lat="45.61757" lon="6.85793">
        <ele>1502.4000244141</ele>
        <time>2020-06-26T11:31:02.000Z</time>
      </trkpt>
      <trkpt lat="45.6176" lon="6.8579">
        <ele>1502.8000488281</ele>
        <time>2020-06-26T11:31:04.000Z</time>
      </trkpt>
      <trkpt lat="45.61767" lon="6.85782">
        <ele>1503.8000488281</ele>
        <time>2020-06-26T11:31:08.000Z</time>
      </trkpt>
      <trkpt lat="45.61777" lon="6.85767">
        <ele>1505.1999511719</ele>
        <time>2020-06-26T11:31:15.000Z</time>
      </trkpt>
      <trkpt lat="45.61784" lon="6.85755">
        <ele>1506.1999511719</ele>
        <time>2020-06-26T11:31:20.000Z</time>
      </trkpt>
      <trkpt lat="45.61791" lon="6.85747">
        <ele>1507.1999511719</ele>
        <time>2020-06-26T11:31:24.000Z</time>
      </trkpt>
      <trkpt lat="45.61792" lon="6.85745">
        <ele>1507.4000244141</ele>
        <time>2020-06-26T11:31:25.000Z</time>
      </trkpt>
      <trkpt lat="45.61797" lon="6.85739">
        <ele>1508.1999511719</ele>
        <time>2020-06-26T11:31:28.000Z</time>
      </trkpt>
      <trkpt lat="45.61803" lon="6.85727">
        <ele>1509.4000244141</ele>
        <time>2020-06-26T11:31:33.000Z</time>
      </trkpt>
      <trkpt lat="45.61808" lon="6.85717">
        <ele>1510.4000244141</ele>
        <time>2020-06-26T11:31:37.000Z</time>
      </trkpt>
      <trkpt lat="45.61813" lon="6.85708">
        <ele>1511.5999755859</ele>
        <time>2020-06-26T11:31:41.000Z</time>
      </trkpt>
      <trkpt lat="45.61815" lon="6.85706">
        <ele>1511.8000488281</ele>
        <time>2020-06-26T11:31:42.000Z</time>
      </trkpt>
      <trkpt lat="45.61821" lon="6.85694">
        <ele>1512.5999755859</ele>
        <time>2020-06-26T11:31:47.000Z</time>
      </trkpt>
      <trkpt lat="45.61827" lon="6.85685">
        <ele>1513.8000488281</ele>
        <time>2020-06-26T11:31:51.000Z</time>
      </trkpt>
      <trkpt lat="45.61829" lon="6.85681">
        <ele>1514.4000244141</ele>
        <time>2020-06-26T11:31:53.000Z</time>
      </trkpt>
      <trkpt lat="45.61833" lon="6.85678">
        <ele>1514.8000488281</ele>
        <time>2020-06-26T11:31:55.000Z</time>
      </trkpt>
      <trkpt lat="45.61842" lon="6.85671">
        <ele>1516</ele>
        <time>2020-06-26T11:32:00.000Z</time>
      </trkpt>
      <trkpt lat="45.61846" lon="6.85669">
        <ele>1516.5999755859</ele>
        <time>2020-06-26T11:32:02.000Z</time>
      </trkpt>
      <trkpt lat="45.61852" lon="6.85665">
        <ele>1517.1999511719</ele>
        <time>2020-06-26T11:32:05.000Z</time>
      </trkpt>
      <trkpt lat="45.6186" lon="6.85658">
        <ele>1518.1999511719</ele>
        <time>2020-06-26T11:32:09.000Z</time>
      </trkpt>
      <trkpt lat="45.61862" lon="6.85657">
        <ele>1518.4000244141</ele>
        <time>2020-06-26T11:32:10.000Z</time>
      </trkpt>
      <trkpt lat="45.61869" lon="6.85646">
        <ele>1519.4000244141</ele>
        <time>2020-06-26T11:32:15.000Z</time>
      </trkpt>
      <trkpt lat="45.61872" lon="6.85641">
        <ele>1519.8000488281</ele>
        <time>2020-06-26T11:32:17.000Z</time>
      </trkpt>
      <trkpt lat="45.61875" lon="6.85635">
        <ele>1520.4000244141</ele>
        <time>2020-06-26T11:32:19.000Z</time>
      </trkpt>
      <trkpt lat="45.61881" lon="6.85619">
        <ele>1521.1999511719</ele>
        <time>2020-06-26T11:32:24.000Z</time>
      </trkpt>
      <trkpt lat="45.61882" lon="6.85616">
        <ele>1521.4000244141</ele>
        <time>2020-06-26T11:32:25.000Z</time>
      </trkpt>
      <trkpt lat="45.61885" lon="6.85599">
        <ele>1522.5999755859</ele>
        <time>2020-06-26T11:32:30.000Z</time>
      </trkpt>
      <trkpt lat="45.61885" lon="6.85595">
        <ele>1522.5999755859</ele>
        <time>2020-06-26T11:32:31.000Z</time>
      </trkpt>
      <trkpt lat="45.61886" lon="6.85582">
        <ele>1523.5999755859</ele>
        <time>2020-06-26T11:32:35.000Z</time>
      </trkpt>
      <trkpt lat="45.61888" lon="6.85559">
        <ele>1524.5999755859</ele>
        <time>2020-06-26T11:32:41.000Z</time>
      </trkpt>
      <trkpt lat="45.61888" lon="6.85556">
        <ele>1525</ele>
        <time>2020-06-26T11:32:42.000Z</time>
      </trkpt>
      <trkpt lat="45.61889" lon="6.85542">
        <ele>1525.4000244141</ele>
        <time>2020-06-26T11:32:46.000Z</time>
      </trkpt>
      <trkpt lat="45.61891" lon="6.85531">
        <ele>1526.1999511719</ele>
        <time>2020-06-26T11:32:49.000Z</time>
      </trkpt>
      <trkpt lat="45.61893" lon="6.8552">
        <ele>1526.5999755859</ele>
        <time>2020-06-26T11:32:52.000Z</time>
      </trkpt>
      <trkpt lat="45.61896" lon="6.85505">
        <ele>1527</ele>
        <time>2020-06-26T11:32:56.000Z</time>
      </trkpt>
      <trkpt lat="45.61898" lon="6.85494">
        <ele>1527.8000488281</ele>
        <time>2020-06-26T11:32:59.000Z</time>
      </trkpt>
      <trkpt lat="45.619" lon="6.8548">
        <ele>1528.5999755859</ele>
        <time>2020-06-26T11:33:03.000Z</time>
      </trkpt>
      <trkpt lat="45.61903" lon="6.85468">
        <ele>1529.5999755859</ele>
        <time>2020-06-26T11:33:06.000Z</time>
      </trkpt>
      <trkpt lat="45.61907" lon="6.85448">
        <ele>1530.5999755859</ele>
        <time>2020-06-26T11:33:11.000Z</time>
      </trkpt>
      <trkpt lat="45.61909" lon="6.85445">
        <ele>1530.8000488281</ele>
        <time>2020-06-26T11:33:12.000Z</time>
      </trkpt>
      <trkpt lat="45.61917" lon="6.85426">
        <ele>1531.5999755859</ele>
        <time>2020-06-26T11:33:18.000Z</time>
      </trkpt>
      <trkpt lat="45.61918" lon="6.85423">
        <ele>1531.8000488281</ele>
        <time>2020-06-26T11:33:19.000Z</time>
      </trkpt>
      <trkpt lat="45.61927" lon="6.85408">
        <ele>1533</ele>
        <time>2020-06-26T11:33:25.000Z</time>
      </trkpt>
      <trkpt lat="45.61929" lon="6.85406">
        <ele>1533.1999511719</ele>
        <time>2020-06-26T11:33:26.000Z</time>
      </trkpt>
      <trkpt lat="45.61932" lon="6.85401">
        <ele>1533.8000488281</ele>
        <time>2020-06-26T11:33:28.000Z</time>
      </trkpt>
      <trkpt lat="45.61937" lon="6.85391">
        <ele>1535</ele>
        <time>2020-06-26T11:33:32.000Z</time>
      </trkpt>
      <trkpt lat="45.61941" lon="6.85381">
        <ele>1535.5999755859</ele>
        <time>2020-06-26T11:33:35.000Z</time>
      </trkpt>
      <trkpt lat="45.61944" lon="6.85375">
        <ele>1536</ele>
        <time>2020-06-26T11:33:37.000Z</time>
      </trkpt>
      <trkpt lat="45.61951" lon="6.85356">
        <ele>1537</ele>
        <time>2020-06-26T11:33:43.000Z</time>
      </trkpt>
      <trkpt lat="45.61952" lon="6.85353">
        <ele>1537.1999511719</ele>
        <time>2020-06-26T11:33:44.000Z</time>
      </trkpt>
      <trkpt lat="45.61955" lon="6.85344">
        <ele>1538</ele>
        <time>2020-06-26T11:33:47.000Z</time>
      </trkpt>
      <trkpt lat="45.61958" lon="6.85332">
        <ele>1538.8000488281</ele>
        <time>2020-06-26T11:33:51.000Z</time>
      </trkpt>
      <trkpt lat="45.6196" lon="6.85326">
        <ele>1539.4000244141</ele>
        <time>2020-06-26T11:33:53.000Z</time>
      </trkpt>
      <trkpt lat="45.61964" lon="6.85308">
        <ele>1540.4000244141</ele>
        <time>2020-06-26T11:33:59.000Z</time>
      </trkpt>
      <trkpt lat="45.61965" lon="6.85301">
        <ele>1541</ele>
        <time>2020-06-26T11:34:01.000Z</time>
      </trkpt>
      <trkpt lat="45.61967" lon="6.85295">
        <ele>1541.4000244141</ele>
        <time>2020-06-26T11:34:03.000Z</time>
      </trkpt>
      <trkpt lat="45.61971" lon="6.85283">
        <ele>1542.1999511719</ele>
        <time>2020-06-26T11:34:07.000Z</time>
      </trkpt>
      <trkpt lat="45.61976" lon="6.85273">
        <ele>1543.1999511719</ele>
        <time>2020-06-26T11:34:11.000Z</time>
      </trkpt>
      <trkpt lat="45.61977" lon="6.8527">
        <ele>1543.4000244141</ele>
        <time>2020-06-26T11:34:12.000Z</time>
      </trkpt>
      <trkpt lat="45.61981" lon="6.85255">
        <ele>1544.5999755859</ele>
        <time>2020-06-26T11:34:17.000Z</time>
      </trkpt>
      <trkpt lat="45.61984" lon="6.85246">
        <ele>1545</ele>
        <time>2020-06-26T11:34:20.000Z</time>
      </trkpt>
      <trkpt lat="45.61986" lon="6.8524">
        <ele>1545.4000244141</ele>
        <time>2020-06-26T11:34:22.000Z</time>
      </trkpt>
      <trkpt lat="45.61991" lon="6.85229">
        <ele>1546.4000244141</ele>
        <time>2020-06-26T11:34:26.000Z</time>
      </trkpt>
      <trkpt lat="45.61993" lon="6.85223">
        <ele>1547</ele>
        <time>2020-06-26T11:34:28.000Z</time>
      </trkpt>
      <trkpt lat="45.61997" lon="6.85215">
        <ele>1548</ele>
        <time>2020-06-26T11:34:31.000Z</time>
      </trkpt>
      <trkpt lat="45.62002" lon="6.85205">
        <ele>1548.8000488281</ele>
        <time>2020-06-26T11:34:35.000Z</time>
      </trkpt>
      <trkpt lat="45.62003" lon="6.85203">
        <ele>1549.1999511719</ele>
        <time>2020-06-26T11:34:36.000Z</time>
      </trkpt>
      <trkpt lat="45.6201" lon="6.8519">
        <ele>1550.1999511719</ele>
        <time>2020-06-26T11:34:41.000Z</time>
      </trkpt>
      <trkpt lat="45.62013" lon="6.85183">
        <ele>1550.8000488281</ele>
        <time>2020-06-26T11:34:44.000Z</time>
      </trkpt>
      <trkpt lat="45.62015" lon="6.8518">
        <ele>1551.1999511719</ele>
        <time>2020-06-26T11:34:45.000Z</time>
      </trkpt>
      <trkpt lat="45.62021" lon="6.85167">
        <ele>1552.4000244141</ele>
        <time>2020-06-26T11:34:51.000Z</time>
      </trkpt>
      <trkpt lat="45.62022" lon="6.85164">
        <ele>1552.4000244141</ele>
        <time>2020-06-26T11:34:52.000Z</time>
      </trkpt>
      <trkpt lat="45.62024" lon="6.85156">
        <ele>1553.5999755859</ele>
        <time>2020-06-26T11:34:55.000Z</time>
      </trkpt>
      <trkpt lat="45.62027" lon="6.85142">
        <ele>1554.5999755859</ele>
        <time>2020-06-26T11:35:00.000Z</time>
      </trkpt>
      <trkpt lat="45.62027" lon="6.85139">
        <ele>1554.8000488281</ele>
        <time>2020-06-26T11:35:01.000Z</time>
      </trkpt>
      <trkpt lat="45.62028" lon="6.85127">
        <ele>1555.8000488281</ele>
        <time>2020-06-26T11:35:05.000Z</time>
      </trkpt>
      <trkpt lat="45.62029" lon="6.85112">
        <ele>1556.5999755859</ele>
        <time>2020-06-26T11:35:10.000Z</time>
      </trkpt>
      <trkpt lat="45.62029" lon="6.85097">
        <ele>1557.8000488281</ele>
        <time>2020-06-26T11:35:15.000Z</time>
      </trkpt>
      <trkpt lat="45.62032" lon="6.85083">
        <ele>1558.5999755859</ele>
        <time>2020-06-26T11:35:20.000Z</time>
      </trkpt>
      <trkpt lat="45.62033" lon="6.8508">
        <ele>1559</ele>
        <time>2020-06-26T11:35:21.000Z</time>
      </trkpt>
      <trkpt lat="45.62039" lon="6.85072">
        <ele>1560.1999511719</ele>
        <time>2020-06-26T11:35:25.000Z</time>
      </trkpt>
      <trkpt lat="45.62044" lon="6.85067">
        <ele>1561</ele>
        <time>2020-06-26T11:35:28.000Z</time>
      </trkpt>
      <trkpt lat="45.62045" lon="6.85066">
        <ele>1561.1999511719</ele>
        <time>2020-06-26T11:35:29.000Z</time>
      </trkpt>
      <trkpt lat="45.62055" lon="6.85063">
        <ele>1562.1999511719</ele>
        <time>2020-06-26T11:35:34.000Z</time>
      </trkpt>
      <trkpt lat="45.62057" lon="6.85062">
        <ele>1562.4000244141</ele>
        <time>2020-06-26T11:35:35.000Z</time>
      </trkpt>
      <trkpt lat="45.62059" lon="6.85061">
        <ele>1562.5999755859</ele>
        <time>2020-06-26T11:35:36.000Z</time>
      </trkpt>
      <trkpt lat="45.62065" lon="6.85058">
        <ele>1563.4000244141</ele>
        <time>2020-06-26T11:35:39.000Z</time>
      </trkpt>
      <trkpt lat="45.62072" lon="6.8505">
        <ele>1564.5999755859</ele>
        <time>2020-06-26T11:35:43.000Z</time>
      </trkpt>
      <trkpt lat="45.6208" lon="6.85036">
        <ele>1565.5999755859</ele>
        <time>2020-06-26T11:35:49.000Z</time>
      </trkpt>
      <trkpt lat="45.62083" lon="6.85029">
        <ele>1566.1999511719</ele>
        <time>2020-06-26T11:35:52.000Z</time>
      </trkpt>
      <trkpt lat="45.62084" lon="6.85024">
        <ele>1566.5999755859</ele>
        <time>2020-06-26T11:35:54.000Z</time>
      </trkpt>
      <trkpt lat="45.62085" lon="6.85013">
        <ele>1567.5999755859</ele>
        <time>2020-06-26T11:35:58.000Z</time>
      </trkpt>
      <trkpt lat="45.62085" lon="6.8501">
        <ele>1567.8000488281</ele>
        <time>2020-06-26T11:35:59.000Z</time>
      </trkpt>
      <trkpt lat="45.62086" lon="6.85002">
        <ele>1568.8000488281</ele>
        <time>2020-06-26T11:36:02.000Z</time>
      </trkpt>
      <trkpt lat="45.62087" lon="6.8499">
        <ele>1569.5999755859</ele>
        <time>2020-06-26T11:36:06.000Z</time>
      </trkpt>
      <trkpt lat="45.62088" lon="6.84988">
        <ele>1569.8000488281</ele>
        <time>2020-06-26T11:36:07.000Z</time>
      </trkpt>
      <trkpt lat="45.62091" lon="6.84977">
        <ele>1570.8000488281</ele>
        <time>2020-06-26T11:36:11.000Z</time>
      </trkpt>
      <trkpt lat="45.62093" lon="6.8497">
        <ele>1571.5999755859</ele>
        <time>2020-06-26T11:36:14.000Z</time>
      </trkpt>
      <trkpt lat="45.62094" lon="6.84964">
        <ele>1572</ele>
        <time>2020-06-26T11:36:16.000Z</time>
      </trkpt>
      <trkpt lat="45.62095" lon="6.84953">
        <ele>1572.8000488281</ele>
        <time>2020-06-26T11:36:20.000Z</time>
      </trkpt>
      <trkpt lat="45.62095" lon="6.84942">
        <ele>1573.1999511719</ele>
        <time>2020-06-26T11:36:24.000Z</time>
      </trkpt>
      <trkpt lat="45.62094" lon="6.84934">
        <ele>1574</ele>
        <time>2020-06-26T11:36:27.000Z</time>
      </trkpt>
      <trkpt lat="45.62093" lon="6.8492">
        <ele>1575.1999511719</ele>
        <time>2020-06-26T11:36:32.000Z</time>
      </trkpt>
      <trkpt lat="45.62093" lon="6.84914">
        <ele>1576</ele>
        <time>2020-06-26T11:36:34.000Z</time>
      </trkpt>
      <trkpt lat="45.62093" lon="6.84911">
        <ele>1576</ele>
        <time>2020-06-26T11:36:35.000Z</time>
      </trkpt>
      <trkpt lat="45.62093" lon="6.84909">
        <ele>1576.1999511719</ele>
        <time>2020-06-26T11:36:36.000Z</time>
      </trkpt>
      <trkpt lat="45.62094" lon="6.84892">
        <ele>1577.4000244141</ele>
        <time>2020-06-26T11:36:42.000Z</time>
      </trkpt>
      <trkpt lat="45.62095" lon="6.84884">
        <ele>1578.4000244141</ele>
        <time>2020-06-26T11:36:45.000Z</time>
      </trkpt>
      <trkpt lat="45.62095" lon="6.84879">
        <ele>1578.5999755859</ele>
        <time>2020-06-26T11:36:47.000Z</time>
      </trkpt>
      <trkpt lat="45.62098" lon="6.84867">
        <ele>1579.4000244141</ele>
        <time>2020-06-26T11:36:52.000Z</time>
      </trkpt>
      <trkpt lat="45.621" lon="6.84862">
        <ele>1580.1999511719</ele>
        <time>2020-06-26T11:36:54.000Z</time>
      </trkpt>
      <trkpt lat="45.62101" lon="6.84859">
        <ele>1580.5999755859</ele>
        <time>2020-06-26T11:36:55.000Z</time>
      </trkpt>
      <trkpt lat="45.62104" lon="6.84848">
        <ele>1581.5999755859</ele>
        <time>2020-06-26T11:37:00.000Z</time>
      </trkpt>
      <trkpt lat="45.62105" lon="6.84845">
        <ele>1581.8000488281</ele>
        <time>2020-06-26T11:37:01.000Z</time>
      </trkpt>
      <trkpt lat="45.62108" lon="6.84837">
        <ele>1582.5999755859</ele>
        <time>2020-06-26T11:37:04.000Z</time>
      </trkpt>
      <trkpt lat="45.62111" lon="6.84824">
        <ele>1583.5999755859</ele>
        <time>2020-06-26T11:37:09.000Z</time>
      </trkpt>
      <trkpt lat="45.62112" lon="6.84822">
        <ele>1583.8000488281</ele>
        <time>2020-06-26T11:37:10.000Z</time>
      </trkpt>
      <trkpt lat="45.62115" lon="6.84812">
        <ele>1584.8000488281</ele>
        <time>2020-06-26T11:37:14.000Z</time>
      </trkpt>
      <trkpt lat="45.62119" lon="6.84799">
        <ele>1585.8000488281</ele>
        <time>2020-06-26T11:37:19.000Z</time>
      </trkpt>
      <trkpt lat="45.62121" lon="6.84794">
        <ele>1586.1999511719</ele>
        <time>2020-06-26T11:37:21.000Z</time>
      </trkpt>
      <trkpt lat="45.62123" lon="6.84789">
        <ele>1586.8000488281</ele>
        <time>2020-06-26T11:37:23.000Z</time>
      </trkpt>
      <trkpt lat="45.62127" lon="6.84779">
        <ele>1588</ele>
        <time>2020-06-26T11:37:27.000Z</time>
      </trkpt>
      <trkpt lat="45.62132" lon="6.84764">
        <ele>1589</ele>
        <time>2020-06-26T11:37:33.000Z</time>
      </trkpt>
      <trkpt lat="45.62132" lon="6.84761">
        <ele>1589.1999511719</ele>
        <time>2020-06-26T11:37:34.000Z</time>
      </trkpt>
      <trkpt lat="45.62136" lon="6.84751">
        <ele>1590</ele>
        <time>2020-06-26T11:37:38.000Z</time>
      </trkpt>
      <trkpt lat="45.6214" lon="6.84738">
        <ele>1590.8000488281</ele>
        <time>2020-06-26T11:37:43.000Z</time>
      </trkpt>
      <trkpt lat="45.6214" lon="6.84736">
        <ele>1591</ele>
        <time>2020-06-26T11:37:44.000Z</time>
      </trkpt>
      <trkpt lat="45.62143" lon="6.84725">
        <ele>1592</ele>
        <time>2020-06-26T11:37:48.000Z</time>
      </trkpt>
      <trkpt lat="45.62146" lon="6.84715">
        <ele>1593.4000244141</ele>
        <time>2020-06-26T11:37:52.000Z</time>
      </trkpt>
      <trkpt lat="45.62149" lon="6.84701">
        <ele>1594.5999755859</ele>
        <time>2020-06-26T11:37:57.000Z</time>
      </trkpt>
      <trkpt lat="45.62152" lon="6.84688">
        <ele>1595.5999755859</ele>
        <time>2020-06-26T11:38:02.000Z</time>
      </trkpt>
      <trkpt lat="45.62155" lon="6.84678">
        <ele>1596.8000488281</ele>
        <time>2020-06-26T11:38:06.000Z</time>
      </trkpt>
      <trkpt lat="45.62157" lon="6.84671">
        <ele>1597.4000244141</ele>
        <time>2020-06-26T11:38:09.000Z</time>
      </trkpt>
      <trkpt lat="45.6216" lon="6.84662">
        <ele>1597.8000488281</ele>
        <time>2020-06-26T11:38:13.000Z</time>
      </trkpt>
      <trkpt lat="45.62164" lon="6.84649">
        <ele>1599</ele>
        <time>2020-06-26T11:38:18.000Z</time>
      </trkpt>
      <trkpt lat="45.62164" lon="6.84647">
        <ele>1599.1999511719</ele>
        <time>2020-06-26T11:38:19.000Z</time>
      </trkpt>
      <trkpt lat="45.62165" lon="6.84644">
        <ele>1599.4000244141</ele>
        <time>2020-06-26T11:38:20.000Z</time>
      </trkpt>
      <trkpt lat="45.62166" lon="6.84639">
        <ele>1600.1999511719</ele>
        <time>2020-06-26T11:38:22.000Z</time>
      </trkpt>
      <trkpt lat="45.62168" lon="6.84635">
        <ele>1600.5999755859</ele>
        <time>2020-06-26T11:38:24.000Z</time>
      </trkpt>
      <trkpt lat="45.62169" lon="6.84631">
        <ele>1601.1999511719</ele>
        <time>2020-06-26T11:38:26.000Z</time>
      </trkpt>
      <trkpt lat="45.62171" lon="6.84625">
        <ele>1601.5999755859</ele>
        <time>2020-06-26T11:38:29.000Z</time>
      </trkpt>
      <trkpt lat="45.62172" lon="6.84624">
        <ele>1601.5999755859</ele>
        <time>2020-06-26T11:38:30.000Z</time>
      </trkpt>
      <trkpt lat="45.62173" lon="6.84623">
        <ele>1601.8000488281</ele>
        <time>2020-06-26T11:38:31.000Z</time>
      </trkpt>
      <trkpt lat="45.62173" lon="6.84621">
        <ele>1602</ele>
        <time>2020-06-26T11:38:32.000Z</time>
      </trkpt>
      <trkpt lat="45.62172" lon="6.8462">
        <ele>1602.1999511719</ele>
        <time>2020-06-26T11:38:34.000Z</time>
      </trkpt>
      <trkpt lat="45.62171" lon="6.84621">
        <ele>1602.5999755859</ele>
        <time>2020-06-26T11:38:35.000Z</time>
      </trkpt>
      <trkpt lat="45.62171" lon="6.84622">
        <ele>1603</ele>
        <time>2020-06-26T11:38:37.000Z</time>
      </trkpt>
      <trkpt lat="45.62171" lon="6.84622">
        <ele>1603.1999511719</ele>
        <time>2020-06-26T11:38:38.000Z</time>
      </trkpt>
      <trkpt lat="45.62172" lon="6.84623">
        <ele>1605.4000244141</ele>
        <time>2020-06-26T11:51:31.000Z</time>
      </trkpt>
      <trkpt lat="45.62174" lon="6.84626">
        <ele>1605.4000244141</ele>
        <time>2020-06-26T11:51:34.000Z</time>
      </trkpt>
      <trkpt lat="45.62173" lon="6.84636">
        <ele>1605.4000244141</ele>
        <time>2020-06-26T11:51:38.000Z</time>
      </trkpt>
      <trkpt lat="45.62173" lon="6.84639">
        <ele>1605.4000244141</ele>
        <time>2020-06-26T11:51:39.000Z</time>
      </trkpt>
      <trkpt lat="45.62171" lon="6.84667">
        <ele>1605.8000488281</ele>
        <time>2020-06-26T11:51:46.000Z</time>
      </trkpt>
      <trkpt lat="45.62172" lon="6.84688">
        <ele>1606.4000244141</ele>
        <time>2020-06-26T11:51:51.000Z</time>
      </trkpt>
      <trkpt lat="45.62174" lon="6.84708">
        <ele>1607</ele>
        <time>2020-06-26T11:51:56.000Z</time>
      </trkpt>
      <trkpt lat="45.62176" lon="6.84729">
        <ele>1607.8000488281</ele>
        <time>2020-06-26T11:52:01.000Z</time>
      </trkpt>
      <trkpt lat="45.62177" lon="6.84749">
        <ele>1608.1999511719</ele>
        <time>2020-06-26T11:52:06.000Z</time>
      </trkpt>
      <trkpt lat="45.62178" lon="6.84764">
        <ele>1608.5999755859</ele>
        <time>2020-06-26T11:52:10.000Z</time>
      </trkpt>
      <trkpt lat="45.62178" lon="6.84776">
        <ele>1609</ele>
        <time>2020-06-26T11:52:13.000Z</time>
      </trkpt>
      <trkpt lat="45.62179" lon="6.84797">
        <ele>1609.8000488281</ele>
        <time>2020-06-26T11:52:18.000Z</time>
      </trkpt>
      <trkpt lat="45.62179" lon="6.84821">
        <ele>1610.8000488281</ele>
        <time>2020-06-26T11:52:24.000Z</time>
      </trkpt>
      <trkpt lat="45.62177" lon="6.8486">
        <ele>1611.4000244141</ele>
        <time>2020-06-26T11:52:33.000Z</time>
      </trkpt>
      <trkpt lat="45.62176" lon="6.84869">
        <ele>1611.5999755859</ele>
        <time>2020-06-26T11:52:35.000Z</time>
      </trkpt>
      <trkpt lat="45.62175" lon="6.84899">
        <ele>1612.5999755859</ele>
        <time>2020-06-26T11:52:42.000Z</time>
      </trkpt>
      <trkpt lat="45.62174" lon="6.84903">
        <ele>1612.8000488281</ele>
        <time>2020-06-26T11:52:43.000Z</time>
      </trkpt>
      <trkpt lat="45.62174" lon="6.84929">
        <ele>1613.5999755859</ele>
        <time>2020-06-26T11:52:49.000Z</time>
      </trkpt>
      <trkpt lat="45.62175" lon="6.84943">
        <ele>1614.1999511719</ele>
        <time>2020-06-26T11:52:52.000Z</time>
      </trkpt>
      <trkpt lat="45.62176" lon="6.84963">
        <ele>1614.8000488281</ele>
        <time>2020-06-26T11:52:56.000Z</time>
      </trkpt>
      <trkpt lat="45.62178" lon="6.84987">
        <ele>1615.1999511719</ele>
        <time>2020-06-26T11:53:01.000Z</time>
      </trkpt>
      <trkpt lat="45.6218" lon="6.85006">
        <ele>1615.8000488281</ele>
        <time>2020-06-26T11:53:05.000Z</time>
      </trkpt>
      <trkpt lat="45.62181" lon="6.85047">
        <ele>1617</ele>
        <time>2020-06-26T11:53:13.000Z</time>
      </trkpt>
      <trkpt lat="45.62172" lon="6.85079">
        <ele>1617.8000488281</ele>
        <time>2020-06-26T11:53:19.000Z</time>
      </trkpt>
      <trkpt lat="45.6216" lon="6.85115">
        <ele>1619</ele>
        <time>2020-06-26T11:53:26.000Z</time>
      </trkpt>
      <trkpt lat="45.62159" lon="6.8512">
        <ele>1619.1999511719</ele>
        <time>2020-06-26T11:53:27.000Z</time>
      </trkpt>
      <trkpt lat="45.62152" lon="6.85156">
        <ele>1620.1999511719</ele>
        <time>2020-06-26T11:53:34.000Z</time>
      </trkpt>
      <trkpt lat="45.62148" lon="6.85185">
        <ele>1621</ele>
        <time>2020-06-26T11:53:39.000Z</time>
      </trkpt>
      <trkpt lat="45.62146" lon="6.85196">
        <ele>1621.4000244141</ele>
        <time>2020-06-26T11:53:41.000Z</time>
      </trkpt>
      <trkpt lat="45.62143" lon="6.85226">
        <ele>1622.4000244141</ele>
        <time>2020-06-26T11:53:46.000Z</time>
      </trkpt>
      <trkpt lat="45.62143" lon="6.85243">
        <ele>1623</ele>
        <time>2020-06-26T11:53:49.000Z</time>
      </trkpt>
      <trkpt lat="45.62144" lon="6.85261">
        <ele>1623.5999755859</ele>
        <time>2020-06-26T11:53:52.000Z</time>
      </trkpt>
      <trkpt lat="45.62146" lon="6.85289">
        <ele>1624.8000488281</ele>
        <time>2020-06-26T11:53:57.000Z</time>
      </trkpt>
      <trkpt lat="45.62148" lon="6.85337">
        <ele>1625.5999755859</ele>
        <time>2020-06-26T11:54:06.000Z</time>
      </trkpt>
      <trkpt lat="45.62148" lon="6.85357">
        <ele>1626.8000488281</ele>
        <time>2020-06-26T11:54:10.000Z</time>
      </trkpt>
      <trkpt lat="45.62149" lon="6.85378">
        <ele>1627.1999511719</ele>
        <time>2020-06-26T11:54:14.000Z</time>
      </trkpt>
      <trkpt lat="45.6215" lon="6.85393">
        <ele>1628</ele>
        <time>2020-06-26T11:54:17.000Z</time>
      </trkpt>
      <trkpt lat="45.62152" lon="6.85421">
        <ele>1628.8000488281</ele>
        <time>2020-06-26T11:54:23.000Z</time>
      </trkpt>
      <trkpt lat="45.62153" lon="6.8543">
        <ele>1628.8000488281</ele>
        <time>2020-06-26T11:54:25.000Z</time>
      </trkpt>
      <trkpt lat="45.6216" lon="6.85449">
        <ele>1629.5999755859</ele>
        <time>2020-06-26T11:54:30.000Z</time>
      </trkpt>
      <trkpt lat="45.62161" lon="6.85453">
        <ele>1629.8000488281</ele>
        <time>2020-06-26T11:54:31.000Z</time>
      </trkpt>
      <trkpt lat="45.62169" lon="6.85472">
        <ele>1630.4000244141</ele>
        <time>2020-06-26T11:54:36.000Z</time>
      </trkpt>
      <trkpt lat="45.62172" lon="6.85485">
        <ele>1631</ele>
        <time>2020-06-26T11:54:39.000Z</time>
      </trkpt>
      <trkpt lat="45.62172" lon="6.85498">
        <ele>1631.4000244141</ele>
        <time>2020-06-26T11:54:42.000Z</time>
      </trkpt>
      <trkpt lat="45.62169" lon="6.85526">
        <ele>1632</ele>
        <time>2020-06-26T11:54:48.000Z</time>
      </trkpt>
      <trkpt lat="45.62168" lon="6.8553">
        <ele>1632.1999511719</ele>
        <time>2020-06-26T11:54:49.000Z</time>
      </trkpt>
      <trkpt lat="45.62162" lon="6.85557">
        <ele>1632.8000488281</ele>
        <time>2020-06-26T11:54:55.000Z</time>
      </trkpt>
      <trkpt lat="45.62161" lon="6.85561">
        <ele>1633</ele>
        <time>2020-06-26T11:54:56.000Z</time>
      </trkpt>
      <trkpt lat="45.62153" lon="6.85592">
        <ele>1634.1999511719</ele>
        <time>2020-06-26T11:55:03.000Z</time>
      </trkpt>
      <trkpt lat="45.62151" lon="6.856">
        <ele>1634.1999511719</ele>
        <time>2020-06-26T11:55:05.000Z</time>
      </trkpt>
      <trkpt lat="45.62143" lon="6.8563">
        <ele>1635.1999511719</ele>
        <time>2020-06-26T11:55:12.000Z</time>
      </trkpt>
      <trkpt lat="45.6214" lon="6.85643">
        <ele>1635.5999755859</ele>
        <time>2020-06-26T11:55:15.000Z</time>
      </trkpt>
      <trkpt lat="45.62139" lon="6.85655">
        <ele>1636.1999511719</ele>
        <time>2020-06-26T11:55:18.000Z</time>
      </trkpt>
      <trkpt lat="45.62142" lon="6.85677">
        <ele>1636.4000244141</ele>
        <time>2020-06-26T11:55:23.000Z</time>
      </trkpt>
      <trkpt lat="45.62144" lon="6.85689">
        <ele>1637</ele>
        <time>2020-06-26T11:55:26.000Z</time>
      </trkpt>
      <trkpt lat="45.62146" lon="6.85711">
        <ele>1638.1999511719</ele>
        <time>2020-06-26T11:55:31.000Z</time>
      </trkpt>
      <trkpt lat="45.62138" lon="6.85737">
        <ele>1638.8000488281</ele>
        <time>2020-06-26T11:55:37.000Z</time>
      </trkpt>
      <trkpt lat="45.62132" lon="6.85748">
        <ele>1639</ele>
        <time>2020-06-26T11:55:40.000Z</time>
      </trkpt>
      <trkpt lat="45.62125" lon="6.85763">
        <ele>1639.8000488281</ele>
        <time>2020-06-26T11:55:44.000Z</time>
      </trkpt>
      <trkpt lat="45.62121" lon="6.85775">
        <ele>1640.5999755859</ele>
        <time>2020-06-26T11:55:47.000Z</time>
      </trkpt>
      <trkpt lat="45.62119" lon="6.85794">
        <ele>1641.1999511719</ele>
        <time>2020-06-26T11:55:51.000Z</time>
      </trkpt>
      <trkpt lat="45.62117" lon="6.85808">
        <ele>1641.5999755859</ele>
        <time>2020-06-26T11:55:54.000Z</time>
      </trkpt>
      <trkpt lat="45.62116" lon="6.85836">
        <ele>1642.4000244141</ele>
        <time>2020-06-26T11:56:00.000Z</time>
      </trkpt>
      <trkpt lat="45.62116" lon="6.8585">
        <ele>1642.5999755859</ele>
        <time>2020-06-26T11:56:03.000Z</time>
      </trkpt>
      <trkpt lat="45.62113" lon="6.8588">
        <ele>1643.5999755859</ele>
        <time>2020-06-26T11:56:10.000Z</time>
      </trkpt>
      <trkpt lat="45.62113" lon="6.85884">
        <ele>1644</ele>
        <time>2020-06-26T11:56:11.000Z</time>
      </trkpt>
      <trkpt lat="45.62108" lon="6.85923">
        <ele>1644.5999755859</ele>
        <time>2020-06-26T11:56:19.000Z</time>
      </trkpt>
      <trkpt lat="45.62105" lon="6.85938">
        <ele>1645</ele>
        <time>2020-06-26T11:56:22.000Z</time>
      </trkpt>
      <trkpt lat="45.62103" lon="6.85948">
        <ele>1645.1999511719</ele>
        <time>2020-06-26T11:56:24.000Z</time>
      </trkpt>
      <trkpt lat="45.62102" lon="6.85957">
        <ele>1645.5999755859</ele>
        <time>2020-06-26T11:56:26.000Z</time>
      </trkpt>
      <trkpt lat="45.62104" lon="6.85961">
        <ele>1645.8000488281</ele>
        <time>2020-06-26T11:56:27.000Z</time>
      </trkpt>
      <trkpt lat="45.62109" lon="6.85966">
        <ele>1646</ele>
        <time>2020-06-26T11:56:29.000Z</time>
      </trkpt>
      <trkpt lat="45.62112" lon="6.85966">
        <ele>1646.1999511719</ele>
        <time>2020-06-26T11:56:30.000Z</time>
      </trkpt>
      <trkpt lat="45.62121" lon="6.85954">
        <ele>1646.8000488281</ele>
        <time>2020-06-26T11:56:34.000Z</time>
      </trkpt>
      <trkpt lat="45.62123" lon="6.85945">
        <ele>1647.1999511719</ele>
        <time>2020-06-26T11:56:36.000Z</time>
      </trkpt>
      <trkpt lat="45.62124" lon="6.8594">
        <ele>1647.4000244141</ele>
        <time>2020-06-26T11:56:37.000Z</time>
      </trkpt>
      <trkpt lat="45.62126" lon="6.85925">
        <ele>1648</ele>
        <time>2020-06-26T11:56:40.000Z</time>
      </trkpt>
      <trkpt lat="45.62131" lon="6.85889">
        <ele>1649</ele>
        <time>2020-06-26T11:56:48.000Z</time>
      </trkpt>
      <trkpt lat="45.62132" lon="6.8588">
        <ele>1649.4000244141</ele>
        <time>2020-06-26T11:56:50.000Z</time>
      </trkpt>
      <trkpt lat="45.62137" lon="6.85852">
        <ele>1650.1999511719</ele>
        <time>2020-06-26T11:56:56.000Z</time>
      </trkpt>
      <trkpt lat="45.62138" lon="6.85843">
        <ele>1650.5999755859</ele>
        <time>2020-06-26T11:56:58.000Z</time>
      </trkpt>
      <trkpt lat="45.6214" lon="6.8582">
        <ele>1651.4000244141</ele>
        <time>2020-06-26T11:57:03.000Z</time>
      </trkpt>
      <trkpt lat="45.62141" lon="6.85811">
        <ele>1651.5999755859</ele>
        <time>2020-06-26T11:57:05.000Z</time>
      </trkpt>
      <trkpt lat="45.62143" lon="6.85793">
        <ele>1652.4000244141</ele>
        <time>2020-06-26T11:57:09.000Z</time>
      </trkpt>
      <trkpt lat="45.62148" lon="6.85772">
        <ele>1653</ele>
        <time>2020-06-26T11:57:14.000Z</time>
      </trkpt>
      <trkpt lat="45.62153" lon="6.85759">
        <ele>1653.4000244141</ele>
        <time>2020-06-26T11:57:17.000Z</time>
      </trkpt>
      <trkpt lat="45.62162" lon="6.85746">
        <ele>1654.4000244141</ele>
        <time>2020-06-26T11:57:21.000Z</time>
      </trkpt>
      <trkpt lat="45.62164" lon="6.85743">
        <ele>1654.8000488281</ele>
        <time>2020-06-26T11:57:22.000Z</time>
      </trkpt>
      <trkpt lat="45.62186" lon="6.8572">
        <ele>1655.8000488281</ele>
        <time>2020-06-26T11:57:30.000Z</time>
      </trkpt>
      <trkpt lat="45.62188" lon="6.85717">
        <ele>1656</ele>
        <time>2020-06-26T11:57:31.000Z</time>
      </trkpt>
      <trkpt lat="45.62195" lon="6.85707">
        <ele>1656.8000488281</ele>
        <time>2020-06-26T11:57:34.000Z</time>
      </trkpt>
      <trkpt lat="45.62197" lon="6.85703">
        <ele>1657</ele>
        <time>2020-06-26T11:57:35.000Z</time>
      </trkpt>
      <trkpt lat="45.622" lon="6.85695">
        <ele>1657.4000244141</ele>
        <time>2020-06-26T11:57:37.000Z</time>
      </trkpt>
      <trkpt lat="45.62201" lon="6.85685">
        <ele>1658</ele>
        <time>2020-06-26T11:57:39.000Z</time>
      </trkpt>
      <trkpt lat="45.622" lon="6.85671">
        <ele>1658.5999755859</ele>
        <time>2020-06-26T11:57:42.000Z</time>
      </trkpt>
      <trkpt lat="45.62199" lon="6.85661">
        <ele>1659</ele>
        <time>2020-06-26T11:57:44.000Z</time>
      </trkpt>
      <trkpt lat="45.62198" lon="6.85632">
        <ele>1660</ele>
        <time>2020-06-26T11:57:50.000Z</time>
      </trkpt>
      <trkpt lat="45.62198" lon="6.85627">
        <ele>1660.1999511719</ele>
        <time>2020-06-26T11:57:51.000Z</time>
      </trkpt>
      <trkpt lat="45.62204" lon="6.85604">
        <ele>1660.8000488281</ele>
        <time>2020-06-26T11:57:56.000Z</time>
      </trkpt>
      <trkpt lat="45.6221" lon="6.85592">
        <ele>1661.4000244141</ele>
        <time>2020-06-26T11:57:59.000Z</time>
      </trkpt>
      <trkpt lat="45.62222" lon="6.85574">
        <ele>1662.1999511719</ele>
        <time>2020-06-26T11:58:04.000Z</time>
      </trkpt>
      <trkpt lat="45.62224" lon="6.8557">
        <ele>1662.1999511719</ele>
        <time>2020-06-26T11:58:05.000Z</time>
      </trkpt>
      <trkpt lat="45.62237" lon="6.85549">
        <ele>1663.4000244141</ele>
        <time>2020-06-26T11:58:11.000Z</time>
      </trkpt>
      <trkpt lat="45.62243" lon="6.85531">
        <ele>1664.5999755859</ele>
        <time>2020-06-26T11:58:15.000Z</time>
      </trkpt>
      <trkpt lat="45.62244" lon="6.8552">
        <ele>1665</ele>
        <time>2020-06-26T11:58:17.000Z</time>
      </trkpt>
      <trkpt lat="45.62246" lon="6.85506">
        <ele>1665.8000488281</ele>
        <time>2020-06-26T11:58:20.000Z</time>
      </trkpt>
      <trkpt lat="45.62251" lon="6.85488">
        <ele>1666.4000244141</ele>
        <time>2020-06-26T11:58:24.000Z</time>
      </trkpt>
      <trkpt lat="45.62253" lon="6.85479">
        <ele>1666.8000488281</ele>
        <time>2020-06-26T11:58:26.000Z</time>
      </trkpt>
      <trkpt lat="45.6226" lon="6.85452">
        <ele>1668</ele>
        <time>2020-06-26T11:58:32.000Z</time>
      </trkpt>
      <trkpt lat="45.62261" lon="6.85428">
        <ele>1668.8000488281</ele>
        <time>2020-06-26T11:58:37.000Z</time>
      </trkpt>
      <trkpt lat="45.6226" lon="6.85423">
        <ele>1669</ele>
        <time>2020-06-26T11:58:38.000Z</time>
      </trkpt>
      <trkpt lat="45.62258" lon="6.85397">
        <ele>1669.8000488281</ele>
        <time>2020-06-26T11:58:43.000Z</time>
      </trkpt>
      <trkpt lat="45.62257" lon="6.85377">
        <ele>1670.4000244141</ele>
        <time>2020-06-26T11:58:47.000Z</time>
      </trkpt>
      <trkpt lat="45.62257" lon="6.85362">
        <ele>1670.8000488281</ele>
        <time>2020-06-26T11:58:50.000Z</time>
      </trkpt>
      <trkpt lat="45.62259" lon="6.85338">
        <ele>1671.5999755859</ele>
        <time>2020-06-26T11:58:55.000Z</time>
      </trkpt>
      <trkpt lat="45.62261" lon="6.85329">
        <ele>1672</ele>
        <time>2020-06-26T11:58:57.000Z</time>
      </trkpt>
      <trkpt lat="45.62266" lon="6.85299">
        <ele>1673.1999511719</ele>
        <time>2020-06-26T11:59:03.000Z</time>
      </trkpt>
      <trkpt lat="45.62269" lon="6.85286">
        <ele>1673.8000488281</ele>
        <time>2020-06-26T11:59:06.000Z</time>
      </trkpt>
      <trkpt lat="45.62275" lon="6.85268">
        <ele>1674.1999511719</ele>
        <time>2020-06-26T11:59:10.000Z</time>
      </trkpt>
      <trkpt lat="45.62282" lon="6.8525">
        <ele>1674.8000488281</ele>
        <time>2020-06-26T11:59:14.000Z</time>
      </trkpt>
      <trkpt lat="45.62285" lon="6.85241">
        <ele>1675.1999511719</ele>
        <time>2020-06-26T11:59:16.000Z</time>
      </trkpt>
      <trkpt lat="45.6229" lon="6.85228">
        <ele>1676.1999511719</ele>
        <time>2020-06-26T11:59:19.000Z</time>
      </trkpt>
      <trkpt lat="45.62299" lon="6.85202">
        <ele>1677.1999511719</ele>
        <time>2020-06-26T11:59:25.000Z</time>
      </trkpt>
      <trkpt lat="45.62307" lon="6.8518">
        <ele>1678.1999511719</ele>
        <time>2020-06-26T11:59:30.000Z</time>
      </trkpt>
      <trkpt lat="45.62312" lon="6.85156">
        <ele>1678.8000488281</ele>
        <time>2020-06-26T11:59:35.000Z</time>
      </trkpt>
      <trkpt lat="45.62314" lon="6.85141">
        <ele>1679.1999511719</ele>
        <time>2020-06-26T11:59:38.000Z</time>
      </trkpt>
      <trkpt lat="45.62317" lon="6.85116">
        <ele>1680.1999511719</ele>
        <time>2020-06-26T11:59:43.000Z</time>
      </trkpt>
      <trkpt lat="45.62318" lon="6.85106">
        <ele>1680.5999755859</ele>
        <time>2020-06-26T11:59:45.000Z</time>
      </trkpt>
      <trkpt lat="45.62326" lon="6.85085">
        <ele>1681.4000244141</ele>
        <time>2020-06-26T11:59:50.000Z</time>
      </trkpt>
      <trkpt lat="45.62329" lon="6.85084">
        <ele>1681.8000488281</ele>
        <time>2020-06-26T11:59:51.000Z</time>
      </trkpt>
      <trkpt lat="45.62334" lon="6.85094">
        <ele>1682.4000244141</ele>
        <time>2020-06-26T11:59:54.000Z</time>
      </trkpt>
      <trkpt lat="45.62331" lon="6.8511">
        <ele>1683</ele>
        <time>2020-06-26T11:59:57.000Z</time>
      </trkpt>
      <trkpt lat="45.62328" lon="6.85122">
        <ele>1683.1999511719</ele>
        <time>2020-06-26T11:59:59.000Z</time>
      </trkpt>
      <trkpt lat="45.62326" lon="6.85134">
        <ele>1683.5999755859</ele>
        <time>2020-06-26T12:00:01.000Z</time>
      </trkpt>
      <trkpt lat="45.62324" lon="6.85145">
        <ele>1684.8000488281</ele>
        <time>2020-06-26T12:00:03.000Z</time>
      </trkpt>
      <trkpt lat="45.62318" lon="6.85175">
        <ele>1685.1999511719</ele>
        <time>2020-06-26T12:00:08.000Z</time>
      </trkpt>
      <trkpt lat="45.6231" lon="6.85199">
        <ele>1685.5999755859</ele>
        <time>2020-06-26T12:00:12.000Z</time>
      </trkpt>
      <trkpt lat="45.62302" lon="6.85224">
        <ele>1686</ele>
        <time>2020-06-26T12:00:16.000Z</time>
      </trkpt>
      <trkpt lat="45.62291" lon="6.85278">
        <ele>1686.4000244141</ele>
        <time>2020-06-26T12:00:24.000Z</time>
      </trkpt>
      <trkpt lat="45.62287" lon="6.85306">
        <ele>1686.5999755859</ele>
        <time>2020-06-26T12:00:28.000Z</time>
      </trkpt>
      <trkpt lat="45.62282" lon="6.85345">
        <ele>1687</ele>
        <time>2020-06-26T12:00:34.000Z</time>
      </trkpt>
      <trkpt lat="45.62286" lon="6.85379">
        <ele>1687.5999755859</ele>
        <time>2020-06-26T12:00:39.000Z</time>
      </trkpt>
      <trkpt lat="45.62289" lon="6.85398">
        <ele>1688.1999511719</ele>
        <time>2020-06-26T12:00:42.000Z</time>
      </trkpt>
      <trkpt lat="45.62292" lon="6.85417">
        <ele>1688.5999755859</ele>
        <time>2020-06-26T12:00:45.000Z</time>
      </trkpt>
      <trkpt lat="45.62297" lon="6.85451">
        <ele>1689.4000244141</ele>
        <time>2020-06-26T12:00:51.000Z</time>
      </trkpt>
      <trkpt lat="45.623" lon="6.85468">
        <ele>1689.8000488281</ele>
        <time>2020-06-26T12:00:54.000Z</time>
      </trkpt>
      <trkpt lat="45.62302" lon="6.85489">
        <ele>1690.8000488281</ele>
        <time>2020-06-26T12:00:58.000Z</time>
      </trkpt>
      <trkpt lat="45.62303" lon="6.85495">
        <ele>1691.1999511719</ele>
        <time>2020-06-26T12:00:59.000Z</time>
      </trkpt>
      <trkpt lat="45.62303" lon="6.85506">
        <ele>1692</ele>
        <time>2020-06-26T12:01:01.000Z</time>
      </trkpt>
      <trkpt lat="45.62305" lon="6.85538">
        <ele>1693</ele>
        <time>2020-06-26T12:01:07.000Z</time>
      </trkpt>
      <trkpt lat="45.62305" lon="6.85549">
        <ele>1693.4000244141</ele>
        <time>2020-06-26T12:01:09.000Z</time>
      </trkpt>
      <trkpt lat="45.62305" lon="6.85565">
        <ele>1694</ele>
        <time>2020-06-26T12:01:12.000Z</time>
      </trkpt>
      <trkpt lat="45.62302" lon="6.85598">
        <ele>1695.1999511719</ele>
        <time>2020-06-26T12:01:18.000Z</time>
      </trkpt>
      <trkpt lat="45.623" lon="6.85625">
        <ele>1696.4000244141</ele>
        <time>2020-06-26T12:01:23.000Z</time>
      </trkpt>
      <trkpt lat="45.62298" lon="6.85652">
        <ele>1697.5999755859</ele>
        <time>2020-06-26T12:01:28.000Z</time>
      </trkpt>
      <trkpt lat="45.62298" lon="6.85657">
        <ele>1697.8000488281</ele>
        <time>2020-06-26T12:01:29.000Z</time>
      </trkpt>
      <trkpt lat="45.62296" lon="6.85688">
        <ele>1698.5999755859</ele>
        <time>2020-06-26T12:01:35.000Z</time>
      </trkpt>
      <trkpt lat="45.62295" lon="6.85693">
        <ele>1699</ele>
        <time>2020-06-26T12:01:36.000Z</time>
      </trkpt>
      <trkpt lat="45.62292" lon="6.85712">
        <ele>1699.5999755859</ele>
        <time>2020-06-26T12:01:40.000Z</time>
      </trkpt>
      <trkpt lat="45.6229" lon="6.85722">
        <ele>1700</ele>
        <time>2020-06-26T12:01:42.000Z</time>
      </trkpt>
      <trkpt lat="45.62284" lon="6.85741">
        <ele>1701</ele>
        <time>2020-06-26T12:01:46.000Z</time>
      </trkpt>
      <trkpt lat="45.62278" lon="6.85754">
        <ele>1701.5999755859</ele>
        <time>2020-06-26T12:01:49.000Z</time>
      </trkpt>
      <trkpt lat="45.62273" lon="6.85762">
        <ele>1702</ele>
        <time>2020-06-26T12:01:51.000Z</time>
      </trkpt>
      <trkpt lat="45.62265" lon="6.85778">
        <ele>1703</ele>
        <time>2020-06-26T12:01:55.000Z</time>
      </trkpt>
      <trkpt lat="45.62262" lon="6.85787">
        <ele>1704.1999511719</ele>
        <time>2020-06-26T12:01:57.000Z</time>
      </trkpt>
      <trkpt lat="45.6226" lon="6.85802">
        <ele>1704.8000488281</ele>
        <time>2020-06-26T12:02:00.000Z</time>
      </trkpt>
      <trkpt lat="45.6226" lon="6.85813">
        <ele>1705.4000244141</ele>
        <time>2020-06-26T12:02:02.000Z</time>
      </trkpt>
      <trkpt lat="45.62262" lon="6.85845">
        <ele>1706.4000244141</ele>
        <time>2020-06-26T12:02:08.000Z</time>
      </trkpt>
      <trkpt lat="45.62262" lon="6.8585">
        <ele>1706.5999755859</ele>
        <time>2020-06-26T12:02:09.000Z</time>
      </trkpt>
      <trkpt lat="45.62264" lon="6.8589">
        <ele>1707.5999755859</ele>
        <time>2020-06-26T12:02:17.000Z</time>
      </trkpt>
      <trkpt lat="45.62266" lon="6.85915">
        <ele>1708.5999755859</ele>
        <time>2020-06-26T12:02:22.000Z</time>
      </trkpt>
      <trkpt lat="45.62266" lon="6.85919">
        <ele>1708.8000488281</ele>
        <time>2020-06-26T12:02:23.000Z</time>
      </trkpt>
      <trkpt lat="45.62267" lon="6.85944">
        <ele>1709.8000488281</ele>
        <time>2020-06-26T12:02:28.000Z</time>
      </trkpt>
      <trkpt lat="45.6227" lon="6.85978">
        <ele>1710.8000488281</ele>
        <time>2020-06-26T12:02:35.000Z</time>
      </trkpt>
      <trkpt lat="45.62276" lon="6.86002">
        <ele>1712</ele>
        <time>2020-06-26T12:02:40.000Z</time>
      </trkpt>
      <trkpt lat="45.62279" lon="6.86012">
        <ele>1712.4000244141</ele>
        <time>2020-06-26T12:02:42.000Z</time>
      </trkpt>
      <trkpt lat="45.62284" lon="6.86025">
        <ele>1713</ele>
        <time>2020-06-26T12:02:45.000Z</time>
      </trkpt>
      <trkpt lat="45.62298" lon="6.86055">
        <ele>1714.1999511719</ele>
        <time>2020-06-26T12:02:52.000Z</time>
      </trkpt>
      <trkpt lat="45.623" lon="6.8606">
        <ele>1714.1999511719</ele>
        <time>2020-06-26T12:02:53.000Z</time>
      </trkpt>
      <trkpt lat="45.62313" lon="6.86085">
        <ele>1715</ele>
        <time>2020-06-26T12:02:59.000Z</time>
      </trkpt>
      <trkpt lat="45.62318" lon="6.86099">
        <ele>1715.5999755859</ele>
        <time>2020-06-26T12:03:02.000Z</time>
      </trkpt>
      <trkpt lat="45.62323" lon="6.86113">
        <ele>1716.4000244141</ele>
        <time>2020-06-26T12:03:05.000Z</time>
      </trkpt>
      <trkpt lat="45.6233" lon="6.86141">
        <ele>1717.4000244141</ele>
        <time>2020-06-26T12:03:11.000Z</time>
      </trkpt>
      <trkpt lat="45.62331" lon="6.86146">
        <ele>1717.5999755859</ele>
        <time>2020-06-26T12:03:12.000Z</time>
      </trkpt>
      <trkpt lat="45.62335" lon="6.86171">
        <ele>1718.4000244141</ele>
        <time>2020-06-26T12:03:17.000Z</time>
      </trkpt>
      <trkpt lat="45.62339" lon="6.86191">
        <ele>1719</ele>
        <time>2020-06-26T12:03:21.000Z</time>
      </trkpt>
      <trkpt lat="45.62341" lon="6.86205">
        <ele>1720</ele>
        <time>2020-06-26T12:03:24.000Z</time>
      </trkpt>
      <trkpt lat="45.62347" lon="6.86234">
        <ele>1720.8000488281</ele>
        <time>2020-06-26T12:03:30.000Z</time>
      </trkpt>
      <trkpt lat="45.62349" lon="6.86239">
        <ele>1721</ele>
        <time>2020-06-26T12:03:31.000Z</time>
      </trkpt>
      <trkpt lat="45.62353" lon="6.86258">
        <ele>1721.8000488281</ele>
        <time>2020-06-26T12:03:35.000Z</time>
      </trkpt>
      <trkpt lat="45.6236" lon="6.86287">
        <ele>1722.5999755859</ele>
        <time>2020-06-26T12:03:41.000Z</time>
      </trkpt>
      <trkpt lat="45.62361" lon="6.86292">
        <ele>1722.8000488281</ele>
        <time>2020-06-26T12:03:42.000Z</time>
      </trkpt>
      <trkpt lat="45.62367" lon="6.86332">
        <ele>1724</ele>
        <time>2020-06-26T12:03:50.000Z</time>
      </trkpt>
      <trkpt lat="45.62369" lon="6.86346">
        <ele>1725</ele>
        <time>2020-06-26T12:03:53.000Z</time>
      </trkpt>
      <trkpt lat="45.6237" lon="6.86351">
        <ele>1725.1999511719</ele>
        <time>2020-06-26T12:03:54.000Z</time>
      </trkpt>
      <trkpt lat="45.62375" lon="6.86385">
        <ele>1726.4000244141</ele>
        <time>2020-06-26T12:04:01.000Z</time>
      </trkpt>
      <trkpt lat="45.62379" lon="6.86415">
        <ele>1727.4000244141</ele>
        <time>2020-06-26T12:04:07.000Z</time>
      </trkpt>
      <trkpt lat="45.62381" lon="6.8643">
        <ele>1728.5999755859</ele>
        <time>2020-06-26T12:04:10.000Z</time>
      </trkpt>
      <trkpt lat="45.62385" lon="6.86454">
        <ele>1729.5999755859</ele>
        <time>2020-06-26T12:04:15.000Z</time>
      </trkpt>
      <trkpt lat="45.62388" lon="6.86474">
        <ele>1730.1999511719</ele>
        <time>2020-06-26T12:04:19.000Z</time>
      </trkpt>
      <trkpt lat="45.62391" lon="6.86489">
        <ele>1731</ele>
        <time>2020-06-26T12:04:22.000Z</time>
      </trkpt>
      <trkpt lat="45.62397" lon="6.86513">
        <ele>1731.5999755859</ele>
        <time>2020-06-26T12:04:27.000Z</time>
      </trkpt>
      <trkpt lat="45.62401" lon="6.86522">
        <ele>1732</ele>
        <time>2020-06-26T12:04:29.000Z</time>
      </trkpt>
      <trkpt lat="45.62409" lon="6.86531">
        <ele>1732.4000244141</ele>
        <time>2020-06-26T12:04:32.000Z</time>
      </trkpt>
      <trkpt lat="45.62419" lon="6.8653">
        <ele>1732.8000488281</ele>
        <time>2020-06-26T12:04:35.000Z</time>
      </trkpt>
      <trkpt lat="45.62422" lon="6.86527">
        <ele>1733</ele>
        <time>2020-06-26T12:04:36.000Z</time>
      </trkpt>
      <trkpt lat="45.62426" lon="6.86513">
        <ele>1733.4000244141</ele>
        <time>2020-06-26T12:04:39.000Z</time>
      </trkpt>
      <trkpt lat="45.62425" lon="6.86501">
        <ele>1734</ele>
        <time>2020-06-26T12:04:41.000Z</time>
      </trkpt>
      <trkpt lat="45.62421" lon="6.86491">
        <ele>1734.5999755859</ele>
        <time>2020-06-26T12:04:43.000Z</time>
      </trkpt>
      <trkpt lat="45.62419" lon="6.86486">
        <ele>1734.8000488281</ele>
        <time>2020-06-26T12:04:44.000Z</time>
      </trkpt>
      <trkpt lat="45.62411" lon="6.8647">
        <ele>1735</ele>
        <time>2020-06-26T12:04:47.000Z</time>
      </trkpt>
      <trkpt lat="45.62407" lon="6.8646">
        <ele>1735.1999511719</ele>
        <time>2020-06-26T12:04:49.000Z</time>
      </trkpt>
      <trkpt lat="45.62405" lon="6.86448">
        <ele>1735.4000244141</ele>
        <time>2020-06-26T12:04:51.000Z</time>
      </trkpt>
      <trkpt lat="45.62404" lon="6.86413">
        <ele>1736</ele>
        <time>2020-06-26T12:04:57.000Z</time>
      </trkpt>
      <trkpt lat="45.62405" lon="6.86402">
        <ele>1736.4000244141</ele>
        <time>2020-06-26T12:04:59.000Z</time>
      </trkpt>
      <trkpt lat="45.62406" lon="6.86386">
        <ele>1737.1999511719</ele>
        <time>2020-06-26T12:05:02.000Z</time>
      </trkpt>
      <trkpt lat="45.62408" lon="6.86359">
        <ele>1738.4000244141</ele>
        <time>2020-06-26T12:05:07.000Z</time>
      </trkpt>
      <trkpt lat="45.6241" lon="6.86337">
        <ele>1739.1999511719</ele>
        <time>2020-06-26T12:05:11.000Z</time>
      </trkpt>
      <trkpt lat="45.62411" lon="6.86332">
        <ele>1739.1999511719</ele>
        <time>2020-06-26T12:05:12.000Z</time>
      </trkpt>
      <trkpt lat="45.62414" lon="6.8631">
        <ele>1740.1999511719</ele>
        <time>2020-06-26T12:05:16.000Z</time>
      </trkpt>
      <trkpt lat="45.62417" lon="6.86292">
        <ele>1741.1999511719</ele>
        <time>2020-06-26T12:05:19.000Z</time>
      </trkpt>
      <trkpt lat="45.62417" lon="6.86287">
        <ele>1741.4000244141</ele>
        <time>2020-06-26T12:05:20.000Z</time>
      </trkpt>
      <trkpt lat="45.62418" lon="6.86255">
        <ele>1742.4000244141</ele>
        <time>2020-06-26T12:05:26.000Z</time>
      </trkpt>
      <trkpt lat="45.62418" lon="6.86249">
        <ele>1742.5999755859</ele>
        <time>2020-06-26T12:05:27.000Z</time>
      </trkpt>
      <trkpt lat="45.62416" lon="6.8622">
        <ele>1743.5999755859</ele>
        <time>2020-06-26T12:05:33.000Z</time>
      </trkpt>
      <trkpt lat="45.62414" lon="6.86196">
        <ele>1744.8000488281</ele>
        <time>2020-06-26T12:05:38.000Z</time>
      </trkpt>
      <trkpt lat="45.62413" lon="6.86186">
        <ele>1745</ele>
        <time>2020-06-26T12:05:40.000Z</time>
      </trkpt>
      <trkpt lat="45.62412" lon="6.86167">
        <ele>1746</ele>
        <time>2020-06-26T12:05:44.000Z</time>
      </trkpt>
      <trkpt lat="45.62412" lon="6.86152">
        <ele>1747</ele>
        <time>2020-06-26T12:05:47.000Z</time>
      </trkpt>
      <trkpt lat="45.62412" lon="6.86142">
        <ele>1747.5999755859</ele>
        <time>2020-06-26T12:05:49.000Z</time>
      </trkpt>
      <trkpt lat="45.62411" lon="6.86122">
        <ele>1748.1999511719</ele>
        <time>2020-06-26T12:05:53.000Z</time>
      </trkpt>
      <trkpt lat="45.62408" lon="6.86097">
        <ele>1749.1999511719</ele>
        <time>2020-06-26T12:05:58.000Z</time>
      </trkpt>
      <trkpt lat="45.62404" lon="6.86062">
        <ele>1750.4000244141</ele>
        <time>2020-06-26T12:06:05.000Z</time>
      </trkpt>
      <trkpt lat="45.62403" lon="6.86046">
        <ele>1751</ele>
        <time>2020-06-26T12:06:08.000Z</time>
      </trkpt>
      <trkpt lat="45.62403" lon="6.86041">
        <ele>1751.4000244141</ele>
        <time>2020-06-26T12:06:09.000Z</time>
      </trkpt>
      <trkpt lat="45.62402" lon="6.86011">
        <ele>1752.5999755859</ele>
        <time>2020-06-26T12:06:15.000Z</time>
      </trkpt>
      <trkpt lat="45.62402" lon="6.85992">
        <ele>1753.1999511719</ele>
        <time>2020-06-26T12:06:19.000Z</time>
      </trkpt>
      <trkpt lat="45.62402" lon="6.85982">
        <ele>1753.5999755859</ele>
        <time>2020-06-26T12:06:21.000Z</time>
      </trkpt>
      <trkpt lat="45.62403" lon="6.85947">
        <ele>1754.5999755859</ele>
        <time>2020-06-26T12:06:28.000Z</time>
      </trkpt>
      <trkpt lat="45.62403" lon="6.85942">
        <ele>1754.5999755859</ele>
        <time>2020-06-26T12:06:29.000Z</time>
      </trkpt>
      <trkpt lat="45.62403" lon="6.85916">
        <ele>1755.8000488281</ele>
        <time>2020-06-26T12:06:34.000Z</time>
      </trkpt>
      <trkpt lat="45.62403" lon="6.85906">
        <ele>1756.1999511719</ele>
        <time>2020-06-26T12:06:36.000Z</time>
      </trkpt>
      <trkpt lat="45.62403" lon="6.85896">
        <ele>1756.5999755859</ele>
        <time>2020-06-26T12:06:38.000Z</time>
      </trkpt>
      <trkpt lat="45.62403" lon="6.85867">
        <ele>1757.8000488281</ele>
        <time>2020-06-26T12:06:44.000Z</time>
      </trkpt>
      <trkpt lat="45.62403" lon="6.85862">
        <ele>1758.4000244141</ele>
        <time>2020-06-26T12:06:45.000Z</time>
      </trkpt>
      <trkpt lat="45.62403" lon="6.85838">
        <ele>1759</ele>
        <time>2020-06-26T12:06:50.000Z</time>
      </trkpt>
      <trkpt lat="45.62406" lon="6.85831">
        <ele>1759.4000244141</ele>
        <time>2020-06-26T12:06:52.000Z</time>
      </trkpt>
      <trkpt lat="45.62416" lon="6.85823">
        <ele>1760</ele>
        <time>2020-06-26T12:06:56.000Z</time>
      </trkpt>
      <trkpt lat="45.62418" lon="6.8582">
        <ele>1760.1999511719</ele>
        <time>2020-06-26T12:06:57.000Z</time>
      </trkpt>
      <trkpt lat="45.62421" lon="6.85806">
        <ele>1761.1999511719</ele>
        <time>2020-06-26T12:07:00.000Z</time>
      </trkpt>
      <trkpt lat="45.6242" lon="6.85801">
        <ele>1761.5999755859</ele>
        <time>2020-06-26T12:07:01.000Z</time>
      </trkpt>
      <trkpt lat="45.6242" lon="6.85786">
        <ele>1762</ele>
        <time>2020-06-26T12:07:04.000Z</time>
      </trkpt>
      <trkpt lat="45.62421" lon="6.85781">
        <ele>1762.1999511719</ele>
        <time>2020-06-26T12:07:05.000Z</time>
      </trkpt>
      <trkpt lat="45.62425" lon="6.85768">
        <ele>1762.4000244141</ele>
        <time>2020-06-26T12:07:08.000Z</time>
      </trkpt>
      <trkpt lat="45.62432" lon="6.85756">
        <ele>1762.8000488281</ele>
        <time>2020-06-26T12:07:11.000Z</time>
      </trkpt>
      <trkpt lat="45.62447" lon="6.85735">
        <ele>1763.5999755859</ele>
        <time>2020-06-26T12:07:17.000Z</time>
      </trkpt>
      <trkpt lat="45.62452" lon="6.85728">
        <ele>1764</ele>
        <time>2020-06-26T12:07:19.000Z</time>
      </trkpt>
      <trkpt lat="45.62469" lon="6.85712">
        <ele>1764.4000244141</ele>
        <time>2020-06-26T12:07:25.000Z</time>
      </trkpt>
      <trkpt lat="45.6247" lon="6.85709">
        <ele>1764.4000244141</ele>
        <time>2020-06-26T12:07:26.000Z</time>
      </trkpt>
      <trkpt lat="45.62469" lon="6.857">
        <ele>1764.8000488281</ele>
        <time>2020-06-26T12:07:28.000Z</time>
      </trkpt>
      <trkpt lat="45.62463" lon="6.8569">
        <ele>1765.1999511719</ele>
        <time>2020-06-26T12:07:32.000Z</time>
      </trkpt>
      <trkpt lat="45.62463" lon="6.85682">
        <ele>1765.5999755859</ele>
        <time>2020-06-26T12:07:35.000Z</time>
      </trkpt>
      <trkpt lat="45.62464" lon="6.8568">
        <ele>1765.8000488281</ele>
        <time>2020-06-26T12:07:36.000Z</time>
      </trkpt>
      <trkpt lat="45.62469" lon="6.8568">
        <ele>1766.8000488281</ele>
        <time>2020-06-26T12:07:40.000Z</time>
      </trkpt>
      <trkpt lat="45.62469" lon="6.85682">
        <ele>1767</ele>
        <time>2020-06-26T12:07:41.000Z</time>
      </trkpt>
      <trkpt lat="45.62469" lon="6.85687">
        <ele>1767.4000244141</ele>
        <time>2020-06-26T12:07:45.000Z</time>
      </trkpt>
      <trkpt lat="45.62468" lon="6.85687">
        <ele>1767.5999755859</ele>
        <time>2020-06-26T12:07:47.000Z</time>
      </trkpt>
      <trkpt lat="45.62466" lon="6.85688">
        <ele>1767.4000244141</ele>
        <time>2020-06-26T12:08:10.000Z</time>
      </trkpt>
      <trkpt lat="45.62466" lon="6.85691">
        <ele>1767.1999511719</ele>
        <time>2020-06-26T12:08:11.000Z</time>
      </trkpt>
      <trkpt lat="45.62464" lon="6.85703">
        <ele>1767.1999511719</ele>
        <time>2020-06-26T12:08:15.000Z</time>
      </trkpt>
      <trkpt lat="45.62459" lon="6.8571">
        <ele>1767.1999511719</ele>
        <time>2020-06-26T12:08:17.000Z</time>
      </trkpt>
      <trkpt lat="45.6245" lon="6.85722">
        <ele>1767</ele>
        <time>2020-06-26T12:08:20.000Z</time>
      </trkpt>
      <trkpt lat="45.6243" lon="6.8575">
        <ele>1766.1999511719</ele>
        <time>2020-06-26T12:08:26.000Z</time>
      </trkpt>
      <trkpt lat="45.62422" lon="6.85765">
        <ele>1765.5999755859</ele>
        <time>2020-06-26T12:08:29.000Z</time>
      </trkpt>
      <trkpt lat="45.6242" lon="6.85771">
        <ele>1765.5999755859</ele>
        <time>2020-06-26T12:08:30.000Z</time>
      </trkpt>
      <trkpt lat="45.62416" lon="6.85782">
        <ele>1765.1999511719</ele>
        <time>2020-06-26T12:08:32.000Z</time>
      </trkpt>
      <trkpt lat="45.62414" lon="6.85788">
        <ele>1764.5999755859</ele>
        <time>2020-06-26T12:08:33.000Z</time>
      </trkpt>
      <trkpt lat="45.62411" lon="6.85792">
        <ele>1764.4000244141</ele>
        <time>2020-06-26T12:08:34.000Z</time>
      </trkpt>
      <trkpt lat="45.62408" lon="6.85794">
        <ele>1764.1999511719</ele>
        <time>2020-06-26T12:08:35.000Z</time>
      </trkpt>
      <trkpt lat="45.62399" lon="6.858">
        <ele>1763.5999755859</ele>
        <time>2020-06-26T12:08:39.000Z</time>
      </trkpt>
      <trkpt lat="45.62399" lon="6.85803">
        <ele>1763.1999511719</ele>
        <time>2020-06-26T12:08:41.000Z</time>
      </trkpt>
      <trkpt lat="45.62399" lon="6.85806">
        <ele>1762.8000488281</ele>
        <time>2020-06-26T12:08:43.000Z</time>
      </trkpt>
      <trkpt lat="45.62399" lon="6.85808">
        <ele>1762.8000488281</ele>
        <time>2020-06-26T12:08:44.000Z</time>
      </trkpt>
      <trkpt lat="45.624" lon="6.85814">
        <ele>1762.5999755859</ele>
        <time>2020-06-26T12:08:47.000Z</time>
      </trkpt>
      <trkpt lat="45.62398" lon="6.85822">
        <ele>1762.5999755859</ele>
        <time>2020-06-26T12:08:50.000Z</time>
      </trkpt>
      <trkpt lat="45.62398" lon="6.85824">
        <ele>1762.5999755859</ele>
        <time>2020-06-26T12:08:51.000Z</time>
      </trkpt>
      <trkpt lat="45.624" lon="6.85834">
        <ele>1762.5999755859</ele>
        <time>2020-06-26T12:08:54.000Z</time>
      </trkpt>
      <trkpt lat="45.62406" lon="6.85833">
        <ele>1762.4000244141</ele>
        <time>2020-06-26T12:08:57.000Z</time>
      </trkpt>
      <trkpt lat="45.62411" lon="6.85829">
        <ele>1762.1999511719</ele>
        <time>2020-06-26T12:08:59.000Z</time>
      </trkpt>
      <trkpt lat="45.62417" lon="6.8582">
        <ele>1762</ele>
        <time>2020-06-26T12:09:02.000Z</time>
      </trkpt>
      <trkpt lat="45.6242" lon="6.85796">
        <ele>1762</ele>
        <time>2020-06-26T12:09:08.000Z</time>
      </trkpt>
      <trkpt lat="45.62426" lon="6.8577">
        <ele>1762.8000488281</ele>
        <time>2020-06-26T12:09:15.000Z</time>
      </trkpt>
      <trkpt lat="45.62431" lon="6.85761">
        <ele>1763.1999511719</ele>
        <time>2020-06-26T12:09:18.000Z</time>
      </trkpt>
      <trkpt lat="45.62436" lon="6.85752">
        <ele>1763.1999511719</ele>
        <time>2020-06-26T12:09:21.000Z</time>
      </trkpt>
      <trkpt lat="45.62445" lon="6.85741">
        <ele>1764.1999511719</ele>
        <time>2020-06-26T12:09:26.000Z</time>
      </trkpt>
      <trkpt lat="45.62449" lon="6.85736">
        <ele>1764.4000244141</ele>
        <time>2020-06-26T12:09:28.000Z</time>
      </trkpt>
      <trkpt lat="45.62466" lon="6.85716">
        <ele>1765</ele>
        <time>2020-06-26T12:09:36.000Z</time>
      </trkpt>
      <trkpt lat="45.6247" lon="6.85711">
        <ele>1765.5999755859</ele>
        <time>2020-06-26T12:09:38.000Z</time>
      </trkpt>
      <trkpt lat="45.62484" lon="6.85696">
        <ele>1766.4000244141</ele>
        <time>2020-06-26T12:09:44.000Z</time>
      </trkpt>
      <trkpt lat="45.62488" lon="6.8569">
        <ele>1766.8000488281</ele>
        <time>2020-06-26T12:09:46.000Z</time>
      </trkpt>
      <trkpt lat="45.62497" lon="6.85676">
        <ele>1767.5999755859</ele>
        <time>2020-06-26T12:09:51.000Z</time>
      </trkpt>
      <trkpt lat="45.62501" lon="6.85669">
        <ele>1768</ele>
        <time>2020-06-26T12:09:53.000Z</time>
      </trkpt>
      <trkpt lat="45.62508" lon="6.85651">
        <ele>1768.5999755859</ele>
        <time>2020-06-26T12:09:58.000Z</time>
      </trkpt>
      <trkpt lat="45.62513" lon="6.85637">
        <ele>1769</ele>
        <time>2020-06-26T12:10:02.000Z</time>
      </trkpt>
      <trkpt lat="45.62519" lon="6.85621">
        <ele>1770</ele>
        <time>2020-06-26T12:10:06.000Z</time>
      </trkpt>
      <trkpt lat="45.62526" lon="6.85605">
        <ele>1770.4000244141</ele>
        <time>2020-06-26T12:10:10.000Z</time>
      </trkpt>
      <trkpt lat="45.62533" lon="6.85586">
        <ele>1770.8000488281</ele>
        <time>2020-06-26T12:10:15.000Z</time>
      </trkpt>
      <trkpt lat="45.62539" lon="6.85573">
        <ele>1771.1999511719</ele>
        <time>2020-06-26T12:10:19.000Z</time>
      </trkpt>
      <trkpt lat="45.62545" lon="6.85559">
        <ele>1772</ele>
        <time>2020-06-26T12:10:23.000Z</time>
      </trkpt>
      <trkpt lat="45.62554" lon="6.85545">
        <ele>1773</ele>
        <time>2020-06-26T12:10:28.000Z</time>
      </trkpt>
      <trkpt lat="45.62556" lon="6.85542">
        <ele>1773.1999511719</ele>
        <time>2020-06-26T12:10:29.000Z</time>
      </trkpt>
      <trkpt lat="45.62567" lon="6.85521">
        <ele>1774.1999511719</ele>
        <time>2020-06-26T12:10:36.000Z</time>
      </trkpt>
      <trkpt lat="45.62571" lon="6.85497">
        <ele>1775.1999511719</ele>
        <time>2020-06-26T12:10:42.000Z</time>
      </trkpt>
      <trkpt lat="45.62571" lon="6.85493">
        <ele>1775.4000244141</ele>
        <time>2020-06-26T12:10:43.000Z</time>
      </trkpt>
      <trkpt lat="45.62569" lon="6.85459">
        <ele>1776.1999511719</ele>
        <time>2020-06-26T12:10:50.000Z</time>
      </trkpt>
      <trkpt lat="45.62569" lon="6.85454">
        <ele>1776.4000244141</ele>
        <time>2020-06-26T12:10:51.000Z</time>
      </trkpt>
      <trkpt lat="45.62571" lon="6.85419">
        <ele>1777</ele>
        <time>2020-06-26T12:10:58.000Z</time>
      </trkpt>
      <trkpt lat="45.62572" lon="6.85405">
        <ele>1777.1999511719</ele>
        <time>2020-06-26T12:11:01.000Z</time>
      </trkpt>
      <trkpt lat="45.62575" lon="6.85387">
        <ele>1778.4000244141</ele>
        <time>2020-06-26T12:11:05.000Z</time>
      </trkpt>
      <trkpt lat="45.62575" lon="6.85382">
        <ele>1778.8000488281</ele>
        <time>2020-06-26T12:11:06.000Z</time>
      </trkpt>
      <trkpt lat="45.62578" lon="6.85354">
        <ele>1779.5999755859</ele>
        <time>2020-06-26T12:11:13.000Z</time>
      </trkpt>
      <trkpt lat="45.62579" lon="6.85342">
        <ele>1780.5999755859</ele>
        <time>2020-06-26T12:11:16.000Z</time>
      </trkpt>
      <trkpt lat="45.62579" lon="6.85337">
        <ele>1780.8000488281</ele>
        <time>2020-06-26T12:11:17.000Z</time>
      </trkpt>
      <trkpt lat="45.62579" lon="6.85306">
        <ele>1781.8000488281</ele>
        <time>2020-06-26T12:11:25.000Z</time>
      </trkpt>
      <trkpt lat="45.62579" lon="6.85302">
        <ele>1782</ele>
        <time>2020-06-26T12:11:26.000Z</time>
      </trkpt>
      <trkpt lat="45.6258" lon="6.85282">
        <ele>1782.8000488281</ele>
        <time>2020-06-26T12:11:31.000Z</time>
      </trkpt>
      <trkpt lat="45.62582" lon="6.85263">
        <ele>1783.5999755859</ele>
        <time>2020-06-26T12:11:36.000Z</time>
      </trkpt>
      <trkpt lat="45.62583" lon="6.8526">
        <ele>1783.8000488281</ele>
        <time>2020-06-26T12:11:37.000Z</time>
      </trkpt>
      <trkpt lat="45.62587" lon="6.85237">
        <ele>1784.8000488281</ele>
        <time>2020-06-26T12:11:43.000Z</time>
      </trkpt>
      <trkpt lat="45.62589" lon="6.85227">
        <ele>1785.1999511719</ele>
        <time>2020-06-26T12:11:46.000Z</time>
      </trkpt>
      <trkpt lat="45.62594" lon="6.85207">
        <ele>1785.4000244141</ele>
        <time>2020-06-26T12:11:52.000Z</time>
      </trkpt>
      <trkpt lat="45.62596" lon="6.852">
        <ele>1785.5999755859</ele>
        <time>2020-06-26T12:11:54.000Z</time>
      </trkpt>
      <trkpt lat="45.62603" lon="6.85173">
        <ele>1786.8000488281</ele>
        <time>2020-06-26T12:12:01.000Z</time>
      </trkpt>
      <trkpt lat="45.62614" lon="6.85138">
        <ele>1787.5999755859</ele>
        <time>2020-06-26T12:12:10.000Z</time>
      </trkpt>
      <trkpt lat="45.62619" lon="6.85126">
        <ele>1787.8000488281</ele>
        <time>2020-06-26T12:12:13.000Z</time>
      </trkpt>
      <trkpt lat="45.62629" lon="6.85108">
        <ele>1789</ele>
        <time>2020-06-26T12:12:18.000Z</time>
      </trkpt>
      <trkpt lat="45.62631" lon="6.85105">
        <ele>1789.1999511719</ele>
        <time>2020-06-26T12:12:19.000Z</time>
      </trkpt>
      <trkpt lat="45.62641" lon="6.85092">
        <ele>1789.8000488281</ele>
        <time>2020-06-26T12:12:23.000Z</time>
      </trkpt>
      <trkpt lat="45.62655" lon="6.85077">
        <ele>1791</ele>
        <time>2020-06-26T12:12:28.000Z</time>
      </trkpt>
      <trkpt lat="45.62673" lon="6.85047">
        <ele>1791.8000488281</ele>
        <time>2020-06-26T12:12:36.000Z</time>
      </trkpt>
      <trkpt lat="45.62677" lon="6.85033">
        <ele>1792</ele>
        <time>2020-06-26T12:12:39.000Z</time>
      </trkpt>
      <trkpt lat="45.62682" lon="6.85014">
        <ele>1792.5999755859</ele>
        <time>2020-06-26T12:12:43.000Z</time>
      </trkpt>
      <trkpt lat="45.6269" lon="6.84997">
        <ele>1792.8000488281</ele>
        <time>2020-06-26T12:12:47.000Z</time>
      </trkpt>
      <trkpt lat="45.62697" lon="6.84986">
        <ele>1793.1999511719</ele>
        <time>2020-06-26T12:12:50.000Z</time>
      </trkpt>
      <trkpt lat="45.62718" lon="6.84968">
        <ele>1793.8000488281</ele>
        <time>2020-06-26T12:12:57.000Z</time>
      </trkpt>
      <trkpt lat="45.62722" lon="6.84965">
        <ele>1794</ele>
        <time>2020-06-26T12:12:59.000Z</time>
      </trkpt>
      <trkpt lat="45.62726" lon="6.84962">
        <ele>1794.1999511719</ele>
        <time>2020-06-26T12:13:01.000Z</time>
      </trkpt>
      <trkpt lat="45.62737" lon="6.84947">
        <ele>1794.8000488281</ele>
        <time>2020-06-26T12:13:07.000Z</time>
      </trkpt>
      <trkpt lat="45.62739" lon="6.84944">
        <ele>1795</ele>
        <time>2020-06-26T12:13:08.000Z</time>
      </trkpt>
      <trkpt lat="45.62753" lon="6.84921">
        <ele>1795.4000244141</ele>
        <time>2020-06-26T12:13:15.000Z</time>
      </trkpt>
      <trkpt lat="45.62768" lon="6.84898">
        <ele>1795.5999755859</ele>
        <time>2020-06-26T12:13:22.000Z</time>
      </trkpt>
      <trkpt lat="45.62777" lon="6.84886">
        <ele>1795.8000488281</ele>
        <time>2020-06-26T12:13:26.000Z</time>
      </trkpt>
      <trkpt lat="45.62779" lon="6.84883">
        <ele>1796</ele>
        <time>2020-06-26T12:13:27.000Z</time>
      </trkpt>
      <trkpt lat="45.6279" lon="6.84871">
        <ele>1796.8000488281</ele>
        <time>2020-06-26T12:13:31.000Z</time>
      </trkpt>
      <trkpt lat="45.62796" lon="6.84867">
        <ele>1797</ele>
        <time>2020-06-26T12:13:33.000Z</time>
      </trkpt>
      <trkpt lat="45.62818" lon="6.84855">
        <ele>1797.1999511719</ele>
        <time>2020-06-26T12:13:40.000Z</time>
      </trkpt>
      <trkpt lat="45.62829" lon="6.84848">
        <ele>1798</ele>
        <time>2020-06-26T12:13:44.000Z</time>
      </trkpt>
      <trkpt lat="45.62837" lon="6.84843">
        <ele>1798.4000244141</ele>
        <time>2020-06-26T12:13:47.000Z</time>
      </trkpt>
      <trkpt lat="45.62853" lon="6.84836">
        <ele>1798.8000488281</ele>
        <time>2020-06-26T12:13:53.000Z</time>
      </trkpt>
      <trkpt lat="45.62864" lon="6.8483">
        <ele>1799.4000244141</ele>
        <time>2020-06-26T12:13:57.000Z</time>
      </trkpt>
      <trkpt lat="45.62867" lon="6.84828">
        <ele>1800.1999511719</ele>
        <time>2020-06-26T12:13:58.000Z</time>
      </trkpt>
      <trkpt lat="45.6287" lon="6.84827">
        <ele>1800.5999755859</ele>
        <time>2020-06-26T12:13:59.000Z</time>
      </trkpt>
      <trkpt lat="45.62891" lon="6.84813">
        <ele>1801.4000244141</ele>
        <time>2020-06-26T12:14:06.000Z</time>
      </trkpt>
      <trkpt lat="45.62898" lon="6.84805">
        <ele>1801.8000488281</ele>
        <time>2020-06-26T12:14:09.000Z</time>
      </trkpt>
      <trkpt lat="45.62911" lon="6.8479">
        <ele>1802.5999755859</ele>
        <time>2020-06-26T12:14:14.000Z</time>
      </trkpt>
      <trkpt lat="45.62916" lon="6.84784">
        <ele>1802.5999755859</ele>
        <time>2020-06-26T12:14:16.000Z</time>
      </trkpt>
      <trkpt lat="45.62933" lon="6.84762">
        <ele>1803.5999755859</ele>
        <time>2020-06-26T12:14:23.000Z</time>
      </trkpt>
      <trkpt lat="45.62935" lon="6.84759">
        <ele>1803.8000488281</ele>
        <time>2020-06-26T12:14:24.000Z</time>
      </trkpt>
      <trkpt lat="45.62957" lon="6.84732">
        <ele>1804.8000488281</ele>
        <time>2020-06-26T12:14:33.000Z</time>
      </trkpt>
      <trkpt lat="45.62959" lon="6.84729">
        <ele>1805</ele>
        <time>2020-06-26T12:14:34.000Z</time>
      </trkpt>
      <trkpt lat="45.62977" lon="6.84708">
        <ele>1805.8000488281</ele>
        <time>2020-06-26T12:14:41.000Z</time>
      </trkpt>
      <trkpt lat="45.6298" lon="6.84705">
        <ele>1806</ele>
        <time>2020-06-26T12:14:42.000Z</time>
      </trkpt>
      <trkpt lat="45.62994" lon="6.84686">
        <ele>1807</ele>
        <time>2020-06-26T12:14:48.000Z</time>
      </trkpt>
      <trkpt lat="45.62996" lon="6.84682">
        <ele>1807</ele>
        <time>2020-06-26T12:14:49.000Z</time>
      </trkpt>
      <trkpt lat="45.63011" lon="6.84666">
        <ele>1808</ele>
        <time>2020-06-26T12:14:55.000Z</time>
      </trkpt>
      <trkpt lat="45.63024" lon="6.84666">
        <ele>1808.8000488281</ele>
        <time>2020-06-26T12:15:00.000Z</time>
      </trkpt>
      <trkpt lat="45.63029" lon="6.8467">
        <ele>1809.4000244141</ele>
        <time>2020-06-26T12:15:02.000Z</time>
      </trkpt>
      <trkpt lat="45.63039" lon="6.84683">
        <ele>1810</ele>
        <time>2020-06-26T12:15:06.000Z</time>
      </trkpt>
      <trkpt lat="45.63052" lon="6.847">
        <ele>1810.5999755859</ele>
        <time>2020-06-26T12:15:11.000Z</time>
      </trkpt>
      <trkpt lat="45.63066" lon="6.84713">
        <ele>1811.4000244141</ele>
        <time>2020-06-26T12:15:16.000Z</time>
      </trkpt>
      <trkpt lat="45.63069" lon="6.84715">
        <ele>1811.4000244141</ele>
        <time>2020-06-26T12:15:17.000Z</time>
      </trkpt>
      <trkpt lat="45.63091" lon="6.84728">
        <ele>1812.4000244141</ele>
        <time>2020-06-26T12:15:24.000Z</time>
      </trkpt>
      <trkpt lat="45.63094" lon="6.8473">
        <ele>1812.5999755859</ele>
        <time>2020-06-26T12:15:25.000Z</time>
      </trkpt>
      <trkpt lat="45.63111" lon="6.84743">
        <ele>1813.5999755859</ele>
        <time>2020-06-26T12:15:31.000Z</time>
      </trkpt>
      <trkpt lat="45.63114" lon="6.84747">
        <ele>1813.8000488281</ele>
        <time>2020-06-26T12:15:32.000Z</time>
      </trkpt>
      <trkpt lat="45.63128" lon="6.84767">
        <ele>1814.8000488281</ele>
        <time>2020-06-26T12:15:38.000Z</time>
      </trkpt>
      <trkpt lat="45.63137" lon="6.84776">
        <ele>1815.1999511719</ele>
        <time>2020-06-26T12:15:41.000Z</time>
      </trkpt>
      <trkpt lat="45.63156" lon="6.84788">
        <ele>1815.8000488281</ele>
        <time>2020-06-26T12:15:47.000Z</time>
      </trkpt>
      <trkpt lat="45.63165" lon="6.84794">
        <ele>1816.1999511719</ele>
        <time>2020-06-26T12:15:50.000Z</time>
      </trkpt>
      <trkpt lat="45.63187" lon="6.84814">
        <ele>1817</ele>
        <time>2020-06-26T12:15:58.000Z</time>
      </trkpt>
      <trkpt lat="45.6319" lon="6.84817">
        <ele>1817.1999511719</ele>
        <time>2020-06-26T12:15:59.000Z</time>
      </trkpt>
      <trkpt lat="45.63199" lon="6.8483">
        <ele>1818</ele>
        <time>2020-06-26T12:16:03.000Z</time>
      </trkpt>
      <trkpt lat="45.6321" lon="6.84847">
        <ele>1819</ele>
        <time>2020-06-26T12:16:08.000Z</time>
      </trkpt>
      <trkpt lat="45.63212" lon="6.84851">
        <ele>1819.1999511719</ele>
        <time>2020-06-26T12:16:09.000Z</time>
      </trkpt>
      <trkpt lat="45.63222" lon="6.84865">
        <ele>1820.1999511719</ele>
        <time>2020-06-26T12:16:13.000Z</time>
      </trkpt>
      <trkpt lat="45.63235" lon="6.84879">
        <ele>1820.8000488281</ele>
        <time>2020-06-26T12:16:18.000Z</time>
      </trkpt>
      <trkpt lat="45.63243" lon="6.84887">
        <ele>1821.1999511719</ele>
        <time>2020-06-26T12:16:21.000Z</time>
      </trkpt>
      <trkpt lat="45.63257" lon="6.84899">
        <ele>1822.4000244141</ele>
        <time>2020-06-26T12:16:26.000Z</time>
      </trkpt>
      <trkpt lat="45.6326" lon="6.84901">
        <ele>1822.4000244141</ele>
        <time>2020-06-26T12:16:27.000Z</time>
      </trkpt>
      <trkpt lat="45.63264" lon="6.84903">
        <ele>1822.5999755859</ele>
        <time>2020-06-26T12:16:28.000Z</time>
      </trkpt>
      <trkpt lat="45.63274" lon="6.84907">
        <ele>1823.1999511719</ele>
        <time>2020-06-26T12:16:31.000Z</time>
      </trkpt>
      <trkpt lat="45.63288" lon="6.84911">
        <ele>1823.5999755859</ele>
        <time>2020-06-26T12:16:35.000Z</time>
      </trkpt>
      <trkpt lat="45.63299" lon="6.84913">
        <ele>1824.4000244141</ele>
        <time>2020-06-26T12:16:38.000Z</time>
      </trkpt>
      <trkpt lat="45.63317" lon="6.84913">
        <ele>1825.4000244141</ele>
        <time>2020-06-26T12:16:43.000Z</time>
      </trkpt>
      <trkpt lat="45.63345" lon="6.84909">
        <ele>1826.4000244141</ele>
        <time>2020-06-26T12:16:51.000Z</time>
      </trkpt>
      <trkpt lat="45.63371" lon="6.84911">
        <ele>1827.4000244141</ele>
        <time>2020-06-26T12:16:59.000Z</time>
      </trkpt>
      <trkpt lat="45.63378" lon="6.84911">
        <ele>1827.5999755859</ele>
        <time>2020-06-26T12:17:01.000Z</time>
      </trkpt>
      <trkpt lat="45.63393" lon="6.84913">
        <ele>1828.5999755859</ele>
        <time>2020-06-26T12:17:06.000Z</time>
      </trkpt>
      <trkpt lat="45.634" lon="6.84914">
        <ele>1829</ele>
        <time>2020-06-26T12:17:08.000Z</time>
      </trkpt>
      <trkpt lat="45.63409" lon="6.84915">
        <ele>1829.8000488281</ele>
        <time>2020-06-26T12:17:11.000Z</time>
      </trkpt>
      <trkpt lat="45.63426" lon="6.84919">
        <ele>1830.5999755859</ele>
        <time>2020-06-26T12:17:16.000Z</time>
      </trkpt>
      <trkpt lat="45.63432" lon="6.84921">
        <ele>1831</ele>
        <time>2020-06-26T12:17:18.000Z</time>
      </trkpt>
      <trkpt lat="45.63438" lon="6.84924">
        <ele>1831.5999755859</ele>
        <time>2020-06-26T12:17:20.000Z</time>
      </trkpt>
      <trkpt lat="45.63452" lon="6.84936">
        <ele>1832.5999755859</ele>
        <time>2020-06-26T12:17:25.000Z</time>
      </trkpt>
      <trkpt lat="45.63455" lon="6.8494">
        <ele>1832.8000488281</ele>
        <time>2020-06-26T12:17:26.000Z</time>
      </trkpt>
      <trkpt lat="45.63465" lon="6.84957">
        <ele>1833.8000488281</ele>
        <time>2020-06-26T12:17:31.000Z</time>
      </trkpt>
      <trkpt lat="45.63469" lon="6.84966">
        <ele>1834.1999511719</ele>
        <time>2020-06-26T12:17:33.000Z</time>
      </trkpt>
      <trkpt lat="45.6347" lon="6.8497">
        <ele>1834.4000244141</ele>
        <time>2020-06-26T12:17:34.000Z</time>
      </trkpt>
      <trkpt lat="45.63477" lon="6.84987">
        <ele>1834.8000488281</ele>
        <time>2020-06-26T12:17:38.000Z</time>
      </trkpt>
      <trkpt lat="45.63483" lon="6.84998">
        <ele>1835.4000244141</ele>
        <time>2020-06-26T12:17:41.000Z</time>
      </trkpt>
      <trkpt lat="45.63499" lon="6.85015">
        <ele>1836</ele>
        <time>2020-06-26T12:17:47.000Z</time>
      </trkpt>
      <trkpt lat="45.63505" lon="6.85018">
        <ele>1836.4000244141</ele>
        <time>2020-06-26T12:17:49.000Z</time>
      </trkpt>
      <trkpt lat="45.63515" lon="6.85023">
        <ele>1837.1999511719</ele>
        <time>2020-06-26T12:17:52.000Z</time>
      </trkpt>
      <trkpt lat="45.63535" lon="6.8503">
        <ele>1837.8000488281</ele>
        <time>2020-06-26T12:17:58.000Z</time>
      </trkpt>
      <trkpt lat="45.63542" lon="6.85033">
        <ele>1838.1999511719</ele>
        <time>2020-06-26T12:18:00.000Z</time>
      </trkpt>
      <trkpt lat="45.63562" lon="6.85042">
        <ele>1839.1999511719</ele>
        <time>2020-06-26T12:18:06.000Z</time>
      </trkpt>
      <trkpt lat="45.63568" lon="6.85045">
        <ele>1839.4000244141</ele>
        <time>2020-06-26T12:18:08.000Z</time>
      </trkpt>
      <trkpt lat="45.63583" lon="6.85054">
        <ele>1840.1999511719</ele>
        <time>2020-06-26T12:18:12.000Z</time>
      </trkpt>
      <trkpt lat="45.63594" lon="6.85055">
        <ele>1840.5999755859</ele>
        <time>2020-06-26T12:18:15.000Z</time>
      </trkpt>
      <trkpt lat="45.63608" lon="6.85044">
        <ele>1841.1999511719</ele>
        <time>2020-06-26T12:18:19.000Z</time>
      </trkpt>
      <trkpt lat="45.63642" lon="6.85005">
        <ele>1842</ele>
        <time>2020-06-26T12:18:30.000Z</time>
      </trkpt>
      <trkpt lat="45.63645" lon="6.85002">
        <ele>1842.1999511719</ele>
        <time>2020-06-26T12:18:31.000Z</time>
      </trkpt>
      <trkpt lat="45.6366" lon="6.84985">
        <ele>1843.1999511719</ele>
        <time>2020-06-26T12:18:36.000Z</time>
      </trkpt>
      <trkpt lat="45.63669" lon="6.84975">
        <ele>1843.4000244141</ele>
        <time>2020-06-26T12:18:39.000Z</time>
      </trkpt>
      <trkpt lat="45.63696" lon="6.8495">
        <ele>1843.5999755859</ele>
        <time>2020-06-26T12:18:48.000Z</time>
      </trkpt>
      <trkpt lat="45.6371" lon="6.84934">
        <ele>1844</ele>
        <time>2020-06-26T12:18:53.000Z</time>
      </trkpt>
      <trkpt lat="45.63714" lon="6.84926">
        <ele>1844.5999755859</ele>
        <time>2020-06-26T12:18:55.000Z</time>
      </trkpt>
      <trkpt lat="45.63718" lon="6.84917">
        <ele>1845.1999511719</ele>
        <time>2020-06-26T12:18:57.000Z</time>
      </trkpt>
      <trkpt lat="45.63728" lon="6.84895">
        <ele>1846.1999511719</ele>
        <time>2020-06-26T12:19:02.000Z</time>
      </trkpt>
      <trkpt lat="45.6373" lon="6.84891">
        <ele>1846.1999511719</ele>
        <time>2020-06-26T12:19:03.000Z</time>
      </trkpt>
      <trkpt lat="45.63738" lon="6.84877">
        <ele>1847.5999755859</ele>
        <time>2020-06-26T12:19:07.000Z</time>
      </trkpt>
      <trkpt lat="45.63743" lon="6.8487">
        <ele>1848</ele>
        <time>2020-06-26T12:19:09.000Z</time>
      </trkpt>
      <trkpt lat="45.63745" lon="6.84866">
        <ele>1848.8000488281</ele>
        <time>2020-06-26T12:19:10.000Z</time>
      </trkpt>
      <trkpt lat="45.63754" lon="6.84847">
        <ele>1850.1999511719</ele>
        <time>2020-06-26T12:19:15.000Z</time>
      </trkpt>
      <trkpt lat="45.63757" lon="6.84839">
        <ele>1850.5999755859</ele>
        <time>2020-06-26T12:19:17.000Z</time>
      </trkpt>
      <trkpt lat="45.63766" lon="6.84808">
        <ele>1851</ele>
        <time>2020-06-26T12:19:24.000Z</time>
      </trkpt>
      <trkpt lat="45.63768" lon="6.84759">
        <ele>1852</ele>
        <time>2020-06-26T12:19:35.000Z</time>
      </trkpt>
      <trkpt lat="45.63769" lon="6.84749">
        <ele>1852.1999511719</ele>
        <time>2020-06-26T12:19:37.000Z</time>
      </trkpt>
      <trkpt lat="45.63769" lon="6.84731">
        <ele>1853.1999511719</ele>
        <time>2020-06-26T12:19:41.000Z</time>
      </trkpt>
      <trkpt lat="45.63771" lon="6.84721">
        <ele>1853.8000488281</ele>
        <time>2020-06-26T12:19:43.000Z</time>
      </trkpt>
      <trkpt lat="45.63772" lon="6.84716">
        <ele>1854.4000244141</ele>
        <time>2020-06-26T12:19:44.000Z</time>
      </trkpt>
      <trkpt lat="45.63783" lon="6.84692">
        <ele>1855.5999755859</ele>
        <time>2020-06-26T12:19:50.000Z</time>
      </trkpt>
      <trkpt lat="45.63814" lon="6.84672">
        <ele>1856.5999755859</ele>
        <time>2020-06-26T12:20:00.000Z</time>
      </trkpt>
      <trkpt lat="45.63834" lon="6.84671">
        <ele>1857.5999755859</ele>
        <time>2020-06-26T12:20:06.000Z</time>
      </trkpt>
      <trkpt lat="45.63837" lon="6.84671">
        <ele>1857.5999755859</ele>
        <time>2020-06-26T12:20:07.000Z</time>
      </trkpt>
      <trkpt lat="45.63854" lon="6.84671">
        <ele>1858.5999755859</ele>
        <time>2020-06-26T12:20:12.000Z</time>
      </trkpt>
      <trkpt lat="45.63867" lon="6.84669">
        <ele>1859.5999755859</ele>
        <time>2020-06-26T12:20:16.000Z</time>
      </trkpt>
      <trkpt lat="45.63896" lon="6.84656">
        <ele>1860.8000488281</ele>
        <time>2020-06-26T12:20:25.000Z</time>
      </trkpt>
      <trkpt lat="45.63899" lon="6.84655">
        <ele>1861</ele>
        <time>2020-06-26T12:20:26.000Z</time>
      </trkpt>
      <trkpt lat="45.6391" lon="6.84652">
        <ele>1861.8000488281</ele>
        <time>2020-06-26T12:20:29.000Z</time>
      </trkpt>
      <trkpt lat="45.6393" lon="6.84644">
        <ele>1862.8000488281</ele>
        <time>2020-06-26T12:20:35.000Z</time>
      </trkpt>
      <trkpt lat="45.63935" lon="6.84638">
        <ele>1863</ele>
        <time>2020-06-26T12:20:37.000Z</time>
      </trkpt>
      <trkpt lat="45.63946" lon="6.84625">
        <ele>1863.8000488281</ele>
        <time>2020-06-26T12:20:41.000Z</time>
      </trkpt>
      <trkpt lat="45.63948" lon="6.84621">
        <ele>1864</ele>
        <time>2020-06-26T12:20:42.000Z</time>
      </trkpt>
      <trkpt lat="45.63969" lon="6.84593">
        <ele>1864.5999755859</ele>
        <time>2020-06-26T12:20:50.000Z</time>
      </trkpt>
      <trkpt lat="45.63987" lon="6.84577">
        <ele>1865.1999511719</ele>
        <time>2020-06-26T12:20:56.000Z</time>
      </trkpt>
      <trkpt lat="45.63998" lon="6.84567">
        <ele>1866.1999511719</ele>
        <time>2020-06-26T12:21:00.000Z</time>
      </trkpt>
      <trkpt lat="45.64004" lon="6.84562">
        <ele>1866.5999755859</ele>
        <time>2020-06-26T12:21:02.000Z</time>
      </trkpt>
      <trkpt lat="45.64015" lon="6.84552">
        <ele>1867.4000244141</ele>
        <time>2020-06-26T12:21:06.000Z</time>
      </trkpt>
      <trkpt lat="45.6403" lon="6.84539">
        <ele>1868.4000244141</ele>
        <time>2020-06-26T12:21:11.000Z</time>
      </trkpt>
      <trkpt lat="45.64034" lon="6.84537">
        <ele>1868.5999755859</ele>
        <time>2020-06-26T12:21:12.000Z</time>
      </trkpt>
      <trkpt lat="45.64056" lon="6.84526">
        <ele>1869.5999755859</ele>
        <time>2020-06-26T12:21:19.000Z</time>
      </trkpt>
      <trkpt lat="45.64073" lon="6.84512">
        <ele>1870.5999755859</ele>
        <time>2020-06-26T12:21:25.000Z</time>
      </trkpt>
      <trkpt lat="45.64081" lon="6.84504">
        <ele>1871</ele>
        <time>2020-06-26T12:21:28.000Z</time>
      </trkpt>
      <trkpt lat="45.64091" lon="6.84494">
        <ele>1871.8000488281</ele>
        <time>2020-06-26T12:21:32.000Z</time>
      </trkpt>
      <trkpt lat="45.641" lon="6.84487">
        <ele>1872.5999755859</ele>
        <time>2020-06-26T12:21:35.000Z</time>
      </trkpt>
      <trkpt lat="45.64102" lon="6.84485">
        <ele>1873</ele>
        <time>2020-06-26T12:21:36.000Z</time>
      </trkpt>
      <trkpt lat="45.64112" lon="6.84474">
        <ele>1874.1999511719</ele>
        <time>2020-06-26T12:21:40.000Z</time>
      </trkpt>
      <trkpt lat="45.64122" lon="6.84464">
        <ele>1874.4000244141</ele>
        <time>2020-06-26T12:21:44.000Z</time>
      </trkpt>
      <trkpt lat="45.64133" lon="6.84454">
        <ele>1875</ele>
        <time>2020-06-26T12:21:48.000Z</time>
      </trkpt>
      <trkpt lat="45.64148" lon="6.84443">
        <ele>1875.8000488281</ele>
        <time>2020-06-26T12:21:53.000Z</time>
      </trkpt>
      <trkpt lat="45.6416" lon="6.84436">
        <ele>1876</ele>
        <time>2020-06-26T12:21:57.000Z</time>
      </trkpt>
      <trkpt lat="45.6417" lon="6.84435">
        <ele>1876.4000244141</ele>
        <time>2020-06-26T12:22:00.000Z</time>
      </trkpt>
      <trkpt lat="45.6418" lon="6.84445">
        <ele>1877</ele>
        <time>2020-06-26T12:22:04.000Z</time>
      </trkpt>
      <trkpt lat="45.64182" lon="6.84449">
        <ele>1877.4000244141</ele>
        <time>2020-06-26T12:22:05.000Z</time>
      </trkpt>
      <trkpt lat="45.64188" lon="6.84466">
        <ele>1878.4000244141</ele>
        <time>2020-06-26T12:22:09.000Z</time>
      </trkpt>
      <trkpt lat="45.64192" lon="6.8448">
        <ele>1878.5999755859</ele>
        <time>2020-06-26T12:22:12.000Z</time>
      </trkpt>
      <trkpt lat="45.64198" lon="6.84502">
        <ele>1879.8000488281</ele>
        <time>2020-06-26T12:22:17.000Z</time>
      </trkpt>
      <trkpt lat="45.64202" lon="6.84516">
        <ele>1880.1999511719</ele>
        <time>2020-06-26T12:22:20.000Z</time>
      </trkpt>
      <trkpt lat="45.64208" lon="6.84535">
        <ele>1880.8000488281</ele>
        <time>2020-06-26T12:22:24.000Z</time>
      </trkpt>
      <trkpt lat="45.64214" lon="6.84548">
        <ele>1881.1999511719</ele>
        <time>2020-06-26T12:22:27.000Z</time>
      </trkpt>
      <trkpt lat="45.64223" lon="6.84564">
        <ele>1882</ele>
        <time>2020-06-26T12:22:31.000Z</time>
      </trkpt>
      <trkpt lat="45.6423" lon="6.84575">
        <ele>1882.1999511719</ele>
        <time>2020-06-26T12:22:34.000Z</time>
      </trkpt>
      <trkpt lat="45.64254" lon="6.84607">
        <ele>1883</ele>
        <time>2020-06-26T12:22:42.000Z</time>
      </trkpt>
      <trkpt lat="45.64277" lon="6.8464">
        <ele>1884</ele>
        <time>2020-06-26T12:22:50.000Z</time>
      </trkpt>
      <trkpt lat="45.64285" lon="6.84653">
        <ele>1884.4000244141</ele>
        <time>2020-06-26T12:22:53.000Z</time>
      </trkpt>
      <trkpt lat="45.643" lon="6.84679">
        <ele>1885</ele>
        <time>2020-06-26T12:22:59.000Z</time>
      </trkpt>
      <trkpt lat="45.64308" lon="6.84692">
        <ele>1885.5999755859</ele>
        <time>2020-06-26T12:23:02.000Z</time>
      </trkpt>
      <trkpt lat="45.64323" lon="6.84716">
        <ele>1886.1999511719</ele>
        <time>2020-06-26T12:23:08.000Z</time>
      </trkpt>
      <trkpt lat="45.64333" lon="6.84726">
        <ele>1887</ele>
        <time>2020-06-26T12:23:11.000Z</time>
      </trkpt>
      <trkpt lat="45.64336" lon="6.84729">
        <ele>1887.4000244141</ele>
        <time>2020-06-26T12:23:12.000Z</time>
      </trkpt>
      <trkpt lat="45.64348" lon="6.84741">
        <ele>1888.1999511719</ele>
        <time>2020-06-26T12:23:16.000Z</time>
      </trkpt>
      <trkpt lat="45.64362" lon="6.84757">
        <ele>1889.4000244141</ele>
        <time>2020-06-26T12:23:21.000Z</time>
      </trkpt>
      <trkpt lat="45.6438" lon="6.84771">
        <ele>1890.5999755859</ele>
        <time>2020-06-26T12:23:27.000Z</time>
      </trkpt>
      <trkpt lat="45.64384" lon="6.84772">
        <ele>1890.8000488281</ele>
        <time>2020-06-26T12:23:28.000Z</time>
      </trkpt>
      <trkpt lat="45.64394" lon="6.84775">
        <ele>1891.5999755859</ele>
        <time>2020-06-26T12:23:31.000Z</time>
      </trkpt>
      <trkpt lat="45.64415" lon="6.84783">
        <ele>1892.5999755859</ele>
        <time>2020-06-26T12:23:37.000Z</time>
      </trkpt>
      <trkpt lat="45.64439" lon="6.84803">
        <ele>1893.8000488281</ele>
        <time>2020-06-26T12:23:45.000Z</time>
      </trkpt>
      <trkpt lat="45.64442" lon="6.84806">
        <ele>1894</ele>
        <time>2020-06-26T12:23:46.000Z</time>
      </trkpt>
      <trkpt lat="45.64452" lon="6.8482">
        <ele>1894.8000488281</ele>
        <time>2020-06-26T12:23:50.000Z</time>
      </trkpt>
      <trkpt lat="45.64463" lon="6.84837">
        <ele>1895.8000488281</ele>
        <time>2020-06-26T12:23:54.000Z</time>
      </trkpt>
      <trkpt lat="45.64465" lon="6.84841">
        <ele>1896</ele>
        <time>2020-06-26T12:23:55.000Z</time>
      </trkpt>
      <trkpt lat="45.64485" lon="6.84882">
        <ele>1897</ele>
        <time>2020-06-26T12:24:04.000Z</time>
      </trkpt>
      <trkpt lat="45.64487" lon="6.84887">
        <ele>1897.1999511719</ele>
        <time>2020-06-26T12:24:05.000Z</time>
      </trkpt>
      <trkpt lat="45.64496" lon="6.84903">
        <ele>1898</ele>
        <time>2020-06-26T12:24:09.000Z</time>
      </trkpt>
      <trkpt lat="45.64506" lon="6.84917">
        <ele>1898.8000488281</ele>
        <time>2020-06-26T12:24:13.000Z</time>
      </trkpt>
      <trkpt lat="45.64514" lon="6.84927">
        <ele>1898.8000488281</ele>
        <time>2020-06-26T12:24:16.000Z</time>
      </trkpt>
      <trkpt lat="45.64536" lon="6.84948">
        <ele>1899.8000488281</ele>
        <time>2020-06-26T12:24:23.000Z</time>
      </trkpt>
      <trkpt lat="45.64539" lon="6.84951">
        <ele>1900</ele>
        <time>2020-06-26T12:24:24.000Z</time>
      </trkpt>
      <trkpt lat="45.6455" lon="6.8497">
        <ele>1900.4000244141</ele>
        <time>2020-06-26T12:24:29.000Z</time>
      </trkpt>
      <trkpt lat="45.6456" lon="6.84992">
        <ele>1901</ele>
        <time>2020-06-26T12:24:34.000Z</time>
      </trkpt>
      <trkpt lat="45.64569" lon="6.85009">
        <ele>1902</ele>
        <time>2020-06-26T12:24:38.000Z</time>
      </trkpt>
      <trkpt lat="45.64572" lon="6.85014">
        <ele>1902.1999511719</ele>
        <time>2020-06-26T12:24:39.000Z</time>
      </trkpt>
      <trkpt lat="45.64577" lon="6.85023">
        <ele>1902.4000244141</ele>
        <time>2020-06-26T12:24:41.000Z</time>
      </trkpt>
      <trkpt lat="45.64589" lon="6.85038">
        <ele>1903</ele>
        <time>2020-06-26T12:24:45.000Z</time>
      </trkpt>
      <trkpt lat="45.64595" lon="6.85044">
        <ele>1903.1999511719</ele>
        <time>2020-06-26T12:24:47.000Z</time>
      </trkpt>
      <trkpt lat="45.64612" lon="6.85064">
        <ele>1904.1999511719</ele>
        <time>2020-06-26T12:24:53.000Z</time>
      </trkpt>
      <trkpt lat="45.64617" lon="6.8507">
        <ele>1904.4000244141</ele>
        <time>2020-06-26T12:24:55.000Z</time>
      </trkpt>
      <trkpt lat="45.64633" lon="6.85091">
        <ele>1905.4000244141</ele>
        <time>2020-06-26T12:25:01.000Z</time>
      </trkpt>
      <trkpt lat="45.64636" lon="6.85094">
        <ele>1905.4000244141</ele>
        <time>2020-06-26T12:25:02.000Z</time>
      </trkpt>
      <trkpt lat="45.64646" lon="6.85108">
        <ele>1906.4000244141</ele>
        <time>2020-06-26T12:25:06.000Z</time>
      </trkpt>
      <trkpt lat="45.6466" lon="6.8513">
        <ele>1907.5999755859</ele>
        <time>2020-06-26T12:25:12.000Z</time>
      </trkpt>
      <trkpt lat="45.64663" lon="6.85134">
        <ele>1907.8000488281</ele>
        <time>2020-06-26T12:25:13.000Z</time>
      </trkpt>
      <trkpt lat="45.64674" lon="6.85149">
        <ele>1908.8000488281</ele>
        <time>2020-06-26T12:25:17.000Z</time>
      </trkpt>
      <trkpt lat="45.64687" lon="6.85168">
        <ele>1909.8000488281</ele>
        <time>2020-06-26T12:25:22.000Z</time>
      </trkpt>
      <trkpt lat="45.64689" lon="6.85171">
        <ele>1909.8000488281</ele>
        <time>2020-06-26T12:25:23.000Z</time>
      </trkpt>
      <trkpt lat="45.64703" lon="6.85195">
        <ele>1910.8000488281</ele>
        <time>2020-06-26T12:25:30.000Z</time>
      </trkpt>
      <trkpt lat="45.64708" lon="6.85202">
        <ele>1911.5999755859</ele>
        <time>2020-06-26T12:25:32.000Z</time>
      </trkpt>
      <trkpt lat="45.64711" lon="6.85205">
        <ele>1912</ele>
        <time>2020-06-26T12:25:33.000Z</time>
      </trkpt>
      <trkpt lat="45.64719" lon="6.85211">
        <ele>1913.1999511719</ele>
        <time>2020-06-26T12:25:36.000Z</time>
      </trkpt>
      <trkpt lat="45.64735" lon="6.85215">
        <ele>1914.4000244141</ele>
        <time>2020-06-26T12:25:41.000Z</time>
      </trkpt>
      <trkpt lat="45.64738" lon="6.85215">
        <ele>1914.4000244141</ele>
        <time>2020-06-26T12:25:42.000Z</time>
      </trkpt>
      <trkpt lat="45.64766" lon="6.85219">
        <ele>1915</ele>
        <time>2020-06-26T12:25:50.000Z</time>
      </trkpt>
      <trkpt lat="45.64786" lon="6.8523">
        <ele>1915.4000244141</ele>
        <time>2020-06-26T12:25:55.000Z</time>
      </trkpt>
      <trkpt lat="45.64798" lon="6.85238">
        <ele>1915.5999755859</ele>
        <time>2020-06-26T12:25:58.000Z</time>
      </trkpt>
      <trkpt lat="45.64807" lon="6.85243">
        <ele>1916.1999511719</ele>
        <time>2020-06-26T12:26:00.000Z</time>
      </trkpt>
      <trkpt lat="45.64838" lon="6.85261">
        <ele>1917</ele>
        <time>2020-06-26T12:26:07.000Z</time>
      </trkpt>
      <trkpt lat="45.64857" lon="6.8527">
        <ele>1917.1999511719</ele>
        <time>2020-06-26T12:26:11.000Z</time>
      </trkpt>
      <trkpt lat="45.6488" lon="6.85281">
        <ele>1917.8000488281</ele>
        <time>2020-06-26T12:26:16.000Z</time>
      </trkpt>
      <trkpt lat="45.64889" lon="6.85288">
        <ele>1918.1999511719</ele>
        <time>2020-06-26T12:26:18.000Z</time>
      </trkpt>
      <trkpt lat="45.64902" lon="6.85299">
        <ele>1918.5999755859</ele>
        <time>2020-06-26T12:26:21.000Z</time>
      </trkpt>
      <trkpt lat="45.64905" lon="6.85304">
        <ele>1918.5999755859</ele>
        <time>2020-06-26T12:26:22.000Z</time>
      </trkpt>
      <trkpt lat="45.64923" lon="6.8534">
        <ele>1919.4000244141</ele>
        <time>2020-06-26T12:26:29.000Z</time>
      </trkpt>
      <trkpt lat="45.64933" lon="6.85361">
        <ele>1920.5999755859</ele>
        <time>2020-06-26T12:26:33.000Z</time>
      </trkpt>
      <trkpt lat="45.64942" lon="6.85381">
        <ele>1921.8000488281</ele>
        <time>2020-06-26T12:26:37.000Z</time>
      </trkpt>
      <trkpt lat="45.64947" lon="6.85391">
        <ele>1922.1999511719</ele>
        <time>2020-06-26T12:26:39.000Z</time>
      </trkpt>
      <trkpt lat="45.64954" lon="6.85405">
        <ele>1922.8000488281</ele>
        <time>2020-06-26T12:26:42.000Z</time>
      </trkpt>
      <trkpt lat="45.64961" lon="6.85423">
        <ele>1923.8000488281</ele>
        <time>2020-06-26T12:26:46.000Z</time>
      </trkpt>
      <trkpt lat="45.64966" lon="6.85453">
        <ele>1925</ele>
        <time>2020-06-26T12:26:52.000Z</time>
      </trkpt>
      <trkpt lat="45.64968" lon="6.85462">
        <ele>1925.4000244141</ele>
        <time>2020-06-26T12:26:54.000Z</time>
      </trkpt>
      <trkpt lat="45.64971" lon="6.85476">
        <ele>1926</ele>
        <time>2020-06-26T12:26:57.000Z</time>
      </trkpt>
      <trkpt lat="45.64974" lon="6.85489">
        <ele>1927.1999511719</ele>
        <time>2020-06-26T12:27:00.000Z</time>
      </trkpt>
      <trkpt lat="45.64978" lon="6.85497">
        <ele>1927.5999755859</ele>
        <time>2020-06-26T12:27:02.000Z</time>
      </trkpt>
      <trkpt lat="45.64984" lon="6.85509">
        <ele>1928.1999511719</ele>
        <time>2020-06-26T12:27:05.000Z</time>
      </trkpt>
      <trkpt lat="45.64997" lon="6.85533">
        <ele>1929.4000244141</ele>
        <time>2020-06-26T12:27:11.000Z</time>
      </trkpt>
      <trkpt lat="45.64999" lon="6.85536">
        <ele>1929.5999755859</ele>
        <time>2020-06-26T12:27:12.000Z</time>
      </trkpt>
      <trkpt lat="45.65011" lon="6.85554">
        <ele>1930.4000244141</ele>
        <time>2020-06-26T12:27:17.000Z</time>
      </trkpt>
      <trkpt lat="45.65021" lon="6.85573">
        <ele>1931.4000244141</ele>
        <time>2020-06-26T12:27:22.000Z</time>
      </trkpt>
      <trkpt lat="45.65023" lon="6.85578">
        <ele>1931.5999755859</ele>
        <time>2020-06-26T12:27:23.000Z</time>
      </trkpt>
      <trkpt lat="45.65031" lon="6.85596">
        <ele>1932.8000488281</ele>
        <time>2020-06-26T12:27:27.000Z</time>
      </trkpt>
      <trkpt lat="45.65042" lon="6.85622">
        <ele>1933.4000244141</ele>
        <time>2020-06-26T12:27:33.000Z</time>
      </trkpt>
      <trkpt lat="45.65052" lon="6.85637">
        <ele>1934</ele>
        <time>2020-06-26T12:27:37.000Z</time>
      </trkpt>
      <trkpt lat="45.65058" lon="6.85644">
        <ele>1934.4000244141</ele>
        <time>2020-06-26T12:27:39.000Z</time>
      </trkpt>
      <trkpt lat="45.65068" lon="6.85652">
        <ele>1935</ele>
        <time>2020-06-26T12:27:42.000Z</time>
      </trkpt>
      <trkpt lat="45.6508" lon="6.85659">
        <ele>1935.4000244141</ele>
        <time>2020-06-26T12:27:45.000Z</time>
      </trkpt>
      <trkpt lat="45.65105" lon="6.85673">
        <ele>1935.4000244141</ele>
        <time>2020-06-26T12:27:50.000Z</time>
      </trkpt>
      <trkpt lat="45.65146" lon="6.857">
        <ele>1936</ele>
        <time>2020-06-26T12:27:59.000Z</time>
      </trkpt>
      <trkpt lat="45.65167" lon="6.85714">
        <ele>1936</ele>
        <time>2020-06-26T12:28:04.000Z</time>
      </trkpt>
      <trkpt lat="45.65185" lon="6.8573">
        <ele>1937.1999511719</ele>
        <time>2020-06-26T12:28:09.000Z</time>
      </trkpt>
      <trkpt lat="45.65203" lon="6.85751">
        <ele>1938.1999511719</ele>
        <time>2020-06-26T12:28:15.000Z</time>
      </trkpt>
      <trkpt lat="45.65209" lon="6.85758">
        <ele>1938.4000244141</ele>
        <time>2020-06-26T12:28:17.000Z</time>
      </trkpt>
      <trkpt lat="45.65224" lon="6.85775">
        <ele>1939.4000244141</ele>
        <time>2020-06-26T12:28:22.000Z</time>
      </trkpt>
      <trkpt lat="45.65233" lon="6.85784">
        <ele>1940.4000244141</ele>
        <time>2020-06-26T12:28:25.000Z</time>
      </trkpt>
      <trkpt lat="45.65239" lon="6.8579">
        <ele>1941</ele>
        <time>2020-06-26T12:28:27.000Z</time>
      </trkpt>
      <trkpt lat="45.65251" lon="6.85799">
        <ele>1941.8000488281</ele>
        <time>2020-06-26T12:28:31.000Z</time>
      </trkpt>
      <trkpt lat="45.65266" lon="6.85806">
        <ele>1942.1999511719</ele>
        <time>2020-06-26T12:28:35.000Z</time>
      </trkpt>
      <trkpt lat="45.6527" lon="6.85808">
        <ele>1942.5999755859</ele>
        <time>2020-06-26T12:28:36.000Z</time>
      </trkpt>
      <trkpt lat="45.65298" lon="6.85821">
        <ele>1943.5999755859</ele>
        <time>2020-06-26T12:28:43.000Z</time>
      </trkpt>
      <trkpt lat="45.6531" lon="6.85828">
        <ele>1944</ele>
        <time>2020-06-26T12:28:46.000Z</time>
      </trkpt>
      <trkpt lat="45.65329" lon="6.85843">
        <ele>1944.8000488281</ele>
        <time>2020-06-26T12:28:51.000Z</time>
      </trkpt>
      <trkpt lat="45.65338" lon="6.85853">
        <ele>1945.4000244141</ele>
        <time>2020-06-26T12:28:54.000Z</time>
      </trkpt>
      <trkpt lat="45.65348" lon="6.85863">
        <ele>1945.8000488281</ele>
        <time>2020-06-26T12:28:57.000Z</time>
      </trkpt>
      <trkpt lat="45.65364" lon="6.85885">
        <ele>1946.5999755859</ele>
        <time>2020-06-26T12:29:03.000Z</time>
      </trkpt>
      <trkpt lat="45.65369" lon="6.85891">
        <ele>1947</ele>
        <time>2020-06-26T12:29:05.000Z</time>
      </trkpt>
      <trkpt lat="45.65377" lon="6.85907">
        <ele>1948</ele>
        <time>2020-06-26T12:29:09.000Z</time>
      </trkpt>
      <trkpt lat="45.65389" lon="6.85924">
        <ele>1949.1999511719</ele>
        <time>2020-06-26T12:29:14.000Z</time>
      </trkpt>
      <trkpt lat="45.65391" lon="6.85928">
        <ele>1949.4000244141</ele>
        <time>2020-06-26T12:29:15.000Z</time>
      </trkpt>
      <trkpt lat="45.65408" lon="6.8595">
        <ele>1950.4000244141</ele>
        <time>2020-06-26T12:29:21.000Z</time>
      </trkpt>
      <trkpt lat="45.6542" lon="6.85961">
        <ele>1951.5999755859</ele>
        <time>2020-06-26T12:29:25.000Z</time>
      </trkpt>
      <trkpt lat="45.6543" lon="6.85966">
        <ele>1952</ele>
        <time>2020-06-26T12:29:28.000Z</time>
      </trkpt>
      <trkpt lat="45.65441" lon="6.85968">
        <ele>1952.8000488281</ele>
        <time>2020-06-26T12:29:31.000Z</time>
      </trkpt>
      <trkpt lat="45.65452" lon="6.8597">
        <ele>1953.4000244141</ele>
        <time>2020-06-26T12:29:34.000Z</time>
      </trkpt>
      <trkpt lat="45.6547" lon="6.85976">
        <ele>1953.5999755859</ele>
        <time>2020-06-26T12:29:39.000Z</time>
      </trkpt>
      <trkpt lat="45.65476" lon="6.8598">
        <ele>1953.5999755859</ele>
        <time>2020-06-26T12:29:41.000Z</time>
      </trkpt>
      <trkpt lat="45.65487" lon="6.85993">
        <ele>1954</ele>
        <time>2020-06-26T12:29:45.000Z</time>
      </trkpt>
      <trkpt lat="45.65494" lon="6.86003">
        <ele>1954.5999755859</ele>
        <time>2020-06-26T12:29:48.000Z</time>
      </trkpt>
      <trkpt lat="45.65501" lon="6.86015">
        <ele>1955.5999755859</ele>
        <time>2020-06-26T12:29:51.000Z</time>
      </trkpt>
      <trkpt lat="45.65502" lon="6.86019">
        <ele>1955.8000488281</ele>
        <time>2020-06-26T12:29:52.000Z</time>
      </trkpt>
      <trkpt lat="45.65504" lon="6.86023">
        <ele>1956</ele>
        <time>2020-06-26T12:29:53.000Z</time>
      </trkpt>
      <trkpt lat="45.65512" lon="6.86042">
        <ele>1957</ele>
        <time>2020-06-26T12:29:58.000Z</time>
      </trkpt>
      <trkpt lat="45.65518" lon="6.86056">
        <ele>1958</ele>
        <time>2020-06-26T12:30:02.000Z</time>
      </trkpt>
      <trkpt lat="45.6552" lon="6.8606">
        <ele>1958.1999511719</ele>
        <time>2020-06-26T12:30:03.000Z</time>
      </trkpt>
      <trkpt lat="45.65529" lon="6.8608">
        <ele>1959.4000244141</ele>
        <time>2020-06-26T12:30:08.000Z</time>
      </trkpt>
      <trkpt lat="45.65533" lon="6.86088">
        <ele>1959.8000488281</ele>
        <time>2020-06-26T12:30:10.000Z</time>
      </trkpt>
      <trkpt lat="45.6554" lon="6.86099">
        <ele>1960.4000244141</ele>
        <time>2020-06-26T12:30:13.000Z</time>
      </trkpt>
      <trkpt lat="45.65553" lon="6.86114">
        <ele>1961.5999755859</ele>
        <time>2020-06-26T12:30:18.000Z</time>
      </trkpt>
      <trkpt lat="45.65576" lon="6.86128">
        <ele>1962.5999755859</ele>
        <time>2020-06-26T12:30:25.000Z</time>
      </trkpt>
      <trkpt lat="45.65579" lon="6.86129">
        <ele>1962.5999755859</ele>
        <time>2020-06-26T12:30:26.000Z</time>
      </trkpt>
      <trkpt lat="45.65597" lon="6.86132">
        <ele>1963.4000244141</ele>
        <time>2020-06-26T12:30:31.000Z</time>
      </trkpt>
      <trkpt lat="45.65605" lon="6.86134">
        <ele>1963.8000488281</ele>
        <time>2020-06-26T12:30:33.000Z</time>
      </trkpt>
      <trkpt lat="45.65623" lon="6.86144">
        <ele>1964.4000244141</ele>
        <time>2020-06-26T12:30:38.000Z</time>
      </trkpt>
      <trkpt lat="45.65629" lon="6.86149">
        <ele>1964.8000488281</ele>
        <time>2020-06-26T12:30:40.000Z</time>
      </trkpt>
      <trkpt lat="45.65642" lon="6.86166">
        <ele>1966</ele>
        <time>2020-06-26T12:30:45.000Z</time>
      </trkpt>
      <trkpt lat="45.65647" lon="6.86173">
        <ele>1966.4000244141</ele>
        <time>2020-06-26T12:30:47.000Z</time>
      </trkpt>
      <trkpt lat="45.65657" lon="6.86187">
        <ele>1967.1999511719</ele>
        <time>2020-06-26T12:30:51.000Z</time>
      </trkpt>
      <trkpt lat="45.65667" lon="6.86209">
        <ele>1968.1999511719</ele>
        <time>2020-06-26T12:30:56.000Z</time>
      </trkpt>
      <trkpt lat="45.65676" lon="6.86241">
        <ele>1969</ele>
        <time>2020-06-26T12:31:03.000Z</time>
      </trkpt>
      <trkpt lat="45.65687" lon="6.86267">
        <ele>1970.1999511719</ele>
        <time>2020-06-26T12:31:09.000Z</time>
      </trkpt>
      <trkpt lat="45.65692" lon="6.86274">
        <ele>1970.5999755859</ele>
        <time>2020-06-26T12:31:11.000Z</time>
      </trkpt>
      <trkpt lat="45.657" lon="6.86284">
        <ele>1971.1999511719</ele>
        <time>2020-06-26T12:31:14.000Z</time>
      </trkpt>
      <trkpt lat="45.65718" lon="6.86304">
        <ele>1972.4000244141</ele>
        <time>2020-06-26T12:31:20.000Z</time>
      </trkpt>
      <trkpt lat="45.6572" lon="6.86307">
        <ele>1972.5999755859</ele>
        <time>2020-06-26T12:31:21.000Z</time>
      </trkpt>
      <trkpt lat="45.65738" lon="6.86325">
        <ele>1973.1999511719</ele>
        <time>2020-06-26T12:31:27.000Z</time>
      </trkpt>
      <trkpt lat="45.65751" lon="6.86333">
        <ele>1974</ele>
        <time>2020-06-26T12:31:31.000Z</time>
      </trkpt>
      <trkpt lat="45.65758" lon="6.86336">
        <ele>1974.4000244141</ele>
        <time>2020-06-26T12:31:33.000Z</time>
      </trkpt>
      <trkpt lat="45.65768" lon="6.86344">
        <ele>1975</ele>
        <time>2020-06-26T12:31:36.000Z</time>
      </trkpt>
      <trkpt lat="45.65776" lon="6.86347">
        <ele>1975.4000244141</ele>
        <time>2020-06-26T12:31:38.000Z</time>
      </trkpt>
      <trkpt lat="45.65794" lon="6.86359">
        <ele>1976</ele>
        <time>2020-06-26T12:31:43.000Z</time>
      </trkpt>
      <trkpt lat="45.65812" lon="6.86376">
        <ele>1976.5999755859</ele>
        <time>2020-06-26T12:31:48.000Z</time>
      </trkpt>
      <trkpt lat="45.65827" lon="6.86392">
        <ele>1977.1999511719</ele>
        <time>2020-06-26T12:31:52.000Z</time>
      </trkpt>
      <trkpt lat="45.65838" lon="6.86401">
        <ele>1977.4000244141</ele>
        <time>2020-06-26T12:31:55.000Z</time>
      </trkpt>
      <trkpt lat="45.65855" lon="6.8641">
        <ele>1977.8000488281</ele>
        <time>2020-06-26T12:31:59.000Z</time>
      </trkpt>
      <trkpt lat="45.6588" lon="6.86421">
        <ele>1978.5999755859</ele>
        <time>2020-06-26T12:32:05.000Z</time>
      </trkpt>
      <trkpt lat="45.65889" lon="6.86425">
        <ele>1978.8000488281</ele>
        <time>2020-06-26T12:32:07.000Z</time>
      </trkpt>
      <trkpt lat="45.65905" lon="6.86439">
        <ele>1979.1999511719</ele>
        <time>2020-06-26T12:32:12.000Z</time>
      </trkpt>
      <trkpt lat="45.6591" lon="6.86446">
        <ele>1979.5999755859</ele>
        <time>2020-06-26T12:32:14.000Z</time>
      </trkpt>
      <trkpt lat="45.65919" lon="6.86465">
        <ele>1980.5999755859</ele>
        <time>2020-06-26T12:32:18.000Z</time>
      </trkpt>
      <trkpt lat="45.65924" lon="6.86475">
        <ele>1981</ele>
        <time>2020-06-26T12:32:20.000Z</time>
      </trkpt>
      <trkpt lat="45.65933" lon="6.86494">
        <ele>1981.8000488281</ele>
        <time>2020-06-26T12:32:24.000Z</time>
      </trkpt>
      <trkpt lat="45.65944" lon="6.86522">
        <ele>1982.8000488281</ele>
        <time>2020-06-26T12:32:30.000Z</time>
      </trkpt>
      <trkpt lat="45.65951" lon="6.8654">
        <ele>1983.8000488281</ele>
        <time>2020-06-26T12:32:34.000Z</time>
      </trkpt>
      <trkpt lat="45.65962" lon="6.86568">
        <ele>1984.8000488281</ele>
        <time>2020-06-26T12:32:40.000Z</time>
      </trkpt>
      <trkpt lat="45.65971" lon="6.86587">
        <ele>1986</ele>
        <time>2020-06-26T12:32:45.000Z</time>
      </trkpt>
      <trkpt lat="45.65976" lon="6.86594">
        <ele>1986.4000244141</ele>
        <time>2020-06-26T12:32:47.000Z</time>
      </trkpt>
      <trkpt lat="45.65984" lon="6.86603">
        <ele>1987</ele>
        <time>2020-06-26T12:32:50.000Z</time>
      </trkpt>
      <trkpt lat="45.65995" lon="6.86614">
        <ele>1988</ele>
        <time>2020-06-26T12:32:54.000Z</time>
      </trkpt>
      <trkpt lat="45.66001" lon="6.86619">
        <ele>1988.4000244141</ele>
        <time>2020-06-26T12:32:56.000Z</time>
      </trkpt>
      <trkpt lat="45.66012" lon="6.86631">
        <ele>1989</ele>
        <time>2020-06-26T12:33:00.000Z</time>
      </trkpt>
      <trkpt lat="45.66021" lon="6.86645">
        <ele>1989.8000488281</ele>
        <time>2020-06-26T12:33:04.000Z</time>
      </trkpt>
      <trkpt lat="45.66023" lon="6.86648">
        <ele>1990</ele>
        <time>2020-06-26T12:33:05.000Z</time>
      </trkpt>
      <trkpt lat="45.66035" lon="6.86667">
        <ele>1991</ele>
        <time>2020-06-26T12:33:10.000Z</time>
      </trkpt>
      <trkpt lat="45.66045" lon="6.86682">
        <ele>1992</ele>
        <time>2020-06-26T12:33:14.000Z</time>
      </trkpt>
      <trkpt lat="45.6606" lon="6.86705">
        <ele>1993.1999511719</ele>
        <time>2020-06-26T12:33:20.000Z</time>
      </trkpt>
      <trkpt lat="45.66066" lon="6.86711">
        <ele>1993.5999755859</ele>
        <time>2020-06-26T12:33:22.000Z</time>
      </trkpt>
      <trkpt lat="45.66074" lon="6.86721">
        <ele>1994.1999511719</ele>
        <time>2020-06-26T12:33:25.000Z</time>
      </trkpt>
      <trkpt lat="45.66091" lon="6.86739">
        <ele>1995.4000244141</ele>
        <time>2020-06-26T12:33:31.000Z</time>
      </trkpt>
      <trkpt lat="45.66104" lon="6.86754">
        <ele>1996.5999755859</ele>
        <time>2020-06-26T12:33:36.000Z</time>
      </trkpt>
      <trkpt lat="45.66119" lon="6.86771">
        <ele>1997.8000488281</ele>
        <time>2020-06-26T12:33:42.000Z</time>
      </trkpt>
      <trkpt lat="45.66133" lon="6.86791">
        <ele>1999</ele>
        <time>2020-06-26T12:33:48.000Z</time>
      </trkpt>
      <trkpt lat="45.66145" lon="6.86807">
        <ele>2000</ele>
        <time>2020-06-26T12:33:53.000Z</time>
      </trkpt>
      <trkpt lat="45.66147" lon="6.86811">
        <ele>2000.1999511719</ele>
        <time>2020-06-26T12:33:54.000Z</time>
      </trkpt>
      <trkpt lat="45.6616" lon="6.86833">
        <ele>2001.1999511719</ele>
        <time>2020-06-26T12:34:00.000Z</time>
      </trkpt>
      <trkpt lat="45.66165" lon="6.86845">
        <ele>2001.8000488281</ele>
        <time>2020-06-26T12:34:03.000Z</time>
      </trkpt>
      <trkpt lat="45.66168" lon="6.86854">
        <ele>2002.4000244141</ele>
        <time>2020-06-26T12:34:05.000Z</time>
      </trkpt>
      <trkpt lat="45.66178" lon="6.8688">
        <ele>2003.5999755859</ele>
        <time>2020-06-26T12:34:11.000Z</time>
      </trkpt>
      <trkpt lat="45.66194" lon="6.86904">
        <ele>2004.5999755859</ele>
        <time>2020-06-26T12:34:18.000Z</time>
      </trkpt>
      <trkpt lat="45.66198" lon="6.86906">
        <ele>2004.8000488281</ele>
        <time>2020-06-26T12:34:19.000Z</time>
      </trkpt>
      <trkpt lat="45.66214" lon="6.86916">
        <ele>2005.8000488281</ele>
        <time>2020-06-26T12:34:24.000Z</time>
      </trkpt>
      <trkpt lat="45.66223" lon="6.86924">
        <ele>2006</ele>
        <time>2020-06-26T12:34:27.000Z</time>
      </trkpt>
      <trkpt lat="45.66237" lon="6.86947">
        <ele>2006.8000488281</ele>
        <time>2020-06-26T12:34:33.000Z</time>
      </trkpt>
      <trkpt lat="45.66238" lon="6.86952">
        <ele>2006.8000488281</ele>
        <time>2020-06-26T12:34:34.000Z</time>
      </trkpt>
      <trkpt lat="45.66242" lon="6.86976">
        <ele>2008</ele>
        <time>2020-06-26T12:34:39.000Z</time>
      </trkpt>
      <trkpt lat="45.6624" lon="6.87006">
        <ele>2009.1999511719</ele>
        <time>2020-06-26T12:34:45.000Z</time>
      </trkpt>
      <trkpt lat="45.66238" lon="6.87016">
        <ele>2009.8000488281</ele>
        <time>2020-06-26T12:34:47.000Z</time>
      </trkpt>
      <trkpt lat="45.66234" lon="6.87029">
        <ele>2010.1999511719</ele>
        <time>2020-06-26T12:34:50.000Z</time>
      </trkpt>
      <trkpt lat="45.66229" lon="6.87048">
        <ele>2011.1999511719</ele>
        <time>2020-06-26T12:34:54.000Z</time>
      </trkpt>
      <trkpt lat="45.66228" lon="6.87053">
        <ele>2011.5999755859</ele>
        <time>2020-06-26T12:34:55.000Z</time>
      </trkpt>
      <trkpt lat="45.66228" lon="6.87059">
        <ele>2011.8000488281</ele>
        <time>2020-06-26T12:34:56.000Z</time>
      </trkpt>
      <trkpt lat="45.66233" lon="6.87076">
        <ele>2012.1999511719</ele>
        <time>2020-06-26T12:34:59.000Z</time>
      </trkpt>
      <trkpt lat="45.66245" lon="6.87081">
        <ele>2012.8000488281</ele>
        <time>2020-06-26T12:35:02.000Z</time>
      </trkpt>
      <trkpt lat="45.66257" lon="6.87074">
        <ele>2012.8000488281</ele>
        <time>2020-06-26T12:35:05.000Z</time>
      </trkpt>
      <trkpt lat="45.66262" lon="6.87072">
        <ele>2012.8000488281</ele>
        <time>2020-06-26T12:35:06.000Z</time>
      </trkpt>
      <trkpt lat="45.663" lon="6.87052">
        <ele>2012.8000488281</ele>
        <time>2020-06-26T12:35:15.000Z</time>
      </trkpt>
      <trkpt lat="45.66327" lon="6.87044">
        <ele>2013.1999511719</ele>
        <time>2020-06-26T12:35:21.000Z</time>
      </trkpt>
      <trkpt lat="45.66331" lon="6.87044">
        <ele>2013.4000244141</ele>
        <time>2020-06-26T12:35:22.000Z</time>
      </trkpt>
      <trkpt lat="45.66344" lon="6.87047">
        <ele>2014.1999511719</ele>
        <time>2020-06-26T12:35:25.000Z</time>
      </trkpt>
      <trkpt lat="45.66359" lon="6.87051">
        <ele>2015.4000244141</ele>
        <time>2020-06-26T12:35:29.000Z</time>
      </trkpt>
      <trkpt lat="45.66363" lon="6.87051">
        <ele>2015.5999755859</ele>
        <time>2020-06-26T12:35:30.000Z</time>
      </trkpt>
      <trkpt lat="45.66378" lon="6.87054">
        <ele>2016.1999511719</ele>
        <time>2020-06-26T12:35:34.000Z</time>
      </trkpt>
      <trkpt lat="45.6639" lon="6.87056">
        <ele>2017.1999511719</ele>
        <time>2020-06-26T12:35:37.000Z</time>
      </trkpt>
      <trkpt lat="45.66405" lon="6.87062">
        <ele>2018.1999511719</ele>
        <time>2020-06-26T12:35:41.000Z</time>
      </trkpt>
      <trkpt lat="45.66418" lon="6.87068">
        <ele>2019.4000244141</ele>
        <time>2020-06-26T12:35:45.000Z</time>
      </trkpt>
      <trkpt lat="45.66427" lon="6.87073">
        <ele>2020</ele>
        <time>2020-06-26T12:35:48.000Z</time>
      </trkpt>
      <trkpt lat="45.66431" lon="6.87075">
        <ele>2020.4000244141</ele>
        <time>2020-06-26T12:35:49.000Z</time>
      </trkpt>
      <trkpt lat="45.66445" lon="6.87083">
        <ele>2021.4000244141</ele>
        <time>2020-06-26T12:35:54.000Z</time>
      </trkpt>
      <trkpt lat="45.6645" lon="6.87087">
        <ele>2021.8000488281</ele>
        <time>2020-06-26T12:35:56.000Z</time>
      </trkpt>
      <trkpt lat="45.66456" lon="6.87092">
        <ele>2022.4000244141</ele>
        <time>2020-06-26T12:35:58.000Z</time>
      </trkpt>
      <trkpt lat="45.66469" lon="6.87103">
        <ele>2023.4000244141</ele>
        <time>2020-06-26T12:36:03.000Z</time>
      </trkpt>
      <trkpt lat="45.66478" lon="6.87114">
        <ele>2024.4000244141</ele>
        <time>2020-06-26T12:36:07.000Z</time>
      </trkpt>
      <trkpt lat="45.66483" lon="6.87118">
        <ele>2025</ele>
        <time>2020-06-26T12:36:09.000Z</time>
      </trkpt>
      <trkpt lat="45.66489" lon="6.87123">
        <ele>2025.5999755859</ele>
        <time>2020-06-26T12:36:11.000Z</time>
      </trkpt>
      <trkpt lat="45.66505" lon="6.87134">
        <ele>2026.5999755859</ele>
        <time>2020-06-26T12:36:17.000Z</time>
      </trkpt>
      <trkpt lat="45.66511" lon="6.87137">
        <ele>2026.8000488281</ele>
        <time>2020-06-26T12:36:19.000Z</time>
      </trkpt>
      <trkpt lat="45.6652" lon="6.8714">
        <ele>2027.4000244141</ele>
        <time>2020-06-26T12:36:22.000Z</time>
      </trkpt>
      <trkpt lat="45.66535" lon="6.87141">
        <ele>2028.4000244141</ele>
        <time>2020-06-26T12:36:27.000Z</time>
      </trkpt>
      <trkpt lat="45.66553" lon="6.87143">
        <ele>2029.8000488281</ele>
        <time>2020-06-26T12:36:33.000Z</time>
      </trkpt>
      <trkpt lat="45.66565" lon="6.87145">
        <ele>2030.5999755859</ele>
        <time>2020-06-26T12:36:37.000Z</time>
      </trkpt>
      <trkpt lat="45.66573" lon="6.87148">
        <ele>2031</ele>
        <time>2020-06-26T12:36:40.000Z</time>
      </trkpt>
      <trkpt lat="45.66579" lon="6.8715">
        <ele>2031.5999755859</ele>
        <time>2020-06-26T12:36:42.000Z</time>
      </trkpt>
      <trkpt lat="45.66594" lon="6.87158">
        <ele>2032.5999755859</ele>
        <time>2020-06-26T12:36:47.000Z</time>
      </trkpt>
      <trkpt lat="45.66605" lon="6.87165">
        <ele>2033.5999755859</ele>
        <time>2020-06-26T12:36:51.000Z</time>
      </trkpt>
      <trkpt lat="45.66618" lon="6.87176">
        <ele>2034.8000488281</ele>
        <time>2020-06-26T12:36:56.000Z</time>
      </trkpt>
      <trkpt lat="45.66626" lon="6.87181">
        <ele>2035.4000244141</ele>
        <time>2020-06-26T12:36:59.000Z</time>
      </trkpt>
      <trkpt lat="45.66632" lon="6.87184">
        <ele>2035.8000488281</ele>
        <time>2020-06-26T12:37:01.000Z</time>
      </trkpt>
      <trkpt lat="45.66646" lon="6.87191">
        <ele>2036.8000488281</ele>
        <time>2020-06-26T12:37:06.000Z</time>
      </trkpt>
      <trkpt lat="45.66654" lon="6.87193">
        <ele>2037.5999755859</ele>
        <time>2020-06-26T12:37:09.000Z</time>
      </trkpt>
      <trkpt lat="45.6666" lon="6.87194">
        <ele>2038</ele>
        <time>2020-06-26T12:37:11.000Z</time>
      </trkpt>
      <trkpt lat="45.66682" lon="6.872">
        <ele>2039.1999511719</ele>
        <time>2020-06-26T12:37:18.000Z</time>
      </trkpt>
      <trkpt lat="45.66697" lon="6.87204">
        <ele>2040.1999511719</ele>
        <time>2020-06-26T12:37:23.000Z</time>
      </trkpt>
      <trkpt lat="45.66708" lon="6.87209">
        <ele>2041</ele>
        <time>2020-06-26T12:37:27.000Z</time>
      </trkpt>
      <trkpt lat="45.66714" lon="6.87211">
        <ele>2041.5999755859</ele>
        <time>2020-06-26T12:37:29.000Z</time>
      </trkpt>
      <trkpt lat="45.66722" lon="6.87217">
        <ele>2042.5999755859</ele>
        <time>2020-06-26T12:37:32.000Z</time>
      </trkpt>
      <trkpt lat="45.6673" lon="6.87223">
        <ele>2043.1999511719</ele>
        <time>2020-06-26T12:37:35.000Z</time>
      </trkpt>
      <trkpt lat="45.66736" lon="6.87227">
        <ele>2043.4000244141</ele>
        <time>2020-06-26T12:37:37.000Z</time>
      </trkpt>
      <trkpt lat="45.66754" lon="6.87235">
        <ele>2044.5999755859</ele>
        <time>2020-06-26T12:37:43.000Z</time>
      </trkpt>
      <trkpt lat="45.6676" lon="6.87237">
        <ele>2045.1999511719</ele>
        <time>2020-06-26T12:37:45.000Z</time>
      </trkpt>
      <trkpt lat="45.66769" lon="6.87238">
        <ele>2045.5999755859</ele>
        <time>2020-06-26T12:37:48.000Z</time>
      </trkpt>
      <trkpt lat="45.66787" lon="6.87238">
        <ele>2046.5999755859</ele>
        <time>2020-06-26T12:37:54.000Z</time>
      </trkpt>
      <trkpt lat="45.6679" lon="6.87238">
        <ele>2046.8000488281</ele>
        <time>2020-06-26T12:37:55.000Z</time>
      </trkpt>
      <trkpt lat="45.668" lon="6.87235">
        <ele>2047.8000488281</ele>
        <time>2020-06-26T12:37:59.000Z</time>
      </trkpt>
      <trkpt lat="45.66808" lon="6.87231">
        <ele>2048.3999023438</ele>
        <time>2020-06-26T12:38:02.000Z</time>
      </trkpt>
      <trkpt lat="45.66817" lon="6.87229">
        <ele>2048.8000488281</ele>
        <time>2020-06-26T12:38:05.000Z</time>
      </trkpt>
      <trkpt lat="45.66828" lon="6.87229">
        <ele>2049.6000976562</ele>
        <time>2020-06-26T12:38:09.000Z</time>
      </trkpt>
      <trkpt lat="45.66834" lon="6.8723">
        <ele>2049.8000488281</ele>
        <time>2020-06-26T12:38:11.000Z</time>
      </trkpt>
      <trkpt lat="45.66847" lon="6.8724">
        <ele>2050.6000976562</ele>
        <time>2020-06-26T12:38:16.000Z</time>
      </trkpt>
      <trkpt lat="45.66851" lon="6.87246">
        <ele>2051.1999511719</ele>
        <time>2020-06-26T12:38:18.000Z</time>
      </trkpt>
      <trkpt lat="45.66861" lon="6.87263">
        <ele>2051.8000488281</ele>
        <time>2020-06-26T12:38:23.000Z</time>
      </trkpt>
      <trkpt lat="45.66865" lon="6.87269">
        <ele>2052.1999511719</ele>
        <time>2020-06-26T12:38:25.000Z</time>
      </trkpt>
      <trkpt lat="45.66877" lon="6.87275">
        <ele>2053</ele>
        <time>2020-06-26T12:38:29.000Z</time>
      </trkpt>
      <trkpt lat="45.6688" lon="6.87275">
        <ele>2053.3999023438</ele>
        <time>2020-06-26T12:38:30.000Z</time>
      </trkpt>
      <trkpt lat="45.66894" lon="6.87271">
        <ele>2054.3999023438</ele>
        <time>2020-06-26T12:38:35.000Z</time>
      </trkpt>
      <trkpt lat="45.66911" lon="6.87261">
        <ele>2055.1999511719</ele>
        <time>2020-06-26T12:38:41.000Z</time>
      </trkpt>
      <trkpt lat="45.66917" lon="6.87258">
        <ele>2055.3999023438</ele>
        <time>2020-06-26T12:38:43.000Z</time>
      </trkpt>
      <trkpt lat="45.66928" lon="6.87252">
        <ele>2056.1999511719</ele>
        <time>2020-06-26T12:38:47.000Z</time>
      </trkpt>
      <trkpt lat="45.66937" lon="6.87252">
        <ele>2057</ele>
        <time>2020-06-26T12:38:50.000Z</time>
      </trkpt>
      <trkpt lat="45.66943" lon="6.87256">
        <ele>2057.1999511719</ele>
        <time>2020-06-26T12:38:52.000Z</time>
      </trkpt>
      <trkpt lat="45.66953" lon="6.87265">
        <ele>2058.1999511719</ele>
        <time>2020-06-26T12:38:56.000Z</time>
      </trkpt>
      <trkpt lat="45.66955" lon="6.87267">
        <ele>2058.6000976562</ele>
        <time>2020-06-26T12:38:57.000Z</time>
      </trkpt>
      <trkpt lat="45.66963" lon="6.87273">
        <ele>2059.6000976562</ele>
        <time>2020-06-26T12:39:00.000Z</time>
      </trkpt>
      <trkpt lat="45.66973" lon="6.8728">
        <ele>2060.6000976562</ele>
        <time>2020-06-26T12:39:04.000Z</time>
      </trkpt>
      <trkpt lat="45.66976" lon="6.87281">
        <ele>2060.8000488281</ele>
        <time>2020-06-26T12:39:05.000Z</time>
      </trkpt>
      <trkpt lat="45.66996" lon="6.8729">
        <ele>2061.6000976562</ele>
        <time>2020-06-26T12:39:11.000Z</time>
      </trkpt>
      <trkpt lat="45.67013" lon="6.873">
        <ele>2062.6000976562</ele>
        <time>2020-06-26T12:39:16.000Z</time>
      </trkpt>
      <trkpt lat="45.67022" lon="6.87307">
        <ele>2063</ele>
        <time>2020-06-26T12:39:19.000Z</time>
      </trkpt>
      <trkpt lat="45.67035" lon="6.87318">
        <ele>2063.8000488281</ele>
        <time>2020-06-26T12:39:23.000Z</time>
      </trkpt>
      <trkpt lat="45.67044" lon="6.87327">
        <ele>2064.3999023438</ele>
        <time>2020-06-26T12:39:26.000Z</time>
      </trkpt>
      <trkpt lat="45.6705" lon="6.87333">
        <ele>2065</ele>
        <time>2020-06-26T12:39:28.000Z</time>
      </trkpt>
      <trkpt lat="45.67063" lon="6.8735">
        <ele>2065.8000488281</ele>
        <time>2020-06-26T12:39:33.000Z</time>
      </trkpt>
      <trkpt lat="45.67065" lon="6.87359">
        <ele>2066</ele>
        <time>2020-06-26T12:39:35.000Z</time>
      </trkpt>
      <trkpt lat="45.67064" lon="6.87368">
        <ele>2066.6000976562</ele>
        <time>2020-06-26T12:39:37.000Z</time>
      </trkpt>
      <trkpt lat="45.67052" lon="6.87377">
        <ele>2067.1999511719</ele>
        <time>2020-06-26T12:39:41.000Z</time>
      </trkpt>
      <trkpt lat="45.67031" lon="6.87368">
        <ele>2067.8000488281</ele>
        <time>2020-06-26T12:39:47.000Z</time>
      </trkpt>
      <trkpt lat="45.67013" lon="6.87353">
        <ele>2068</ele>
        <time>2020-06-26T12:39:53.000Z</time>
      </trkpt>
      <trkpt lat="45.67004" lon="6.87343">
        <ele>2069</ele>
        <time>2020-06-26T12:39:56.000Z</time>
      </trkpt>
      <trkpt lat="45.67001" lon="6.87341">
        <ele>2069.3999023438</ele>
        <time>2020-06-26T12:39:57.000Z</time>
      </trkpt>
      <trkpt lat="45.66982" lon="6.87324">
        <ele>2070.6000976562</ele>
        <time>2020-06-26T12:40:03.000Z</time>
      </trkpt>
      <trkpt lat="45.66972" lon="6.87319">
        <ele>2071.1999511719</ele>
        <time>2020-06-26T12:40:06.000Z</time>
      </trkpt>
      <trkpt lat="45.66966" lon="6.87316">
        <ele>2071.3999023438</ele>
        <time>2020-06-26T12:40:08.000Z</time>
      </trkpt>
      <trkpt lat="45.66949" lon="6.87314">
        <ele>2072</ele>
        <time>2020-06-26T12:40:13.000Z</time>
      </trkpt>
      <trkpt lat="45.66939" lon="6.87326">
        <ele>2072.3999023438</ele>
        <time>2020-06-26T12:40:17.000Z</time>
      </trkpt>
      <trkpt lat="45.66942" lon="6.87342">
        <ele>2073.1999511719</ele>
        <time>2020-06-26T12:40:20.000Z</time>
      </trkpt>
      <trkpt lat="45.66947" lon="6.87351">
        <ele>2073.6000976562</ele>
        <time>2020-06-26T12:40:22.000Z</time>
      </trkpt>
      <trkpt lat="45.66956" lon="6.87361">
        <ele>2074.3999023438</ele>
        <time>2020-06-26T12:40:25.000Z</time>
      </trkpt>
      <trkpt lat="45.66959" lon="6.87364">
        <ele>2074.8000488281</ele>
        <time>2020-06-26T12:40:26.000Z</time>
      </trkpt>
      <trkpt lat="45.66975" lon="6.87383">
        <ele>2075.6000976562</ele>
        <time>2020-06-26T12:40:32.000Z</time>
      </trkpt>
      <trkpt lat="45.6698" lon="6.87389">
        <ele>2075.8000488281</ele>
        <time>2020-06-26T12:40:34.000Z</time>
      </trkpt>
      <trkpt lat="45.66982" lon="6.87392">
        <ele>2076.1999511719</ele>
        <time>2020-06-26T12:40:35.000Z</time>
      </trkpt>
      <trkpt lat="45.66992" lon="6.87403">
        <ele>2076.8000488281</ele>
        <time>2020-06-26T12:40:39.000Z</time>
      </trkpt>
      <trkpt lat="45.67003" lon="6.87416">
        <ele>2078</ele>
        <time>2020-06-26T12:40:44.000Z</time>
      </trkpt>
      <trkpt lat="45.67015" lon="6.87429">
        <ele>2079</ele>
        <time>2020-06-26T12:40:49.000Z</time>
      </trkpt>
      <trkpt lat="45.67029" lon="6.87445">
        <ele>2080.1999511719</ele>
        <time>2020-06-26T12:40:55.000Z</time>
      </trkpt>
      <trkpt lat="45.67039" lon="6.87456">
        <ele>2081</ele>
        <time>2020-06-26T12:40:59.000Z</time>
      </trkpt>
      <trkpt lat="45.67041" lon="6.87458">
        <ele>2081.3999023438</ele>
        <time>2020-06-26T12:41:00.000Z</time>
      </trkpt>
      <trkpt lat="45.67053" lon="6.87472">
        <ele>2082.6000976562</ele>
        <time>2020-06-26T12:41:05.000Z</time>
      </trkpt>
      <trkpt lat="45.6706" lon="6.8748">
        <ele>2083.1999511719</ele>
        <time>2020-06-26T12:41:08.000Z</time>
      </trkpt>
      <trkpt lat="45.67064" lon="6.87485">
        <ele>2083.6000976562</ele>
        <time>2020-06-26T12:41:10.000Z</time>
      </trkpt>
      <trkpt lat="45.67066" lon="6.87487">
        <ele>2084</ele>
        <time>2020-06-26T12:41:11.000Z</time>
      </trkpt>
      <trkpt lat="45.67067" lon="6.87489">
        <ele>2084.1999511719</ele>
        <time>2020-06-26T12:41:12.000Z</time>
      </trkpt>
      <trkpt lat="45.67068" lon="6.8749">
        <ele>2084.6000976562</ele>
        <time>2020-06-26T12:41:15.000Z</time>
      </trkpt>
      <trkpt lat="45.6707" lon="6.87491">
        <ele>2086.3999023438</ele>
        <time>2020-06-26T12:41:48.000Z</time>
      </trkpt>
      <trkpt lat="45.67077" lon="6.87499">
        <ele>2086.3999023438</ele>
        <time>2020-06-26T12:41:53.000Z</time>
      </trkpt>
      <trkpt lat="45.67092" lon="6.87515">
        <ele>2086.3999023438</ele>
        <time>2020-06-26T12:41:58.000Z</time>
      </trkpt>
      <trkpt lat="45.67113" lon="6.8754">
        <ele>2087</ele>
        <time>2020-06-26T12:42:05.000Z</time>
      </trkpt>
      <trkpt lat="45.67118" lon="6.87546">
        <ele>2087.6000976562</ele>
        <time>2020-06-26T12:42:07.000Z</time>
      </trkpt>
      <trkpt lat="45.67129" lon="6.87558">
        <ele>2088.6000976562</ele>
        <time>2020-06-26T12:42:11.000Z</time>
      </trkpt>
      <trkpt lat="45.67137" lon="6.87568">
        <ele>2089.3999023438</ele>
        <time>2020-06-26T12:42:14.000Z</time>
      </trkpt>
      <trkpt lat="45.6714" lon="6.87571">
        <ele>2089.6000976562</ele>
        <time>2020-06-26T12:42:15.000Z</time>
      </trkpt>
      <trkpt lat="45.67152" lon="6.87584">
        <ele>2090.8000488281</ele>
        <time>2020-06-26T12:42:19.000Z</time>
      </trkpt>
      <trkpt lat="45.67159" lon="6.87591">
        <ele>2091.3999023438</ele>
        <time>2020-06-26T12:42:21.000Z</time>
      </trkpt>
      <trkpt lat="45.67165" lon="6.87598">
        <ele>2091.8000488281</ele>
        <time>2020-06-26T12:42:23.000Z</time>
      </trkpt>
      <trkpt lat="45.67172" lon="6.87606">
        <ele>2092.1999511719</ele>
        <time>2020-06-26T12:42:25.000Z</time>
      </trkpt>
      <trkpt lat="45.67181" lon="6.87617">
        <ele>2092.1999511719</ele>
        <time>2020-06-26T12:42:28.000Z</time>
      </trkpt>
      <trkpt lat="45.67198" lon="6.87635">
        <ele>2092.8000488281</ele>
        <time>2020-06-26T12:42:33.000Z</time>
      </trkpt>
      <trkpt lat="45.67207" lon="6.87647">
        <ele>2093</ele>
        <time>2020-06-26T12:42:36.000Z</time>
      </trkpt>
      <trkpt lat="45.67223" lon="6.87666">
        <ele>2093.8000488281</ele>
        <time>2020-06-26T12:42:41.000Z</time>
      </trkpt>
      <trkpt lat="45.6724" lon="6.87684">
        <ele>2094.6000976562</ele>
        <time>2020-06-26T12:42:46.000Z</time>
      </trkpt>
      <trkpt lat="45.67247" lon="6.87692">
        <ele>2094.8000488281</ele>
        <time>2020-06-26T12:42:48.000Z</time>
      </trkpt>
      <trkpt lat="45.67263" lon="6.8771">
        <ele>2096</ele>
        <time>2020-06-26T12:42:53.000Z</time>
      </trkpt>
      <trkpt lat="45.6727" lon="6.87717">
        <ele>2096.1999511719</ele>
        <time>2020-06-26T12:42:55.000Z</time>
      </trkpt>
      <trkpt lat="45.67287" lon="6.87733">
        <ele>2096.8000488281</ele>
        <time>2020-06-26T12:43:00.000Z</time>
      </trkpt>
      <trkpt lat="45.67293" lon="6.87739">
        <ele>2097.1999511719</ele>
        <time>2020-06-26T12:43:02.000Z</time>
      </trkpt>
      <trkpt lat="45.67303" lon="6.8775">
        <ele>2097.8000488281</ele>
        <time>2020-06-26T12:43:05.000Z</time>
      </trkpt>
      <trkpt lat="45.67321" lon="6.87773">
        <ele>2099</ele>
        <time>2020-06-26T12:43:11.000Z</time>
      </trkpt>
      <trkpt lat="45.67328" lon="6.8778">
        <ele>2099.3999023438</ele>
        <time>2020-06-26T12:43:13.000Z</time>
      </trkpt>
      <trkpt lat="45.67334" lon="6.87788">
        <ele>2099.6000976562</ele>
        <time>2020-06-26T12:43:15.000Z</time>
      </trkpt>
      <trkpt lat="45.67349" lon="6.87803">
        <ele>2100.6000976562</ele>
        <time>2020-06-26T12:43:19.000Z</time>
      </trkpt>
      <trkpt lat="45.67372" lon="6.87829">
        <ele>2101.1999511719</ele>
        <time>2020-06-26T12:43:26.000Z</time>
      </trkpt>
      <trkpt lat="45.67381" lon="6.8784">
        <ele>2101.1999511719</ele>
        <time>2020-06-26T12:43:29.000Z</time>
      </trkpt>
      <trkpt lat="45.67388" lon="6.87847">
        <ele>2101.6000976562</ele>
        <time>2020-06-26T12:43:31.000Z</time>
      </trkpt>
      <trkpt lat="45.67391" lon="6.8785">
        <ele>2101.8000488281</ele>
        <time>2020-06-26T12:43:32.000Z</time>
      </trkpt>
      <trkpt lat="45.67405" lon="6.87867">
        <ele>2102.6000976562</ele>
        <time>2020-06-26T12:43:36.000Z</time>
      </trkpt>
      <trkpt lat="45.67421" lon="6.87884">
        <ele>2103.3999023438</ele>
        <time>2020-06-26T12:43:40.000Z</time>
      </trkpt>
      <trkpt lat="45.67449" lon="6.87915">
        <ele>2103.8000488281</ele>
        <time>2020-06-26T12:43:47.000Z</time>
      </trkpt>
      <trkpt lat="45.67469" lon="6.87937">
        <ele>2104</ele>
        <time>2020-06-26T12:43:52.000Z</time>
      </trkpt>
      <trkpt lat="45.67507" lon="6.87982">
        <ele>2104.8000488281</ele>
        <time>2020-06-26T12:44:01.000Z</time>
      </trkpt>
      <trkpt lat="45.67512" lon="6.87987">
        <ele>2104.8000488281</ele>
        <time>2020-06-26T12:44:02.000Z</time>
      </trkpt>
      <trkpt lat="45.67556" lon="6.88036">
        <ele>2105.3999023438</ele>
        <time>2020-06-26T12:44:12.000Z</time>
      </trkpt>
      <trkpt lat="45.67565" lon="6.88046">
        <ele>2105.6000976562</ele>
        <time>2020-06-26T12:44:14.000Z</time>
      </trkpt>
      <trkpt lat="45.67569" lon="6.88051">
        <ele>2105.8000488281</ele>
        <time>2020-06-26T12:44:15.000Z</time>
      </trkpt>
      <trkpt lat="45.67605" lon="6.8809">
        <ele>2106.3999023438</ele>
        <time>2020-06-26T12:44:23.000Z</time>
      </trkpt>
      <trkpt lat="45.6761" lon="6.88095">
        <ele>2106.3999023438</ele>
        <time>2020-06-26T12:44:24.000Z</time>
      </trkpt>
      <trkpt lat="45.67627" lon="6.88115">
        <ele>2106.8000488281</ele>
        <time>2020-06-26T12:44:28.000Z</time>
      </trkpt>
      <trkpt lat="45.67645" lon="6.88135">
        <ele>2107</ele>
        <time>2020-06-26T12:44:32.000Z</time>
      </trkpt>
      <trkpt lat="45.67674" lon="6.88161">
        <ele>2107.8000488281</ele>
        <time>2020-06-26T12:44:39.000Z</time>
      </trkpt>
      <trkpt lat="45.67695" lon="6.88173">
        <ele>2108.8000488281</ele>
        <time>2020-06-26T12:44:44.000Z</time>
      </trkpt>
      <trkpt lat="45.67699" lon="6.88175">
        <ele>2108.8000488281</ele>
        <time>2020-06-26T12:44:45.000Z</time>
      </trkpt>
      <trkpt lat="45.67712" lon="6.88181">
        <ele>2110</ele>
        <time>2020-06-26T12:44:48.000Z</time>
      </trkpt>
      <trkpt lat="45.67728" lon="6.88189">
        <ele>2111.1999511719</ele>
        <time>2020-06-26T12:44:52.000Z</time>
      </trkpt>
      <trkpt lat="45.67743" lon="6.88195">
        <ele>2112.1999511719</ele>
        <time>2020-06-26T12:44:56.000Z</time>
      </trkpt>
      <trkpt lat="45.67756" lon="6.88204">
        <ele>2113.1999511719</ele>
        <time>2020-06-26T12:45:00.000Z</time>
      </trkpt>
      <trkpt lat="45.67759" lon="6.88206">
        <ele>2113.6000976562</ele>
        <time>2020-06-26T12:45:01.000Z</time>
      </trkpt>
      <trkpt lat="45.67772" lon="6.88211">
        <ele>2114.3999023438</ele>
        <time>2020-06-26T12:45:05.000Z</time>
      </trkpt>
      <trkpt lat="45.67775" lon="6.88213">
        <ele>2114.6000976562</ele>
        <time>2020-06-26T12:45:06.000Z</time>
      </trkpt>
      <trkpt lat="45.6779" lon="6.8822">
        <ele>2115.6000976562</ele>
        <time>2020-06-26T12:45:11.000Z</time>
      </trkpt>
      <trkpt lat="45.67796" lon="6.88224">
        <ele>2116.1999511719</ele>
        <time>2020-06-26T12:45:13.000Z</time>
      </trkpt>
      <trkpt lat="45.67802" lon="6.88227">
        <ele>2116.8000488281</ele>
        <time>2020-06-26T12:45:15.000Z</time>
      </trkpt>
      <trkpt lat="45.67821" lon="6.88236">
        <ele>2117.6000976562</ele>
        <time>2020-06-26T12:45:21.000Z</time>
      </trkpt>
      <trkpt lat="45.67824" lon="6.88237">
        <ele>2117.8000488281</ele>
        <time>2020-06-26T12:45:22.000Z</time>
      </trkpt>
      <trkpt lat="45.67843" lon="6.88245">
        <ele>2118.8000488281</ele>
        <time>2020-06-26T12:45:28.000Z</time>
      </trkpt>
      <trkpt lat="45.67862" lon="6.88255">
        <ele>2120</ele>
        <time>2020-06-26T12:45:34.000Z</time>
      </trkpt>
      <trkpt lat="45.67871" lon="6.88259">
        <ele>2120.6000976562</ele>
        <time>2020-06-26T12:45:37.000Z</time>
      </trkpt>
      <trkpt lat="45.67878" lon="6.88262">
        <ele>2121.1999511719</ele>
        <time>2020-06-26T12:45:39.000Z</time>
      </trkpt>
      <trkpt lat="45.67893" lon="6.88271">
        <ele>2122.1999511719</ele>
        <time>2020-06-26T12:45:44.000Z</time>
      </trkpt>
      <trkpt lat="45.67905" lon="6.8828">
        <ele>2123</ele>
        <time>2020-06-26T12:45:48.000Z</time>
      </trkpt>
      <trkpt lat="45.67908" lon="6.88283">
        <ele>2123.1999511719</ele>
        <time>2020-06-26T12:45:49.000Z</time>
      </trkpt>
      <trkpt lat="45.67915" lon="6.88291">
        <ele>2124.3999023438</ele>
        <time>2020-06-26T12:45:53.000Z</time>
      </trkpt>
      <trkpt lat="45.67917" lon="6.88292">
        <ele>2124.6000976562</ele>
        <time>2020-06-26T12:45:54.000Z</time>
      </trkpt>
      <trkpt lat="45.6792" lon="6.88297">
        <ele>2125</ele>
        <time>2020-06-26T12:45:58.000Z</time>
      </trkpt>
      <trkpt lat="45.67921" lon="6.88299">
        <ele>2125.3999023438</ele>
        <time>2020-06-26T12:46:00.000Z</time>
      </trkpt>
      <trkpt lat="45.67921" lon="6.88299">
        <ele>2125.6000976562</ele>
        <time>2020-06-26T12:46:01.000Z</time>
      </trkpt>
      <trkpt lat="45.67924" lon="6.88297">
        <ele>2126.1999511719</ele>
        <time>2020-06-26T12:46:07.000Z</time>
      </trkpt>
      <trkpt lat="45.67925" lon="6.88295">
        <ele>2126.1999511719</ele>
        <time>2020-06-26T12:46:09.000Z</time>
      </trkpt>
      <trkpt lat="45.67923" lon="6.88289">
        <ele>2126.3999023438</ele>
        <time>2020-06-26T12:46:15.000Z</time>
      </trkpt>
      <trkpt lat="45.6792" lon="6.88292">
        <ele>2126.3999023438</ele>
        <time>2020-06-26T12:46:18.000Z</time>
      </trkpt>
      <trkpt lat="45.67921" lon="6.88296">
        <ele>2126.1999511719</ele>
        <time>2020-06-26T12:46:21.000Z</time>
      </trkpt>
      <trkpt lat="45.67922" lon="6.88298">
        <ele>2126.1999511719</ele>
        <time>2020-06-26T12:46:22.000Z</time>
      </trkpt>
      <trkpt lat="45.67923" lon="6.88299">
        <ele>2126.1999511719</ele>
        <time>2020-06-26T12:46:23.000Z</time>
      </trkpt>
      <trkpt lat="45.67926" lon="6.88302">
        <ele>2126.1999511719</ele>
        <time>2020-06-26T12:46:25.000Z</time>
      </trkpt>
      <trkpt lat="45.67937" lon="6.88313">
        <ele>2126.1999511719</ele>
        <time>2020-06-26T12:46:31.000Z</time>
      </trkpt>
      <trkpt lat="45.67958" lon="6.88326">
        <ele>2126.3999023438</ele>
        <time>2020-06-26T12:46:40.000Z</time>
      </trkpt>
      <trkpt lat="45.67959" lon="6.88318">
        <ele>2126.3999023438</ele>
        <time>2020-06-26T12:46:43.000Z</time>
      </trkpt>
      <trkpt lat="45.67948" lon="6.88307">
        <ele>2126.1999511719</ele>
        <time>2020-06-26T12:46:48.000Z</time>
      </trkpt>
      <trkpt lat="45.67946" lon="6.88305">
        <ele>2126.1999511719</ele>
        <time>2020-06-26T12:46:49.000Z</time>
      </trkpt>
      <trkpt lat="45.67928" lon="6.88292">
        <ele>2125.1999511719</ele>
        <time>2020-06-26T12:46:56.000Z</time>
      </trkpt>
      <trkpt lat="45.67923" lon="6.8829">
        <ele>2125</ele>
        <time>2020-06-26T12:46:59.000Z</time>
      </trkpt>
      <trkpt lat="45.67921" lon="6.88292">
        <ele>2125</ele>
        <time>2020-06-26T12:47:01.000Z</time>
      </trkpt>
      <trkpt lat="45.67923" lon="6.88301">
        <ele>2125.3999023438</ele>
        <time>2020-06-26T12:47:07.000Z</time>
      </trkpt>
      <trkpt lat="45.67922" lon="6.88301">
        <ele>2125.6000976562</ele>
        <time>2020-06-26T12:47:08.000Z</time>
      </trkpt>
      <trkpt lat="45.67915" lon="6.88288">
        <ele>2124.6000976562</ele>
        <time>2020-06-26T12:50:18.000Z</time>
      </trkpt>
      <trkpt lat="45.67916" lon="6.88292">
        <ele>2124.8000488281</ele>
        <time>2020-06-26T12:50:21.000Z</time>
      </trkpt>
      <trkpt lat="45.67917" lon="6.88296">
        <ele>2125.8000488281</ele>
        <time>2020-06-26T12:50:26.000Z</time>
      </trkpt>
      <trkpt lat="45.67917" lon="6.88298">
        <ele>2126</ele>
        <time>2020-06-26T12:50:30.000Z</time>
      </trkpt>
      <trkpt lat="45.67917" lon="6.88298">
        <ele>2126</ele>
        <time>2020-06-26T12:50:31.000Z</time>
      </trkpt>
      <trkpt lat="45.67921" lon="6.88298">
        <ele>2125.8000488281</ele>
        <time>2020-06-26T12:50:47.000Z</time>
      </trkpt>
      <trkpt lat="45.67923" lon="6.88299">
        <ele>2125.8000488281</ele>
        <time>2020-06-26T12:50:49.000Z</time>
      </trkpt>
      <trkpt lat="45.67924" lon="6.88299">
        <ele>2126</ele>
        <time>2020-06-26T12:50:51.000Z</time>
      </trkpt>
      <trkpt lat="45.67928" lon="6.88306">
        <ele>2126.6000976562</ele>
        <time>2020-06-26T12:53:10.000Z</time>
      </trkpt>
      <trkpt lat="45.67932" lon="6.88309">
        <ele>2126.6000976562</ele>
        <time>2020-06-26T12:53:12.000Z</time>
      </trkpt>
      <trkpt lat="45.67936" lon="6.88315">
        <ele>2126.6000976562</ele>
        <time>2020-06-26T12:53:15.000Z</time>
      </trkpt>
      <trkpt lat="45.67937" lon="6.88319">
        <ele>2126.6000976562</ele>
        <time>2020-06-26T12:53:17.000Z</time>
      </trkpt>
      <trkpt lat="45.67937" lon="6.88323">
        <ele>2126.6000976562</ele>
        <time>2020-06-26T12:53:20.000Z</time>
      </trkpt>
      <trkpt lat="45.67916" lon="6.88291">
        <ele>2125.1999511719</ele>
        <time>2020-06-26T13:00:51.000Z</time>
      </trkpt>
      <trkpt lat="45.67916" lon="6.88289">
        <ele>2125.1999511719</ele>
        <time>2020-06-26T13:00:52.000Z</time>
      </trkpt>
      <trkpt lat="45.67907" lon="6.88274">
        <ele>2125.1999511719</ele>
        <time>2020-06-26T13:00:57.000Z</time>
      </trkpt>
      <trkpt lat="45.679" lon="6.88268">
        <ele>2125.1999511719</ele>
        <time>2020-06-26T13:00:59.000Z</time>
      </trkpt>
      <trkpt lat="45.67884" lon="6.88257">
        <ele>2124.8000488281</ele>
        <time>2020-06-26T13:01:03.000Z</time>
      </trkpt>
      <trkpt lat="45.67879" lon="6.88255">
        <ele>2123.8000488281</ele>
        <time>2020-06-26T13:01:04.000Z</time>
      </trkpt>
      <trkpt lat="45.67868" lon="6.88249">
        <ele>2122.3999023438</ele>
        <time>2020-06-26T13:01:06.000Z</time>
      </trkpt>
      <trkpt lat="45.6785" lon="6.88241">
        <ele>2121.3999023438</ele>
        <time>2020-06-26T13:01:09.000Z</time>
      </trkpt>
      <trkpt lat="45.67838" lon="6.88237">
        <ele>2121</ele>
        <time>2020-06-26T13:01:11.000Z</time>
      </trkpt>
      <trkpt lat="45.67812" lon="6.88224">
        <ele>2119.8000488281</ele>
        <time>2020-06-26T13:01:15.000Z</time>
      </trkpt>
      <trkpt lat="45.67806" lon="6.88221">
        <ele>2119.6000976562</ele>
        <time>2020-06-26T13:01:16.000Z</time>
      </trkpt>
      <trkpt lat="45.67792" lon="6.88214">
        <ele>2118</ele>
        <time>2020-06-26T13:01:18.000Z</time>
      </trkpt>
      <trkpt lat="45.67785" lon="6.88211">
        <ele>2116.6000976562</ele>
        <time>2020-06-26T13:01:19.000Z</time>
      </trkpt>
      <trkpt lat="45.67771" lon="6.88204">
        <ele>2114.6000976562</ele>
        <time>2020-06-26T13:01:21.000Z</time>
      </trkpt>
      <trkpt lat="45.67756" lon="6.88197">
        <ele>2113.3999023438</ele>
        <time>2020-06-26T13:01:23.000Z</time>
      </trkpt>
      <trkpt lat="45.67749" lon="6.88193">
        <ele>2113</ele>
        <time>2020-06-26T13:01:24.000Z</time>
      </trkpt>
      <trkpt lat="45.67695" lon="6.88165">
        <ele>2112.3999023438</ele>
        <time>2020-06-26T13:01:31.000Z</time>
      </trkpt>
      <trkpt lat="45.67687" lon="6.88161">
        <ele>2110.3999023438</ele>
        <time>2020-06-26T13:01:32.000Z</time>
      </trkpt>
      <trkpt lat="45.67679" lon="6.88157">
        <ele>2109.8000488281</ele>
        <time>2020-06-26T13:01:33.000Z</time>
      </trkpt>
      <trkpt lat="45.67671" lon="6.88152">
        <ele>2109</ele>
        <time>2020-06-26T13:01:34.000Z</time>
      </trkpt>
      <trkpt lat="45.67656" lon="6.88139">
        <ele>2108</ele>
        <time>2020-06-26T13:01:36.000Z</time>
      </trkpt>
      <trkpt lat="45.67648" lon="6.88131">
        <ele>2107.1999511719</ele>
        <time>2020-06-26T13:01:37.000Z</time>
      </trkpt>
      <trkpt lat="45.67641" lon="6.88123">
        <ele>2106.6000976562</ele>
        <time>2020-06-26T13:01:38.000Z</time>
      </trkpt>
      <trkpt lat="45.6762" lon="6.88099">
        <ele>2105.3999023438</ele>
        <time>2020-06-26T13:01:41.000Z</time>
      </trkpt>
      <trkpt lat="45.676" lon="6.88077">
        <ele>2104.3999023438</ele>
        <time>2020-06-26T13:01:44.000Z</time>
      </trkpt>
      <trkpt lat="45.67594" lon="6.88071">
        <ele>2104.1999511719</ele>
        <time>2020-06-26T13:01:45.000Z</time>
      </trkpt>
      <trkpt lat="45.67568" lon="6.88041">
        <ele>2103.1999511719</ele>
        <time>2020-06-26T13:01:50.000Z</time>
      </trkpt>
      <trkpt lat="45.67553" lon="6.88024">
        <ele>2103</ele>
        <time>2020-06-26T13:01:53.000Z</time>
      </trkpt>
      <trkpt lat="45.67519" lon="6.87985">
        <ele>2102.6000976562</ele>
        <time>2020-06-26T13:02:00.000Z</time>
      </trkpt>
      <trkpt lat="45.67491" lon="6.87952">
        <ele>2102.8000488281</ele>
        <time>2020-06-26T13:02:06.000Z</time>
      </trkpt>
      <trkpt lat="45.67477" lon="6.87936">
        <ele>2102.8000488281</ele>
        <time>2020-06-26T13:02:09.000Z</time>
      </trkpt>
      <trkpt lat="45.67433" lon="6.87888">
        <ele>2102.6000976562</ele>
        <time>2020-06-26T13:02:18.000Z</time>
      </trkpt>
      <trkpt lat="45.6739" lon="6.87841">
        <ele>2101.8000488281</ele>
        <time>2020-06-26T13:02:27.000Z</time>
      </trkpt>
      <trkpt lat="45.67385" lon="6.87835">
        <ele>2101.3999023438</ele>
        <time>2020-06-26T13:02:28.000Z</time>
      </trkpt>
      <trkpt lat="45.67364" lon="6.87812">
        <ele>2100.8000488281</ele>
        <time>2020-06-26T13:02:32.000Z</time>
      </trkpt>
      <trkpt lat="45.67347" lon="6.87794">
        <ele>2100</ele>
        <time>2020-06-26T13:02:35.000Z</time>
      </trkpt>
      <trkpt lat="45.67342" lon="6.87787">
        <ele>2099.6000976562</ele>
        <time>2020-06-26T13:02:36.000Z</time>
      </trkpt>
      <trkpt lat="45.67313" lon="6.87754">
        <ele>2098.6000976562</ele>
        <time>2020-06-26T13:02:41.000Z</time>
      </trkpt>
      <trkpt lat="45.67295" lon="6.87735">
        <ele>2098</ele>
        <time>2020-06-26T13:02:44.000Z</time>
      </trkpt>
      <trkpt lat="45.67283" lon="6.87721">
        <ele>2097.3999023438</ele>
        <time>2020-06-26T13:02:46.000Z</time>
      </trkpt>
      <trkpt lat="45.67252" lon="6.87688">
        <ele>2096.6000976562</ele>
        <time>2020-06-26T13:02:51.000Z</time>
      </trkpt>
      <trkpt lat="45.67246" lon="6.87681">
        <ele>2096</ele>
        <time>2020-06-26T13:02:52.000Z</time>
      </trkpt>
      <trkpt lat="45.67233" lon="6.87667">
        <ele>2095</ele>
        <time>2020-06-26T13:02:54.000Z</time>
      </trkpt>
      <trkpt lat="45.67208" lon="6.87639">
        <ele>2093.6000976562</ele>
        <time>2020-06-26T13:02:58.000Z</time>
      </trkpt>
      <trkpt lat="45.67189" lon="6.87616">
        <ele>2092.8000488281</ele>
        <time>2020-06-26T13:03:01.000Z</time>
      </trkpt>
      <trkpt lat="45.67183" lon="6.87609">
        <ele>2092.6000976562</ele>
        <time>2020-06-26T13:03:02.000Z</time>
      </trkpt>
      <trkpt lat="45.67149" lon="6.87573">
        <ele>2091.6000976562</ele>
        <time>2020-06-26T13:03:07.000Z</time>
      </trkpt>
      <trkpt lat="45.67142" lon="6.87566">
        <ele>2091.3999023438</ele>
        <time>2020-06-26T13:03:08.000Z</time>
      </trkpt>
      <trkpt lat="45.67136" lon="6.87558">
        <ele>2091.1999511719</ele>
        <time>2020-06-26T13:03:09.000Z</time>
      </trkpt>
      <trkpt lat="45.67124" lon="6.87545">
        <ele>2090.3999023438</ele>
        <time>2020-06-26T13:03:11.000Z</time>
      </trkpt>
      <trkpt lat="45.67112" lon="6.8753">
        <ele>2090</ele>
        <time>2020-06-26T13:03:13.000Z</time>
      </trkpt>
      <trkpt lat="45.67099" lon="6.87516">
        <ele>2089.3999023438</ele>
        <time>2020-06-26T13:03:15.000Z</time>
      </trkpt>
      <trkpt lat="45.67072" lon="6.87485">
        <ele>2087.3999023438</ele>
        <time>2020-06-26T13:03:19.000Z</time>
      </trkpt>
      <trkpt lat="45.67065" lon="6.87477">
        <ele>2086.6000976562</ele>
        <time>2020-06-26T13:03:20.000Z</time>
      </trkpt>
      <trkpt lat="45.67057" lon="6.87468">
        <ele>2086.1999511719</ele>
        <time>2020-06-26T13:03:21.000Z</time>
      </trkpt>
      <trkpt lat="45.67042" lon="6.87451">
        <ele>2084.6000976562</ele>
        <time>2020-06-26T13:03:23.000Z</time>
      </trkpt>
      <trkpt lat="45.67011" lon="6.87416">
        <ele>2083.3999023438</ele>
        <time>2020-06-26T13:03:27.000Z</time>
      </trkpt>
      <trkpt lat="45.66996" lon="6.87398">
        <ele>2082.1999511719</ele>
        <time>2020-06-26T13:03:29.000Z</time>
      </trkpt>
      <trkpt lat="45.6698" lon="6.8738">
        <ele>2080</ele>
        <time>2020-06-26T13:03:31.000Z</time>
      </trkpt>
      <trkpt lat="45.66965" lon="6.87363">
        <ele>2078.8000488281</ele>
        <time>2020-06-26T13:03:33.000Z</time>
      </trkpt>
      <trkpt lat="45.66958" lon="6.87356">
        <ele>2078.3999023438</ele>
        <time>2020-06-26T13:03:34.000Z</time>
      </trkpt>
      <trkpt lat="45.66947" lon="6.87342">
        <ele>2076.3999023438</ele>
        <time>2020-06-26T13:03:36.000Z</time>
      </trkpt>
      <trkpt lat="45.66944" lon="6.87334">
        <ele>2075.3999023438</ele>
        <time>2020-06-26T13:03:37.000Z</time>
      </trkpt>
      <trkpt lat="45.66945" lon="6.87318">
        <ele>2074.6000976562</ele>
        <time>2020-06-26T13:03:39.000Z</time>
      </trkpt>
      <trkpt lat="45.6695" lon="6.87315">
        <ele>2074.3999023438</ele>
        <time>2020-06-26T13:03:40.000Z</time>
      </trkpt>
      <trkpt lat="45.66957" lon="6.87314">
        <ele>2074</ele>
        <time>2020-06-26T13:03:41.000Z</time>
      </trkpt>
      <trkpt lat="45.6697" lon="6.8732">
        <ele>2073.3999023438</ele>
        <time>2020-06-26T13:03:43.000Z</time>
      </trkpt>
      <trkpt lat="45.66977" lon="6.87324">
        <ele>2073.1999511719</ele>
        <time>2020-06-26T13:03:44.000Z</time>
      </trkpt>
      <trkpt lat="45.66984" lon="6.87329">
        <ele>2073.1999511719</ele>
        <time>2020-06-26T13:03:45.000Z</time>
      </trkpt>
      <trkpt lat="45.67021" lon="6.87363">
        <ele>2072.6000976562</ele>
        <time>2020-06-26T13:03:50.000Z</time>
      </trkpt>
      <trkpt lat="45.67038" lon="6.87374">
        <ele>2072.3999023438</ele>
        <time>2020-06-26T13:03:52.000Z</time>
      </trkpt>
      <trkpt lat="45.67053" lon="6.87376">
        <ele>2072.3999023438</ele>
        <time>2020-06-26T13:03:54.000Z</time>
      </trkpt>
      <trkpt lat="45.67065" lon="6.87365">
        <ele>2071.6000976562</ele>
        <time>2020-06-26T13:03:56.000Z</time>
      </trkpt>
      <trkpt lat="45.67065" lon="6.87346">
        <ele>2069.8000488281</ele>
        <time>2020-06-26T13:03:58.000Z</time>
      </trkpt>
      <trkpt lat="45.67055" lon="6.8733">
        <ele>2068.3999023438</ele>
        <time>2020-06-26T13:04:00.000Z</time>
      </trkpt>
      <trkpt lat="45.67048" lon="6.87324">
        <ele>2068.1999511719</ele>
        <time>2020-06-26T13:04:01.000Z</time>
      </trkpt>
      <trkpt lat="45.67041" lon="6.87317">
        <ele>2068</ele>
        <time>2020-06-26T13:04:02.000Z</time>
      </trkpt>
      <trkpt lat="45.67011" lon="6.87292">
        <ele>2067</ele>
        <time>2020-06-26T13:04:06.000Z</time>
      </trkpt>
      <trkpt lat="45.67002" lon="6.87287">
        <ele>2065.6000976562</ele>
        <time>2020-06-26T13:04:07.000Z</time>
      </trkpt>
      <trkpt lat="45.66994" lon="6.87283">
        <ele>2064.1999511719</ele>
        <time>2020-06-26T13:04:08.000Z</time>
      </trkpt>
      <trkpt lat="45.66985" lon="6.87279">
        <ele>2063</ele>
        <time>2020-06-26T13:04:09.000Z</time>
      </trkpt>
      <trkpt lat="45.66976" lon="6.87275">
        <ele>2062</ele>
        <time>2020-06-26T13:04:10.000Z</time>
      </trkpt>
      <trkpt lat="45.66968" lon="6.87271">
        <ele>2061.3999023438</ele>
        <time>2020-06-26T13:04:11.000Z</time>
      </trkpt>
      <trkpt lat="45.6696" lon="6.87265">
        <ele>2061</ele>
        <time>2020-06-26T13:04:12.000Z</time>
      </trkpt>
      <trkpt lat="45.66953" lon="6.87259">
        <ele>2060.1999511719</ele>
        <time>2020-06-26T13:04:13.000Z</time>
      </trkpt>
      <trkpt lat="45.6694" lon="6.87248">
        <ele>2058.6000976562</ele>
        <time>2020-06-26T13:04:15.000Z</time>
      </trkpt>
      <trkpt lat="45.66932" lon="6.87246">
        <ele>2058.1999511719</ele>
        <time>2020-06-26T13:04:16.000Z</time>
      </trkpt>
      <trkpt lat="45.66916" lon="6.87251">
        <ele>2057.3999023438</ele>
        <time>2020-06-26T13:04:18.000Z</time>
      </trkpt>
      <trkpt lat="45.66908" lon="6.87256">
        <ele>2057.1999511719</ele>
        <time>2020-06-26T13:04:19.000Z</time>
      </trkpt>
      <trkpt lat="45.66899" lon="6.87261">
        <ele>2056.6000976562</ele>
        <time>2020-06-26T13:04:20.000Z</time>
      </trkpt>
      <trkpt lat="45.66891" lon="6.87266">
        <ele>2056.1999511719</ele>
        <time>2020-06-26T13:04:21.000Z</time>
      </trkpt>
      <trkpt lat="45.66873" lon="6.87268">
        <ele>2054.8000488281</ele>
        <time>2020-06-26T13:04:23.000Z</time>
      </trkpt>
      <trkpt lat="45.66865" lon="6.87264">
        <ele>2053.3999023438</ele>
        <time>2020-06-26T13:04:24.000Z</time>
      </trkpt>
      <trkpt lat="45.66858" lon="6.87258">
        <ele>2053.3999023438</ele>
        <time>2020-06-26T13:04:25.000Z</time>
      </trkpt>
      <trkpt lat="45.66848" lon="6.87241">
        <ele>2052.3999023438</ele>
        <time>2020-06-26T13:04:27.000Z</time>
      </trkpt>
      <trkpt lat="45.66834" lon="6.87229">
        <ele>2052</ele>
        <time>2020-06-26T13:04:29.000Z</time>
      </trkpt>
      <trkpt lat="45.66817" lon="6.87225">
        <ele>2051</ele>
        <time>2020-06-26T13:04:31.000Z</time>
      </trkpt>
      <trkpt lat="45.66808" lon="6.87227">
        <ele>2050.6000976562</ele>
        <time>2020-06-26T13:04:32.000Z</time>
      </trkpt>
      <trkpt lat="45.6679" lon="6.87232">
        <ele>2049</ele>
        <time>2020-06-26T13:04:34.000Z</time>
      </trkpt>
      <trkpt lat="45.66771" lon="6.87232">
        <ele>2048</ele>
        <time>2020-06-26T13:04:36.000Z</time>
      </trkpt>
      <trkpt lat="45.66762" lon="6.87231">
        <ele>2047.8000488281</ele>
        <time>2020-06-26T13:04:37.000Z</time>
      </trkpt>
      <trkpt lat="45.66753" lon="6.87229">
        <ele>2047.1999511719</ele>
        <time>2020-06-26T13:04:38.000Z</time>
      </trkpt>
      <trkpt lat="45.66744" lon="6.87226">
        <ele>2046.5999755859</ele>
        <time>2020-06-26T13:04:39.000Z</time>
      </trkpt>
      <trkpt lat="45.66735" lon="6.87221">
        <ele>2045.8000488281</ele>
        <time>2020-06-26T13:04:40.000Z</time>
      </trkpt>
      <trkpt lat="45.66727" lon="6.87216">
        <ele>2045.4000244141</ele>
        <time>2020-06-26T13:04:41.000Z</time>
      </trkpt>
      <trkpt lat="45.667" lon="6.87203">
        <ele>2044</ele>
        <time>2020-06-26T13:04:44.000Z</time>
      </trkpt>
      <trkpt lat="45.66691" lon="6.872">
        <ele>2042</ele>
        <time>2020-06-26T13:04:45.000Z</time>
      </trkpt>
      <trkpt lat="45.66682" lon="6.87197">
        <ele>2039.8000488281</ele>
        <time>2020-06-26T13:04:46.000Z</time>
      </trkpt>
      <trkpt lat="45.66673" lon="6.87195">
        <ele>2038.4000244141</ele>
        <time>2020-06-26T13:04:47.000Z</time>
      </trkpt>
      <trkpt lat="45.66654" lon="6.87191">
        <ele>2037</ele>
        <time>2020-06-26T13:04:49.000Z</time>
      </trkpt>
      <trkpt lat="45.66635" lon="6.87185">
        <ele>2035</ele>
        <time>2020-06-26T13:04:51.000Z</time>
      </trkpt>
      <trkpt lat="45.66617" lon="6.87172">
        <ele>2033.4000244141</ele>
        <time>2020-06-26T13:04:53.000Z</time>
      </trkpt>
      <trkpt lat="45.66598" lon="6.87158">
        <ele>2031.8000488281</ele>
        <time>2020-06-26T13:04:55.000Z</time>
      </trkpt>
      <trkpt lat="45.66588" lon="6.87152">
        <ele>2031.1999511719</ele>
        <time>2020-06-26T13:04:56.000Z</time>
      </trkpt>
      <trkpt lat="45.66578" lon="6.87147">
        <ele>2030.5999755859</ele>
        <time>2020-06-26T13:04:57.000Z</time>
      </trkpt>
      <trkpt lat="45.66557" lon="6.8714">
        <ele>2029.8000488281</ele>
        <time>2020-06-26T13:04:59.000Z</time>
      </trkpt>
      <trkpt lat="45.66546" lon="6.87138">
        <ele>2029.5999755859</ele>
        <time>2020-06-26T13:05:00.000Z</time>
      </trkpt>
      <trkpt lat="45.66523" lon="6.87134">
        <ele>2028.1999511719</ele>
        <time>2020-06-26T13:05:02.000Z</time>
      </trkpt>
      <trkpt lat="45.66501" lon="6.87126">
        <ele>2027.1999511719</ele>
        <time>2020-06-26T13:05:04.000Z</time>
      </trkpt>
      <trkpt lat="45.66491" lon="6.87119">
        <ele>2026.8000488281</ele>
        <time>2020-06-26T13:05:05.000Z</time>
      </trkpt>
      <trkpt lat="45.66472" lon="6.87102">
        <ele>2025.5999755859</ele>
        <time>2020-06-26T13:05:07.000Z</time>
      </trkpt>
      <trkpt lat="45.66453" lon="6.87085">
        <ele>2023.8000488281</ele>
        <time>2020-06-26T13:05:09.000Z</time>
      </trkpt>
      <trkpt lat="45.66432" lon="6.8707">
        <ele>2022.1999511719</ele>
        <time>2020-06-26T13:05:11.000Z</time>
      </trkpt>
      <trkpt lat="45.66421" lon="6.87064">
        <ele>2021.8000488281</ele>
        <time>2020-06-26T13:05:12.000Z</time>
      </trkpt>
      <trkpt lat="45.6641" lon="6.87059">
        <ele>2020.8000488281</ele>
        <time>2020-06-26T13:05:13.000Z</time>
      </trkpt>
      <trkpt lat="45.66389" lon="6.8705">
        <ele>2019.5999755859</ele>
        <time>2020-06-26T13:05:15.000Z</time>
      </trkpt>
      <trkpt lat="45.66368" lon="6.87046">
        <ele>2018.5999755859</ele>
        <time>2020-06-26T13:05:17.000Z</time>
      </trkpt>
      <trkpt lat="45.66357" lon="6.87044">
        <ele>2017.4000244141</ele>
        <time>2020-06-26T13:05:18.000Z</time>
      </trkpt>
      <trkpt lat="45.66346" lon="6.87041">
        <ele>2016.4000244141</ele>
        <time>2020-06-26T13:05:19.000Z</time>
      </trkpt>
      <trkpt lat="45.66335" lon="6.87038">
        <ele>2014.5999755859</ele>
        <time>2020-06-26T13:05:20.000Z</time>
      </trkpt>
      <trkpt lat="45.66324" lon="6.87038">
        <ele>2012.5999755859</ele>
        <time>2020-06-26T13:05:21.000Z</time>
      </trkpt>
      <trkpt lat="45.66313" lon="6.8704">
        <ele>2011.4000244141</ele>
        <time>2020-06-26T13:05:22.000Z</time>
      </trkpt>
      <trkpt lat="45.66303" lon="6.87043">
        <ele>2010.1999511719</ele>
        <time>2020-06-26T13:05:23.000Z</time>
      </trkpt>
      <trkpt lat="45.66292" lon="6.87047">
        <ele>2009.8000488281</ele>
        <time>2020-06-26T13:05:24.000Z</time>
      </trkpt>
      <trkpt lat="45.66272" lon="6.87057">
        <ele>2009.1999511719</ele>
        <time>2020-06-26T13:05:26.000Z</time>
      </trkpt>
      <trkpt lat="45.66256" lon="6.87066">
        <ele>2009</ele>
        <time>2020-06-26T13:05:28.000Z</time>
      </trkpt>
      <trkpt lat="45.66241" lon="6.87071">
        <ele>2009</ele>
        <time>2020-06-26T13:05:30.000Z</time>
      </trkpt>
      <trkpt lat="45.66234" lon="6.87069">
        <ele>2009.1999511719</ele>
        <time>2020-06-26T13:05:31.000Z</time>
      </trkpt>
      <trkpt lat="45.66226" lon="6.87054">
        <ele>2009.1999511719</ele>
        <time>2020-06-26T13:05:33.000Z</time>
      </trkpt>
      <trkpt lat="45.66229" lon="6.87034">
        <ele>2009</ele>
        <time>2020-06-26T13:05:35.000Z</time>
      </trkpt>
      <trkpt lat="45.66232" lon="6.87024">
        <ele>2009</ele>
        <time>2020-06-26T13:05:36.000Z</time>
      </trkpt>
      <trkpt lat="45.66237" lon="6.87003">
        <ele>2009</ele>
        <time>2020-06-26T13:05:38.000Z</time>
      </trkpt>
      <trkpt lat="45.6624" lon="6.86979">
        <ele>2009</ele>
        <time>2020-06-26T13:05:40.000Z</time>
      </trkpt>
      <trkpt lat="45.66235" lon="6.86941">
        <ele>2009</ele>
        <time>2020-06-26T13:05:43.000Z</time>
      </trkpt>
      <trkpt lat="45.66224" lon="6.86919">
        <ele>2008.1999511719</ele>
        <time>2020-06-26T13:05:45.000Z</time>
      </trkpt>
      <trkpt lat="45.66217" lon="6.86912">
        <ele>2007.4000244141</ele>
        <time>2020-06-26T13:05:46.000Z</time>
      </trkpt>
      <trkpt lat="45.66208" lon="6.86906">
        <ele>2006.5999755859</ele>
        <time>2020-06-26T13:05:47.000Z</time>
      </trkpt>
      <trkpt lat="45.66199" lon="6.869">
        <ele>2006</ele>
        <time>2020-06-26T13:05:48.000Z</time>
      </trkpt>
      <trkpt lat="45.66191" lon="6.86893">
        <ele>2005.4000244141</ele>
        <time>2020-06-26T13:05:49.000Z</time>
      </trkpt>
      <trkpt lat="45.66183" lon="6.86884">
        <ele>2005</ele>
        <time>2020-06-26T13:05:50.000Z</time>
      </trkpt>
      <trkpt lat="45.66176" lon="6.86874">
        <ele>2004</ele>
        <time>2020-06-26T13:05:51.000Z</time>
      </trkpt>
      <trkpt lat="45.66167" lon="6.8685">
        <ele>2002.4000244141</ele>
        <time>2020-06-26T13:05:53.000Z</time>
      </trkpt>
      <trkpt lat="45.66162" lon="6.86838">
        <ele>2001.4000244141</ele>
        <time>2020-06-26T13:05:54.000Z</time>
      </trkpt>
      <trkpt lat="45.66151" lon="6.86815">
        <ele>2000</ele>
        <time>2020-06-26T13:05:56.000Z</time>
      </trkpt>
      <trkpt lat="45.66145" lon="6.86805">
        <ele>1999.4000244141</ele>
        <time>2020-06-26T13:05:57.000Z</time>
      </trkpt>
      <trkpt lat="45.66138" lon="6.86795">
        <ele>1998.5999755859</ele>
        <time>2020-06-26T13:05:58.000Z</time>
      </trkpt>
      <trkpt lat="45.66109" lon="6.86754">
        <ele>1997.4000244141</ele>
        <time>2020-06-26T13:06:02.000Z</time>
      </trkpt>
      <trkpt lat="45.66101" lon="6.86745">
        <ele>1997.4000244141</ele>
        <time>2020-06-26T13:06:03.000Z</time>
      </trkpt>
      <trkpt lat="45.66085" lon="6.86727">
        <ele>1996.4000244141</ele>
        <time>2020-06-26T13:06:05.000Z</time>
      </trkpt>
      <trkpt lat="45.6606" lon="6.86699">
        <ele>1995.1999511719</ele>
        <time>2020-06-26T13:06:08.000Z</time>
      </trkpt>
      <trkpt lat="45.66045" lon="6.86679">
        <ele>1993.8000488281</ele>
        <time>2020-06-26T13:06:10.000Z</time>
      </trkpt>
      <trkpt lat="45.66037" lon="6.86668">
        <ele>1992.4000244141</ele>
        <time>2020-06-26T13:06:11.000Z</time>
      </trkpt>
      <trkpt lat="45.66023" lon="6.86645">
        <ele>1991</ele>
        <time>2020-06-26T13:06:13.000Z</time>
      </trkpt>
      <trkpt lat="45.66009" lon="6.86624">
        <ele>1990</ele>
        <time>2020-06-26T13:06:15.000Z</time>
      </trkpt>
      <trkpt lat="45.66001" lon="6.86615">
        <ele>1989.1999511719</ele>
        <time>2020-06-26T13:06:16.000Z</time>
      </trkpt>
      <trkpt lat="45.65993" lon="6.86606">
        <ele>1988.8000488281</ele>
        <time>2020-06-26T13:06:17.000Z</time>
      </trkpt>
      <trkpt lat="45.65977" lon="6.86589">
        <ele>1987.4000244141</ele>
        <time>2020-06-26T13:06:19.000Z</time>
      </trkpt>
      <trkpt lat="45.65969" lon="6.86579">
        <ele>1986.8000488281</ele>
        <time>2020-06-26T13:06:20.000Z</time>
      </trkpt>
      <trkpt lat="45.65962" lon="6.86567">
        <ele>1986</ele>
        <time>2020-06-26T13:06:21.000Z</time>
      </trkpt>
      <trkpt lat="45.65951" lon="6.86542">
        <ele>1985.1999511719</ele>
        <time>2020-06-26T13:06:23.000Z</time>
      </trkpt>
      <trkpt lat="45.65946" lon="6.86529">
        <ele>1984.4000244141</ele>
        <time>2020-06-26T13:06:24.000Z</time>
      </trkpt>
      <trkpt lat="45.65935" lon="6.86503">
        <ele>1983.4000244141</ele>
        <time>2020-06-26T13:06:26.000Z</time>
      </trkpt>
      <trkpt lat="45.6593" lon="6.8649">
        <ele>1982.1999511719</ele>
        <time>2020-06-26T13:06:27.000Z</time>
      </trkpt>
      <trkpt lat="45.6592" lon="6.86466">
        <ele>1981</ele>
        <time>2020-06-26T13:06:29.000Z</time>
      </trkpt>
      <trkpt lat="45.65915" lon="6.86454">
        <ele>1980.8000488281</ele>
        <time>2020-06-26T13:06:30.000Z</time>
      </trkpt>
      <trkpt lat="45.6591" lon="6.86443">
        <ele>1980.5999755859</ele>
        <time>2020-06-26T13:06:31.000Z</time>
      </trkpt>
      <trkpt lat="45.65895" lon="6.86425">
        <ele>1980.1999511719</ele>
        <time>2020-06-26T13:06:33.000Z</time>
      </trkpt>
      <trkpt lat="45.65886" lon="6.86418">
        <ele>1979.8000488281</ele>
        <time>2020-06-26T13:06:34.000Z</time>
      </trkpt>
      <trkpt lat="45.65868" lon="6.86407">
        <ele>1978.8000488281</ele>
        <time>2020-06-26T13:06:36.000Z</time>
      </trkpt>
      <trkpt lat="45.65858" lon="6.86403">
        <ele>1978.4000244141</ele>
        <time>2020-06-26T13:06:37.000Z</time>
      </trkpt>
      <trkpt lat="45.6584" lon="6.86394">
        <ele>1976.5999755859</ele>
        <time>2020-06-26T13:06:39.000Z</time>
      </trkpt>
      <trkpt lat="45.65831" lon="6.86389">
        <ele>1975.8000488281</ele>
        <time>2020-06-26T13:06:40.000Z</time>
      </trkpt>
      <trkpt lat="45.65823" lon="6.86383">
        <ele>1975.1999511719</ele>
        <time>2020-06-26T13:06:41.000Z</time>
      </trkpt>
      <trkpt lat="45.65816" lon="6.86375">
        <ele>1974.1999511719</ele>
        <time>2020-06-26T13:06:42.000Z</time>
      </trkpt>
      <trkpt lat="45.65808" lon="6.86368">
        <ele>1973</ele>
        <time>2020-06-26T13:06:43.000Z</time>
      </trkpt>
      <trkpt lat="45.65786" lon="6.86348">
        <ele>1971.5999755859</ele>
        <time>2020-06-26T13:06:46.000Z</time>
      </trkpt>
      <trkpt lat="45.65778" lon="6.86342">
        <ele>1971</ele>
        <time>2020-06-26T13:06:47.000Z</time>
      </trkpt>
      <trkpt lat="45.6577" lon="6.86338">
        <ele>1970.5999755859</ele>
        <time>2020-06-26T13:06:48.000Z</time>
      </trkpt>
      <trkpt lat="45.65745" lon="6.86325">
        <ele>1969.4000244141</ele>
        <time>2020-06-26T13:06:51.000Z</time>
      </trkpt>
      <trkpt lat="45.65737" lon="6.86319">
        <ele>1969.4000244141</ele>
        <time>2020-06-26T13:06:52.000Z</time>
      </trkpt>
      <trkpt lat="45.65701" lon="6.86282">
        <ele>1968.1999511719</ele>
        <time>2020-06-26T13:06:57.000Z</time>
      </trkpt>
      <trkpt lat="45.65682" lon="6.86255">
        <ele>1967.4000244141</ele>
        <time>2020-06-26T13:07:00.000Z</time>
      </trkpt>
      <trkpt lat="45.65677" lon="6.86244">
        <ele>1967.1999511719</ele>
        <time>2020-06-26T13:07:01.000Z</time>
      </trkpt>
      <trkpt lat="45.65666" lon="6.86208">
        <ele>1966.4000244141</ele>
        <time>2020-06-26T13:07:04.000Z</time>
      </trkpt>
      <trkpt lat="45.65662" lon="6.86197">
        <ele>1966</ele>
        <time>2020-06-26T13:07:05.000Z</time>
      </trkpt>
      <trkpt lat="45.65646" lon="6.86168">
        <ele>1965.4000244141</ele>
        <time>2020-06-26T13:07:08.000Z</time>
      </trkpt>
      <trkpt lat="45.65633" lon="6.86152">
        <ele>1964.4000244141</ele>
        <time>2020-06-26T13:07:10.000Z</time>
      </trkpt>
      <trkpt lat="45.6562" lon="6.86137">
        <ele>1962.8000488281</ele>
        <time>2020-06-26T13:07:12.000Z</time>
      </trkpt>
      <trkpt lat="45.65613" lon="6.86131">
        <ele>1962.1999511719</ele>
        <time>2020-06-26T13:07:13.000Z</time>
      </trkpt>
      <trkpt lat="45.65605" lon="6.86127">
        <ele>1961.5999755859</ele>
        <time>2020-06-26T13:07:14.000Z</time>
      </trkpt>
      <trkpt lat="45.65588" lon="6.86122">
        <ele>1960.1999511719</ele>
        <time>2020-06-26T13:07:16.000Z</time>
      </trkpt>
      <trkpt lat="45.65571" lon="6.86117">
        <ele>1958.8000488281</ele>
        <time>2020-06-26T13:07:18.000Z</time>
      </trkpt>
      <trkpt lat="45.65562" lon="6.86113">
        <ele>1958.5999755859</ele>
        <time>2020-06-26T13:07:19.000Z</time>
      </trkpt>
      <trkpt lat="45.65546" lon="6.86101">
        <ele>1957.8000488281</ele>
        <time>2020-06-26T13:07:21.000Z</time>
      </trkpt>
      <trkpt lat="45.65539" lon="6.86093">
        <ele>1957.1999511719</ele>
        <time>2020-06-26T13:07:22.000Z</time>
      </trkpt>
      <trkpt lat="45.65526" lon="6.86073">
        <ele>1956.8000488281</ele>
        <time>2020-06-26T13:07:24.000Z</time>
      </trkpt>
      <trkpt lat="45.65515" lon="6.8605">
        <ele>1956.4000244141</ele>
        <time>2020-06-26T13:07:26.000Z</time>
      </trkpt>
      <trkpt lat="45.655" lon="6.86013">
        <ele>1956</ele>
        <time>2020-06-26T13:07:29.000Z</time>
      </trkpt>
      <trkpt lat="45.65488" lon="6.8599">
        <ele>1955.4000244141</ele>
        <time>2020-06-26T13:07:31.000Z</time>
      </trkpt>
      <trkpt lat="45.6548" lon="6.8598">
        <ele>1955</ele>
        <time>2020-06-26T13:07:32.000Z</time>
      </trkpt>
      <trkpt lat="45.65452" lon="6.85962">
        <ele>1953.1999511719</ele>
        <time>2020-06-26T13:07:35.000Z</time>
      </trkpt>
      <trkpt lat="45.65442" lon="6.8596">
        <ele>1952.4000244141</ele>
        <time>2020-06-26T13:07:36.000Z</time>
      </trkpt>
      <trkpt lat="45.65432" lon="6.85957">
        <ele>1951.8000488281</ele>
        <time>2020-06-26T13:07:37.000Z</time>
      </trkpt>
      <trkpt lat="45.65422" lon="6.85953">
        <ele>1951.5999755859</ele>
        <time>2020-06-26T13:07:38.000Z</time>
      </trkpt>
      <trkpt lat="45.65413" lon="6.85947">
        <ele>1951.4000244141</ele>
        <time>2020-06-26T13:07:39.000Z</time>
      </trkpt>
      <trkpt lat="45.65405" lon="6.85939">
        <ele>1950.5999755859</ele>
        <time>2020-06-26T13:07:40.000Z</time>
      </trkpt>
      <trkpt lat="45.65389" lon="6.8592">
        <ele>1949</ele>
        <time>2020-06-26T13:07:42.000Z</time>
      </trkpt>
      <trkpt lat="45.65374" lon="6.85898">
        <ele>1947.1999511719</ele>
        <time>2020-06-26T13:07:44.000Z</time>
      </trkpt>
      <trkpt lat="45.65351" lon="6.85864">
        <ele>1945.5999755859</ele>
        <time>2020-06-26T13:07:47.000Z</time>
      </trkpt>
      <trkpt lat="45.65334" lon="6.85844">
        <ele>1944.5999755859</ele>
        <time>2020-06-26T13:07:49.000Z</time>
      </trkpt>
      <trkpt lat="45.65325" lon="6.85835">
        <ele>1944.4000244141</ele>
        <time>2020-06-26T13:07:50.000Z</time>
      </trkpt>
      <trkpt lat="45.65316" lon="6.85827">
        <ele>1944</ele>
        <time>2020-06-26T13:07:51.000Z</time>
      </trkpt>
      <trkpt lat="45.65306" lon="6.8582">
        <ele>1943</ele>
        <time>2020-06-26T13:07:52.000Z</time>
      </trkpt>
      <trkpt lat="45.65296" lon="6.85814">
        <ele>1941.8000488281</ele>
        <time>2020-06-26T13:07:53.000Z</time>
      </trkpt>
      <trkpt lat="45.65277" lon="6.85805">
        <ele>1940.1999511719</ele>
        <time>2020-06-26T13:07:55.000Z</time>
      </trkpt>
      <trkpt lat="45.65257" lon="6.85796">
        <ele>1938.8000488281</ele>
        <time>2020-06-26T13:07:57.000Z</time>
      </trkpt>
      <trkpt lat="45.65248" lon="6.85791">
        <ele>1938.4000244141</ele>
        <time>2020-06-26T13:07:58.000Z</time>
      </trkpt>
      <trkpt lat="45.6523" lon="6.85779">
        <ele>1937.8000488281</ele>
        <time>2020-06-26T13:08:00.000Z</time>
      </trkpt>
      <trkpt lat="45.65221" lon="6.85772">
        <ele>1937.8000488281</ele>
        <time>2020-06-26T13:08:01.000Z</time>
      </trkpt>
      <trkpt lat="45.65213" lon="6.85764">
        <ele>1937.4000244141</ele>
        <time>2020-06-26T13:08:02.000Z</time>
      </trkpt>
      <trkpt lat="45.65184" lon="6.85728">
        <ele>1936.5999755859</ele>
        <time>2020-06-26T13:08:06.000Z</time>
      </trkpt>
      <trkpt lat="45.65168" lon="6.85713">
        <ele>1936.1999511719</ele>
        <time>2020-06-26T13:08:08.000Z</time>
      </trkpt>
      <trkpt lat="45.65141" lon="6.85694">
        <ele>1935</ele>
        <time>2020-06-26T13:08:11.000Z</time>
      </trkpt>
      <trkpt lat="45.65123" lon="6.85682">
        <ele>1933.8000488281</ele>
        <time>2020-06-26T13:08:13.000Z</time>
      </trkpt>
      <trkpt lat="45.65114" lon="6.85675">
        <ele>1933.1999511719</ele>
        <time>2020-06-26T13:08:14.000Z</time>
      </trkpt>
      <trkpt lat="45.65104" lon="6.85669">
        <ele>1931.4000244141</ele>
        <time>2020-06-26T13:08:15.000Z</time>
      </trkpt>
      <trkpt lat="45.65095" lon="6.85663">
        <ele>1930.1999511719</ele>
        <time>2020-06-26T13:08:16.000Z</time>
      </trkpt>
      <trkpt lat="45.65077" lon="6.85652">
        <ele>1929.1999511719</ele>
        <time>2020-06-26T13:08:18.000Z</time>
      </trkpt>
      <trkpt lat="45.6506" lon="6.85642">
        <ele>1929</ele>
        <time>2020-06-26T13:08:20.000Z</time>
      </trkpt>
      <trkpt lat="45.6504" lon="6.85618">
        <ele>1929</ele>
        <time>2020-06-26T13:08:23.000Z</time>
      </trkpt>
      <trkpt lat="45.65029" lon="6.85596">
        <ele>1928.8000488281</ele>
        <time>2020-06-26T13:08:25.000Z</time>
      </trkpt>
      <trkpt lat="45.65019" lon="6.85572">
        <ele>1928.8000488281</ele>
        <time>2020-06-26T13:08:27.000Z</time>
      </trkpt>
      <trkpt lat="45.65008" lon="6.8555">
        <ele>1928.8000488281</ele>
        <time>2020-06-26T13:08:29.000Z</time>
      </trkpt>
      <trkpt lat="45.64995" lon="6.85529">
        <ele>1928.5999755859</ele>
        <time>2020-06-26T13:08:31.000Z</time>
      </trkpt>
      <trkpt lat="45.64981" lon="6.85506">
        <ele>1928</ele>
        <time>2020-06-26T13:08:33.000Z</time>
      </trkpt>
      <trkpt lat="45.64975" lon="6.85493">
        <ele>1927.5999755859</ele>
        <time>2020-06-26T13:08:34.000Z</time>
      </trkpt>
      <trkpt lat="45.6497" lon="6.85479">
        <ele>1927.4000244141</ele>
        <time>2020-06-26T13:08:35.000Z</time>
      </trkpt>
      <trkpt lat="45.64963" lon="6.85449">
        <ele>1927</ele>
        <time>2020-06-26T13:08:37.000Z</time>
      </trkpt>
      <trkpt lat="45.6496" lon="6.85435">
        <ele>1926.5999755859</ele>
        <time>2020-06-26T13:08:38.000Z</time>
      </trkpt>
      <trkpt lat="45.64957" lon="6.8542">
        <ele>1926.4000244141</ele>
        <time>2020-06-26T13:08:39.000Z</time>
      </trkpt>
      <trkpt lat="45.64947" lon="6.85392">
        <ele>1925.8000488281</ele>
        <time>2020-06-26T13:08:41.000Z</time>
      </trkpt>
      <trkpt lat="45.64935" lon="6.85366">
        <ele>1923.8000488281</ele>
        <time>2020-06-26T13:08:43.000Z</time>
      </trkpt>
      <trkpt lat="45.6493" lon="6.85353">
        <ele>1922.5999755859</ele>
        <time>2020-06-26T13:08:44.000Z</time>
      </trkpt>
      <trkpt lat="45.64913" lon="6.85315">
        <ele>1921.4000244141</ele>
        <time>2020-06-26T13:08:47.000Z</time>
      </trkpt>
      <trkpt lat="45.64906" lon="6.85302">
        <ele>1920.4000244141</ele>
        <time>2020-06-26T13:08:48.000Z</time>
      </trkpt>
      <trkpt lat="45.64899" lon="6.85291">
        <ele>1919.5999755859</ele>
        <time>2020-06-26T13:08:49.000Z</time>
      </trkpt>
      <trkpt lat="45.6488" lon="6.85275">
        <ele>1917.8000488281</ele>
        <time>2020-06-26T13:08:51.000Z</time>
      </trkpt>
      <trkpt lat="45.64851" lon="6.85259">
        <ele>1916.1999511719</ele>
        <time>2020-06-26T13:08:54.000Z</time>
      </trkpt>
      <trkpt lat="45.64841" lon="6.85254">
        <ele>1915</ele>
        <time>2020-06-26T13:08:55.000Z</time>
      </trkpt>
      <trkpt lat="45.64832" lon="6.85249">
        <ele>1914.4000244141</ele>
        <time>2020-06-26T13:08:56.000Z</time>
      </trkpt>
      <trkpt lat="45.64822" lon="6.85244">
        <ele>1913.4000244141</ele>
        <time>2020-06-26T13:08:57.000Z</time>
      </trkpt>
      <trkpt lat="45.64803" lon="6.85233">
        <ele>1912.4000244141</ele>
        <time>2020-06-26T13:08:59.000Z</time>
      </trkpt>
      <trkpt lat="45.64776" lon="6.85217">
        <ele>1911.1999511719</ele>
        <time>2020-06-26T13:09:02.000Z</time>
      </trkpt>
      <trkpt lat="45.64758" lon="6.8521">
        <ele>1910.8000488281</ele>
        <time>2020-06-26T13:09:04.000Z</time>
      </trkpt>
      <trkpt lat="45.64729" lon="6.85204">
        <ele>1910.1999511719</ele>
        <time>2020-06-26T13:09:07.000Z</time>
      </trkpt>
      <trkpt lat="45.64719" lon="6.85201">
        <ele>1910</ele>
        <time>2020-06-26T13:09:08.000Z</time>
      </trkpt>
      <trkpt lat="45.6471" lon="6.85196">
        <ele>1909.8000488281</ele>
        <time>2020-06-26T13:09:09.000Z</time>
      </trkpt>
      <trkpt lat="45.64688" lon="6.85168">
        <ele>1909.5999755859</ele>
        <time>2020-06-26T13:09:12.000Z</time>
      </trkpt>
      <trkpt lat="45.64665" lon="6.85136">
        <ele>1909</ele>
        <time>2020-06-26T13:09:15.000Z</time>
      </trkpt>
      <trkpt lat="45.6465" lon="6.85113">
        <ele>1908.4000244141</ele>
        <time>2020-06-26T13:09:17.000Z</time>
      </trkpt>
      <trkpt lat="45.64642" lon="6.85102">
        <ele>1908</ele>
        <time>2020-06-26T13:09:18.000Z</time>
      </trkpt>
      <trkpt lat="45.64618" lon="6.85069">
        <ele>1906.1999511719</ele>
        <time>2020-06-26T13:09:21.000Z</time>
      </trkpt>
      <trkpt lat="45.64609" lon="6.85058">
        <ele>1904.8000488281</ele>
        <time>2020-06-26T13:09:22.000Z</time>
      </trkpt>
      <trkpt lat="45.646" lon="6.85047">
        <ele>1903.4000244141</ele>
        <time>2020-06-26T13:09:23.000Z</time>
      </trkpt>
      <trkpt lat="45.64582" lon="6.85027">
        <ele>1902.1999511719</ele>
        <time>2020-06-26T13:09:25.000Z</time>
      </trkpt>
      <trkpt lat="45.64566" lon="6.85003">
        <ele>1901.5999755859</ele>
        <time>2020-06-26T13:09:27.000Z</time>
      </trkpt>
      <trkpt lat="45.64559" lon="6.8499">
        <ele>1901.4000244141</ele>
        <time>2020-06-26T13:09:28.000Z</time>
      </trkpt>
      <trkpt lat="45.64553" lon="6.84977">
        <ele>1900.4000244141</ele>
        <time>2020-06-26T13:09:29.000Z</time>
      </trkpt>
      <trkpt lat="45.6454" lon="6.84953">
        <ele>1899.1999511719</ele>
        <time>2020-06-26T13:09:31.000Z</time>
      </trkpt>
      <trkpt lat="45.64532" lon="6.84941">
        <ele>1898.5999755859</ele>
        <time>2020-06-26T13:09:32.000Z</time>
      </trkpt>
      <trkpt lat="45.64523" lon="6.84931">
        <ele>1898.1999511719</ele>
        <time>2020-06-26T13:09:33.000Z</time>
      </trkpt>
      <trkpt lat="45.64514" lon="6.84921">
        <ele>1897.8000488281</ele>
        <time>2020-06-26T13:09:34.000Z</time>
      </trkpt>
      <trkpt lat="45.64489" lon="6.84889">
        <ele>1896.8000488281</ele>
        <time>2020-06-26T13:09:37.000Z</time>
      </trkpt>
      <trkpt lat="45.64482" lon="6.84876">
        <ele>1896.5999755859</ele>
        <time>2020-06-26T13:09:38.000Z</time>
      </trkpt>
      <trkpt lat="45.64457" lon="6.84824">
        <ele>1894.8000488281</ele>
        <time>2020-06-26T13:09:42.000Z</time>
      </trkpt>
      <trkpt lat="45.6445" lon="6.84813">
        <ele>1894</ele>
        <time>2020-06-26T13:09:43.000Z</time>
      </trkpt>
      <trkpt lat="45.64442" lon="6.84803">
        <ele>1893.5999755859</ele>
        <time>2020-06-26T13:09:44.000Z</time>
      </trkpt>
      <trkpt lat="45.64425" lon="6.84784">
        <ele>1892.5999755859</ele>
        <time>2020-06-26T13:09:46.000Z</time>
      </trkpt>
      <trkpt lat="45.64416" lon="6.84777">
        <ele>1891.5999755859</ele>
        <time>2020-06-26T13:09:47.000Z</time>
      </trkpt>
      <trkpt lat="45.64406" lon="6.84771">
        <ele>1890.5999755859</ele>
        <time>2020-06-26T13:09:48.000Z</time>
      </trkpt>
      <trkpt lat="45.64396" lon="6.84766">
        <ele>1889.1999511719</ele>
        <time>2020-06-26T13:09:49.000Z</time>
      </trkpt>
      <trkpt lat="45.64385" lon="6.84763">
        <ele>1888.4000244141</ele>
        <time>2020-06-26T13:09:50.000Z</time>
      </trkpt>
      <trkpt lat="45.64375" lon="6.84758">
        <ele>1888</ele>
        <time>2020-06-26T13:09:51.000Z</time>
      </trkpt>
      <trkpt lat="45.64355" lon="6.84743">
        <ele>1887.1999511719</ele>
        <time>2020-06-26T13:09:53.000Z</time>
      </trkpt>
      <trkpt lat="45.64326" lon="6.84714">
        <ele>1886.8000488281</ele>
        <time>2020-06-26T13:09:56.000Z</time>
      </trkpt>
      <trkpt lat="45.64317" lon="6.84703">
        <ele>1886.5999755859</ele>
        <time>2020-06-26T13:09:57.000Z</time>
      </trkpt>
      <trkpt lat="45.64308" lon="6.8469">
        <ele>1886.4000244141</ele>
        <time>2020-06-26T13:09:58.000Z</time>
      </trkpt>
      <trkpt lat="45.64292" lon="6.84664">
        <ele>1885.5999755859</ele>
        <time>2020-06-26T13:10:00.000Z</time>
      </trkpt>
      <trkpt lat="45.64276" lon="6.84637">
        <ele>1884.1999511719</ele>
        <time>2020-06-26T13:10:02.000Z</time>
      </trkpt>
      <trkpt lat="45.64251" lon="6.846">
        <ele>1882.4000244141</ele>
        <time>2020-06-26T13:10:05.000Z</time>
      </trkpt>
      <trkpt lat="45.64243" lon="6.84588">
        <ele>1881.1999511719</ele>
        <time>2020-06-26T13:10:06.000Z</time>
      </trkpt>
      <trkpt lat="45.64227" lon="6.84565">
        <ele>1880</ele>
        <time>2020-06-26T13:10:08.000Z</time>
      </trkpt>
      <trkpt lat="45.64213" lon="6.84543">
        <ele>1878.5999755859</ele>
        <time>2020-06-26T13:10:10.000Z</time>
      </trkpt>
      <trkpt lat="45.64194" lon="6.84497">
        <ele>1878.4000244141</ele>
        <time>2020-06-26T13:10:14.000Z</time>
      </trkpt>
      <trkpt lat="45.64182" lon="6.8445">
        <ele>1877.8000488281</ele>
        <time>2020-06-26T13:10:18.000Z</time>
      </trkpt>
      <trkpt lat="45.64178" lon="6.8444">
        <ele>1877.8000488281</ele>
        <time>2020-06-26T13:10:19.000Z</time>
      </trkpt>
      <trkpt lat="45.64167" lon="6.84427">
        <ele>1877.5999755859</ele>
        <time>2020-06-26T13:10:21.000Z</time>
      </trkpt>
      <trkpt lat="45.64151" lon="6.84427">
        <ele>1877.1999511719</ele>
        <time>2020-06-26T13:10:23.000Z</time>
      </trkpt>
      <trkpt lat="45.64126" lon="6.84444">
        <ele>1876.5999755859</ele>
        <time>2020-06-26T13:10:26.000Z</time>
      </trkpt>
      <trkpt lat="45.64093" lon="6.84478">
        <ele>1875.5999755859</ele>
        <time>2020-06-26T13:10:30.000Z</time>
      </trkpt>
      <trkpt lat="45.64085" lon="6.84487">
        <ele>1875.1999511719</ele>
        <time>2020-06-26T13:10:31.000Z</time>
      </trkpt>
      <trkpt lat="45.64076" lon="6.84496">
        <ele>1874.5999755859</ele>
        <time>2020-06-26T13:10:32.000Z</time>
      </trkpt>
      <trkpt lat="45.64057" lon="6.84513">
        <ele>1873.5999755859</ele>
        <time>2020-06-26T13:10:34.000Z</time>
      </trkpt>
      <trkpt lat="45.64047" lon="6.8452">
        <ele>1873</ele>
        <time>2020-06-26T13:10:35.000Z</time>
      </trkpt>
      <trkpt lat="45.64036" lon="6.84527">
        <ele>1872.4000244141</ele>
        <time>2020-06-26T13:10:36.000Z</time>
      </trkpt>
      <trkpt lat="45.64015" lon="6.84541">
        <ele>1870.8000488281</ele>
        <time>2020-06-26T13:10:38.000Z</time>
      </trkpt>
      <trkpt lat="45.64004" lon="6.84549">
        <ele>1869.1999511719</ele>
        <time>2020-06-26T13:10:39.000Z</time>
      </trkpt>
      <trkpt lat="45.63994" lon="6.84559">
        <ele>1868.8000488281</ele>
        <time>2020-06-26T13:10:40.000Z</time>
      </trkpt>
      <trkpt lat="45.63974" lon="6.84578">
        <ele>1868</ele>
        <time>2020-06-26T13:10:42.000Z</time>
      </trkpt>
      <trkpt lat="45.63964" lon="6.84588">
        <ele>1866.8000488281</ele>
        <time>2020-06-26T13:10:43.000Z</time>
      </trkpt>
      <trkpt lat="45.63954" lon="6.846">
        <ele>1865.5999755859</ele>
        <time>2020-06-26T13:10:44.000Z</time>
      </trkpt>
      <trkpt lat="45.63946" lon="6.84613">
        <ele>1865</ele>
        <time>2020-06-26T13:10:45.000Z</time>
      </trkpt>
      <trkpt lat="45.63927" lon="6.84636">
        <ele>1864.4000244141</ele>
        <time>2020-06-26T13:10:47.000Z</time>
      </trkpt>
      <trkpt lat="45.63916" lon="6.84643">
        <ele>1864</ele>
        <time>2020-06-26T13:10:48.000Z</time>
      </trkpt>
      <trkpt lat="45.63892" lon="6.84653">
        <ele>1862.8000488281</ele>
        <time>2020-06-26T13:10:50.000Z</time>
      </trkpt>
      <trkpt lat="45.6387" lon="6.84662">
        <ele>1861.4000244141</ele>
        <time>2020-06-26T13:10:52.000Z</time>
      </trkpt>
      <trkpt lat="45.63859" lon="6.84665">
        <ele>1860.8000488281</ele>
        <time>2020-06-26T13:10:53.000Z</time>
      </trkpt>
      <trkpt lat="45.63836" lon="6.84667">
        <ele>1859.8000488281</ele>
        <time>2020-06-26T13:10:55.000Z</time>
      </trkpt>
      <trkpt lat="45.63813" lon="6.84669">
        <ele>1858.5999755859</ele>
        <time>2020-06-26T13:10:57.000Z</time>
      </trkpt>
      <trkpt lat="45.63802" lon="6.84673">
        <ele>1858.4000244141</ele>
        <time>2020-06-26T13:10:58.000Z</time>
      </trkpt>
      <trkpt lat="45.63775" lon="6.84697">
        <ele>1857.8000488281</ele>
        <time>2020-06-26T13:11:01.000Z</time>
      </trkpt>
      <trkpt lat="45.63769" lon="6.84709">
        <ele>1857.5999755859</ele>
        <time>2020-06-26T13:11:02.000Z</time>
      </trkpt>
      <trkpt lat="45.63766" lon="6.84723">
        <ele>1857.1999511719</ele>
        <time>2020-06-26T13:11:03.000Z</time>
      </trkpt>
      <trkpt lat="45.63763" lon="6.84752">
        <ele>1856.4000244141</ele>
        <time>2020-06-26T13:11:05.000Z</time>
      </trkpt>
      <trkpt lat="45.63762" lon="6.84767">
        <ele>1855.8000488281</ele>
        <time>2020-06-26T13:11:06.000Z</time>
      </trkpt>
      <trkpt lat="45.63762" lon="6.84782">
        <ele>1855</ele>
        <time>2020-06-26T13:11:07.000Z</time>
      </trkpt>
      <trkpt lat="45.63761" lon="6.84798">
        <ele>1853.4000244141</ele>
        <time>2020-06-26T13:11:08.000Z</time>
      </trkpt>
      <trkpt lat="45.63756" lon="6.84829">
        <ele>1852.8000488281</ele>
        <time>2020-06-26T13:11:10.000Z</time>
      </trkpt>
      <trkpt lat="45.63751" lon="6.84843">
        <ele>1852.1999511719</ele>
        <time>2020-06-26T13:11:11.000Z</time>
      </trkpt>
      <trkpt lat="45.63745" lon="6.84857">
        <ele>1851</ele>
        <time>2020-06-26T13:11:12.000Z</time>
      </trkpt>
      <trkpt lat="45.6373" lon="6.84884">
        <ele>1849.8000488281</ele>
        <time>2020-06-26T13:11:14.000Z</time>
      </trkpt>
      <trkpt lat="45.63723" lon="6.84898">
        <ele>1849.5999755859</ele>
        <time>2020-06-26T13:11:15.000Z</time>
      </trkpt>
      <trkpt lat="45.63709" lon="6.84926">
        <ele>1848.5999755859</ele>
        <time>2020-06-26T13:11:17.000Z</time>
      </trkpt>
      <trkpt lat="45.63691" lon="6.8495">
        <ele>1846.8000488281</ele>
        <time>2020-06-26T13:11:19.000Z</time>
      </trkpt>
      <trkpt lat="45.6366" lon="6.84981">
        <ele>1845.1999511719</ele>
        <time>2020-06-26T13:11:22.000Z</time>
      </trkpt>
      <trkpt lat="45.6364" lon="6.85003">
        <ele>1843.8000488281</ele>
        <time>2020-06-26T13:11:24.000Z</time>
      </trkpt>
      <trkpt lat="45.6362" lon="6.85025">
        <ele>1842.5999755859</ele>
        <time>2020-06-26T13:11:26.000Z</time>
      </trkpt>
      <trkpt lat="45.63611" lon="6.85035">
        <ele>1841.1999511719</ele>
        <time>2020-06-26T13:11:27.000Z</time>
      </trkpt>
      <trkpt lat="45.63593" lon="6.85051">
        <ele>1839.5999755859</ele>
        <time>2020-06-26T13:11:29.000Z</time>
      </trkpt>
      <trkpt lat="45.63574" lon="6.85051">
        <ele>1838</ele>
        <time>2020-06-26T13:11:31.000Z</time>
      </trkpt>
      <trkpt lat="45.63555" lon="6.85041">
        <ele>1837</ele>
        <time>2020-06-26T13:11:33.000Z</time>
      </trkpt>
      <trkpt lat="45.63545" lon="6.85035">
        <ele>1836.8000488281</ele>
        <time>2020-06-26T13:11:34.000Z</time>
      </trkpt>
      <trkpt lat="45.63535" lon="6.85031">
        <ele>1836.5999755859</ele>
        <time>2020-06-26T13:11:35.000Z</time>
      </trkpt>
      <trkpt lat="45.63496" lon="6.85013">
        <ele>1835.8000488281</ele>
        <time>2020-06-26T13:11:39.000Z</time>
      </trkpt>
      <trkpt lat="45.63487" lon="6.85005">
        <ele>1834.8000488281</ele>
        <time>2020-06-26T13:11:40.000Z</time>
      </trkpt>
      <trkpt lat="45.63479" lon="6.84995">
        <ele>1834</ele>
        <time>2020-06-26T13:11:41.000Z</time>
      </trkpt>
      <trkpt lat="45.63467" lon="6.8497">
        <ele>1832.8000488281</ele>
        <time>2020-06-26T13:11:43.000Z</time>
      </trkpt>
      <trkpt lat="45.63462" lon="6.84956">
        <ele>1831.8000488281</ele>
        <time>2020-06-26T13:11:44.000Z</time>
      </trkpt>
      <trkpt lat="45.63455" lon="6.84944">
        <ele>1830.5999755859</ele>
        <time>2020-06-26T13:11:45.000Z</time>
      </trkpt>
      <trkpt lat="45.63447" lon="6.84933">
        <ele>1830</ele>
        <time>2020-06-26T13:11:46.000Z</time>
      </trkpt>
      <trkpt lat="45.63429" lon="6.84919">
        <ele>1829.4000244141</ele>
        <time>2020-06-26T13:11:48.000Z</time>
      </trkpt>
      <trkpt lat="45.63418" lon="6.84915">
        <ele>1829.1999511719</ele>
        <time>2020-06-26T13:11:49.000Z</time>
      </trkpt>
      <trkpt lat="45.63396" lon="6.84911">
        <ele>1828.5999755859</ele>
        <time>2020-06-26T13:11:51.000Z</time>
      </trkpt>
      <trkpt lat="45.63385" lon="6.8491">
        <ele>1828.4000244141</ele>
        <time>2020-06-26T13:11:52.000Z</time>
      </trkpt>
      <trkpt lat="45.63374" lon="6.84909">
        <ele>1827.8000488281</ele>
        <time>2020-06-26T13:11:53.000Z</time>
      </trkpt>
      <trkpt lat="45.6334" lon="6.84907">
        <ele>1827.1999511719</ele>
        <time>2020-06-26T13:11:56.000Z</time>
      </trkpt>
      <trkpt lat="45.63306" lon="6.8491">
        <ele>1826</ele>
        <time>2020-06-26T13:11:59.000Z</time>
      </trkpt>
      <trkpt lat="45.63295" lon="6.84909">
        <ele>1824.8000488281</ele>
        <time>2020-06-26T13:12:00.000Z</time>
      </trkpt>
      <trkpt lat="45.63283" lon="6.84907">
        <ele>1823.8000488281</ele>
        <time>2020-06-26T13:12:01.000Z</time>
      </trkpt>
      <trkpt lat="45.63272" lon="6.84904">
        <ele>1823.1999511719</ele>
        <time>2020-06-26T13:12:02.000Z</time>
      </trkpt>
      <trkpt lat="45.63261" lon="6.84899">
        <ele>1822.8000488281</ele>
        <time>2020-06-26T13:12:03.000Z</time>
      </trkpt>
      <trkpt lat="45.6323" lon="6.84874">
        <ele>1821</ele>
        <time>2020-06-26T13:12:06.000Z</time>
      </trkpt>
      <trkpt lat="45.63212" lon="6.84851">
        <ele>1819.5999755859</ele>
        <time>2020-06-26T13:12:08.000Z</time>
      </trkpt>
      <trkpt lat="45.63203" lon="6.84838">
        <ele>1818.5999755859</ele>
        <time>2020-06-26T13:12:09.000Z</time>
      </trkpt>
      <trkpt lat="45.63195" lon="6.84825">
        <ele>1818</ele>
        <time>2020-06-26T13:12:10.000Z</time>
      </trkpt>
      <trkpt lat="45.63186" lon="6.84813">
        <ele>1817.5999755859</ele>
        <time>2020-06-26T13:12:11.000Z</time>
      </trkpt>
      <trkpt lat="45.63177" lon="6.84802">
        <ele>1817.1999511719</ele>
        <time>2020-06-26T13:12:12.000Z</time>
      </trkpt>
      <trkpt lat="45.63167" lon="6.84793">
        <ele>1816.5999755859</ele>
        <time>2020-06-26T13:12:13.000Z</time>
      </trkpt>
      <trkpt lat="45.63156" lon="6.84785">
        <ele>1816.1999511719</ele>
        <time>2020-06-26T13:12:14.000Z</time>
      </trkpt>
      <trkpt lat="45.63135" lon="6.84769">
        <ele>1814.4000244141</ele>
        <time>2020-06-26T13:12:16.000Z</time>
      </trkpt>
      <trkpt lat="45.63125" lon="6.84759">
        <ele>1813.5999755859</ele>
        <time>2020-06-26T13:12:17.000Z</time>
      </trkpt>
      <trkpt lat="45.63116" lon="6.84748">
        <ele>1813</ele>
        <time>2020-06-26T13:12:18.000Z</time>
      </trkpt>
      <trkpt lat="45.63107" lon="6.84737">
        <ele>1812.1999511719</ele>
        <time>2020-06-26T13:12:19.000Z</time>
      </trkpt>
      <trkpt lat="45.63097" lon="6.84728">
        <ele>1811.8000488281</ele>
        <time>2020-06-26T13:12:20.000Z</time>
      </trkpt>
      <trkpt lat="45.63087" lon="6.84722">
        <ele>1811.4000244141</ele>
        <time>2020-06-26T13:12:21.000Z</time>
      </trkpt>
      <trkpt lat="45.63065" lon="6.84709">
        <ele>1810.8000488281</ele>
        <time>2020-06-26T13:12:23.000Z</time>
      </trkpt>
      <trkpt lat="45.63055" lon="6.84701">
        <ele>1810</ele>
        <time>2020-06-26T13:12:24.000Z</time>
      </trkpt>
      <trkpt lat="45.63047" lon="6.84691">
        <ele>1809.5999755859</ele>
        <time>2020-06-26T13:12:25.000Z</time>
      </trkpt>
      <trkpt lat="45.63032" lon="6.84671">
        <ele>1809</ele>
        <time>2020-06-26T13:12:27.000Z</time>
      </trkpt>
      <trkpt lat="45.63024" lon="6.84663">
        <ele>1809</ele>
        <time>2020-06-26T13:12:28.000Z</time>
      </trkpt>
      <trkpt lat="45.63008" lon="6.8466">
        <ele>1807.4000244141</ele>
        <time>2020-06-26T13:12:30.000Z</time>
      </trkpt>
      <trkpt lat="45.62994" lon="6.84672">
        <ele>1807</ele>
        <time>2020-06-26T13:12:32.000Z</time>
      </trkpt>
      <trkpt lat="45.62988" lon="6.84681">
        <ele>1806.8000488281</ele>
        <time>2020-06-26T13:12:33.000Z</time>
      </trkpt>
      <trkpt lat="45.62967" lon="6.84709">
        <ele>1806.4000244141</ele>
        <time>2020-06-26T13:12:36.000Z</time>
      </trkpt>
      <trkpt lat="45.62952" lon="6.84727">
        <ele>1806.1999511719</ele>
        <time>2020-06-26T13:12:38.000Z</time>
      </trkpt>
      <trkpt lat="45.62929" lon="6.84755">
        <ele>1805</ele>
        <time>2020-06-26T13:12:41.000Z</time>
      </trkpt>
      <trkpt lat="45.62914" lon="6.84774">
        <ele>1803.5999755859</ele>
        <time>2020-06-26T13:12:43.000Z</time>
      </trkpt>
      <trkpt lat="45.62906" lon="6.84783">
        <ele>1802.8000488281</ele>
        <time>2020-06-26T13:12:44.000Z</time>
      </trkpt>
      <trkpt lat="45.62898" lon="6.84793">
        <ele>1802</ele>
        <time>2020-06-26T13:12:45.000Z</time>
      </trkpt>
      <trkpt lat="45.62889" lon="6.84801">
        <ele>1801.4000244141</ele>
        <time>2020-06-26T13:12:46.000Z</time>
      </trkpt>
      <trkpt lat="45.6288" lon="6.84808">
        <ele>1801</ele>
        <time>2020-06-26T13:12:47.000Z</time>
      </trkpt>
      <trkpt lat="45.62871" lon="6.84815">
        <ele>1800.5999755859</ele>
        <time>2020-06-26T13:12:48.000Z</time>
      </trkpt>
      <trkpt lat="45.62851" lon="6.84825">
        <ele>1799.8000488281</ele>
        <time>2020-06-26T13:12:50.000Z</time>
      </trkpt>
      <trkpt lat="45.62821" lon="6.84839">
        <ele>1798.8000488281</ele>
        <time>2020-06-26T13:12:53.000Z</time>
      </trkpt>
      <trkpt lat="45.62792" lon="6.84858">
        <ele>1797.4000244141</ele>
        <time>2020-06-26T13:12:56.000Z</time>
      </trkpt>
      <trkpt lat="45.62774" lon="6.84874">
        <ele>1796.1999511719</ele>
        <time>2020-06-26T13:12:58.000Z</time>
      </trkpt>
      <trkpt lat="45.62754" lon="6.84904">
        <ele>1794.8000488281</ele>
        <time>2020-06-26T13:13:01.000Z</time>
      </trkpt>
      <trkpt lat="45.62739" lon="6.84936">
        <ele>1793.8000488281</ele>
        <time>2020-06-26T13:13:04.000Z</time>
      </trkpt>
      <trkpt lat="45.62732" lon="6.84946">
        <ele>1793.4000244141</ele>
        <time>2020-06-26T13:13:05.000Z</time>
      </trkpt>
      <trkpt lat="45.6271" lon="6.84969">
        <ele>1792.5999755859</ele>
        <time>2020-06-26T13:13:08.000Z</time>
      </trkpt>
      <trkpt lat="45.62703" lon="6.84976">
        <ele>1792.4000244141</ele>
        <time>2020-06-26T13:13:09.000Z</time>
      </trkpt>
      <trkpt lat="45.62677" lon="6.85015">
        <ele>1791.8000488281</ele>
        <time>2020-06-26T13:13:13.000Z</time>
      </trkpt>
      <trkpt lat="45.62669" lon="6.8504">
        <ele>1791.1999511719</ele>
        <time>2020-06-26T13:13:15.000Z</time>
      </trkpt>
      <trkpt lat="45.62665" lon="6.85052">
        <ele>1791</ele>
        <time>2020-06-26T13:13:16.000Z</time>
      </trkpt>
      <trkpt lat="45.62659" lon="6.85063">
        <ele>1790.5999755859</ele>
        <time>2020-06-26T13:13:17.000Z</time>
      </trkpt>
      <trkpt lat="45.62645" lon="6.85082">
        <ele>1789.8000488281</ele>
        <time>2020-06-26T13:13:19.000Z</time>
      </trkpt>
      <trkpt lat="45.62637" lon="6.85091">
        <ele>1789.1999511719</ele>
        <time>2020-06-26T13:13:20.000Z</time>
      </trkpt>
      <trkpt lat="45.6263" lon="6.851">
        <ele>1788.8000488281</ele>
        <time>2020-06-26T13:13:21.000Z</time>
      </trkpt>
      <trkpt lat="45.62622" lon="6.85109">
        <ele>1788.5999755859</ele>
        <time>2020-06-26T13:13:22.000Z</time>
      </trkpt>
      <trkpt lat="45.6261" lon="6.85132">
        <ele>1788.4000244141</ele>
        <time>2020-06-26T13:13:24.000Z</time>
      </trkpt>
      <trkpt lat="45.62596" lon="6.85173">
        <ele>1788.1999511719</ele>
        <time>2020-06-26T13:13:27.000Z</time>
      </trkpt>
      <trkpt lat="45.62592" lon="6.85187">
        <ele>1788</ele>
        <time>2020-06-26T13:13:28.000Z</time>
      </trkpt>
      <trkpt lat="45.62588" lon="6.85202">
        <ele>1787.8000488281</ele>
        <time>2020-06-26T13:13:29.000Z</time>
      </trkpt>
      <trkpt lat="45.62578" lon="6.85247">
        <ele>1787</ele>
        <time>2020-06-26T13:13:32.000Z</time>
      </trkpt>
      <trkpt lat="45.62577" lon="6.85263">
        <ele>1786.5999755859</ele>
        <time>2020-06-26T13:13:33.000Z</time>
      </trkpt>
      <trkpt lat="45.62574" lon="6.85295">
        <ele>1785.1999511719</ele>
        <time>2020-06-26T13:13:35.000Z</time>
      </trkpt>
      <trkpt lat="45.62573" lon="6.85329">
        <ele>1783.4000244141</ele>
        <time>2020-06-26T13:13:37.000Z</time>
      </trkpt>
      <trkpt lat="45.62572" lon="6.8536">
        <ele>1782</ele>
        <time>2020-06-26T13:13:39.000Z</time>
      </trkpt>
      <trkpt lat="45.62571" lon="6.85376">
        <ele>1781.5999755859</ele>
        <time>2020-06-26T13:13:40.000Z</time>
      </trkpt>
      <trkpt lat="45.62569" lon="6.85392">
        <ele>1780.8000488281</ele>
        <time>2020-06-26T13:13:41.000Z</time>
      </trkpt>
      <trkpt lat="45.62567" lon="6.85406">
        <ele>1779.5999755859</ele>
        <time>2020-06-26T13:13:42.000Z</time>
      </trkpt>
      <trkpt lat="45.62565" lon="6.85421">
        <ele>1778.4000244141</ele>
        <time>2020-06-26T13:13:43.000Z</time>
      </trkpt>
      <trkpt lat="45.62564" lon="6.85434">
        <ele>1777.5999755859</ele>
        <time>2020-06-26T13:13:44.000Z</time>
      </trkpt>
      <trkpt lat="45.62563" lon="6.85448">
        <ele>1777.1999511719</ele>
        <time>2020-06-26T13:13:45.000Z</time>
      </trkpt>
      <trkpt lat="45.62563" lon="6.85476">
        <ele>1776.1999511719</ele>
        <time>2020-06-26T13:13:47.000Z</time>
      </trkpt>
      <trkpt lat="45.62563" lon="6.8549">
        <ele>1776</ele>
        <time>2020-06-26T13:13:48.000Z</time>
      </trkpt>
      <trkpt lat="45.62562" lon="6.85505">
        <ele>1775</ele>
        <time>2020-06-26T13:13:49.000Z</time>
      </trkpt>
      <trkpt lat="45.6256" lon="6.85519">
        <ele>1774.4000244141</ele>
        <time>2020-06-26T13:13:50.000Z</time>
      </trkpt>
      <trkpt lat="45.62555" lon="6.85533">
        <ele>1774</ele>
        <time>2020-06-26T13:13:51.000Z</time>
      </trkpt>
      <trkpt lat="45.62549" lon="6.85545">
        <ele>1773.5999755859</ele>
        <time>2020-06-26T13:13:52.000Z</time>
      </trkpt>
      <trkpt lat="45.62529" lon="6.85584">
        <ele>1773</ele>
        <time>2020-06-26T13:13:55.000Z</time>
      </trkpt>
      <trkpt lat="45.62523" lon="6.85598">
        <ele>1772.4000244141</ele>
        <time>2020-06-26T13:13:56.000Z</time>
      </trkpt>
      <trkpt lat="45.62512" lon="6.85627">
        <ele>1770.8000488281</ele>
        <time>2020-06-26T13:13:58.000Z</time>
      </trkpt>
      <trkpt lat="45.62506" lon="6.85642">
        <ele>1769.8000488281</ele>
        <time>2020-06-26T13:13:59.000Z</time>
      </trkpt>
      <trkpt lat="45.62494" lon="6.8567">
        <ele>1767.8000488281</ele>
        <time>2020-06-26T13:14:01.000Z</time>
      </trkpt>
      <trkpt lat="45.62487" lon="6.85684">
        <ele>1766.1999511719</ele>
        <time>2020-06-26T13:14:02.000Z</time>
      </trkpt>
      <trkpt lat="45.62469" lon="6.85708">
        <ele>1765</ele>
        <time>2020-06-26T13:14:04.000Z</time>
      </trkpt>
      <trkpt lat="45.6245" lon="6.8573">
        <ele>1763.8000488281</ele>
        <time>2020-06-26T13:14:06.000Z</time>
      </trkpt>
      <trkpt lat="45.62426" lon="6.85763">
        <ele>1762.4000244141</ele>
        <time>2020-06-26T13:14:09.000Z</time>
      </trkpt>
      <trkpt lat="45.6242" lon="6.85773">
        <ele>1762</ele>
        <time>2020-06-26T13:14:10.000Z</time>
      </trkpt>
      <trkpt lat="45.62416" lon="6.85783">
        <ele>1761.1999511719</ele>
        <time>2020-06-26T13:14:11.000Z</time>
      </trkpt>
      <trkpt lat="45.62412" lon="6.85792">
        <ele>1760.4000244141</ele>
        <time>2020-06-26T13:14:12.000Z</time>
      </trkpt>
      <trkpt lat="45.62408" lon="6.85799">
        <ele>1759.8000488281</ele>
        <time>2020-06-26T13:14:13.000Z</time>
      </trkpt>
      <trkpt lat="45.62398" lon="6.85825">
        <ele>1758.8000488281</ele>
        <time>2020-06-26T13:14:16.000Z</time>
      </trkpt>
      <trkpt lat="45.62397" lon="6.85835">
        <ele>1758.5999755859</ele>
        <time>2020-06-26T13:14:17.000Z</time>
      </trkpt>
      <trkpt lat="45.62397" lon="6.85858">
        <ele>1758.4000244141</ele>
        <time>2020-06-26T13:14:19.000Z</time>
      </trkpt>
      <trkpt lat="45.62397" lon="6.8587">
        <ele>1758.4000244141</ele>
        <time>2020-06-26T13:14:20.000Z</time>
      </trkpt>
      <trkpt lat="45.62398" lon="6.85934">
        <ele>1757.8000488281</ele>
        <time>2020-06-26T13:14:25.000Z</time>
      </trkpt>
      <trkpt lat="45.62397" lon="6.85948">
        <ele>1757.8000488281</ele>
        <time>2020-06-26T13:14:26.000Z</time>
      </trkpt>
      <trkpt lat="45.62398" lon="6.8601">
        <ele>1755.8000488281</ele>
        <time>2020-06-26T13:14:30.000Z</time>
      </trkpt>
      <trkpt lat="45.62398" lon="6.86042">
        <ele>1754.5999755859</ele>
        <time>2020-06-26T13:14:32.000Z</time>
      </trkpt>
      <trkpt lat="45.624" lon="6.86077">
        <ele>1753</ele>
        <time>2020-06-26T13:14:34.000Z</time>
      </trkpt>
      <trkpt lat="45.62405" lon="6.86129">
        <ele>1751.4000244141</ele>
        <time>2020-06-26T13:14:37.000Z</time>
      </trkpt>
      <trkpt lat="45.62407" lon="6.86165">
        <ele>1749.5999755859</ele>
        <time>2020-06-26T13:14:39.000Z</time>
      </trkpt>
      <trkpt lat="45.62407" lon="6.86183">
        <ele>1748.5999755859</ele>
        <time>2020-06-26T13:14:40.000Z</time>
      </trkpt>
      <trkpt lat="45.62408" lon="6.86201">
        <ele>1748</ele>
        <time>2020-06-26T13:14:41.000Z</time>
      </trkpt>
      <trkpt lat="45.6241" lon="6.8622">
        <ele>1747.1999511719</ele>
        <time>2020-06-26T13:14:42.000Z</time>
      </trkpt>
      <trkpt lat="45.62411" lon="6.86238">
        <ele>1746.1999511719</ele>
        <time>2020-06-26T13:14:43.000Z</time>
      </trkpt>
      <trkpt lat="45.62413" lon="6.86275">
        <ele>1744.1999511719</ele>
        <time>2020-06-26T13:14:45.000Z</time>
      </trkpt>
      <trkpt lat="45.62412" lon="6.86294">
        <ele>1743.1999511719</ele>
        <time>2020-06-26T13:14:46.000Z</time>
      </trkpt>
      <trkpt lat="45.6241" lon="6.86313">
        <ele>1742</ele>
        <time>2020-06-26T13:14:47.000Z</time>
      </trkpt>
      <trkpt lat="45.62407" lon="6.86331">
        <ele>1740.8000488281</ele>
        <time>2020-06-26T13:14:48.000Z</time>
      </trkpt>
      <trkpt lat="45.62404" lon="6.86369">
        <ele>1739.4000244141</ele>
        <time>2020-06-26T13:14:50.000Z</time>
      </trkpt>
      <trkpt lat="45.62401" lon="6.86405">
        <ele>1737.8000488281</ele>
        <time>2020-06-26T13:14:52.000Z</time>
      </trkpt>
      <trkpt lat="45.624" lon="6.86422">
        <ele>1736.8000488281</ele>
        <time>2020-06-26T13:14:53.000Z</time>
      </trkpt>
      <trkpt lat="45.62399" lon="6.86439">
        <ele>1736</ele>
        <time>2020-06-26T13:14:54.000Z</time>
      </trkpt>
      <trkpt lat="45.624" lon="6.86454">
        <ele>1735</ele>
        <time>2020-06-26T13:14:55.000Z</time>
      </trkpt>
      <trkpt lat="45.62408" lon="6.8648">
        <ele>1733.4000244141</ele>
        <time>2020-06-26T13:14:57.000Z</time>
      </trkpt>
      <trkpt lat="45.62418" lon="6.865">
        <ele>1731.8000488281</ele>
        <time>2020-06-26T13:14:59.000Z</time>
      </trkpt>
      <trkpt lat="45.6242" lon="6.8651">
        <ele>1731.4000244141</ele>
        <time>2020-06-26T13:15:00.000Z</time>
      </trkpt>
      <trkpt lat="45.62417" lon="6.86526">
        <ele>1730.8000488281</ele>
        <time>2020-06-26T13:15:02.000Z</time>
      </trkpt>
      <trkpt lat="45.62412" lon="6.86528">
        <ele>1730.4000244141</ele>
        <time>2020-06-26T13:15:03.000Z</time>
      </trkpt>
      <trkpt lat="45.62406" lon="6.86523">
        <ele>1730.1999511719</ele>
        <time>2020-06-26T13:15:04.000Z</time>
      </trkpt>
      <trkpt lat="45.62397" lon="6.86493">
        <ele>1729.8000488281</ele>
        <time>2020-06-26T13:15:07.000Z</time>
      </trkpt>
      <trkpt lat="45.6239" lon="6.86457">
        <ele>1729.4000244141</ele>
        <time>2020-06-26T13:15:10.000Z</time>
      </trkpt>
      <trkpt lat="45.62386" lon="6.86431">
        <ele>1729</ele>
        <time>2020-06-26T13:15:12.000Z</time>
      </trkpt>
      <trkpt lat="45.6238" lon="6.86389">
        <ele>1728.1999511719</ele>
        <time>2020-06-26T13:15:15.000Z</time>
      </trkpt>
      <trkpt lat="45.62376" lon="6.8636">
        <ele>1727.1999511719</ele>
        <time>2020-06-26T13:15:17.000Z</time>
      </trkpt>
      <trkpt lat="45.62372" lon="6.86331">
        <ele>1726</ele>
        <time>2020-06-26T13:15:19.000Z</time>
      </trkpt>
      <trkpt lat="45.62367" lon="6.863">
        <ele>1725</ele>
        <time>2020-06-26T13:15:21.000Z</time>
      </trkpt>
      <trkpt lat="45.62361" lon="6.8627">
        <ele>1723</ele>
        <time>2020-06-26T13:15:23.000Z</time>
      </trkpt>
      <trkpt lat="45.62358" lon="6.86255">
        <ele>1721.8000488281</ele>
        <time>2020-06-26T13:15:24.000Z</time>
      </trkpt>
      <trkpt lat="45.62354" lon="6.86241">
        <ele>1720.5999755859</ele>
        <time>2020-06-26T13:15:25.000Z</time>
      </trkpt>
      <trkpt lat="45.6235" lon="6.86226">
        <ele>1719.5999755859</ele>
        <time>2020-06-26T13:15:26.000Z</time>
      </trkpt>
      <trkpt lat="45.62347" lon="6.86211">
        <ele>1718.1999511719</ele>
        <time>2020-06-26T13:15:27.000Z</time>
      </trkpt>
      <trkpt lat="45.62341" lon="6.8618">
        <ele>1716.8000488281</ele>
        <time>2020-06-26T13:15:29.000Z</time>
      </trkpt>
      <trkpt lat="45.62336" lon="6.86149">
        <ele>1715.5999755859</ele>
        <time>2020-06-26T13:15:31.000Z</time>
      </trkpt>
      <trkpt lat="45.62319" lon="6.8609">
        <ele>1714.4000244141</ele>
        <time>2020-06-26T13:15:35.000Z</time>
      </trkpt>
      <trkpt lat="45.623" lon="6.86049">
        <ele>1713</ele>
        <time>2020-06-26T13:15:38.000Z</time>
      </trkpt>
      <trkpt lat="45.62287" lon="6.86022">
        <ele>1711.1999511719</ele>
        <time>2020-06-26T13:15:40.000Z</time>
      </trkpt>
      <trkpt lat="45.62282" lon="6.86008">
        <ele>1710</ele>
        <time>2020-06-26T13:15:41.000Z</time>
      </trkpt>
      <trkpt lat="45.62277" lon="6.85993">
        <ele>1709</ele>
        <time>2020-06-26T13:15:42.000Z</time>
      </trkpt>
      <trkpt lat="45.62274" lon="6.85979">
        <ele>1708.4000244141</ele>
        <time>2020-06-26T13:15:43.000Z</time>
      </trkpt>
      <trkpt lat="45.6227" lon="6.85947">
        <ele>1707.8000488281</ele>
        <time>2020-06-26T13:15:45.000Z</time>
      </trkpt>
      <trkpt lat="45.6227" lon="6.85931">
        <ele>1707.5999755859</ele>
        <time>2020-06-26T13:15:46.000Z</time>
      </trkpt>
      <trkpt lat="45.62268" lon="6.85915">
        <ele>1707.4000244141</ele>
        <time>2020-06-26T13:15:47.000Z</time>
      </trkpt>
      <trkpt lat="45.62264" lon="6.85849">
        <ele>1706.1999511719</ele>
        <time>2020-06-26T13:15:51.000Z</time>
      </trkpt>
      <trkpt lat="45.62262" lon="6.858">
        <ele>1705.1999511719</ele>
        <time>2020-06-26T13:15:54.000Z</time>
      </trkpt>
      <trkpt lat="45.62265" lon="6.85785">
        <ele>1704.1999511719</ele>
        <time>2020-06-26T13:15:55.000Z</time>
      </trkpt>
      <trkpt lat="45.6227" lon="6.85772">
        <ele>1702</ele>
        <time>2020-06-26T13:15:56.000Z</time>
      </trkpt>
      <trkpt lat="45.62282" lon="6.85746">
        <ele>1700.8000488281</ele>
        <time>2020-06-26T13:15:58.000Z</time>
      </trkpt>
      <trkpt lat="45.62288" lon="6.85733">
        <ele>1700.1999511719</ele>
        <time>2020-06-26T13:15:59.000Z</time>
      </trkpt>
      <trkpt lat="45.62292" lon="6.85718">
        <ele>1699.1999511719</ele>
        <time>2020-06-26T13:16:00.000Z</time>
      </trkpt>
      <trkpt lat="45.62295" lon="6.85702">
        <ele>1698.1999511719</ele>
        <time>2020-06-26T13:16:01.000Z</time>
      </trkpt>
      <trkpt lat="45.62299" lon="6.8567">
        <ele>1697</ele>
        <time>2020-06-26T13:16:03.000Z</time>
      </trkpt>
      <trkpt lat="45.62304" lon="6.85607">
        <ele>1695.8000488281</ele>
        <time>2020-06-26T13:16:07.000Z</time>
      </trkpt>
      <trkpt lat="45.62306" lon="6.8559">
        <ele>1695.4000244141</ele>
        <time>2020-06-26T13:16:08.000Z</time>
      </trkpt>
      <trkpt lat="45.62307" lon="6.85574">
        <ele>1694.4000244141</ele>
        <time>2020-06-26T13:16:09.000Z</time>
      </trkpt>
      <trkpt lat="45.62308" lon="6.85557">
        <ele>1693</ele>
        <time>2020-06-26T13:16:10.000Z</time>
      </trkpt>
      <trkpt lat="45.62308" lon="6.85541">
        <ele>1691.8000488281</ele>
        <time>2020-06-26T13:16:11.000Z</time>
      </trkpt>
      <trkpt lat="45.62307" lon="6.85507">
        <ele>1690.5999755859</ele>
        <time>2020-06-26T13:16:13.000Z</time>
      </trkpt>
      <trkpt lat="45.623" lon="6.85439">
        <ele>1689.1999511719</ele>
        <time>2020-06-26T13:16:17.000Z</time>
      </trkpt>
      <trkpt lat="45.62295" lon="6.85405">
        <ele>1687.5999755859</ele>
        <time>2020-06-26T13:16:19.000Z</time>
      </trkpt>
      <trkpt lat="45.62291" lon="6.85371">
        <ele>1686.4000244141</ele>
        <time>2020-06-26T13:16:21.000Z</time>
      </trkpt>
      <trkpt lat="45.62289" lon="6.85355">
        <ele>1685.4000244141</ele>
        <time>2020-06-26T13:16:22.000Z</time>
      </trkpt>
      <trkpt lat="45.62288" lon="6.85338">
        <ele>1684.1999511719</ele>
        <time>2020-06-26T13:16:23.000Z</time>
      </trkpt>
      <trkpt lat="45.62289" lon="6.85322">
        <ele>1683.1999511719</ele>
        <time>2020-06-26T13:16:24.000Z</time>
      </trkpt>
      <trkpt lat="45.62291" lon="6.85306">
        <ele>1681.5999755859</ele>
        <time>2020-06-26T13:16:25.000Z</time>
      </trkpt>
      <trkpt lat="45.62293" lon="6.85291">
        <ele>1680.5999755859</ele>
        <time>2020-06-26T13:16:26.000Z</time>
      </trkpt>
      <trkpt lat="45.62298" lon="6.85261">
        <ele>1679.1999511719</ele>
        <time>2020-06-26T13:16:28.000Z</time>
      </trkpt>
      <trkpt lat="45.623" lon="6.85246">
        <ele>1678.8000488281</ele>
        <time>2020-06-26T13:16:29.000Z</time>
      </trkpt>
      <trkpt lat="45.6231" lon="6.85207">
        <ele>1678</ele>
        <time>2020-06-26T13:16:32.000Z</time>
      </trkpt>
      <trkpt lat="45.62314" lon="6.85195">
        <ele>1677.8000488281</ele>
        <time>2020-06-26T13:16:33.000Z</time>
      </trkpt>
      <trkpt lat="45.62329" lon="6.85133">
        <ele>1677.5999755859</ele>
        <time>2020-06-26T13:16:38.000Z</time>
      </trkpt>
      <trkpt lat="45.62339" lon="6.85088">
        <ele>1677.1999511719</ele>
        <time>2020-06-26T13:16:42.000Z</time>
      </trkpt>
      <trkpt lat="45.62338" lon="6.85079">
        <ele>1677.4000244141</ele>
        <time>2020-06-26T13:16:43.000Z</time>
      </trkpt>
      <trkpt lat="45.62329" lon="6.85072">
        <ele>1677.5999755859</ele>
        <time>2020-06-26T13:16:45.000Z</time>
      </trkpt>
      <trkpt lat="45.62322" lon="6.85087">
        <ele>1678</ele>
        <time>2020-06-26T13:16:47.000Z</time>
      </trkpt>
      <trkpt lat="45.62317" lon="6.85125">
        <ele>1678.4000244141</ele>
        <time>2020-06-26T13:16:50.000Z</time>
      </trkpt>
      <trkpt lat="45.62315" lon="6.85138">
        <ele>1678.4000244141</ele>
        <time>2020-06-26T13:16:51.000Z</time>
      </trkpt>
      <trkpt lat="45.62305" lon="6.8518">
        <ele>1678.4000244141</ele>
        <time>2020-06-26T13:16:54.000Z</time>
      </trkpt>
      <trkpt lat="45.62279" lon="6.85253">
        <ele>1678.1999511719</ele>
        <time>2020-06-26T13:16:59.000Z</time>
      </trkpt>
      <trkpt lat="45.62265" lon="6.85301">
        <ele>1676.4000244141</ele>
        <time>2020-06-26T13:17:02.000Z</time>
      </trkpt>
      <trkpt lat="45.62262" lon="6.85318">
        <ele>1675.5999755859</ele>
        <time>2020-06-26T13:17:03.000Z</time>
      </trkpt>
      <trkpt lat="45.6226" lon="6.85335">
        <ele>1674.8000488281</ele>
        <time>2020-06-26T13:17:04.000Z</time>
      </trkpt>
      <trkpt lat="45.62256" lon="6.85371">
        <ele>1673</ele>
        <time>2020-06-26T13:17:06.000Z</time>
      </trkpt>
      <trkpt lat="45.62256" lon="6.85388">
        <ele>1672</ele>
        <time>2020-06-26T13:17:07.000Z</time>
      </trkpt>
      <trkpt lat="45.62258" lon="6.85425">
        <ele>1670.5999755859</ele>
        <time>2020-06-26T13:17:09.000Z</time>
      </trkpt>
      <trkpt lat="45.62258" lon="6.85442">
        <ele>1669.8000488281</ele>
        <time>2020-06-26T13:17:10.000Z</time>
      </trkpt>
      <trkpt lat="45.62255" lon="6.8546">
        <ele>1669.4000244141</ele>
        <time>2020-06-26T13:17:11.000Z</time>
      </trkpt>
      <trkpt lat="45.62252" lon="6.85477">
        <ele>1668.5999755859</ele>
        <time>2020-06-26T13:17:12.000Z</time>
      </trkpt>
      <trkpt lat="45.6225" lon="6.85494">
        <ele>1667.8000488281</ele>
        <time>2020-06-26T13:17:13.000Z</time>
      </trkpt>
      <trkpt lat="45.62247" lon="6.85511">
        <ele>1666.5999755859</ele>
        <time>2020-06-26T13:17:14.000Z</time>
      </trkpt>
      <trkpt lat="45.6224" lon="6.85545">
        <ele>1665</ele>
        <time>2020-06-26T13:17:16.000Z</time>
      </trkpt>
      <trkpt lat="45.62234" lon="6.8556">
        <ele>1664.4000244141</ele>
        <time>2020-06-26T13:17:17.000Z</time>
      </trkpt>
      <trkpt lat="45.62225" lon="6.85574">
        <ele>1663.4000244141</ele>
        <time>2020-06-26T13:17:18.000Z</time>
      </trkpt>
      <trkpt lat="45.62217" lon="6.85587">
        <ele>1662</ele>
        <time>2020-06-26T13:17:19.000Z</time>
      </trkpt>
      <trkpt lat="45.62209" lon="6.85601">
        <ele>1661</ele>
        <time>2020-06-26T13:17:20.000Z</time>
      </trkpt>
      <trkpt lat="45.62204" lon="6.85616">
        <ele>1660</ele>
        <time>2020-06-26T13:17:21.000Z</time>
      </trkpt>
      <trkpt lat="45.622" lon="6.85632">
        <ele>1659</ele>
        <time>2020-06-26T13:17:22.000Z</time>
      </trkpt>
      <trkpt lat="45.622" lon="6.85665">
        <ele>1657.8000488281</ele>
        <time>2020-06-26T13:17:24.000Z</time>
      </trkpt>
      <trkpt lat="45.62198" lon="6.85697">
        <ele>1656.5999755859</ele>
        <time>2020-06-26T13:17:26.000Z</time>
      </trkpt>
      <trkpt lat="45.62184" lon="6.85723">
        <ele>1654.8000488281</ele>
        <time>2020-06-26T13:17:28.000Z</time>
      </trkpt>
      <trkpt lat="45.62166" lon="6.85743">
        <ele>1653.4000244141</ele>
        <time>2020-06-26T13:17:30.000Z</time>
      </trkpt>
      <trkpt lat="45.62158" lon="6.85754">
        <ele>1653</ele>
        <time>2020-06-26T13:17:31.000Z</time>
      </trkpt>
      <trkpt lat="45.62151" lon="6.85768">
        <ele>1652.8000488281</ele>
        <time>2020-06-26T13:17:32.000Z</time>
      </trkpt>
      <trkpt lat="45.62146" lon="6.85783">
        <ele>1652.4000244141</ele>
        <time>2020-06-26T13:17:33.000Z</time>
      </trkpt>
      <trkpt lat="45.6214" lon="6.85817">
        <ele>1651.4000244141</ele>
        <time>2020-06-26T13:17:35.000Z</time>
      </trkpt>
      <trkpt lat="45.62131" lon="6.85888">
        <ele>1650.4000244141</ele>
        <time>2020-06-26T13:17:39.000Z</time>
      </trkpt>
      <trkpt lat="45.62128" lon="6.85904">
        <ele>1650.1999511719</ele>
        <time>2020-06-26T13:17:40.000Z</time>
      </trkpt>
      <trkpt lat="45.62123" lon="6.85942">
        <ele>1649.1999511719</ele>
        <time>2020-06-26T13:17:43.000Z</time>
      </trkpt>
      <trkpt lat="45.62122" lon="6.85951">
        <ele>1648.1999511719</ele>
        <time>2020-06-26T13:17:44.000Z</time>
      </trkpt>
      <trkpt lat="45.62115" lon="6.85962">
        <ele>1647.1999511719</ele>
        <time>2020-06-26T13:17:46.000Z</time>
      </trkpt>
      <trkpt lat="45.62111" lon="6.85961">
        <ele>1647</ele>
        <time>2020-06-26T13:17:47.000Z</time>
      </trkpt>
      <trkpt lat="45.62109" lon="6.85955">
        <ele>1646.8000488281</ele>
        <time>2020-06-26T13:17:48.000Z</time>
      </trkpt>
      <trkpt lat="45.62111" lon="6.85939">
        <ele>1646.4000244141</ele>
        <time>2020-06-26T13:17:50.000Z</time>
      </trkpt>
      <trkpt lat="45.62112" lon="6.8593">
        <ele>1645.8000488281</ele>
        <time>2020-06-26T13:17:51.000Z</time>
      </trkpt>
      <trkpt lat="45.62117" lon="6.85887">
        <ele>1644.5999755859</ele>
        <time>2020-06-26T13:17:55.000Z</time>
      </trkpt>
      <trkpt lat="45.62118" lon="6.85876">
        <ele>1644.1999511719</ele>
        <time>2020-06-26T13:17:56.000Z</time>
      </trkpt>
      <trkpt lat="45.6212" lon="6.85851">
        <ele>1643.1999511719</ele>
        <time>2020-06-26T13:17:58.000Z</time>
      </trkpt>
      <trkpt lat="45.62121" lon="6.85826">
        <ele>1641.5999755859</ele>
        <time>2020-06-26T13:18:00.000Z</time>
      </trkpt>
      <trkpt lat="45.62123" lon="6.85799">
        <ele>1640.1999511719</ele>
        <time>2020-06-26T13:18:02.000Z</time>
      </trkpt>
      <trkpt lat="45.62124" lon="6.85786">
        <ele>1639.4000244141</ele>
        <time>2020-06-26T13:18:03.000Z</time>
      </trkpt>
      <trkpt lat="45.62127" lon="6.85774">
        <ele>1638.4000244141</ele>
        <time>2020-06-26T13:18:04.000Z</time>
      </trkpt>
      <trkpt lat="45.62136" lon="6.8575">
        <ele>1636.8000488281</ele>
        <time>2020-06-26T13:18:06.000Z</time>
      </trkpt>
      <trkpt lat="45.62142" lon="6.85739">
        <ele>1636</ele>
        <time>2020-06-26T13:18:07.000Z</time>
      </trkpt>
      <trkpt lat="45.62146" lon="6.85727">
        <ele>1635</ele>
        <time>2020-06-26T13:18:08.000Z</time>
      </trkpt>
      <trkpt lat="45.6215" lon="6.85701">
        <ele>1634</ele>
        <time>2020-06-26T13:18:10.000Z</time>
      </trkpt>
      <trkpt lat="45.62147" lon="6.85673">
        <ele>1633.4000244141</ele>
        <time>2020-06-26T13:18:12.000Z</time>
      </trkpt>
      <trkpt lat="45.62145" lon="6.85658">
        <ele>1632.4000244141</ele>
        <time>2020-06-26T13:18:13.000Z</time>
      </trkpt>
      <trkpt lat="45.62148" lon="6.85629">
        <ele>1631.1999511719</ele>
        <time>2020-06-26T13:18:15.000Z</time>
      </trkpt>
      <trkpt lat="45.62151" lon="6.85615">
        <ele>1630.8000488281</ele>
        <time>2020-06-26T13:18:16.000Z</time>
      </trkpt>
      <trkpt lat="45.62154" lon="6.85601">
        <ele>1630.5999755859</ele>
        <time>2020-06-26T13:18:17.000Z</time>
      </trkpt>
      <trkpt lat="45.6216" lon="6.85571">
        <ele>1630.1999511719</ele>
        <time>2020-06-26T13:18:19.000Z</time>
      </trkpt>
      <trkpt lat="45.62164" lon="6.85557">
        <ele>1629</ele>
        <time>2020-06-26T13:18:20.000Z</time>
      </trkpt>
      <trkpt lat="45.62173" lon="6.85514">
        <ele>1628.4000244141</ele>
        <time>2020-06-26T13:18:23.000Z</time>
      </trkpt>
      <trkpt lat="45.62175" lon="6.85499">
        <ele>1627.8000488281</ele>
        <time>2020-06-26T13:18:24.000Z</time>
      </trkpt>
      <trkpt lat="45.62173" lon="6.8547">
        <ele>1626</ele>
        <time>2020-06-26T13:18:26.000Z</time>
      </trkpt>
      <trkpt lat="45.62163" lon="6.85443">
        <ele>1624.4000244141</ele>
        <time>2020-06-26T13:18:28.000Z</time>
      </trkpt>
      <trkpt lat="45.62159" lon="6.85428">
        <ele>1623.8000488281</ele>
        <time>2020-06-26T13:18:29.000Z</time>
      </trkpt>
      <trkpt lat="45.62153" lon="6.85398">
        <ele>1623.4000244141</ele>
        <time>2020-06-26T13:18:31.000Z</time>
      </trkpt>
      <trkpt lat="45.62152" lon="6.85382">
        <ele>1623.1999511719</ele>
        <time>2020-06-26T13:18:32.000Z</time>
      </trkpt>
      <trkpt lat="45.62151" lon="6.85366">
        <ele>1623.1999511719</ele>
        <time>2020-06-26T13:18:33.000Z</time>
      </trkpt>
      <trkpt lat="45.62148" lon="6.85283">
        <ele>1622.5999755859</ele>
        <time>2020-06-26T13:18:38.000Z</time>
      </trkpt>
      <trkpt lat="45.62147" lon="6.85267">
        <ele>1621.5999755859</ele>
        <time>2020-06-26T13:18:39.000Z</time>
      </trkpt>
      <trkpt lat="45.62147" lon="6.8525">
        <ele>1620.5999755859</ele>
        <time>2020-06-26T13:18:40.000Z</time>
      </trkpt>
      <trkpt lat="45.62147" lon="6.85234">
        <ele>1620</ele>
        <time>2020-06-26T13:18:41.000Z</time>
      </trkpt>
      <trkpt lat="45.6215" lon="6.85202">
        <ele>1619.1999511719</ele>
        <time>2020-06-26T13:18:43.000Z</time>
      </trkpt>
      <trkpt lat="45.62152" lon="6.85185">
        <ele>1618.5999755859</ele>
        <time>2020-06-26T13:18:44.000Z</time>
      </trkpt>
      <trkpt lat="45.62156" lon="6.85153">
        <ele>1617.8000488281</ele>
        <time>2020-06-26T13:18:46.000Z</time>
      </trkpt>
      <trkpt lat="45.62162" lon="6.85122">
        <ele>1615.5999755859</ele>
        <time>2020-06-26T13:18:48.000Z</time>
      </trkpt>
      <trkpt lat="45.62166" lon="6.85107">
        <ele>1614.5999755859</ele>
        <time>2020-06-26T13:18:49.000Z</time>
      </trkpt>
      <trkpt lat="45.6218" lon="6.85063">
        <ele>1613.4000244141</ele>
        <time>2020-06-26T13:18:52.000Z</time>
      </trkpt>
      <trkpt lat="45.62183" lon="6.85048">
        <ele>1613.1999511719</ele>
        <time>2020-06-26T13:18:53.000Z</time>
      </trkpt>
      <trkpt lat="45.62183" lon="6.85">
        <ele>1612</ele>
        <time>2020-06-26T13:18:56.000Z</time>
      </trkpt>
      <trkpt lat="45.6218" lon="6.84952">
        <ele>1610.8000488281</ele>
        <time>2020-06-26T13:18:59.000Z</time>
      </trkpt>
      <trkpt lat="45.62178" lon="6.84903">
        <ele>1610</ele>
        <time>2020-06-26T13:19:02.000Z</time>
      </trkpt>
      <trkpt lat="45.62179" lon="6.84869">
        <ele>1609.8000488281</ele>
        <time>2020-06-26T13:19:04.000Z</time>
      </trkpt>
      <trkpt lat="45.62182" lon="6.84819">
        <ele>1608.1999511719</ele>
        <time>2020-06-26T13:19:07.000Z</time>
      </trkpt>
      <trkpt lat="45.62182" lon="6.84802">
        <ele>1607.5999755859</ele>
        <time>2020-06-26T13:19:08.000Z</time>
      </trkpt>
      <trkpt lat="45.62182" lon="6.84785">
        <ele>1606.8000488281</ele>
        <time>2020-06-26T13:19:09.000Z</time>
      </trkpt>
      <trkpt lat="45.62179" lon="6.84717">
        <ele>1605.8000488281</ele>
        <time>2020-06-26T13:19:13.000Z</time>
      </trkpt>
      <trkpt lat="45.62177" lon="6.84683">
        <ele>1604.8000488281</ele>
        <time>2020-06-26T13:19:15.000Z</time>
      </trkpt>
      <trkpt lat="45.62177" lon="6.8465">
        <ele>1603</ele>
        <time>2020-06-26T13:19:17.000Z</time>
      </trkpt>
      <trkpt lat="45.6218" lon="6.84634">
        <ele>1602.4000244141</ele>
        <time>2020-06-26T13:19:18.000Z</time>
      </trkpt>
      <trkpt lat="45.62185" lon="6.8462">
        <ele>1602</ele>
        <time>2020-06-26T13:19:19.000Z</time>
      </trkpt>
      <trkpt lat="45.62192" lon="6.84606">
        <ele>1601</ele>
        <time>2020-06-26T13:19:20.000Z</time>
      </trkpt>
      <trkpt lat="45.62199" lon="6.84592">
        <ele>1600</ele>
        <time>2020-06-26T13:19:21.000Z</time>
      </trkpt>
      <trkpt lat="45.62205" lon="6.84578">
        <ele>1599.4000244141</ele>
        <time>2020-06-26T13:19:22.000Z</time>
      </trkpt>
      <trkpt lat="45.62226" lon="6.84538">
        <ele>1598.1999511719</ele>
        <time>2020-06-26T13:19:25.000Z</time>
      </trkpt>
      <trkpt lat="45.62235" lon="6.84527">
        <ele>1598</ele>
        <time>2020-06-26T13:19:26.000Z</time>
      </trkpt>
      <trkpt lat="45.62253" lon="6.84504">
        <ele>1596.4000244141</ele>
        <time>2020-06-26T13:19:28.000Z</time>
      </trkpt>
      <trkpt lat="45.6226" lon="6.84491">
        <ele>1595</ele>
        <time>2020-06-26T13:19:29.000Z</time>
      </trkpt>
      <trkpt lat="45.62272" lon="6.84462">
        <ele>1593.4000244141</ele>
        <time>2020-06-26T13:19:31.000Z</time>
      </trkpt>
      <trkpt lat="45.62288" lon="6.84418">
        <ele>1592</ele>
        <time>2020-06-26T13:19:34.000Z</time>
      </trkpt>
      <trkpt lat="45.62299" lon="6.8439">
        <ele>1590.4000244141</ele>
        <time>2020-06-26T13:19:36.000Z</time>
      </trkpt>
      <trkpt lat="45.62311" lon="6.84363">
        <ele>1589</ele>
        <time>2020-06-26T13:19:38.000Z</time>
      </trkpt>
      <trkpt lat="45.62315" lon="6.84348">
        <ele>1588.5999755859</ele>
        <time>2020-06-26T13:19:39.000Z</time>
      </trkpt>
      <trkpt lat="45.62318" lon="6.84317">
        <ele>1587.8000488281</ele>
        <time>2020-06-26T13:19:41.000Z</time>
      </trkpt>
      <trkpt lat="45.62319" lon="6.84301">
        <ele>1587.4000244141</ele>
        <time>2020-06-26T13:19:42.000Z</time>
      </trkpt>
      <trkpt lat="45.62321" lon="6.84286">
        <ele>1587.1999511719</ele>
        <time>2020-06-26T13:19:43.000Z</time>
      </trkpt>
      <trkpt lat="45.62329" lon="6.84256">
        <ele>1586.5999755859</ele>
        <time>2020-06-26T13:19:45.000Z</time>
      </trkpt>
      <trkpt lat="45.62339" lon="6.84228">
        <ele>1585.5999755859</ele>
        <time>2020-06-26T13:19:47.000Z</time>
      </trkpt>
      <trkpt lat="45.62351" lon="6.84203">
        <ele>1585</ele>
        <time>2020-06-26T13:19:49.000Z</time>
      </trkpt>
      <trkpt lat="45.62376" lon="6.84173">
        <ele>1584.4000244141</ele>
        <time>2020-06-26T13:19:52.000Z</time>
      </trkpt>
      <trkpt lat="45.62396" lon="6.84159">
        <ele>1583</ele>
        <time>2020-06-26T13:19:54.000Z</time>
      </trkpt>
      <trkpt lat="45.62406" lon="6.84152">
        <ele>1581.8000488281</ele>
        <time>2020-06-26T13:19:55.000Z</time>
      </trkpt>
      <trkpt lat="45.62417" lon="6.84145">
        <ele>1580.8000488281</ele>
        <time>2020-06-26T13:19:56.000Z</time>
      </trkpt>
      <trkpt lat="45.62427" lon="6.84138">
        <ele>1580.1999511719</ele>
        <time>2020-06-26T13:19:57.000Z</time>
      </trkpt>
      <trkpt lat="45.62437" lon="6.84127">
        <ele>1579.5999755859</ele>
        <time>2020-06-26T13:19:58.000Z</time>
      </trkpt>
      <trkpt lat="45.62444" lon="6.84114">
        <ele>1579.1999511719</ele>
        <time>2020-06-26T13:19:59.000Z</time>
      </trkpt>
      <trkpt lat="45.62463" lon="6.8407">
        <ele>1578.5999755859</ele>
        <time>2020-06-26T13:20:02.000Z</time>
      </trkpt>
      <trkpt lat="45.6248" lon="6.84046">
        <ele>1578.1999511719</ele>
        <time>2020-06-26T13:20:04.000Z</time>
      </trkpt>
      <trkpt lat="45.62499" lon="6.84023">
        <ele>1578</ele>
        <time>2020-06-26T13:20:06.000Z</time>
      </trkpt>
      <trkpt lat="45.62509" lon="6.84012">
        <ele>1577.5999755859</ele>
        <time>2020-06-26T13:20:07.000Z</time>
      </trkpt>
      <trkpt lat="45.62531" lon="6.83998">
        <ele>1576.4000244141</ele>
        <time>2020-06-26T13:20:09.000Z</time>
      </trkpt>
      <trkpt lat="45.62554" lon="6.83986">
        <ele>1574.4000244141</ele>
        <time>2020-06-26T13:20:11.000Z</time>
      </trkpt>
      <trkpt lat="45.62564" lon="6.83975">
        <ele>1573.5999755859</ele>
        <time>2020-06-26T13:20:12.000Z</time>
      </trkpt>
      <trkpt lat="45.62573" lon="6.83961">
        <ele>1573</ele>
        <time>2020-06-26T13:20:13.000Z</time>
      </trkpt>
      <trkpt lat="45.62586" lon="6.83932">
        <ele>1571.4000244141</ele>
        <time>2020-06-26T13:20:15.000Z</time>
      </trkpt>
      <trkpt lat="45.62599" lon="6.83901">
        <ele>1570.1999511719</ele>
        <time>2020-06-26T13:20:17.000Z</time>
      </trkpt>
      <trkpt lat="45.62612" lon="6.83871">
        <ele>1568</ele>
        <time>2020-06-26T13:20:19.000Z</time>
      </trkpt>
      <trkpt lat="45.62619" lon="6.83856">
        <ele>1566.5999755859</ele>
        <time>2020-06-26T13:20:20.000Z</time>
      </trkpt>
      <trkpt lat="45.62627" lon="6.83843">
        <ele>1565.5999755859</ele>
        <time>2020-06-26T13:20:21.000Z</time>
      </trkpt>
      <trkpt lat="45.62646" lon="6.8382">
        <ele>1564.1999511719</ele>
        <time>2020-06-26T13:20:23.000Z</time>
      </trkpt>
      <trkpt lat="45.62665" lon="6.83796">
        <ele>1562.5999755859</ele>
        <time>2020-06-26T13:20:25.000Z</time>
      </trkpt>
      <trkpt lat="45.62683" lon="6.83769">
        <ele>1561</ele>
        <time>2020-06-26T13:20:27.000Z</time>
      </trkpt>
      <trkpt lat="45.6269" lon="6.83753">
        <ele>1559.8000488281</ele>
        <time>2020-06-26T13:20:28.000Z</time>
      </trkpt>
      <trkpt lat="45.62704" lon="6.83721">
        <ele>1558.5999755859</ele>
        <time>2020-06-26T13:20:30.000Z</time>
      </trkpt>
      <trkpt lat="45.6271" lon="6.83705">
        <ele>1558</ele>
        <time>2020-06-26T13:20:31.000Z</time>
      </trkpt>
      <trkpt lat="45.62723" lon="6.83672">
        <ele>1557.1999511719</ele>
        <time>2020-06-26T13:20:33.000Z</time>
      </trkpt>
      <trkpt lat="45.62731" lon="6.83657">
        <ele>1556.5999755859</ele>
        <time>2020-06-26T13:20:34.000Z</time>
      </trkpt>
      <trkpt lat="45.6274" lon="6.83645">
        <ele>1556.1999511719</ele>
        <time>2020-06-26T13:20:35.000Z</time>
      </trkpt>
      <trkpt lat="45.62751" lon="6.83635">
        <ele>1555.8000488281</ele>
        <time>2020-06-26T13:20:36.000Z</time>
      </trkpt>
      <trkpt lat="45.62771" lon="6.83616">
        <ele>1555.1999511719</ele>
        <time>2020-06-26T13:20:38.000Z</time>
      </trkpt>
      <trkpt lat="45.62779" lon="6.83603">
        <ele>1554.5999755859</ele>
        <time>2020-06-26T13:20:39.000Z</time>
      </trkpt>
      <trkpt lat="45.62786" lon="6.83588">
        <ele>1554</ele>
        <time>2020-06-26T13:20:40.000Z</time>
      </trkpt>
      <trkpt lat="45.62792" lon="6.83573">
        <ele>1553</ele>
        <time>2020-06-26T13:20:41.000Z</time>
      </trkpt>
      <trkpt lat="45.62798" lon="6.83559">
        <ele>1552</ele>
        <time>2020-06-26T13:20:42.000Z</time>
      </trkpt>
      <trkpt lat="45.62805" lon="6.83546">
        <ele>1550.5999755859</ele>
        <time>2020-06-26T13:20:43.000Z</time>
      </trkpt>
      <trkpt lat="45.62813" lon="6.83534">
        <ele>1549.5999755859</ele>
        <time>2020-06-26T13:20:44.000Z</time>
      </trkpt>
      <trkpt lat="45.6282" lon="6.83525">
        <ele>1548</ele>
        <time>2020-06-26T13:20:45.000Z</time>
      </trkpt>
      <trkpt lat="45.62826" lon="6.83516">
        <ele>1547.8000488281</ele>
        <time>2020-06-26T13:20:46.000Z</time>
      </trkpt>
      <trkpt lat="45.62828" lon="6.83507">
        <ele>1547.8000488281</ele>
        <time>2020-06-26T13:20:47.000Z</time>
      </trkpt>
      <trkpt lat="45.6282" lon="6.83495">
        <ele>1547.5999755859</ele>
        <time>2020-06-26T13:20:49.000Z</time>
      </trkpt>
      <trkpt lat="45.62809" lon="6.83503">
        <ele>1547.4000244141</ele>
        <time>2020-06-26T13:20:51.000Z</time>
      </trkpt>
      <trkpt lat="45.62799" lon="6.83521">
        <ele>1547.4000244141</ele>
        <time>2020-06-26T13:20:53.000Z</time>
      </trkpt>
      <trkpt lat="45.62794" lon="6.83531">
        <ele>1547.1999511719</ele>
        <time>2020-06-26T13:20:54.000Z</time>
      </trkpt>
      <trkpt lat="45.62789" lon="6.83542">
        <ele>1547.1999511719</ele>
        <time>2020-06-26T13:20:55.000Z</time>
      </trkpt>
      <trkpt lat="45.62784" lon="6.83552">
        <ele>1547.1999511719</ele>
        <time>2020-06-26T13:20:56.000Z</time>
      </trkpt>
      <trkpt lat="45.62766" lon="6.83585">
        <ele>1546.8000488281</ele>
        <time>2020-06-26T13:20:59.000Z</time>
      </trkpt>
      <trkpt lat="45.62758" lon="6.83594">
        <ele>1546.8000488281</ele>
        <time>2020-06-26T13:21:00.000Z</time>
      </trkpt>
      <trkpt lat="45.62733" lon="6.8362">
        <ele>1546.1999511719</ele>
        <time>2020-06-26T13:21:03.000Z</time>
      </trkpt>
      <trkpt lat="45.62715" lon="6.83636">
        <ele>1544.8000488281</ele>
        <time>2020-06-26T13:21:05.000Z</time>
      </trkpt>
      <trkpt lat="45.62706" lon="6.83643">
        <ele>1543.8000488281</ele>
        <time>2020-06-26T13:21:06.000Z</time>
      </trkpt>
      <trkpt lat="45.62696" lon="6.8365">
        <ele>1542.4000244141</ele>
        <time>2020-06-26T13:21:07.000Z</time>
      </trkpt>
      <trkpt lat="45.62686" lon="6.83657">
        <ele>1541.1999511719</ele>
        <time>2020-06-26T13:21:08.000Z</time>
      </trkpt>
      <trkpt lat="45.62677" lon="6.83664">
        <ele>1540.1999511719</ele>
        <time>2020-06-26T13:21:09.000Z</time>
      </trkpt>
      <trkpt lat="45.62667" lon="6.83673">
        <ele>1539</ele>
        <time>2020-06-26T13:21:10.000Z</time>
      </trkpt>
      <trkpt lat="45.62658" lon="6.83683">
        <ele>1538</ele>
        <time>2020-06-26T13:21:11.000Z</time>
      </trkpt>
      <trkpt lat="45.62642" lon="6.83709">
        <ele>1536.4000244141</ele>
        <time>2020-06-26T13:21:13.000Z</time>
      </trkpt>
      <trkpt lat="45.62635" lon="6.83723">
        <ele>1535.8000488281</ele>
        <time>2020-06-26T13:21:14.000Z</time>
      </trkpt>
      <trkpt lat="45.62629" lon="6.83738">
        <ele>1535.4000244141</ele>
        <time>2020-06-26T13:21:15.000Z</time>
      </trkpt>
      <trkpt lat="45.62606" lon="6.8378">
        <ele>1534.8000488281</ele>
        <time>2020-06-26T13:21:18.000Z</time>
      </trkpt>
      <trkpt lat="45.62579" lon="6.83815">
        <ele>1533.8000488281</ele>
        <time>2020-06-26T13:21:21.000Z</time>
      </trkpt>
      <trkpt lat="45.6257" lon="6.83828">
        <ele>1533</ele>
        <time>2020-06-26T13:21:22.000Z</time>
      </trkpt>
      <trkpt lat="45.62562" lon="6.83841">
        <ele>1532</ele>
        <time>2020-06-26T13:21:23.000Z</time>
      </trkpt>
      <trkpt lat="45.62552" lon="6.83853">
        <ele>1531.1999511719</ele>
        <time>2020-06-26T13:21:24.000Z</time>
      </trkpt>
      <trkpt lat="45.62542" lon="6.83862">
        <ele>1530.4000244141</ele>
        <time>2020-06-26T13:21:25.000Z</time>
      </trkpt>
      <trkpt lat="45.62521" lon="6.83877">
        <ele>1529</ele>
        <time>2020-06-26T13:21:27.000Z</time>
      </trkpt>
      <trkpt lat="45.6251" lon="6.83879">
        <ele>1528</ele>
        <time>2020-06-26T13:21:28.000Z</time>
      </trkpt>
      <trkpt lat="45.62498" lon="6.83879">
        <ele>1527.1999511719</ele>
        <time>2020-06-26T13:21:29.000Z</time>
      </trkpt>
      <trkpt lat="45.62474" lon="6.83879">
        <ele>1526</ele>
        <time>2020-06-26T13:21:31.000Z</time>
      </trkpt>
      <trkpt lat="45.62462" lon="6.83881">
        <ele>1525.1999511719</ele>
        <time>2020-06-26T13:21:32.000Z</time>
      </trkpt>
      <trkpt lat="45.6245" lon="6.83884">
        <ele>1524.1999511719</ele>
        <time>2020-06-26T13:21:33.000Z</time>
      </trkpt>
      <trkpt lat="45.62425" lon="6.83897">
        <ele>1523.1999511719</ele>
        <time>2020-06-26T13:21:35.000Z</time>
      </trkpt>
      <trkpt lat="45.6239" lon="6.83928">
        <ele>1522.1999511719</ele>
        <time>2020-06-26T13:21:38.000Z</time>
      </trkpt>
      <trkpt lat="45.6238" lon="6.83942">
        <ele>1521.8000488281</ele>
        <time>2020-06-26T13:21:39.000Z</time>
      </trkpt>
      <trkpt lat="45.62359" lon="6.83972">
        <ele>1520.5999755859</ele>
        <time>2020-06-26T13:21:41.000Z</time>
      </trkpt>
      <trkpt lat="45.6235" lon="6.83987">
        <ele>1520</ele>
        <time>2020-06-26T13:21:42.000Z</time>
      </trkpt>
      <trkpt lat="45.62341" lon="6.84002">
        <ele>1518.5999755859</ele>
        <time>2020-06-26T13:21:43.000Z</time>
      </trkpt>
      <trkpt lat="45.62321" lon="6.84027">
        <ele>1516.5999755859</ele>
        <time>2020-06-26T13:21:45.000Z</time>
      </trkpt>
      <trkpt lat="45.62311" lon="6.84038">
        <ele>1515.8000488281</ele>
        <time>2020-06-26T13:21:46.000Z</time>
      </trkpt>
      <trkpt lat="45.62299" lon="6.84045">
        <ele>1515.1999511719</ele>
        <time>2020-06-26T13:21:47.000Z</time>
      </trkpt>
      <trkpt lat="45.62274" lon="6.84055">
        <ele>1514.5999755859</ele>
        <time>2020-06-26T13:21:49.000Z</time>
      </trkpt>
      <trkpt lat="45.62261" lon="6.84059">
        <ele>1513.8000488281</ele>
        <time>2020-06-26T13:21:50.000Z</time>
      </trkpt>
      <trkpt lat="45.62249" lon="6.84064">
        <ele>1512.4000244141</ele>
        <time>2020-06-26T13:21:51.000Z</time>
      </trkpt>
      <trkpt lat="45.62225" lon="6.84074">
        <ele>1510.8000488281</ele>
        <time>2020-06-26T13:21:53.000Z</time>
      </trkpt>
      <trkpt lat="45.62213" lon="6.84081">
        <ele>1510.1999511719</ele>
        <time>2020-06-26T13:21:54.000Z</time>
      </trkpt>
      <trkpt lat="45.62202" lon="6.84089">
        <ele>1509.8000488281</ele>
        <time>2020-06-26T13:21:55.000Z</time>
      </trkpt>
      <trkpt lat="45.62193" lon="6.841">
        <ele>1509.5999755859</ele>
        <time>2020-06-26T13:21:56.000Z</time>
      </trkpt>
      <trkpt lat="45.62185" lon="6.84113">
        <ele>1509.4000244141</ele>
        <time>2020-06-26T13:21:57.000Z</time>
      </trkpt>
      <trkpt lat="45.62161" lon="6.84154">
        <ele>1508.8000488281</ele>
        <time>2020-06-26T13:22:00.000Z</time>
      </trkpt>
      <trkpt lat="45.62151" lon="6.84166">
        <ele>1508.4000244141</ele>
        <time>2020-06-26T13:22:01.000Z</time>
      </trkpt>
      <trkpt lat="45.62113" lon="6.8421">
        <ele>1507.8000488281</ele>
        <time>2020-06-26T13:22:05.000Z</time>
      </trkpt>
      <trkpt lat="45.62097" lon="6.84237">
        <ele>1507.1999511719</ele>
        <time>2020-06-26T13:22:07.000Z</time>
      </trkpt>
      <trkpt lat="45.62082" lon="6.84267">
        <ele>1506.4000244141</ele>
        <time>2020-06-26T13:22:09.000Z</time>
      </trkpt>
      <trkpt lat="45.62068" lon="6.84297">
        <ele>1505</ele>
        <time>2020-06-26T13:22:11.000Z</time>
      </trkpt>
      <trkpt lat="45.62043" lon="6.84358">
        <ele>1503.5999755859</ele>
        <time>2020-06-26T13:22:15.000Z</time>
      </trkpt>
      <trkpt lat="45.62032" lon="6.8439">
        <ele>1501.8000488281</ele>
        <time>2020-06-26T13:22:17.000Z</time>
      </trkpt>
      <trkpt lat="45.62025" lon="6.84405">
        <ele>1500.5999755859</ele>
        <time>2020-06-26T13:22:18.000Z</time>
      </trkpt>
      <trkpt lat="45.62011" lon="6.84433">
        <ele>1499.1999511719</ele>
        <time>2020-06-26T13:22:20.000Z</time>
      </trkpt>
      <trkpt lat="45.61991" lon="6.84471">
        <ele>1498.1999511719</ele>
        <time>2020-06-26T13:22:23.000Z</time>
      </trkpt>
      <trkpt lat="45.61987" lon="6.84485">
        <ele>1498</ele>
        <time>2020-06-26T13:22:24.000Z</time>
      </trkpt>
      <trkpt lat="45.6198" lon="6.84507">
        <ele>1496.8000488281</ele>
        <time>2020-06-26T13:22:26.000Z</time>
      </trkpt>
      <trkpt lat="45.61976" lon="6.84513">
        <ele>1496.1999511719</ele>
        <time>2020-06-26T13:22:27.000Z</time>
      </trkpt>
      <trkpt lat="45.61968" lon="6.84507">
        <ele>1495.8000488281</ele>
        <time>2020-06-26T13:22:29.000Z</time>
      </trkpt>
      <trkpt lat="45.61968" lon="6.84499">
        <ele>1495.4000244141</ele>
        <time>2020-06-26T13:22:30.000Z</time>
      </trkpt>
      <trkpt lat="45.6197" lon="6.84491">
        <ele>1495.1999511719</ele>
        <time>2020-06-26T13:22:31.000Z</time>
      </trkpt>
      <trkpt lat="45.61978" lon="6.84474">
        <ele>1494.8000488281</ele>
        <time>2020-06-26T13:22:33.000Z</time>
      </trkpt>
      <trkpt lat="45.61988" lon="6.84455">
        <ele>1494.4000244141</ele>
        <time>2020-06-26T13:22:35.000Z</time>
      </trkpt>
      <trkpt lat="45.61993" lon="6.84446">
        <ele>1494.1999511719</ele>
        <time>2020-06-26T13:22:36.000Z</time>
      </trkpt>
      <trkpt lat="45.62015" lon="6.84402">
        <ele>1493.5999755859</ele>
        <time>2020-06-26T13:22:40.000Z</time>
      </trkpt>
      <trkpt lat="45.6202" lon="6.8439">
        <ele>1493.4000244141</ele>
        <time>2020-06-26T13:22:41.000Z</time>
      </trkpt>
      <trkpt lat="45.62027" lon="6.84365">
        <ele>1492</ele>
        <time>2020-06-26T13:22:43.000Z</time>
      </trkpt>
      <trkpt lat="45.62034" lon="6.8434">
        <ele>1491.1999511719</ele>
        <time>2020-06-26T13:22:45.000Z</time>
      </trkpt>
      <trkpt lat="45.62038" lon="6.84327">
        <ele>1490.5999755859</ele>
        <time>2020-06-26T13:22:46.000Z</time>
      </trkpt>
      <trkpt lat="45.62044" lon="6.84302">
        <ele>1489.5999755859</ele>
        <time>2020-06-26T13:22:48.000Z</time>
      </trkpt>
      <trkpt lat="45.62056" lon="6.84262">
        <ele>1488.1999511719</ele>
        <time>2020-06-26T13:22:51.000Z</time>
      </trkpt>
      <trkpt lat="45.62061" lon="6.84249">
        <ele>1488</ele>
        <time>2020-06-26T13:22:52.000Z</time>
      </trkpt>
      <trkpt lat="45.62074" lon="6.84209">
        <ele>1487</ele>
        <time>2020-06-26T13:22:55.000Z</time>
      </trkpt>
      <trkpt lat="45.62094" lon="6.84157">
        <ele>1485.8000488281</ele>
        <time>2020-06-26T13:22:59.000Z</time>
      </trkpt>
      <trkpt lat="45.62102" lon="6.84146">
        <ele>1485.4000244141</ele>
        <time>2020-06-26T13:23:00.000Z</time>
      </trkpt>
      <trkpt lat="45.62109" lon="6.84136">
        <ele>1484.5999755859</ele>
        <time>2020-06-26T13:23:01.000Z</time>
      </trkpt>
      <trkpt lat="45.62125" lon="6.84116">
        <ele>1482.8000488281</ele>
        <time>2020-06-26T13:23:03.000Z</time>
      </trkpt>
      <trkpt lat="45.62132" lon="6.84105">
        <ele>1481.8000488281</ele>
        <time>2020-06-26T13:23:04.000Z</time>
      </trkpt>
      <trkpt lat="45.62147" lon="6.84084">
        <ele>1480</ele>
        <time>2020-06-26T13:23:06.000Z</time>
      </trkpt>
      <trkpt lat="45.62162" lon="6.84064">
        <ele>1478.5999755859</ele>
        <time>2020-06-26T13:23:08.000Z</time>
      </trkpt>
      <trkpt lat="45.62178" lon="6.84043">
        <ele>1476.5999755859</ele>
        <time>2020-06-26T13:23:10.000Z</time>
      </trkpt>
      <trkpt lat="45.62194" lon="6.84021">
        <ele>1475</ele>
        <time>2020-06-26T13:23:12.000Z</time>
      </trkpt>
      <trkpt lat="45.62202" lon="6.8401">
        <ele>1474.1999511719</ele>
        <time>2020-06-26T13:23:13.000Z</time>
      </trkpt>
      <trkpt lat="45.6221" lon="6.83998">
        <ele>1473.5999755859</ele>
        <time>2020-06-26T13:23:14.000Z</time>
      </trkpt>
      <trkpt lat="45.62235" lon="6.83963">
        <ele>1472.4000244141</ele>
        <time>2020-06-26T13:23:17.000Z</time>
      </trkpt>
      <trkpt lat="45.62251" lon="6.83938">
        <ele>1471.1999511719</ele>
        <time>2020-06-26T13:23:19.000Z</time>
      </trkpt>
      <trkpt lat="45.62258" lon="6.83925">
        <ele>1470.5999755859</ele>
        <time>2020-06-26T13:23:20.000Z</time>
      </trkpt>
      <trkpt lat="45.62264" lon="6.8391">
        <ele>1469.8000488281</ele>
        <time>2020-06-26T13:23:21.000Z</time>
      </trkpt>
      <trkpt lat="45.6227" lon="6.83896">
        <ele>1468.8000488281</ele>
        <time>2020-06-26T13:23:22.000Z</time>
      </trkpt>
      <trkpt lat="45.62275" lon="6.83881">
        <ele>1467.4000244141</ele>
        <time>2020-06-26T13:23:23.000Z</time>
      </trkpt>
      <trkpt lat="45.6228" lon="6.83866">
        <ele>1466.1999511719</ele>
        <time>2020-06-26T13:23:24.000Z</time>
      </trkpt>
      <trkpt lat="45.62291" lon="6.83838">
        <ele>1465</ele>
        <time>2020-06-26T13:23:26.000Z</time>
      </trkpt>
      <trkpt lat="45.62304" lon="6.83813">
        <ele>1464.1999511719</ele>
        <time>2020-06-26T13:23:28.000Z</time>
      </trkpt>
      <trkpt lat="45.62313" lon="6.83803">
        <ele>1463.8000488281</ele>
        <time>2020-06-26T13:23:29.000Z</time>
      </trkpt>
      <trkpt lat="45.62333" lon="6.83791">
        <ele>1463</ele>
        <time>2020-06-26T13:23:31.000Z</time>
      </trkpt>
      <trkpt lat="45.62343" lon="6.83785">
        <ele>1462.5999755859</ele>
        <time>2020-06-26T13:23:32.000Z</time>
      </trkpt>
      <trkpt lat="45.62352" lon="6.83779">
        <ele>1462.4000244141</ele>
        <time>2020-06-26T13:23:33.000Z</time>
      </trkpt>
      <trkpt lat="45.62368" lon="6.83759">
        <ele>1461.4000244141</ele>
        <time>2020-06-26T13:23:35.000Z</time>
      </trkpt>
      <trkpt lat="45.62395" lon="6.83709">
        <ele>1460.4000244141</ele>
        <time>2020-06-26T13:23:39.000Z</time>
      </trkpt>
      <trkpt lat="45.62419" lon="6.83675">
        <ele>1459.4000244141</ele>
        <time>2020-06-26T13:23:42.000Z</time>
      </trkpt>
      <trkpt lat="45.62427" lon="6.83644">
        <ele>1459</ele>
        <time>2020-06-26T13:23:44.000Z</time>
      </trkpt>
      <trkpt lat="45.62429" lon="6.83627">
        <ele>1458.8000488281</ele>
        <time>2020-06-26T13:23:45.000Z</time>
      </trkpt>
      <trkpt lat="45.62432" lon="6.83611">
        <ele>1458</ele>
        <time>2020-06-26T13:23:46.000Z</time>
      </trkpt>
      <trkpt lat="45.62446" lon="6.83585">
        <ele>1456.5999755859</ele>
        <time>2020-06-26T13:23:48.000Z</time>
      </trkpt>
      <trkpt lat="45.62464" lon="6.83568">
        <ele>1454.8000488281</ele>
        <time>2020-06-26T13:23:50.000Z</time>
      </trkpt>
      <trkpt lat="45.62474" lon="6.8356">
        <ele>1454.1999511719</ele>
        <time>2020-06-26T13:23:51.000Z</time>
      </trkpt>
      <trkpt lat="45.62484" lon="6.83551">
        <ele>1453.5999755859</ele>
        <time>2020-06-26T13:23:52.000Z</time>
      </trkpt>
      <trkpt lat="45.62504" lon="6.83534">
        <ele>1452.5999755859</ele>
        <time>2020-06-26T13:23:54.000Z</time>
      </trkpt>
      <trkpt lat="45.62524" lon="6.83518">
        <ele>1450.8000488281</ele>
        <time>2020-06-26T13:23:56.000Z</time>
      </trkpt>
      <trkpt lat="45.62544" lon="6.835">
        <ele>1449.5999755859</ele>
        <time>2020-06-26T13:23:58.000Z</time>
      </trkpt>
      <trkpt lat="45.62562" lon="6.83479">
        <ele>1449</ele>
        <time>2020-06-26T13:24:00.000Z</time>
      </trkpt>
      <trkpt lat="45.62572" lon="6.83449">
        <ele>1448.8000488281</ele>
        <time>2020-06-26T13:24:02.000Z</time>
      </trkpt>
      <trkpt lat="45.62578" lon="6.83417">
        <ele>1448.1999511719</ele>
        <time>2020-06-26T13:24:04.000Z</time>
      </trkpt>
      <trkpt lat="45.6258" lon="6.83401">
        <ele>1447.5999755859</ele>
        <time>2020-06-26T13:24:05.000Z</time>
      </trkpt>
      <trkpt lat="45.62583" lon="6.83385">
        <ele>1446.4000244141</ele>
        <time>2020-06-26T13:24:06.000Z</time>
      </trkpt>
      <trkpt lat="45.62595" lon="6.83359">
        <ele>1444.5999755859</ele>
        <time>2020-06-26T13:24:08.000Z</time>
      </trkpt>
      <trkpt lat="45.62604" lon="6.83349">
        <ele>1443.5999755859</ele>
        <time>2020-06-26T13:24:09.000Z</time>
      </trkpt>
      <trkpt lat="45.62614" lon="6.83341">
        <ele>1442.8000488281</ele>
        <time>2020-06-26T13:24:10.000Z</time>
      </trkpt>
      <trkpt lat="45.62623" lon="6.83331">
        <ele>1442.4000244141</ele>
        <time>2020-06-26T13:24:11.000Z</time>
      </trkpt>
      <trkpt lat="45.62631" lon="6.8332">
        <ele>1442</ele>
        <time>2020-06-26T13:24:12.000Z</time>
      </trkpt>
      <trkpt lat="45.62638" lon="6.83306">
        <ele>1441</ele>
        <time>2020-06-26T13:24:13.000Z</time>
      </trkpt>
      <trkpt lat="45.62643" lon="6.83292">
        <ele>1440.1999511719</ele>
        <time>2020-06-26T13:24:14.000Z</time>
      </trkpt>
      <trkpt lat="45.62648" lon="6.83277">
        <ele>1439.8000488281</ele>
        <time>2020-06-26T13:24:15.000Z</time>
      </trkpt>
      <trkpt lat="45.62668" lon="6.83217">
        <ele>1439</ele>
        <time>2020-06-26T13:24:19.000Z</time>
      </trkpt>
      <trkpt lat="45.62674" lon="6.83202">
        <ele>1438.8000488281</ele>
        <time>2020-06-26T13:24:20.000Z</time>
      </trkpt>
      <trkpt lat="45.62679" lon="6.83187">
        <ele>1438.1999511719</ele>
        <time>2020-06-26T13:24:21.000Z</time>
      </trkpt>
      <trkpt lat="45.62683" lon="6.83172">
        <ele>1437.8000488281</ele>
        <time>2020-06-26T13:24:22.000Z</time>
      </trkpt>
      <trkpt lat="45.62687" lon="6.83155">
        <ele>1437.5999755859</ele>
        <time>2020-06-26T13:24:23.000Z</time>
      </trkpt>
      <trkpt lat="45.6269" lon="6.83122">
        <ele>1437.1999511719</ele>
        <time>2020-06-26T13:24:25.000Z</time>
      </trkpt>
      <trkpt lat="45.62693" lon="6.83105">
        <ele>1437</ele>
        <time>2020-06-26T13:24:26.000Z</time>
      </trkpt>
      <trkpt lat="45.62696" lon="6.83089">
        <ele>1436.8000488281</ele>
        <time>2020-06-26T13:24:27.000Z</time>
      </trkpt>
      <trkpt lat="45.627" lon="6.83074">
        <ele>1436.1999511719</ele>
        <time>2020-06-26T13:24:28.000Z</time>
      </trkpt>
      <trkpt lat="45.62707" lon="6.83042">
        <ele>1435.4000244141</ele>
        <time>2020-06-26T13:24:30.000Z</time>
      </trkpt>
      <trkpt lat="45.62708" lon="6.83025">
        <ele>1434.5999755859</ele>
        <time>2020-06-26T13:24:31.000Z</time>
      </trkpt>
      <trkpt lat="45.62701" lon="6.82993">
        <ele>1432.8000488281</ele>
        <time>2020-06-26T13:24:33.000Z</time>
      </trkpt>
      <trkpt lat="45.6269" lon="6.82963">
        <ele>1431</ele>
        <time>2020-06-26T13:24:35.000Z</time>
      </trkpt>
      <trkpt lat="45.62668" lon="6.82903">
        <ele>1429.8000488281</ele>
        <time>2020-06-26T13:24:39.000Z</time>
      </trkpt>
      <trkpt lat="45.62656" lon="6.82873">
        <ele>1428.1999511719</ele>
        <time>2020-06-26T13:24:41.000Z</time>
      </trkpt>
      <trkpt lat="45.62646" lon="6.82844">
        <ele>1427</ele>
        <time>2020-06-26T13:24:43.000Z</time>
      </trkpt>
      <trkpt lat="45.62641" lon="6.8283">
        <ele>1426.5999755859</ele>
        <time>2020-06-26T13:24:44.000Z</time>
      </trkpt>
      <trkpt lat="45.62638" lon="6.82817">
        <ele>1426.4000244141</ele>
        <time>2020-06-26T13:24:45.000Z</time>
      </trkpt>
      <trkpt lat="45.6264" lon="6.82794">
        <ele>1425.8000488281</ele>
        <time>2020-06-26T13:24:47.000Z</time>
      </trkpt>
      <trkpt lat="45.62651" lon="6.82777">
        <ele>1424</ele>
        <time>2020-06-26T13:24:49.000Z</time>
      </trkpt>
      <trkpt lat="45.62667" lon="6.82768">
        <ele>1422.8000488281</ele>
        <time>2020-06-26T13:24:51.000Z</time>
      </trkpt>
      <trkpt lat="45.62676" lon="6.82765">
        <ele>1422.5999755859</ele>
        <time>2020-06-26T13:24:52.000Z</time>
      </trkpt>
      <trkpt lat="45.62713" lon="6.82749">
        <ele>1422</ele>
        <time>2020-06-26T13:24:56.000Z</time>
      </trkpt>
      <trkpt lat="45.62721" lon="6.8274">
        <ele>1421.5999755859</ele>
        <time>2020-06-26T13:24:57.000Z</time>
      </trkpt>
      <trkpt lat="45.62743" lon="6.82708">
        <ele>1420.5999755859</ele>
        <time>2020-06-26T13:25:00.000Z</time>
      </trkpt>
      <trkpt lat="45.62752" lon="6.82701">
        <ele>1420.4000244141</ele>
        <time>2020-06-26T13:25:01.000Z</time>
      </trkpt>
      <trkpt lat="45.62762" lon="6.82699">
        <ele>1420.4000244141</ele>
        <time>2020-06-26T13:25:02.000Z</time>
      </trkpt>
      <trkpt lat="45.62782" lon="6.82703">
        <ele>1419.5999755859</ele>
        <time>2020-06-26T13:25:04.000Z</time>
      </trkpt>
      <trkpt lat="45.62792" lon="6.82707">
        <ele>1418.8000488281</ele>
        <time>2020-06-26T13:25:05.000Z</time>
      </trkpt>
      <trkpt lat="45.62803" lon="6.82711">
        <ele>1417.8000488281</ele>
        <time>2020-06-26T13:25:06.000Z</time>
      </trkpt>
      <trkpt lat="45.62813" lon="6.82712">
        <ele>1416.8000488281</ele>
        <time>2020-06-26T13:25:07.000Z</time>
      </trkpt>
      <trkpt lat="45.62822" lon="6.82707">
        <ele>1416.1999511719</ele>
        <time>2020-06-26T13:25:08.000Z</time>
      </trkpt>
      <trkpt lat="45.62823" lon="6.82689">
        <ele>1415.5999755859</ele>
        <time>2020-06-26T13:25:10.000Z</time>
      </trkpt>
      <trkpt lat="45.62811" lon="6.82677">
        <ele>1415.4000244141</ele>
        <time>2020-06-26T13:25:12.000Z</time>
      </trkpt>
      <trkpt lat="45.62795" lon="6.82672">
        <ele>1415.1999511719</ele>
        <time>2020-06-26T13:25:14.000Z</time>
      </trkpt>
      <trkpt lat="45.62785" lon="6.8267">
        <ele>1415.1999511719</ele>
        <time>2020-06-26T13:25:15.000Z</time>
      </trkpt>
      <trkpt lat="45.62747" lon="6.82665">
        <ele>1415</ele>
        <time>2020-06-26T13:25:19.000Z</time>
      </trkpt>
      <trkpt lat="45.62737" lon="6.82667">
        <ele>1415</ele>
        <time>2020-06-26T13:25:20.000Z</time>
      </trkpt>
      <trkpt lat="45.62718" lon="6.82677">
        <ele>1413.1999511719</ele>
        <time>2020-06-26T13:25:22.000Z</time>
      </trkpt>
      <trkpt lat="45.62708" lon="6.82683">
        <ele>1412.1999511719</ele>
        <time>2020-06-26T13:25:23.000Z</time>
      </trkpt>
      <trkpt lat="45.62698" lon="6.82688">
        <ele>1411.4000244141</ele>
        <time>2020-06-26T13:25:24.000Z</time>
      </trkpt>
      <trkpt lat="45.62687" lon="6.8269">
        <ele>1411</ele>
        <time>2020-06-26T13:25:25.000Z</time>
      </trkpt>
      <trkpt lat="45.62676" lon="6.8269">
        <ele>1410.4000244141</ele>
        <time>2020-06-26T13:25:26.000Z</time>
      </trkpt>
      <trkpt lat="45.62664" lon="6.8269">
        <ele>1409.8000488281</ele>
        <time>2020-06-26T13:25:27.000Z</time>
      </trkpt>
      <trkpt lat="45.6264" lon="6.82693">
        <ele>1408.5999755859</ele>
        <time>2020-06-26T13:25:29.000Z</time>
      </trkpt>
      <trkpt lat="45.62628" lon="6.82698">
        <ele>1408.1999511719</ele>
        <time>2020-06-26T13:25:30.000Z</time>
      </trkpt>
      <trkpt lat="45.62617" lon="6.82704">
        <ele>1407.5999755859</ele>
        <time>2020-06-26T13:25:31.000Z</time>
      </trkpt>
      <trkpt lat="45.62596" lon="6.82719">
        <ele>1405.8000488281</ele>
        <time>2020-06-26T13:25:33.000Z</time>
      </trkpt>
      <trkpt lat="45.62587" lon="6.8273">
        <ele>1404.8000488281</ele>
        <time>2020-06-26T13:25:34.000Z</time>
      </trkpt>
      <trkpt lat="45.62579" lon="6.82742">
        <ele>1404</ele>
        <time>2020-06-26T13:25:35.000Z</time>
      </trkpt>
      <trkpt lat="45.62567" lon="6.82773">
        <ele>1402.5999755859</ele>
        <time>2020-06-26T13:25:37.000Z</time>
      </trkpt>
      <trkpt lat="45.62562" lon="6.82807">
        <ele>1401.4000244141</ele>
        <time>2020-06-26T13:25:39.000Z</time>
      </trkpt>
      <trkpt lat="45.62569" lon="6.82861">
        <ele>1400.4000244141</ele>
        <time>2020-06-26T13:25:42.000Z</time>
      </trkpt>
      <trkpt lat="45.6257" lon="6.82878">
        <ele>1400.1999511719</ele>
        <time>2020-06-26T13:25:43.000Z</time>
      </trkpt>
      <trkpt lat="45.62567" lon="6.82915">
        <ele>1399.4000244141</ele>
        <time>2020-06-26T13:25:45.000Z</time>
      </trkpt>
      <trkpt lat="45.62564" lon="6.82932">
        <ele>1398.8000488281</ele>
        <time>2020-06-26T13:25:46.000Z</time>
      </trkpt>
      <trkpt lat="45.62562" lon="6.8295">
        <ele>1397.5999755859</ele>
        <time>2020-06-26T13:25:47.000Z</time>
      </trkpt>
      <trkpt lat="45.62561" lon="6.82968">
        <ele>1396.5999755859</ele>
        <time>2020-06-26T13:25:48.000Z</time>
      </trkpt>
      <trkpt lat="45.62561" lon="6.82986">
        <ele>1395.4000244141</ele>
        <time>2020-06-26T13:25:49.000Z</time>
      </trkpt>
      <trkpt lat="45.62562" lon="6.83004">
        <ele>1394</ele>
        <time>2020-06-26T13:25:50.000Z</time>
      </trkpt>
      <trkpt lat="45.62563" lon="6.83022">
        <ele>1392.5999755859</ele>
        <time>2020-06-26T13:25:51.000Z</time>
      </trkpt>
      <trkpt lat="45.62565" lon="6.8304">
        <ele>1391.4000244141</ele>
        <time>2020-06-26T13:25:52.000Z</time>
      </trkpt>
      <trkpt lat="45.62566" lon="6.83057">
        <ele>1390.5999755859</ele>
        <time>2020-06-26T13:25:53.000Z</time>
      </trkpt>
      <trkpt lat="45.62569" lon="6.83075">
        <ele>1390.1999511719</ele>
        <time>2020-06-26T13:25:54.000Z</time>
      </trkpt>
      <trkpt lat="45.62572" lon="6.8311">
        <ele>1389.5999755859</ele>
        <time>2020-06-26T13:25:56.000Z</time>
      </trkpt>
      <trkpt lat="45.62571" lon="6.83126">
        <ele>1389.1999511719</ele>
        <time>2020-06-26T13:25:57.000Z</time>
      </trkpt>
      <trkpt lat="45.62568" lon="6.83141">
        <ele>1388.5999755859</ele>
        <time>2020-06-26T13:25:58.000Z</time>
      </trkpt>
      <trkpt lat="45.62555" lon="6.83166">
        <ele>1387.1999511719</ele>
        <time>2020-06-26T13:26:00.000Z</time>
      </trkpt>
      <trkpt lat="45.62538" lon="6.83183">
        <ele>1386.1999511719</ele>
        <time>2020-06-26T13:26:02.000Z</time>
      </trkpt>
      <trkpt lat="45.6253" lon="6.83191">
        <ele>1385.5999755859</ele>
        <time>2020-06-26T13:26:03.000Z</time>
      </trkpt>
      <trkpt lat="45.62522" lon="6.83197">
        <ele>1384.5999755859</ele>
        <time>2020-06-26T13:26:04.000Z</time>
      </trkpt>
      <trkpt lat="45.6251" lon="6.83197">
        <ele>1383.1999511719</ele>
        <time>2020-06-26T13:26:06.000Z</time>
      </trkpt>
      <trkpt lat="45.6251" lon="6.83181">
        <ele>1382.8000488281</ele>
        <time>2020-06-26T13:26:08.000Z</time>
      </trkpt>
      <trkpt lat="45.62522" lon="6.83169">
        <ele>1382.4000244141</ele>
        <time>2020-06-26T13:26:10.000Z</time>
      </trkpt>
      <trkpt lat="45.62529" lon="6.83165">
        <ele>1382.1999511719</ele>
        <time>2020-06-26T13:26:11.000Z</time>
      </trkpt>
      <trkpt lat="45.62537" lon="6.8316">
        <ele>1382</ele>
        <time>2020-06-26T13:26:12.000Z</time>
      </trkpt>
      <trkpt lat="45.62549" lon="6.83142">
        <ele>1382</ele>
        <time>2020-06-26T13:26:14.000Z</time>
      </trkpt>
      <trkpt lat="45.62555" lon="6.83104">
        <ele>1381.4000244141</ele>
        <time>2020-06-26T13:26:17.000Z</time>
      </trkpt>
      <trkpt lat="45.62545" lon="6.83063">
        <ele>1381</ele>
        <time>2020-06-26T13:26:20.000Z</time>
      </trkpt>
      <trkpt lat="45.62525" lon="6.83027">
        <ele>1380.4000244141</ele>
        <time>2020-06-26T13:26:23.000Z</time>
      </trkpt>
      <trkpt lat="45.62519" lon="6.83014">
        <ele>1380.4000244141</ele>
        <time>2020-06-26T13:26:24.000Z</time>
      </trkpt>
      <trkpt lat="45.62515" lon="6.82999">
        <ele>1379.5999755859</ele>
        <time>2020-06-26T13:26:25.000Z</time>
      </trkpt>
      <trkpt lat="45.62513" lon="6.82983">
        <ele>1378.8000488281</ele>
        <time>2020-06-26T13:26:26.000Z</time>
      </trkpt>
      <trkpt lat="45.62513" lon="6.82948">
        <ele>1376.8000488281</ele>
        <time>2020-06-26T13:26:28.000Z</time>
      </trkpt>
      <trkpt lat="45.62514" lon="6.82914">
        <ele>1375.8000488281</ele>
        <time>2020-06-26T13:26:30.000Z</time>
      </trkpt>
      <trkpt lat="45.62516" lon="6.82896">
        <ele>1375.5999755859</ele>
        <time>2020-06-26T13:26:31.000Z</time>
      </trkpt>
      <trkpt lat="45.62518" lon="6.82878">
        <ele>1375.1999511719</ele>
        <time>2020-06-26T13:26:32.000Z</time>
      </trkpt>
      <trkpt lat="45.62522" lon="6.82842">
        <ele>1374.4000244141</ele>
        <time>2020-06-26T13:26:34.000Z</time>
      </trkpt>
      <trkpt lat="45.62522" lon="6.82824">
        <ele>1373.4000244141</ele>
        <time>2020-06-26T13:26:35.000Z</time>
      </trkpt>
      <trkpt lat="45.62521" lon="6.82806">
        <ele>1372.4000244141</ele>
        <time>2020-06-26T13:26:36.000Z</time>
      </trkpt>
      <trkpt lat="45.62519" lon="6.82788">
        <ele>1371.4000244141</ele>
        <time>2020-06-26T13:26:37.000Z</time>
      </trkpt>
      <trkpt lat="45.62514" lon="6.82771">
        <ele>1370</ele>
        <time>2020-06-26T13:26:38.000Z</time>
      </trkpt>
      <trkpt lat="45.62507" lon="6.82755">
        <ele>1369.4000244141</ele>
        <time>2020-06-26T13:26:39.000Z</time>
      </trkpt>
      <trkpt lat="45.62499" lon="6.82741">
        <ele>1369</ele>
        <time>2020-06-26T13:26:40.000Z</time>
      </trkpt>
      <trkpt lat="45.62492" lon="6.82727">
        <ele>1368</ele>
        <time>2020-06-26T13:26:41.000Z</time>
      </trkpt>
      <trkpt lat="45.62487" lon="6.82713">
        <ele>1367</ele>
        <time>2020-06-26T13:26:42.000Z</time>
      </trkpt>
      <trkpt lat="45.62486" lon="6.82684">
        <ele>1365.4000244141</ele>
        <time>2020-06-26T13:26:44.000Z</time>
      </trkpt>
      <trkpt lat="45.62496" lon="6.82657">
        <ele>1363.8000488281</ele>
        <time>2020-06-26T13:26:46.000Z</time>
      </trkpt>
      <trkpt lat="45.62502" lon="6.82644">
        <ele>1363</ele>
        <time>2020-06-26T13:26:47.000Z</time>
      </trkpt>
      <trkpt lat="45.62509" lon="6.82631">
        <ele>1362</ele>
        <time>2020-06-26T13:26:48.000Z</time>
      </trkpt>
      <trkpt lat="45.62515" lon="6.82617">
        <ele>1360.8000488281</ele>
        <time>2020-06-26T13:26:49.000Z</time>
      </trkpt>
      <trkpt lat="45.62535" lon="6.82577">
        <ele>1359</ele>
        <time>2020-06-26T13:26:52.000Z</time>
      </trkpt>
      <trkpt lat="45.62542" lon="6.82565">
        <ele>1358</ele>
        <time>2020-06-26T13:26:53.000Z</time>
      </trkpt>
      <trkpt lat="45.6255" lon="6.82554">
        <ele>1357.1999511719</ele>
        <time>2020-06-26T13:26:54.000Z</time>
      </trkpt>
      <trkpt lat="45.62577" lon="6.82524">
        <ele>1355</ele>
        <time>2020-06-26T13:26:57.000Z</time>
      </trkpt>
      <trkpt lat="45.62586" lon="6.82515">
        <ele>1354.1999511719</ele>
        <time>2020-06-26T13:26:58.000Z</time>
      </trkpt>
      <trkpt lat="45.62596" lon="6.82507">
        <ele>1353.4000244141</ele>
        <time>2020-06-26T13:26:59.000Z</time>
      </trkpt>
      <trkpt lat="45.62628" lon="6.82485">
        <ele>1352.4000244141</ele>
        <time>2020-06-26T13:27:02.000Z</time>
      </trkpt>
      <trkpt lat="45.6264" lon="6.82477">
        <ele>1352.4000244141</ele>
        <time>2020-06-26T13:27:03.000Z</time>
      </trkpt>
      <trkpt lat="45.62674" lon="6.82454">
        <ele>1350.5999755859</ele>
        <time>2020-06-26T13:27:06.000Z</time>
      </trkpt>
      <trkpt lat="45.62686" lon="6.82448">
        <ele>1350.1999511719</ele>
        <time>2020-06-26T13:27:07.000Z</time>
      </trkpt>
      <trkpt lat="45.62699" lon="6.82444">
        <ele>1349.8000488281</ele>
        <time>2020-06-26T13:27:08.000Z</time>
      </trkpt>
      <trkpt lat="45.62711" lon="6.82441">
        <ele>1349.4000244141</ele>
        <time>2020-06-26T13:27:09.000Z</time>
      </trkpt>
      <trkpt lat="45.62737" lon="6.82437">
        <ele>1349</ele>
        <time>2020-06-26T13:27:11.000Z</time>
      </trkpt>
      <trkpt lat="45.6275" lon="6.82433">
        <ele>1348.5999755859</ele>
        <time>2020-06-26T13:27:12.000Z</time>
      </trkpt>
      <trkpt lat="45.62775" lon="6.8242">
        <ele>1346.5999755859</ele>
        <time>2020-06-26T13:27:14.000Z</time>
      </trkpt>
      <trkpt lat="45.62788" lon="6.82413">
        <ele>1345.1999511719</ele>
        <time>2020-06-26T13:27:15.000Z</time>
      </trkpt>
      <trkpt lat="45.62801" lon="6.82406">
        <ele>1344</ele>
        <time>2020-06-26T13:27:16.000Z</time>
      </trkpt>
      <trkpt lat="45.62814" lon="6.824">
        <ele>1342.5999755859</ele>
        <time>2020-06-26T13:27:17.000Z</time>
      </trkpt>
      <trkpt lat="45.6284" lon="6.82392">
        <ele>1341</ele>
        <time>2020-06-26T13:27:19.000Z</time>
      </trkpt>
      <trkpt lat="45.62867" lon="6.82386">
        <ele>1339.4000244141</ele>
        <time>2020-06-26T13:27:21.000Z</time>
      </trkpt>
      <trkpt lat="45.6288" lon="6.8238">
        <ele>1338.5999755859</ele>
        <time>2020-06-26T13:27:22.000Z</time>
      </trkpt>
      <trkpt lat="45.62891" lon="6.8237">
        <ele>1337.8000488281</ele>
        <time>2020-06-26T13:27:23.000Z</time>
      </trkpt>
      <trkpt lat="45.62906" lon="6.82339">
        <ele>1336.4000244141</ele>
        <time>2020-06-26T13:27:25.000Z</time>
      </trkpt>
      <trkpt lat="45.6292" lon="6.82309">
        <ele>1334.4000244141</ele>
        <time>2020-06-26T13:27:27.000Z</time>
      </trkpt>
      <trkpt lat="45.62928" lon="6.82297">
        <ele>1333</ele>
        <time>2020-06-26T13:27:28.000Z</time>
      </trkpt>
      <trkpt lat="45.62937" lon="6.82289">
        <ele>1331.5999755859</ele>
        <time>2020-06-26T13:27:29.000Z</time>
      </trkpt>
      <trkpt lat="45.62947" lon="6.82284">
        <ele>1330.8000488281</ele>
        <time>2020-06-26T13:27:30.000Z</time>
      </trkpt>
      <trkpt lat="45.62957" lon="6.82282">
        <ele>1330.1999511719</ele>
        <time>2020-06-26T13:27:31.000Z</time>
      </trkpt>
      <trkpt lat="45.62973" lon="6.82272">
        <ele>1328.5999755859</ele>
        <time>2020-06-26T13:27:33.000Z</time>
      </trkpt>
      <trkpt lat="45.62974" lon="6.82252">
        <ele>1327.8000488281</ele>
        <time>2020-06-26T13:27:35.000Z</time>
      </trkpt>
      <trkpt lat="45.62961" lon="6.82243">
        <ele>1328</ele>
        <time>2020-06-26T13:27:37.000Z</time>
      </trkpt>
      <trkpt lat="45.62945" lon="6.82251">
        <ele>1327.5999755859</ele>
        <time>2020-06-26T13:27:39.000Z</time>
      </trkpt>
      <trkpt lat="45.62921" lon="6.82276">
        <ele>1327.1999511719</ele>
        <time>2020-06-26T13:27:42.000Z</time>
      </trkpt>
      <trkpt lat="45.62899" lon="6.8231">
        <ele>1326.8000488281</ele>
        <time>2020-06-26T13:27:45.000Z</time>
      </trkpt>
      <trkpt lat="45.62891" lon="6.82322">
        <ele>1326.8000488281</ele>
        <time>2020-06-26T13:27:46.000Z</time>
      </trkpt>
      <trkpt lat="45.62883" lon="6.82333">
        <ele>1326.8000488281</ele>
        <time>2020-06-26T13:27:47.000Z</time>
      </trkpt>
      <trkpt lat="45.62861" lon="6.82344">
        <ele>1326.8000488281</ele>
        <time>2020-06-26T13:27:49.000Z</time>
      </trkpt>
      <trkpt lat="45.62849" lon="6.82346">
        <ele>1326.4000244141</ele>
        <time>2020-06-26T13:27:50.000Z</time>
      </trkpt>
      <trkpt lat="45.62825" lon="6.82349">
        <ele>1324.5999755859</ele>
        <time>2020-06-26T13:27:52.000Z</time>
      </trkpt>
      <trkpt lat="45.628" lon="6.82352">
        <ele>1322.8000488281</ele>
        <time>2020-06-26T13:27:54.000Z</time>
      </trkpt>
      <trkpt lat="45.62787" lon="6.82353">
        <ele>1321.4000244141</ele>
        <time>2020-06-26T13:27:55.000Z</time>
      </trkpt>
      <trkpt lat="45.62774" lon="6.82353">
        <ele>1319.8000488281</ele>
        <time>2020-06-26T13:27:56.000Z</time>
      </trkpt>
      <trkpt lat="45.62761" lon="6.82353">
        <ele>1318.5999755859</ele>
        <time>2020-06-26T13:27:57.000Z</time>
      </trkpt>
      <trkpt lat="45.62748" lon="6.82352">
        <ele>1317.4000244141</ele>
        <time>2020-06-26T13:27:58.000Z</time>
      </trkpt>
      <trkpt lat="45.62736" lon="6.82351">
        <ele>1316.1999511719</ele>
        <time>2020-06-26T13:27:59.000Z</time>
      </trkpt>
      <trkpt lat="45.62722" lon="6.82351">
        <ele>1315.4000244141</ele>
        <time>2020-06-26T13:28:00.000Z</time>
      </trkpt>
      <trkpt lat="45.62698" lon="6.82356">
        <ele>1314.1999511719</ele>
        <time>2020-06-26T13:28:02.000Z</time>
      </trkpt>
      <trkpt lat="45.62673" lon="6.8236">
        <ele>1313</ele>
        <time>2020-06-26T13:28:04.000Z</time>
      </trkpt>
      <trkpt lat="45.62661" lon="6.82356">
        <ele>1312.1999511719</ele>
        <time>2020-06-26T13:28:05.000Z</time>
      </trkpt>
      <trkpt lat="45.62649" lon="6.8235">
        <ele>1311.4000244141</ele>
        <time>2020-06-26T13:28:06.000Z</time>
      </trkpt>
      <trkpt lat="45.62627" lon="6.82339">
        <ele>1310</ele>
        <time>2020-06-26T13:28:08.000Z</time>
      </trkpt>
      <trkpt lat="45.62616" lon="6.8234">
        <ele>1309</ele>
        <time>2020-06-26T13:28:09.000Z</time>
      </trkpt>
      <trkpt lat="45.62606" lon="6.82345">
        <ele>1308.4000244141</ele>
        <time>2020-06-26T13:28:10.000Z</time>
      </trkpt>
      <trkpt lat="45.62596" lon="6.82353">
        <ele>1307.5999755859</ele>
        <time>2020-06-26T13:28:11.000Z</time>
      </trkpt>
      <trkpt lat="45.62584" lon="6.82359">
        <ele>1307</ele>
        <time>2020-06-26T13:28:12.000Z</time>
      </trkpt>
      <trkpt lat="45.6256" lon="6.82365">
        <ele>1305.8000488281</ele>
        <time>2020-06-26T13:28:14.000Z</time>
      </trkpt>
      <trkpt lat="45.62537" lon="6.82372">
        <ele>1304.8000488281</ele>
        <time>2020-06-26T13:28:16.000Z</time>
      </trkpt>
      <trkpt lat="45.62513" lon="6.82382">
        <ele>1303.5999755859</ele>
        <time>2020-06-26T13:28:18.000Z</time>
      </trkpt>
      <trkpt lat="45.625" lon="6.82387">
        <ele>1303.1999511719</ele>
        <time>2020-06-26T13:28:19.000Z</time>
      </trkpt>
      <trkpt lat="45.62488" lon="6.82388">
        <ele>1302.5999755859</ele>
        <time>2020-06-26T13:28:20.000Z</time>
      </trkpt>
      <trkpt lat="45.62477" lon="6.82387">
        <ele>1302</ele>
        <time>2020-06-26T13:28:21.000Z</time>
      </trkpt>
      <trkpt lat="45.62466" lon="6.82384">
        <ele>1301</ele>
        <time>2020-06-26T13:28:22.000Z</time>
      </trkpt>
      <trkpt lat="45.62457" lon="6.82381">
        <ele>1300.4000244141</ele>
        <time>2020-06-26T13:28:23.000Z</time>
      </trkpt>
      <trkpt lat="45.62447" lon="6.82379">
        <ele>1300.1999511719</ele>
        <time>2020-06-26T13:28:24.000Z</time>
      </trkpt>
      <trkpt lat="45.62438" lon="6.82381">
        <ele>1299.8000488281</ele>
        <time>2020-06-26T13:28:25.000Z</time>
      </trkpt>
      <trkpt lat="45.6243" lon="6.82388">
        <ele>1299</ele>
        <time>2020-06-26T13:28:26.000Z</time>
      </trkpt>
      <trkpt lat="45.62422" lon="6.82399">
        <ele>1298</ele>
        <time>2020-06-26T13:28:27.000Z</time>
      </trkpt>
      <trkpt lat="45.62416" lon="6.82411">
        <ele>1297.1999511719</ele>
        <time>2020-06-26T13:28:28.000Z</time>
      </trkpt>
      <trkpt lat="45.62408" lon="6.82423">
        <ele>1296.8000488281</ele>
        <time>2020-06-26T13:28:29.000Z</time>
      </trkpt>
      <trkpt lat="45.624" lon="6.82434">
        <ele>1296.5999755859</ele>
        <time>2020-06-26T13:28:30.000Z</time>
      </trkpt>
      <trkpt lat="45.62381" lon="6.82453">
        <ele>1296.1999511719</ele>
        <time>2020-06-26T13:28:32.000Z</time>
      </trkpt>
      <trkpt lat="45.62362" lon="6.82473">
        <ele>1295.5999755859</ele>
        <time>2020-06-26T13:28:34.000Z</time>
      </trkpt>
      <trkpt lat="45.62345" lon="6.82497">
        <ele>1294.1999511719</ele>
        <time>2020-06-26T13:28:36.000Z</time>
      </trkpt>
      <trkpt lat="45.62337" lon="6.82511">
        <ele>1293</ele>
        <time>2020-06-26T13:28:37.000Z</time>
      </trkpt>
      <trkpt lat="45.62324" lon="6.82541">
        <ele>1291.1999511719</ele>
        <time>2020-06-26T13:28:39.000Z</time>
      </trkpt>
      <trkpt lat="45.62318" lon="6.82557">
        <ele>1290.4000244141</ele>
        <time>2020-06-26T13:28:40.000Z</time>
      </trkpt>
      <trkpt lat="45.62313" lon="6.82574">
        <ele>1289.5999755859</ele>
        <time>2020-06-26T13:28:41.000Z</time>
      </trkpt>
      <trkpt lat="45.6231" lon="6.82591">
        <ele>1289</ele>
        <time>2020-06-26T13:28:42.000Z</time>
      </trkpt>
      <trkpt lat="45.62309" lon="6.82608">
        <ele>1288</ele>
        <time>2020-06-26T13:28:43.000Z</time>
      </trkpt>
      <trkpt lat="45.62309" lon="6.82626">
        <ele>1286.8000488281</ele>
        <time>2020-06-26T13:28:44.000Z</time>
      </trkpt>
      <trkpt lat="45.62313" lon="6.82662">
        <ele>1285.1999511719</ele>
        <time>2020-06-26T13:28:46.000Z</time>
      </trkpt>
      <trkpt lat="45.62315" lon="6.82716">
        <ele>1283.1999511719</ele>
        <time>2020-06-26T13:28:49.000Z</time>
      </trkpt>
      <trkpt lat="45.62314" lon="6.82734">
        <ele>1282.4000244141</ele>
        <time>2020-06-26T13:28:50.000Z</time>
      </trkpt>
      <trkpt lat="45.62312" lon="6.82752">
        <ele>1281.4000244141</ele>
        <time>2020-06-26T13:28:51.000Z</time>
      </trkpt>
      <trkpt lat="45.62301" lon="6.82802">
        <ele>1280.4000244141</ele>
        <time>2020-06-26T13:28:54.000Z</time>
      </trkpt>
      <trkpt lat="45.62298" lon="6.82817">
        <ele>1279.5999755859</ele>
        <time>2020-06-26T13:28:55.000Z</time>
      </trkpt>
      <trkpt lat="45.62296" lon="6.82829">
        <ele>1279</ele>
        <time>2020-06-26T13:28:56.000Z</time>
      </trkpt>
      <trkpt lat="45.62291" lon="6.82838">
        <ele>1278.5999755859</ele>
        <time>2020-06-26T13:28:57.000Z</time>
      </trkpt>
      <trkpt lat="45.62285" lon="6.82841">
        <ele>1278</ele>
        <time>2020-06-26T13:28:58.000Z</time>
      </trkpt>
      <trkpt lat="45.6228" lon="6.82836">
        <ele>1277</ele>
        <time>2020-06-26T13:28:59.000Z</time>
      </trkpt>
      <trkpt lat="45.6228" lon="6.82817">
        <ele>1275.8000488281</ele>
        <time>2020-06-26T13:29:01.000Z</time>
      </trkpt>
      <trkpt lat="45.62287" lon="6.82797">
        <ele>1275.4000244141</ele>
        <time>2020-06-26T13:29:03.000Z</time>
      </trkpt>
      <trkpt lat="45.62294" lon="6.82775">
        <ele>1275.4000244141</ele>
        <time>2020-06-26T13:29:05.000Z</time>
      </trkpt>
      <trkpt lat="45.62298" lon="6.82764">
        <ele>1275</ele>
        <time>2020-06-26T13:29:06.000Z</time>
      </trkpt>
      <trkpt lat="45.623" lon="6.82751">
        <ele>1275</ele>
        <time>2020-06-26T13:29:07.000Z</time>
      </trkpt>
      <trkpt lat="45.62304" lon="6.82726">
        <ele>1274.5999755859</ele>
        <time>2020-06-26T13:29:09.000Z</time>
      </trkpt>
      <trkpt lat="45.623" lon="6.82687">
        <ele>1274</ele>
        <time>2020-06-26T13:29:12.000Z</time>
      </trkpt>
      <trkpt lat="45.62297" lon="6.82674">
        <ele>1273.8000488281</ele>
        <time>2020-06-26T13:29:13.000Z</time>
      </trkpt>
      <trkpt lat="45.62293" lon="6.82662">
        <ele>1273.5999755859</ele>
        <time>2020-06-26T13:29:14.000Z</time>
      </trkpt>
      <trkpt lat="45.62285" lon="6.82637">
        <ele>1272.8000488281</ele>
        <time>2020-06-26T13:29:16.000Z</time>
      </trkpt>
      <trkpt lat="45.62279" lon="6.82609">
        <ele>1272</ele>
        <time>2020-06-26T13:29:18.000Z</time>
      </trkpt>
      <trkpt lat="45.62278" lon="6.82595">
        <ele>1271.4000244141</ele>
        <time>2020-06-26T13:29:19.000Z</time>
      </trkpt>
      <trkpt lat="45.6228" lon="6.8258">
        <ele>1270.1999511719</ele>
        <time>2020-06-26T13:29:20.000Z</time>
      </trkpt>
      <trkpt lat="45.62282" lon="6.82565">
        <ele>1270</ele>
        <time>2020-06-26T13:29:21.000Z</time>
      </trkpt>
      <trkpt lat="45.62285" lon="6.8255">
        <ele>1270.1999511719</ele>
        <time>2020-06-26T13:29:22.000Z</time>
      </trkpt>
      <trkpt lat="45.62303" lon="6.82492">
        <ele>1269.4000244141</ele>
        <time>2020-06-26T13:29:26.000Z</time>
      </trkpt>
      <trkpt lat="45.62314" lon="6.82462">
        <ele>1267.4000244141</ele>
        <time>2020-06-26T13:29:28.000Z</time>
      </trkpt>
      <trkpt lat="45.62326" lon="6.82432">
        <ele>1265.5999755859</ele>
        <time>2020-06-26T13:29:30.000Z</time>
      </trkpt>
      <trkpt lat="45.62339" lon="6.82402">
        <ele>1264.1999511719</ele>
        <time>2020-06-26T13:29:32.000Z</time>
      </trkpt>
      <trkpt lat="45.62347" lon="6.82387">
        <ele>1263</ele>
        <time>2020-06-26T13:29:33.000Z</time>
      </trkpt>
      <trkpt lat="45.62361" lon="6.82357">
        <ele>1261.8000488281</ele>
        <time>2020-06-26T13:29:35.000Z</time>
      </trkpt>
      <trkpt lat="45.62374" lon="6.82327">
        <ele>1261</ele>
        <time>2020-06-26T13:29:37.000Z</time>
      </trkpt>
      <trkpt lat="45.62382" lon="6.82313">
        <ele>1260.5999755859</ele>
        <time>2020-06-26T13:29:38.000Z</time>
      </trkpt>
      <trkpt lat="45.62399" lon="6.82287">
        <ele>1259.1999511719</ele>
        <time>2020-06-26T13:29:40.000Z</time>
      </trkpt>
      <trkpt lat="45.62408" lon="6.82275">
        <ele>1258.1999511719</ele>
        <time>2020-06-26T13:29:41.000Z</time>
      </trkpt>
      <trkpt lat="45.62417" lon="6.82263">
        <ele>1257.1999511719</ele>
        <time>2020-06-26T13:29:42.000Z</time>
      </trkpt>
      <trkpt lat="45.62427" lon="6.82252">
        <ele>1256.1999511719</ele>
        <time>2020-06-26T13:29:43.000Z</time>
      </trkpt>
      <trkpt lat="45.62437" lon="6.82241">
        <ele>1255</ele>
        <time>2020-06-26T13:29:44.000Z</time>
      </trkpt>
      <trkpt lat="45.62448" lon="6.82232">
        <ele>1254</ele>
        <time>2020-06-26T13:29:45.000Z</time>
      </trkpt>
      <trkpt lat="45.6246" lon="6.82226">
        <ele>1252.8000488281</ele>
        <time>2020-06-26T13:29:46.000Z</time>
      </trkpt>
      <trkpt lat="45.62484" lon="6.8222">
        <ele>1251.4000244141</ele>
        <time>2020-06-26T13:29:48.000Z</time>
      </trkpt>
      <trkpt lat="45.62497" lon="6.82217">
        <ele>1250.1999511719</ele>
        <time>2020-06-26T13:29:49.000Z</time>
      </trkpt>
      <trkpt lat="45.6251" lon="6.82212">
        <ele>1249.4000244141</ele>
        <time>2020-06-26T13:29:50.000Z</time>
      </trkpt>
      <trkpt lat="45.62523" lon="6.82206">
        <ele>1249</ele>
        <time>2020-06-26T13:29:51.000Z</time>
      </trkpt>
      <trkpt lat="45.62547" lon="6.82193">
        <ele>1247.1999511719</ele>
        <time>2020-06-26T13:29:53.000Z</time>
      </trkpt>
      <trkpt lat="45.62559" lon="6.82188">
        <ele>1246.1999511719</ele>
        <time>2020-06-26T13:29:54.000Z</time>
      </trkpt>
      <trkpt lat="45.62571" lon="6.82185">
        <ele>1245.5999755859</ele>
        <time>2020-06-26T13:29:55.000Z</time>
      </trkpt>
      <trkpt lat="45.62608" lon="6.82186">
        <ele>1243.8000488281</ele>
        <time>2020-06-26T13:29:58.000Z</time>
      </trkpt>
      <trkpt lat="45.62633" lon="6.82182">
        <ele>1241.8000488281</ele>
        <time>2020-06-26T13:30:00.000Z</time>
      </trkpt>
      <trkpt lat="45.62646" lon="6.82177">
        <ele>1240.8000488281</ele>
        <time>2020-06-26T13:30:01.000Z</time>
      </trkpt>
      <trkpt lat="45.62658" lon="6.8217">
        <ele>1239.5999755859</ele>
        <time>2020-06-26T13:30:02.000Z</time>
      </trkpt>
      <trkpt lat="45.62669" lon="6.82163">
        <ele>1238.4000244141</ele>
        <time>2020-06-26T13:30:03.000Z</time>
      </trkpt>
      <trkpt lat="45.62681" lon="6.82154">
        <ele>1237.8000488281</ele>
        <time>2020-06-26T13:30:04.000Z</time>
      </trkpt>
      <trkpt lat="45.62691" lon="6.82143">
        <ele>1237.1999511719</ele>
        <time>2020-06-26T13:30:05.000Z</time>
      </trkpt>
      <trkpt lat="45.62707" lon="6.82115">
        <ele>1236</ele>
        <time>2020-06-26T13:30:07.000Z</time>
      </trkpt>
      <trkpt lat="45.62716" lon="6.82102">
        <ele>1235.5999755859</ele>
        <time>2020-06-26T13:30:08.000Z</time>
      </trkpt>
      <trkpt lat="45.62735" lon="6.82083">
        <ele>1234.5999755859</ele>
        <time>2020-06-26T13:30:10.000Z</time>
      </trkpt>
      <trkpt lat="45.62758" lon="6.82073">
        <ele>1234</ele>
        <time>2020-06-26T13:30:12.000Z</time>
      </trkpt>
      <trkpt lat="45.6277" lon="6.82068">
        <ele>1233.5999755859</ele>
        <time>2020-06-26T13:30:13.000Z</time>
      </trkpt>
      <trkpt lat="45.62783" lon="6.82063">
        <ele>1232.4000244141</ele>
        <time>2020-06-26T13:30:14.000Z</time>
      </trkpt>
      <trkpt lat="45.62807" lon="6.82054">
        <ele>1230.4000244141</ele>
        <time>2020-06-26T13:30:16.000Z</time>
      </trkpt>
      <trkpt lat="45.62819" lon="6.8205">
        <ele>1227.4000244141</ele>
        <time>2020-06-26T13:30:17.000Z</time>
      </trkpt>
      <trkpt lat="45.62831" lon="6.82047">
        <ele>1226.8000488281</ele>
        <time>2020-06-26T13:30:18.000Z</time>
      </trkpt>
      <trkpt lat="45.62843" lon="6.82044">
        <ele>1225.8000488281</ele>
        <time>2020-06-26T13:30:19.000Z</time>
      </trkpt>
      <trkpt lat="45.62855" lon="6.82039">
        <ele>1225.4000244141</ele>
        <time>2020-06-26T13:30:20.000Z</time>
      </trkpt>
      <trkpt lat="45.62872" lon="6.82025">
        <ele>1225</ele>
        <time>2020-06-26T13:30:22.000Z</time>
      </trkpt>
      <trkpt lat="45.62878" lon="6.82006">
        <ele>1224.4000244141</ele>
        <time>2020-06-26T13:30:24.000Z</time>
      </trkpt>
      <trkpt lat="45.62869" lon="6.81997">
        <ele>1224</ele>
        <time>2020-06-26T13:30:26.000Z</time>
      </trkpt>
      <trkpt lat="45.62863" lon="6.82001">
        <ele>1223.8000488281</ele>
        <time>2020-06-26T13:30:27.000Z</time>
      </trkpt>
      <trkpt lat="45.62856" lon="6.82008">
        <ele>1223.8000488281</ele>
        <time>2020-06-26T13:30:28.000Z</time>
      </trkpt>
      <trkpt lat="45.62848" lon="6.82014">
        <ele>1223.5999755859</ele>
        <time>2020-06-26T13:30:29.000Z</time>
      </trkpt>
      <trkpt lat="45.62819" lon="6.82026">
        <ele>1223.4000244141</ele>
        <time>2020-06-26T13:30:32.000Z</time>
      </trkpt>
      <trkpt lat="45.62788" lon="6.82033">
        <ele>1222.8000488281</ele>
        <time>2020-06-26T13:30:35.000Z</time>
      </trkpt>
      <trkpt lat="45.62766" lon="6.82033">
        <ele>1222.4000244141</ele>
        <time>2020-06-26T13:30:37.000Z</time>
      </trkpt>
      <trkpt lat="45.62744" lon="6.82029">
        <ele>1221</ele>
        <time>2020-06-26T13:30:39.000Z</time>
      </trkpt>
      <trkpt lat="45.62722" lon="6.82022">
        <ele>1219.5999755859</ele>
        <time>2020-06-26T13:30:41.000Z</time>
      </trkpt>
      <trkpt lat="45.627" lon="6.82024">
        <ele>1218.4000244141</ele>
        <time>2020-06-26T13:30:43.000Z</time>
      </trkpt>
      <trkpt lat="45.6269" lon="6.82031">
        <ele>1217.8000488281</ele>
        <time>2020-06-26T13:30:44.000Z</time>
      </trkpt>
      <trkpt lat="45.6268" lon="6.82041">
        <ele>1217.1999511719</ele>
        <time>2020-06-26T13:30:45.000Z</time>
      </trkpt>
      <trkpt lat="45.62669" lon="6.82053">
        <ele>1214.8000488281</ele>
        <time>2020-06-26T13:30:46.000Z</time>
      </trkpt>
      <trkpt lat="45.62657" lon="6.82063">
        <ele>1214.1999511719</ele>
        <time>2020-06-26T13:30:47.000Z</time>
      </trkpt>
      <trkpt lat="45.62645" lon="6.82072">
        <ele>1213.8000488281</ele>
        <time>2020-06-26T13:30:48.000Z</time>
      </trkpt>
      <trkpt lat="45.6262" lon="6.82083">
        <ele>1212.5999755859</ele>
        <time>2020-06-26T13:30:50.000Z</time>
      </trkpt>
      <trkpt lat="45.62583" lon="6.8209">
        <ele>1211.1999511719</ele>
        <time>2020-06-26T13:30:53.000Z</time>
      </trkpt>
      <trkpt lat="45.62571" lon="6.82091">
        <ele>1210.5999755859</ele>
        <time>2020-06-26T13:30:54.000Z</time>
      </trkpt>
      <trkpt lat="45.62558" lon="6.82093">
        <ele>1209.4000244141</ele>
        <time>2020-06-26T13:30:55.000Z</time>
      </trkpt>
      <trkpt lat="45.62546" lon="6.82094">
        <ele>1208</ele>
        <time>2020-06-26T13:30:56.000Z</time>
      </trkpt>
      <trkpt lat="45.62521" lon="6.82097">
        <ele>1206.1999511719</ele>
        <time>2020-06-26T13:30:58.000Z</time>
      </trkpt>
      <trkpt lat="45.62496" lon="6.82101">
        <ele>1204.5999755859</ele>
        <time>2020-06-26T13:31:00.000Z</time>
      </trkpt>
      <trkpt lat="45.62484" lon="6.82105">
        <ele>1204.1999511719</ele>
        <time>2020-06-26T13:31:01.000Z</time>
      </trkpt>
      <trkpt lat="45.62471" lon="6.82108">
        <ele>1203.5999755859</ele>
        <time>2020-06-26T13:31:02.000Z</time>
      </trkpt>
      <trkpt lat="45.62432" lon="6.82117">
        <ele>1202.4000244141</ele>
        <time>2020-06-26T13:31:05.000Z</time>
      </trkpt>
      <trkpt lat="45.62408" lon="6.82128">
        <ele>1201.1999511719</ele>
        <time>2020-06-26T13:31:07.000Z</time>
      </trkpt>
      <trkpt lat="45.62373" lon="6.82149">
        <ele>1200</ele>
        <time>2020-06-26T13:31:10.000Z</time>
      </trkpt>
      <trkpt lat="45.62349" lon="6.82162">
        <ele>1198.8000488281</ele>
        <time>2020-06-26T13:31:12.000Z</time>
      </trkpt>
      <trkpt lat="45.62338" lon="6.82171">
        <ele>1197.8000488281</ele>
        <time>2020-06-26T13:31:13.000Z</time>
      </trkpt>
      <trkpt lat="45.62328" lon="6.82181">
        <ele>1196.5999755859</ele>
        <time>2020-06-26T13:31:14.000Z</time>
      </trkpt>
      <trkpt lat="45.62317" lon="6.82193">
        <ele>1195.1999511719</ele>
        <time>2020-06-26T13:31:15.000Z</time>
      </trkpt>
      <trkpt lat="45.62295" lon="6.82216">
        <ele>1193.5999755859</ele>
        <time>2020-06-26T13:31:17.000Z</time>
      </trkpt>
      <trkpt lat="45.62284" lon="6.82226">
        <ele>1192.4000244141</ele>
        <time>2020-06-26T13:31:18.000Z</time>
      </trkpt>
      <trkpt lat="45.62261" lon="6.82243">
        <ele>1191.1999511719</ele>
        <time>2020-06-26T13:31:20.000Z</time>
      </trkpt>
      <trkpt lat="45.62237" lon="6.82259">
        <ele>1189.8000488281</ele>
        <time>2020-06-26T13:31:22.000Z</time>
      </trkpt>
      <trkpt lat="45.62213" lon="6.82277">
        <ele>1188</ele>
        <time>2020-06-26T13:31:24.000Z</time>
      </trkpt>
      <trkpt lat="45.62193" lon="6.823">
        <ele>1186.1999511719</ele>
        <time>2020-06-26T13:31:26.000Z</time>
      </trkpt>
      <trkpt lat="45.62184" lon="6.82313">
        <ele>1185.4000244141</ele>
        <time>2020-06-26T13:31:27.000Z</time>
      </trkpt>
      <trkpt lat="45.62174" lon="6.82326">
        <ele>1184.5999755859</ele>
        <time>2020-06-26T13:31:28.000Z</time>
      </trkpt>
      <trkpt lat="45.62155" lon="6.82352">
        <ele>1183.4000244141</ele>
        <time>2020-06-26T13:31:30.000Z</time>
      </trkpt>
      <trkpt lat="45.62124" lon="6.82384">
        <ele>1182</ele>
        <time>2020-06-26T13:31:33.000Z</time>
      </trkpt>
      <trkpt lat="45.62115" lon="6.82394">
        <ele>1181.4000244141</ele>
        <time>2020-06-26T13:31:34.000Z</time>
      </trkpt>
      <trkpt lat="45.62106" lon="6.82406">
        <ele>1180.8000488281</ele>
        <time>2020-06-26T13:31:35.000Z</time>
      </trkpt>
      <trkpt lat="45.62093" lon="6.82434">
        <ele>1179.5999755859</ele>
        <time>2020-06-26T13:31:37.000Z</time>
      </trkpt>
      <trkpt lat="45.62087" lon="6.8245">
        <ele>1178.5999755859</ele>
        <time>2020-06-26T13:31:38.000Z</time>
      </trkpt>
      <trkpt lat="45.62076" lon="6.82482">
        <ele>1176.8000488281</ele>
        <time>2020-06-26T13:31:40.000Z</time>
      </trkpt>
      <trkpt lat="45.6207" lon="6.82497">
        <ele>1175.5999755859</ele>
        <time>2020-06-26T13:31:41.000Z</time>
      </trkpt>
      <trkpt lat="45.62058" lon="6.82524">
        <ele>1174.8000488281</ele>
        <time>2020-06-26T13:31:43.000Z</time>
      </trkpt>
      <trkpt lat="45.62049" lon="6.82546">
        <ele>1173.5999755859</ele>
        <time>2020-06-26T13:31:45.000Z</time>
      </trkpt>
      <trkpt lat="45.62039" lon="6.82554">
        <ele>1173.5999755859</ele>
        <time>2020-06-26T13:31:47.000Z</time>
      </trkpt>
      <trkpt lat="45.62034" lon="6.82541">
        <ele>1173.4000244141</ele>
        <time>2020-06-26T13:31:49.000Z</time>
      </trkpt>
      <trkpt lat="45.6204" lon="6.82526">
        <ele>1173.4000244141</ele>
        <time>2020-06-26T13:31:51.000Z</time>
      </trkpt>
      <trkpt lat="45.62045" lon="6.82519">
        <ele>1173.4000244141</ele>
        <time>2020-06-26T13:31:52.000Z</time>
      </trkpt>
      <trkpt lat="45.62061" lon="6.82491">
        <ele>1173.1999511719</ele>
        <time>2020-06-26T13:31:55.000Z</time>
      </trkpt>
      <trkpt lat="45.62081" lon="6.82441">
        <ele>1173</ele>
        <time>2020-06-26T13:31:59.000Z</time>
      </trkpt>
      <trkpt lat="45.62105" lon="6.82373">
        <ele>1172.4000244141</ele>
        <time>2020-06-26T13:32:04.000Z</time>
      </trkpt>
      <trkpt lat="45.6211" lon="6.82359">
        <ele>1171.8000488281</ele>
        <time>2020-06-26T13:32:05.000Z</time>
      </trkpt>
      <trkpt lat="45.62115" lon="6.82344">
        <ele>1171.1999511719</ele>
        <time>2020-06-26T13:32:06.000Z</time>
      </trkpt>
      <trkpt lat="45.62128" lon="6.82316">
        <ele>1169.5999755859</ele>
        <time>2020-06-26T13:32:08.000Z</time>
      </trkpt>
      <trkpt lat="45.62137" lon="6.82305">
        <ele>1168.8000488281</ele>
        <time>2020-06-26T13:32:09.000Z</time>
      </trkpt>
      <trkpt lat="45.62147" lon="6.82295">
        <ele>1167.8000488281</ele>
        <time>2020-06-26T13:32:10.000Z</time>
      </trkpt>
      <trkpt lat="45.62167" lon="6.82276">
        <ele>1166.5999755859</ele>
        <time>2020-06-26T13:32:12.000Z</time>
      </trkpt>
      <trkpt lat="45.62176" lon="6.82265">
        <ele>1165.4000244141</ele>
        <time>2020-06-26T13:32:13.000Z</time>
      </trkpt>
      <trkpt lat="45.62184" lon="6.82251">
        <ele>1164.1999511719</ele>
        <time>2020-06-26T13:32:14.000Z</time>
      </trkpt>
      <trkpt lat="45.6219" lon="6.82236">
        <ele>1162.5999755859</ele>
        <time>2020-06-26T13:32:15.000Z</time>
      </trkpt>
      <trkpt lat="45.62195" lon="6.8222">
        <ele>1161.4000244141</ele>
        <time>2020-06-26T13:32:16.000Z</time>
      </trkpt>
      <trkpt lat="45.62199" lon="6.82203">
        <ele>1160.4000244141</ele>
        <time>2020-06-26T13:32:17.000Z</time>
      </trkpt>
      <trkpt lat="45.62203" lon="6.82187">
        <ele>1159.4000244141</ele>
        <time>2020-06-26T13:32:18.000Z</time>
      </trkpt>
      <trkpt lat="45.62214" lon="6.82156">
        <ele>1157.8000488281</ele>
        <time>2020-06-26T13:32:20.000Z</time>
      </trkpt>
      <trkpt lat="45.6223" lon="6.8213">
        <ele>1156</ele>
        <time>2020-06-26T13:32:22.000Z</time>
      </trkpt>
      <trkpt lat="45.62238" lon="6.82118">
        <ele>1155.4000244141</ele>
        <time>2020-06-26T13:32:23.000Z</time>
      </trkpt>
      <trkpt lat="45.62248" lon="6.82108">
        <ele>1154.8000488281</ele>
        <time>2020-06-26T13:32:24.000Z</time>
      </trkpt>
      <trkpt lat="45.6227" lon="6.82094">
        <ele>1153.4000244141</ele>
        <time>2020-06-26T13:32:26.000Z</time>
      </trkpt>
      <trkpt lat="45.62281" lon="6.82088">
        <ele>1152.4000244141</ele>
        <time>2020-06-26T13:32:27.000Z</time>
      </trkpt>
      <trkpt lat="45.62292" lon="6.82081">
        <ele>1151.8000488281</ele>
        <time>2020-06-26T13:32:28.000Z</time>
      </trkpt>
      <trkpt lat="45.6231" lon="6.82062">
        <ele>1150.5999755859</ele>
        <time>2020-06-26T13:32:30.000Z</time>
      </trkpt>
      <trkpt lat="45.62324" lon="6.82035">
        <ele>1149.5999755859</ele>
        <time>2020-06-26T13:32:32.000Z</time>
      </trkpt>
      <trkpt lat="45.62331" lon="6.82021">
        <ele>1149.1999511719</ele>
        <time>2020-06-26T13:32:33.000Z</time>
      </trkpt>
      <trkpt lat="45.62346" lon="6.81995">
        <ele>1148.5999755859</ele>
        <time>2020-06-26T13:32:35.000Z</time>
      </trkpt>
      <trkpt lat="45.62364" lon="6.81971">
        <ele>1148.4000244141</ele>
        <time>2020-06-26T13:32:37.000Z</time>
      </trkpt>
      <trkpt lat="45.62382" lon="6.81949">
        <ele>1147.8000488281</ele>
        <time>2020-06-26T13:32:39.000Z</time>
      </trkpt>
      <trkpt lat="45.62403" lon="6.81931">
        <ele>1146.1999511719</ele>
        <time>2020-06-26T13:32:41.000Z</time>
      </trkpt>
      <trkpt lat="45.62413" lon="6.81923">
        <ele>1144.1999511719</ele>
        <time>2020-06-26T13:32:42.000Z</time>
      </trkpt>
      <trkpt lat="45.62435" lon="6.81907">
        <ele>1142.4000244141</ele>
        <time>2020-06-26T13:32:44.000Z</time>
      </trkpt>
      <trkpt lat="45.62456" lon="6.81891">
        <ele>1141</ele>
        <time>2020-06-26T13:32:46.000Z</time>
      </trkpt>
      <trkpt lat="45.62477" lon="6.81875">
        <ele>1139.4000244141</ele>
        <time>2020-06-26T13:32:48.000Z</time>
      </trkpt>
      <trkpt lat="45.62487" lon="6.81866">
        <ele>1138.5999755859</ele>
        <time>2020-06-26T13:32:49.000Z</time>
      </trkpt>
      <trkpt lat="45.62497" lon="6.81857">
        <ele>1137.8000488281</ele>
        <time>2020-06-26T13:32:50.000Z</time>
      </trkpt>
      <trkpt lat="45.62518" lon="6.81838">
        <ele>1136.5999755859</ele>
        <time>2020-06-26T13:32:52.000Z</time>
      </trkpt>
      <trkpt lat="45.62539" lon="6.81824">
        <ele>1135.1999511719</ele>
        <time>2020-06-26T13:32:54.000Z</time>
      </trkpt>
      <trkpt lat="45.62551" lon="6.8182">
        <ele>1134.8000488281</ele>
        <time>2020-06-26T13:32:55.000Z</time>
      </trkpt>
      <trkpt lat="45.62575" lon="6.81815">
        <ele>1134</ele>
        <time>2020-06-26T13:32:57.000Z</time>
      </trkpt>
      <trkpt lat="45.62587" lon="6.81811">
        <ele>1133.4000244141</ele>
        <time>2020-06-26T13:32:58.000Z</time>
      </trkpt>
      <trkpt lat="45.62598" lon="6.81804">
        <ele>1132.5999755859</ele>
        <time>2020-06-26T13:32:59.000Z</time>
      </trkpt>
      <trkpt lat="45.62608" lon="6.81793">
        <ele>1131.8000488281</ele>
        <time>2020-06-26T13:33:00.000Z</time>
      </trkpt>
      <trkpt lat="45.62616" lon="6.8178">
        <ele>1130.8000488281</ele>
        <time>2020-06-26T13:33:01.000Z</time>
      </trkpt>
      <trkpt lat="45.62625" lon="6.81767">
        <ele>1129.8000488281</ele>
        <time>2020-06-26T13:33:02.000Z</time>
      </trkpt>
      <trkpt lat="45.62633" lon="6.81754">
        <ele>1129.4000244141</ele>
        <time>2020-06-26T13:33:03.000Z</time>
      </trkpt>
      <trkpt lat="45.6266" lon="6.81713">
        <ele>1128</ele>
        <time>2020-06-26T13:33:06.000Z</time>
      </trkpt>
      <trkpt lat="45.62667" lon="6.81698">
        <ele>1128</ele>
        <time>2020-06-26T13:33:07.000Z</time>
      </trkpt>
      <trkpt lat="45.62681" lon="6.81668">
        <ele>1126.5999755859</ele>
        <time>2020-06-26T13:33:09.000Z</time>
      </trkpt>
      <trkpt lat="45.62696" lon="6.81639">
        <ele>1124.1999511719</ele>
        <time>2020-06-26T13:33:11.000Z</time>
      </trkpt>
      <trkpt lat="45.62708" lon="6.81613">
        <ele>1123</ele>
        <time>2020-06-26T13:33:13.000Z</time>
      </trkpt>
      <trkpt lat="45.62711" lon="6.81603">
        <ele>1122.1999511719</ele>
        <time>2020-06-26T13:33:14.000Z</time>
      </trkpt>
      <trkpt lat="45.62711" lon="6.81593">
        <ele>1122</ele>
        <time>2020-06-26T13:33:15.000Z</time>
      </trkpt>
      <trkpt lat="45.627" lon="6.81585">
        <ele>1121.5999755859</ele>
        <time>2020-06-26T13:33:17.000Z</time>
      </trkpt>
      <trkpt lat="45.62689" lon="6.81595">
        <ele>1121.1999511719</ele>
        <time>2020-06-26T13:33:19.000Z</time>
      </trkpt>
      <trkpt lat="45.62683" lon="6.81604">
        <ele>1121</ele>
        <time>2020-06-26T13:33:20.000Z</time>
      </trkpt>
      <trkpt lat="45.62677" lon="6.81613">
        <ele>1121</ele>
        <time>2020-06-26T13:33:21.000Z</time>
      </trkpt>
      <trkpt lat="45.62663" lon="6.81632">
        <ele>1120.4000244141</ele>
        <time>2020-06-26T13:33:23.000Z</time>
      </trkpt>
      <trkpt lat="45.62623" lon="6.81681">
        <ele>1120</ele>
        <time>2020-06-26T13:33:28.000Z</time>
      </trkpt>
      <trkpt lat="45.62605" lon="6.81699">
        <ele>1118.5999755859</ele>
        <time>2020-06-26T13:33:30.000Z</time>
      </trkpt>
      <trkpt lat="45.62586" lon="6.81715">
        <ele>1117.1999511719</ele>
        <time>2020-06-26T13:33:32.000Z</time>
      </trkpt>
      <trkpt lat="45.62577" lon="6.81722">
        <ele>1116.1999511719</ele>
        <time>2020-06-26T13:33:33.000Z</time>
      </trkpt>
      <trkpt lat="45.62566" lon="6.81728">
        <ele>1115.5999755859</ele>
        <time>2020-06-26T13:33:34.000Z</time>
      </trkpt>
      <trkpt lat="45.62544" lon="6.81734">
        <ele>1113.8000488281</ele>
        <time>2020-06-26T13:33:36.000Z</time>
      </trkpt>
      <trkpt lat="45.62532" lon="6.81735">
        <ele>1113.1999511719</ele>
        <time>2020-06-26T13:33:37.000Z</time>
      </trkpt>
      <trkpt lat="45.6252" lon="6.81735">
        <ele>1112.5999755859</ele>
        <time>2020-06-26T13:33:38.000Z</time>
      </trkpt>
      <trkpt lat="45.62508" lon="6.81735">
        <ele>1111.5999755859</ele>
        <time>2020-06-26T13:33:39.000Z</time>
      </trkpt>
      <trkpt lat="45.62484" lon="6.81735">
        <ele>1110</ele>
        <time>2020-06-26T13:33:41.000Z</time>
      </trkpt>
      <trkpt lat="45.6246" lon="6.81737">
        <ele>1108.4000244141</ele>
        <time>2020-06-26T13:33:43.000Z</time>
      </trkpt>
      <trkpt lat="45.62448" lon="6.81739">
        <ele>1107.4000244141</ele>
        <time>2020-06-26T13:33:44.000Z</time>
      </trkpt>
      <trkpt lat="45.62436" lon="6.81742">
        <ele>1106.4000244141</ele>
        <time>2020-06-26T13:33:45.000Z</time>
      </trkpt>
      <trkpt lat="45.62412" lon="6.81751">
        <ele>1105.1999511719</ele>
        <time>2020-06-26T13:33:47.000Z</time>
      </trkpt>
      <trkpt lat="45.62387" lon="6.8176">
        <ele>1104.4000244141</ele>
        <time>2020-06-26T13:33:49.000Z</time>
      </trkpt>
      <trkpt lat="45.62374" lon="6.81765">
        <ele>1104</ele>
        <time>2020-06-26T13:33:50.000Z</time>
      </trkpt>
      <trkpt lat="45.6235" lon="6.81776">
        <ele>1102.5999755859</ele>
        <time>2020-06-26T13:33:52.000Z</time>
      </trkpt>
      <trkpt lat="45.62339" lon="6.81785">
        <ele>1101.8000488281</ele>
        <time>2020-06-26T13:33:53.000Z</time>
      </trkpt>
      <trkpt lat="45.62329" lon="6.81796">
        <ele>1101.1999511719</ele>
        <time>2020-06-26T13:33:54.000Z</time>
      </trkpt>
      <trkpt lat="45.6231" lon="6.81822">
        <ele>1100.1999511719</ele>
        <time>2020-06-26T13:33:56.000Z</time>
      </trkpt>
      <trkpt lat="45.62301" lon="6.81837">
        <ele>1099.5999755859</ele>
        <time>2020-06-26T13:33:57.000Z</time>
      </trkpt>
      <trkpt lat="45.62282" lon="6.81864">
        <ele>1098.5999755859</ele>
        <time>2020-06-26T13:33:59.000Z</time>
      </trkpt>
      <trkpt lat="45.62271" lon="6.81875">
        <ele>1098.4000244141</ele>
        <time>2020-06-26T13:34:00.000Z</time>
      </trkpt>
      <trkpt lat="45.62246" lon="6.81889">
        <ele>1097.4000244141</ele>
        <time>2020-06-26T13:34:02.000Z</time>
      </trkpt>
      <trkpt lat="45.62233" lon="6.81892">
        <ele>1096.5999755859</ele>
        <time>2020-06-26T13:34:03.000Z</time>
      </trkpt>
      <trkpt lat="45.62219" lon="6.81897">
        <ele>1095.8000488281</ele>
        <time>2020-06-26T13:34:04.000Z</time>
      </trkpt>
      <trkpt lat="45.62206" lon="6.81903">
        <ele>1095.1999511719</ele>
        <time>2020-06-26T13:34:05.000Z</time>
      </trkpt>
      <trkpt lat="45.62173" lon="6.81938">
        <ele>1093.4000244141</ele>
        <time>2020-06-26T13:34:08.000Z</time>
      </trkpt>
      <trkpt lat="45.62163" lon="6.81952">
        <ele>1091</ele>
        <time>2020-06-26T13:34:09.000Z</time>
      </trkpt>
      <trkpt lat="45.62142" lon="6.81979">
        <ele>1090</ele>
        <time>2020-06-26T13:34:11.000Z</time>
      </trkpt>
      <trkpt lat="45.62111" lon="6.82022">
        <ele>1089.1999511719</ele>
        <time>2020-06-26T13:34:14.000Z</time>
      </trkpt>
      <trkpt lat="45.62101" lon="6.82036">
        <ele>1088.8000488281</ele>
        <time>2020-06-26T13:34:15.000Z</time>
      </trkpt>
      <trkpt lat="45.62079" lon="6.82063">
        <ele>1087.5999755859</ele>
        <time>2020-06-26T13:34:17.000Z</time>
      </trkpt>
      <trkpt lat="45.62056" lon="6.82089">
        <ele>1085.1999511719</ele>
        <time>2020-06-26T13:34:19.000Z</time>
      </trkpt>
      <trkpt lat="45.62045" lon="6.82101">
        <ele>1083.8000488281</ele>
        <time>2020-06-26T13:34:20.000Z</time>
      </trkpt>
      <trkpt lat="45.62033" lon="6.82113">
        <ele>1082.5999755859</ele>
        <time>2020-06-26T13:34:21.000Z</time>
      </trkpt>
      <trkpt lat="45.62023" lon="6.82126">
        <ele>1081.5999755859</ele>
        <time>2020-06-26T13:34:22.000Z</time>
      </trkpt>
      <trkpt lat="45.62013" lon="6.8214">
        <ele>1080.8000488281</ele>
        <time>2020-06-26T13:34:23.000Z</time>
      </trkpt>
      <trkpt lat="45.62005" lon="6.82156">
        <ele>1079.4000244141</ele>
        <time>2020-06-26T13:34:24.000Z</time>
      </trkpt>
      <trkpt lat="45.61996" lon="6.82171">
        <ele>1078</ele>
        <time>2020-06-26T13:34:25.000Z</time>
      </trkpt>
      <trkpt lat="45.61986" lon="6.82185">
        <ele>1077</ele>
        <time>2020-06-26T13:34:26.000Z</time>
      </trkpt>
      <trkpt lat="45.61976" lon="6.82198">
        <ele>1076.4000244141</ele>
        <time>2020-06-26T13:34:27.000Z</time>
      </trkpt>
      <trkpt lat="45.61965" lon="6.82209">
        <ele>1075.4000244141</ele>
        <time>2020-06-26T13:34:28.000Z</time>
      </trkpt>
      <trkpt lat="45.61953" lon="6.8222">
        <ele>1074.5999755859</ele>
        <time>2020-06-26T13:34:29.000Z</time>
      </trkpt>
      <trkpt lat="45.61943" lon="6.82231">
        <ele>1074</ele>
        <time>2020-06-26T13:34:30.000Z</time>
      </trkpt>
      <trkpt lat="45.61934" lon="6.82242">
        <ele>1073.4000244141</ele>
        <time>2020-06-26T13:34:31.000Z</time>
      </trkpt>
      <trkpt lat="45.61918" lon="6.82267">
        <ele>1072.4000244141</ele>
        <time>2020-06-26T13:34:33.000Z</time>
      </trkpt>
      <trkpt lat="45.61912" lon="6.8228">
        <ele>1071.4000244141</ele>
        <time>2020-06-26T13:34:34.000Z</time>
      </trkpt>
      <trkpt lat="45.61908" lon="6.82293">
        <ele>1070.8000488281</ele>
        <time>2020-06-26T13:34:35.000Z</time>
      </trkpt>
      <trkpt lat="45.61902" lon="6.82317">
        <ele>1069.4000244141</ele>
        <time>2020-06-26T13:34:37.000Z</time>
      </trkpt>
      <trkpt lat="45.619" lon="6.82324">
        <ele>1069.1999511719</ele>
        <time>2020-06-26T13:34:38.000Z</time>
      </trkpt>
      <trkpt lat="45.61896" lon="6.82322">
        <ele>1069.1999511719</ele>
        <time>2020-06-26T13:34:39.000Z</time>
      </trkpt>
      <trkpt lat="45.61896" lon="6.82306">
        <ele>1069.1999511719</ele>
        <time>2020-06-26T13:34:41.000Z</time>
      </trkpt>
      <trkpt lat="45.61909" lon="6.82276">
        <ele>1068.8000488281</ele>
        <time>2020-06-26T13:34:44.000Z</time>
      </trkpt>
      <trkpt lat="45.61933" lon="6.82215">
        <ele>1068.5999755859</ele>
        <time>2020-06-26T13:34:49.000Z</time>
      </trkpt>
      <trkpt lat="45.61939" lon="6.82202">
        <ele>1068.4000244141</ele>
        <time>2020-06-26T13:34:50.000Z</time>
      </trkpt>
      <trkpt lat="45.6196" lon="6.82163">
        <ele>1067.1999511719</ele>
        <time>2020-06-26T13:34:53.000Z</time>
      </trkpt>
      <trkpt lat="45.61968" lon="6.8215">
        <ele>1066.5999755859</ele>
        <time>2020-06-26T13:34:54.000Z</time>
      </trkpt>
      <trkpt lat="45.61975" lon="6.82136">
        <ele>1065.8000488281</ele>
        <time>2020-06-26T13:34:55.000Z</time>
      </trkpt>
      <trkpt lat="45.61989" lon="6.82109">
        <ele>1064.4000244141</ele>
        <time>2020-06-26T13:34:57.000Z</time>
      </trkpt>
      <trkpt lat="45.62004" lon="6.82079">
        <ele>1063</ele>
        <time>2020-06-26T13:34:59.000Z</time>
      </trkpt>
      <trkpt lat="45.62011" lon="6.82065">
        <ele>1062</ele>
        <time>2020-06-26T13:35:00.000Z</time>
      </trkpt>
      <trkpt lat="45.62019" lon="6.82051">
        <ele>1061</ele>
        <time>2020-06-26T13:35:01.000Z</time>
      </trkpt>
      <trkpt lat="45.62026" lon="6.82037">
        <ele>1060</ele>
        <time>2020-06-26T13:35:02.000Z</time>
      </trkpt>
      <trkpt lat="45.62034" lon="6.82023">
        <ele>1058.5999755859</ele>
        <time>2020-06-26T13:35:03.000Z</time>
      </trkpt>
      <trkpt lat="45.62042" lon="6.82009">
        <ele>1057.1999511719</ele>
        <time>2020-06-26T13:35:04.000Z</time>
      </trkpt>
      <trkpt lat="45.62057" lon="6.81981">
        <ele>1054.8000488281</ele>
        <time>2020-06-26T13:35:06.000Z</time>
      </trkpt>
      <trkpt lat="45.6207" lon="6.81952">
        <ele>1053.1999511719</ele>
        <time>2020-06-26T13:35:08.000Z</time>
      </trkpt>
      <trkpt lat="45.62078" lon="6.8192">
        <ele>1051.5999755859</ele>
        <time>2020-06-26T13:35:10.000Z</time>
      </trkpt>
      <trkpt lat="45.62081" lon="6.81904">
        <ele>1051.1999511719</ele>
        <time>2020-06-26T13:35:11.000Z</time>
      </trkpt>
      <trkpt lat="45.62086" lon="6.81871">
        <ele>1050.1999511719</ele>
        <time>2020-06-26T13:35:13.000Z</time>
      </trkpt>
      <trkpt lat="45.62092" lon="6.81838">
        <ele>1049</ele>
        <time>2020-06-26T13:35:15.000Z</time>
      </trkpt>
      <trkpt lat="45.621" lon="6.81807">
        <ele>1047.5999755859</ele>
        <time>2020-06-26T13:35:17.000Z</time>
      </trkpt>
      <trkpt lat="45.62105" lon="6.81792">
        <ele>1047.1999511719</ele>
        <time>2020-06-26T13:35:18.000Z</time>
      </trkpt>
      <trkpt lat="45.6211" lon="6.81778">
        <ele>1046.5999755859</ele>
        <time>2020-06-26T13:35:19.000Z</time>
      </trkpt>
      <trkpt lat="45.62123" lon="6.8175">
        <ele>1045.5999755859</ele>
        <time>2020-06-26T13:35:21.000Z</time>
      </trkpt>
      <trkpt lat="45.6213" lon="6.81737">
        <ele>1045</ele>
        <time>2020-06-26T13:35:22.000Z</time>
      </trkpt>
      <trkpt lat="45.62138" lon="6.81724">
        <ele>1044.5999755859</ele>
        <time>2020-06-26T13:35:23.000Z</time>
      </trkpt>
      <trkpt lat="45.62147" lon="6.81712">
        <ele>1044.1999511719</ele>
        <time>2020-06-26T13:35:24.000Z</time>
      </trkpt>
      <trkpt lat="45.62165" lon="6.8169">
        <ele>1043.8000488281</ele>
        <time>2020-06-26T13:35:26.000Z</time>
      </trkpt>
      <trkpt lat="45.62185" lon="6.8167">
        <ele>1043</ele>
        <time>2020-06-26T13:35:28.000Z</time>
      </trkpt>
      <trkpt lat="45.62206" lon="6.81651">
        <ele>1042.1999511719</ele>
        <time>2020-06-26T13:35:30.000Z</time>
      </trkpt>
      <trkpt lat="45.62217" lon="6.81642">
        <ele>1041.5999755859</ele>
        <time>2020-06-26T13:35:31.000Z</time>
      </trkpt>
      <trkpt lat="45.62226" lon="6.8163">
        <ele>1041</ele>
        <time>2020-06-26T13:35:32.000Z</time>
      </trkpt>
      <trkpt lat="45.62234" lon="6.81616">
        <ele>1039.5999755859</ele>
        <time>2020-06-26T13:35:33.000Z</time>
      </trkpt>
      <trkpt lat="45.62242" lon="6.81582">
        <ele>1038.1999511719</ele>
        <time>2020-06-26T13:35:35.000Z</time>
      </trkpt>
      <trkpt lat="45.62246" lon="6.81565">
        <ele>1038</ele>
        <time>2020-06-26T13:35:36.000Z</time>
      </trkpt>
      <trkpt lat="45.62252" lon="6.81549">
        <ele>1037.5999755859</ele>
        <time>2020-06-26T13:35:37.000Z</time>
      </trkpt>
      <trkpt lat="45.62259" lon="6.81534">
        <ele>1036.5999755859</ele>
        <time>2020-06-26T13:35:38.000Z</time>
      </trkpt>
      <trkpt lat="45.62268" lon="6.81521">
        <ele>1035.8000488281</ele>
        <time>2020-06-26T13:35:39.000Z</time>
      </trkpt>
      <trkpt lat="45.62277" lon="6.81511">
        <ele>1034.8000488281</ele>
        <time>2020-06-26T13:35:40.000Z</time>
      </trkpt>
      <trkpt lat="45.62287" lon="6.81501">
        <ele>1034</ele>
        <time>2020-06-26T13:35:41.000Z</time>
      </trkpt>
      <trkpt lat="45.62298" lon="6.81492">
        <ele>1033.4000244141</ele>
        <time>2020-06-26T13:35:42.000Z</time>
      </trkpt>
      <trkpt lat="45.62319" lon="6.81475">
        <ele>1031.8000488281</ele>
        <time>2020-06-26T13:35:44.000Z</time>
      </trkpt>
      <trkpt lat="45.62341" lon="6.81462">
        <ele>1029.8000488281</ele>
        <time>2020-06-26T13:35:46.000Z</time>
      </trkpt>
      <trkpt lat="45.62353" lon="6.81456">
        <ele>1028.4000244141</ele>
        <time>2020-06-26T13:35:47.000Z</time>
      </trkpt>
      <trkpt lat="45.62376" lon="6.81447">
        <ele>1027.4000244141</ele>
        <time>2020-06-26T13:35:49.000Z</time>
      </trkpt>
      <trkpt lat="45.62399" lon="6.81433">
        <ele>1026.8000488281</ele>
        <time>2020-06-26T13:35:51.000Z</time>
      </trkpt>
      <trkpt lat="45.62418" lon="6.8141">
        <ele>1026</ele>
        <time>2020-06-26T13:35:53.000Z</time>
      </trkpt>
      <trkpt lat="45.62425" lon="6.81396">
        <ele>1025.5999755859</ele>
        <time>2020-06-26T13:35:54.000Z</time>
      </trkpt>
      <trkpt lat="45.62432" lon="6.81381">
        <ele>1024.8000488281</ele>
        <time>2020-06-26T13:35:55.000Z</time>
      </trkpt>
      <trkpt lat="45.62439" lon="6.81366">
        <ele>1024.1999511719</ele>
        <time>2020-06-26T13:35:56.000Z</time>
      </trkpt>
      <trkpt lat="45.62448" lon="6.81352">
        <ele>1023.799987793</ele>
        <time>2020-06-26T13:35:57.000Z</time>
      </trkpt>
      <trkpt lat="45.62458" lon="6.81341">
        <ele>1023.4000244141</ele>
        <time>2020-06-26T13:35:58.000Z</time>
      </trkpt>
      <trkpt lat="45.62479" lon="6.81324">
        <ele>1022.799987793</ele>
        <time>2020-06-26T13:36:00.000Z</time>
      </trkpt>
      <trkpt lat="45.62501" lon="6.81309">
        <ele>1020.200012207</ele>
        <time>2020-06-26T13:36:02.000Z</time>
      </trkpt>
      <trkpt lat="45.6252" lon="6.8129">
        <ele>1019</ele>
        <time>2020-06-26T13:36:04.000Z</time>
      </trkpt>
      <trkpt lat="45.6253" lon="6.81282">
        <ele>1017.5999755859</ele>
        <time>2020-06-26T13:36:05.000Z</time>
      </trkpt>
      <trkpt lat="45.6254" lon="6.8128">
        <ele>1016.5999755859</ele>
        <time>2020-06-26T13:36:06.000Z</time>
      </trkpt>
      <trkpt lat="45.62549" lon="6.81282">
        <ele>1015.799987793</ele>
        <time>2020-06-26T13:36:07.000Z</time>
      </trkpt>
      <trkpt lat="45.62559" lon="6.81289">
        <ele>1015.4000244141</ele>
        <time>2020-06-26T13:36:08.000Z</time>
      </trkpt>
      <trkpt lat="45.62568" lon="6.81296">
        <ele>1015.200012207</ele>
        <time>2020-06-26T13:36:09.000Z</time>
      </trkpt>
      <trkpt lat="45.62577" lon="6.81303">
        <ele>1014.4000244141</ele>
        <time>2020-06-26T13:36:10.000Z</time>
      </trkpt>
      <trkpt lat="45.62587" lon="6.8131">
        <ele>1013.799987793</ele>
        <time>2020-06-26T13:36:11.000Z</time>
      </trkpt>
      <trkpt lat="45.62609" lon="6.81315">
        <ele>1012.799987793</ele>
        <time>2020-06-26T13:36:13.000Z</time>
      </trkpt>
      <trkpt lat="45.6263" lon="6.81307">
        <ele>1011.200012207</ele>
        <time>2020-06-26T13:36:15.000Z</time>
      </trkpt>
      <trkpt lat="45.62649" lon="6.8129">
        <ele>1010</ele>
        <time>2020-06-26T13:36:17.000Z</time>
      </trkpt>
      <trkpt lat="45.62675" lon="6.81263">
        <ele>1009.200012207</ele>
        <time>2020-06-26T13:36:20.000Z</time>
      </trkpt>
      <trkpt lat="45.62682" lon="6.81253">
        <ele>1009</ele>
        <time>2020-06-26T13:36:21.000Z</time>
      </trkpt>
      <trkpt lat="45.62691" lon="6.81227">
        <ele>1008.4000244141</ele>
        <time>2020-06-26T13:36:23.000Z</time>
      </trkpt>
      <trkpt lat="45.62693" lon="6.81213">
        <ele>1007.5999755859</ele>
        <time>2020-06-26T13:36:24.000Z</time>
      </trkpt>
      <trkpt lat="45.62695" lon="6.81184">
        <ele>1005.4000244141</ele>
        <time>2020-06-26T13:36:26.000Z</time>
      </trkpt>
      <trkpt lat="45.62695" lon="6.81169">
        <ele>1004.200012207</ele>
        <time>2020-06-26T13:36:27.000Z</time>
      </trkpt>
      <trkpt lat="45.62694" lon="6.81155">
        <ele>1003.200012207</ele>
        <time>2020-06-26T13:36:28.000Z</time>
      </trkpt>
      <trkpt lat="45.62691" lon="6.81126">
        <ele>1002.200012207</ele>
        <time>2020-06-26T13:36:30.000Z</time>
      </trkpt>
      <trkpt lat="45.62688" lon="6.81111">
        <ele>1001.4000244141</ele>
        <time>2020-06-26T13:36:31.000Z</time>
      </trkpt>
      <trkpt lat="45.62686" lon="6.81095">
        <ele>1001</ele>
        <time>2020-06-26T13:36:32.000Z</time>
      </trkpt>
      <trkpt lat="45.62683" lon="6.81064">
        <ele>1000</ele>
        <time>2020-06-26T13:36:34.000Z</time>
      </trkpt>
      <trkpt lat="45.62682" lon="6.81047">
        <ele>999.40002441406</ele>
        <time>2020-06-26T13:36:35.000Z</time>
      </trkpt>
      <trkpt lat="45.62683" lon="6.81014">
        <ele>998.79998779297</ele>
        <time>2020-06-26T13:36:37.000Z</time>
      </trkpt>
      <trkpt lat="45.62685" lon="6.80947">
        <ele>998.20001220703</ele>
        <time>2020-06-26T13:36:41.000Z</time>
      </trkpt>
      <trkpt lat="45.62685" lon="6.80931">
        <ele>997</ele>
        <time>2020-06-26T13:36:42.000Z</time>
      </trkpt>
      <trkpt lat="45.62683" lon="6.80917">
        <ele>995.59997558594</ele>
        <time>2020-06-26T13:36:43.000Z</time>
      </trkpt>
      <trkpt lat="45.62678" lon="6.80907">
        <ele>994.59997558594</ele>
        <time>2020-06-26T13:36:44.000Z</time>
      </trkpt>
      <trkpt lat="45.6267" lon="6.80901">
        <ele>993.59997558594</ele>
        <time>2020-06-26T13:36:45.000Z</time>
      </trkpt>
      <trkpt lat="45.62661" lon="6.80901">
        <ele>992.59997558594</ele>
        <time>2020-06-26T13:36:46.000Z</time>
      </trkpt>
      <trkpt lat="45.62653" lon="6.80908">
        <ele>992</ele>
        <time>2020-06-26T13:36:47.000Z</time>
      </trkpt>
      <trkpt lat="45.62645" lon="6.80917">
        <ele>991.20001220703</ele>
        <time>2020-06-26T13:36:48.000Z</time>
      </trkpt>
      <trkpt lat="45.62638" lon="6.80928">
        <ele>991</ele>
        <time>2020-06-26T13:36:49.000Z</time>
      </trkpt>
      <trkpt lat="45.62602" lon="6.80988">
        <ele>989.59997558594</ele>
        <time>2020-06-26T13:36:54.000Z</time>
      </trkpt>
      <trkpt lat="45.62585" lon="6.81032">
        <ele>988.59997558594</ele>
        <time>2020-06-26T13:36:57.000Z</time>
      </trkpt>
      <trkpt lat="45.62574" lon="6.81062">
        <ele>987.79998779297</ele>
        <time>2020-06-26T13:36:59.000Z</time>
      </trkpt>
      <trkpt lat="45.62564" lon="6.81094">
        <ele>987</ele>
        <time>2020-06-26T13:37:01.000Z</time>
      </trkpt>
      <trkpt lat="45.62554" lon="6.81126">
        <ele>985.59997558594</ele>
        <time>2020-06-26T13:37:03.000Z</time>
      </trkpt>
      <trkpt lat="45.62545" lon="6.81153">
        <ele>984</ele>
        <time>2020-06-26T13:37:05.000Z</time>
      </trkpt>
      <trkpt lat="45.62531" lon="6.81163">
        <ele>982.40002441406</ele>
        <time>2020-06-26T13:37:07.000Z</time>
      </trkpt>
      <trkpt lat="45.6252" lon="6.8115">
        <ele>980.79998779297</ele>
        <time>2020-06-26T13:37:09.000Z</time>
      </trkpt>
      <trkpt lat="45.62516" lon="6.81126">
        <ele>979.79998779297</ele>
        <time>2020-06-26T13:37:11.000Z</time>
      </trkpt>
      <trkpt lat="45.62514" lon="6.81113">
        <ele>979.40002441406</ele>
        <time>2020-06-26T13:37:12.000Z</time>
      </trkpt>
      <trkpt lat="45.62506" lon="6.8107">
        <ele>978.59997558594</ele>
        <time>2020-06-26T13:37:15.000Z</time>
      </trkpt>
      <trkpt lat="45.62501" lon="6.81039">
        <ele>977.79998779297</ele>
        <time>2020-06-26T13:37:17.000Z</time>
      </trkpt>
      <trkpt lat="45.62496" lon="6.81007">
        <ele>977</ele>
        <time>2020-06-26T13:37:19.000Z</time>
      </trkpt>
      <trkpt lat="45.62491" lon="6.80975">
        <ele>975.40002441406</ele>
        <time>2020-06-26T13:37:21.000Z</time>
      </trkpt>
      <trkpt lat="45.62489" lon="6.80958">
        <ele>974.40002441406</ele>
        <time>2020-06-26T13:37:22.000Z</time>
      </trkpt>
      <trkpt lat="45.62484" lon="6.80925">
        <ele>972.59997558594</ele>
        <time>2020-06-26T13:37:24.000Z</time>
      </trkpt>
      <trkpt lat="45.62482" lon="6.80908">
        <ele>971.40002441406</ele>
        <time>2020-06-26T13:37:25.000Z</time>
      </trkpt>
      <trkpt lat="45.62479" lon="6.80892">
        <ele>970.20001220703</ele>
        <time>2020-06-26T13:37:26.000Z</time>
      </trkpt>
      <trkpt lat="45.62474" lon="6.80858">
        <ele>967.59997558594</ele>
        <time>2020-06-26T13:37:28.000Z</time>
      </trkpt>
      <trkpt lat="45.62469" lon="6.80825">
        <ele>965.79998779297</ele>
        <time>2020-06-26T13:37:30.000Z</time>
      </trkpt>
      <trkpt lat="45.62465" lon="6.80812">
        <ele>964.79998779297</ele>
        <time>2020-06-26T13:37:31.000Z</time>
      </trkpt>
      <trkpt lat="45.62451" lon="6.80797">
        <ele>963.59997558594</ele>
        <time>2020-06-26T13:37:33.000Z</time>
      </trkpt>
      <trkpt lat="45.62435" lon="6.80806">
        <ele>962</ele>
        <time>2020-06-26T13:37:35.000Z</time>
      </trkpt>
      <trkpt lat="45.62425" lon="6.80828">
        <ele>961.59997558594</ele>
        <time>2020-06-26T13:37:37.000Z</time>
      </trkpt>
      <trkpt lat="45.6242" lon="6.8084">
        <ele>961.40002441406</ele>
        <time>2020-06-26T13:37:38.000Z</time>
      </trkpt>
      <trkpt lat="45.62415" lon="6.80851">
        <ele>961</ele>
        <time>2020-06-26T13:37:39.000Z</time>
      </trkpt>
      <trkpt lat="45.62405" lon="6.80876">
        <ele>960.79998779297</ele>
        <time>2020-06-26T13:37:42.000Z</time>
      </trkpt>
      <trkpt lat="45.62402" lon="6.80882">
        <ele>960</ele>
        <time>2020-06-26T13:37:43.000Z</time>
      </trkpt>
      <trkpt lat="45.624" lon="6.80887">
        <ele>960</ele>
        <time>2020-06-26T13:37:44.000Z</time>
      </trkpt>
      <trkpt lat="45.62396" lon="6.80893">
        <ele>958.79998779297</ele>
        <time>2020-06-26T13:37:46.000Z</time>
      </trkpt>
      <trkpt lat="45.62395" lon="6.80898">
        <ele>957.79998779297</ele>
        <time>2020-06-26T13:37:49.000Z</time>
      </trkpt>
      <trkpt lat="45.62395" lon="6.80898">
        <ele>957.59997558594</ele>
        <time>2020-06-26T13:37:50.000Z</time>
      </trkpt>
      <trkpt lat="45.62394" lon="6.80902">
        <ele>957.20001220703</ele>
        <time>2020-06-26T13:38:03.000Z</time>
      </trkpt>
      <trkpt lat="45.6239" lon="6.8091">
        <ele>957.20001220703</ele>
        <time>2020-06-26T13:38:05.000Z</time>
      </trkpt>
      <trkpt lat="45.62388" lon="6.80915">
        <ele>957.20001220703</ele>
        <time>2020-06-26T13:38:06.000Z</time>
      </trkpt>
      <trkpt lat="45.62378" lon="6.80938">
        <ele>957.20001220703</ele>
        <time>2020-06-26T13:38:09.000Z</time>
      </trkpt>
      <trkpt lat="45.62366" lon="6.80966">
        <ele>957.20001220703</ele>
        <time>2020-06-26T13:38:12.000Z</time>
      </trkpt>
      <trkpt lat="45.62354" lon="6.80995">
        <ele>956.59997558594</ele>
        <time>2020-06-26T13:38:15.000Z</time>
      </trkpt>
      <trkpt lat="45.6235" lon="6.81005">
        <ele>956</ele>
        <time>2020-06-26T13:38:16.000Z</time>
      </trkpt>
      <trkpt lat="45.62342" lon="6.81025">
        <ele>955</ele>
        <time>2020-06-26T13:38:18.000Z</time>
      </trkpt>
      <trkpt lat="45.62336" lon="6.81045">
        <ele>953.59997558594</ele>
        <time>2020-06-26T13:38:20.000Z</time>
      </trkpt>
      <trkpt lat="45.62329" lon="6.81066">
        <ele>952.79998779297</ele>
        <time>2020-06-26T13:38:22.000Z</time>
      </trkpt>
      <trkpt lat="45.62319" lon="6.81086">
        <ele>952</ele>
        <time>2020-06-26T13:38:24.000Z</time>
      </trkpt>
      <trkpt lat="45.62308" lon="6.81096">
        <ele>950.59997558594</ele>
        <time>2020-06-26T13:38:26.000Z</time>
      </trkpt>
      <trkpt lat="45.62297" lon="6.81085">
        <ele>950.20001220703</ele>
        <time>2020-06-26T13:38:28.000Z</time>
      </trkpt>
      <trkpt lat="45.62292" lon="6.81063">
        <ele>949</ele>
        <time>2020-06-26T13:38:30.000Z</time>
      </trkpt>
      <trkpt lat="45.6229" lon="6.8105">
        <ele>948</ele>
        <time>2020-06-26T13:38:31.000Z</time>
      </trkpt>
      <trkpt lat="45.62288" lon="6.81037">
        <ele>947.20001220703</ele>
        <time>2020-06-26T13:38:32.000Z</time>
      </trkpt>
      <trkpt lat="45.62284" lon="6.80994">
        <ele>945.79998779297</ele>
        <time>2020-06-26T13:38:35.000Z</time>
      </trkpt>
      <trkpt lat="45.62282" lon="6.8098">
        <ele>944.59997558594</ele>
        <time>2020-06-26T13:38:36.000Z</time>
      </trkpt>
      <trkpt lat="45.62278" lon="6.8095">
        <ele>943.59997558594</ele>
        <time>2020-06-26T13:38:38.000Z</time>
      </trkpt>
      <trkpt lat="45.62274" lon="6.80919">
        <ele>942.40002441406</ele>
        <time>2020-06-26T13:38:40.000Z</time>
      </trkpt>
      <trkpt lat="45.62269" lon="6.80886">
        <ele>941.40002441406</ele>
        <time>2020-06-26T13:38:42.000Z</time>
      </trkpt>
      <trkpt lat="45.62267" lon="6.8087">
        <ele>940.40002441406</ele>
        <time>2020-06-26T13:38:43.000Z</time>
      </trkpt>
      <trkpt lat="45.62265" lon="6.80854">
        <ele>938.79998779297</ele>
        <time>2020-06-26T13:38:44.000Z</time>
      </trkpt>
      <trkpt lat="45.62261" lon="6.80825">
        <ele>937.40002441406</ele>
        <time>2020-06-26T13:38:46.000Z</time>
      </trkpt>
      <trkpt lat="45.62258" lon="6.80813">
        <ele>937</ele>
        <time>2020-06-26T13:38:47.000Z</time>
      </trkpt>
      <trkpt lat="45.62253" lon="6.80805">
        <ele>936.40002441406</ele>
        <time>2020-06-26T13:38:48.000Z</time>
      </trkpt>
      <trkpt lat="45.62247" lon="6.80801">
        <ele>935.59997558594</ele>
        <time>2020-06-26T13:38:49.000Z</time>
      </trkpt>
      <trkpt lat="45.6224" lon="6.80801">
        <ele>934.79998779297</ele>
        <time>2020-06-26T13:38:50.000Z</time>
      </trkpt>
      <trkpt lat="45.62235" lon="6.80809">
        <ele>933.79998779297</ele>
        <time>2020-06-26T13:38:51.000Z</time>
      </trkpt>
      <trkpt lat="45.62229" lon="6.80831">
        <ele>932.40002441406</ele>
        <time>2020-06-26T13:38:53.000Z</time>
      </trkpt>
      <trkpt lat="45.62227" lon="6.80844">
        <ele>931.59997558594</ele>
        <time>2020-06-26T13:38:54.000Z</time>
      </trkpt>
      <trkpt lat="45.62224" lon="6.80858">
        <ele>931</ele>
        <time>2020-06-26T13:38:55.000Z</time>
      </trkpt>
      <trkpt lat="45.62205" lon="6.80942">
        <ele>929.79998779297</ele>
        <time>2020-06-26T13:39:01.000Z</time>
      </trkpt>
      <trkpt lat="45.62202" lon="6.80957">
        <ele>929.40002441406</ele>
        <time>2020-06-26T13:39:02.000Z</time>
      </trkpt>
      <trkpt lat="45.62196" lon="6.80987">
        <ele>928.40002441406</ele>
        <time>2020-06-26T13:39:04.000Z</time>
      </trkpt>
      <trkpt lat="45.6219" lon="6.81017">
        <ele>926.79998779297</ele>
        <time>2020-06-26T13:39:06.000Z</time>
      </trkpt>
      <trkpt lat="45.62186" lon="6.81031">
        <ele>926.40002441406</ele>
        <time>2020-06-26T13:39:07.000Z</time>
      </trkpt>
      <trkpt lat="45.62181" lon="6.81044">
        <ele>925.79998779297</ele>
        <time>2020-06-26T13:39:08.000Z</time>
      </trkpt>
      <trkpt lat="45.62164" lon="6.81061">
        <ele>925.20001220703</ele>
        <time>2020-06-26T13:39:10.000Z</time>
      </trkpt>
      <trkpt lat="45.62154" lon="6.81061">
        <ele>924.59997558594</ele>
        <time>2020-06-26T13:39:11.000Z</time>
      </trkpt>
      <trkpt lat="45.62144" lon="6.81057">
        <ele>924.20001220703</ele>
        <time>2020-06-26T13:39:12.000Z</time>
      </trkpt>
      <trkpt lat="45.62136" lon="6.81048">
        <ele>923.40002441406</ele>
        <time>2020-06-26T13:39:13.000Z</time>
      </trkpt>
      <trkpt lat="45.62131" lon="6.81035">
        <ele>922.79998779297</ele>
        <time>2020-06-26T13:39:14.000Z</time>
      </trkpt>
      <trkpt lat="45.62128" lon="6.81021">
        <ele>922.20001220703</ele>
        <time>2020-06-26T13:39:15.000Z</time>
      </trkpt>
      <trkpt lat="45.62127" lon="6.81006">
        <ele>922.20001220703</ele>
        <time>2020-06-26T13:39:16.000Z</time>
      </trkpt>
      <trkpt lat="45.62126" lon="6.80991">
        <ele>921.79998779297</ele>
        <time>2020-06-26T13:39:17.000Z</time>
      </trkpt>
      <trkpt lat="45.62125" lon="6.80976">
        <ele>921.20001220703</ele>
        <time>2020-06-26T13:39:18.000Z</time>
      </trkpt>
      <trkpt lat="45.62123" lon="6.80946">
        <ele>920</ele>
        <time>2020-06-26T13:39:20.000Z</time>
      </trkpt>
      <trkpt lat="45.62122" lon="6.80931">
        <ele>918.79998779297</ele>
        <time>2020-06-26T13:39:21.000Z</time>
      </trkpt>
      <trkpt lat="45.62121" lon="6.809">
        <ele>916.40002441406</ele>
        <time>2020-06-26T13:39:23.000Z</time>
      </trkpt>
      <trkpt lat="45.6212" lon="6.80885">
        <ele>916</ele>
        <time>2020-06-26T13:39:24.000Z</time>
      </trkpt>
      <trkpt lat="45.62118" lon="6.80855">
        <ele>915.40002441406</ele>
        <time>2020-06-26T13:39:26.000Z</time>
      </trkpt>
      <trkpt lat="45.62115" lon="6.8081">
        <ele>914.40002441406</ele>
        <time>2020-06-26T13:39:29.000Z</time>
      </trkpt>
      <trkpt lat="45.62113" lon="6.80779">
        <ele>913</ele>
        <time>2020-06-26T13:39:31.000Z</time>
      </trkpt>
      <trkpt lat="45.62112" lon="6.80764">
        <ele>912.40002441406</ele>
        <time>2020-06-26T13:39:32.000Z</time>
      </trkpt>
      <trkpt lat="45.6211" lon="6.80749">
        <ele>911.59997558594</ele>
        <time>2020-06-26T13:39:33.000Z</time>
      </trkpt>
      <trkpt lat="45.62107" lon="6.80704">
        <ele>910.59997558594</ele>
        <time>2020-06-26T13:39:36.000Z</time>
      </trkpt>
      <trkpt lat="45.62105" lon="6.80676">
        <ele>909.59997558594</ele>
        <time>2020-06-26T13:39:38.000Z</time>
      </trkpt>
      <trkpt lat="45.62103" lon="6.80647">
        <ele>908.40002441406</ele>
        <time>2020-06-26T13:39:40.000Z</time>
      </trkpt>
      <trkpt lat="45.621" lon="6.80601">
        <ele>907.20001220703</ele>
        <time>2020-06-26T13:39:43.000Z</time>
      </trkpt>
      <trkpt lat="45.62099" lon="6.80586">
        <ele>907</ele>
        <time>2020-06-26T13:39:44.000Z</time>
      </trkpt>
      <trkpt lat="45.62095" lon="6.80508">
        <ele>906.40002441406</ele>
        <time>2020-06-26T13:39:49.000Z</time>
      </trkpt>
      <trkpt lat="45.62095" lon="6.80492">
        <ele>905.59997558594</ele>
        <time>2020-06-26T13:39:50.000Z</time>
      </trkpt>
      <trkpt lat="45.62097" lon="6.80463">
        <ele>903.40002441406</ele>
        <time>2020-06-26T13:39:52.000Z</time>
      </trkpt>
      <trkpt lat="45.62102" lon="6.80433">
        <ele>902.40002441406</ele>
        <time>2020-06-26T13:39:54.000Z</time>
      </trkpt>
      <trkpt lat="45.62105" lon="6.80419">
        <ele>901.79998779297</ele>
        <time>2020-06-26T13:39:55.000Z</time>
      </trkpt>
      <trkpt lat="45.62112" lon="6.80392">
        <ele>900.40002441406</ele>
        <time>2020-06-26T13:39:57.000Z</time>
      </trkpt>
      <trkpt lat="45.62121" lon="6.80366">
        <ele>899.20001220703</ele>
        <time>2020-06-26T13:39:59.000Z</time>
      </trkpt>
      <trkpt lat="45.62137" lon="6.80316">
        <ele>898</ele>
        <time>2020-06-26T13:40:03.000Z</time>
      </trkpt>
      <trkpt lat="45.62141" lon="6.80304">
        <ele>897</ele>
        <time>2020-06-26T13:40:04.000Z</time>
      </trkpt>
      <trkpt lat="45.62144" lon="6.80291">
        <ele>896.40002441406</ele>
        <time>2020-06-26T13:40:05.000Z</time>
      </trkpt>
      <trkpt lat="45.62152" lon="6.80268">
        <ele>895.79998779297</ele>
        <time>2020-06-26T13:40:07.000Z</time>
      </trkpt>
      <trkpt lat="45.62168" lon="6.8022">
        <ele>894.59997558594</ele>
        <time>2020-06-26T13:40:11.000Z</time>
      </trkpt>
      <trkpt lat="45.62176" lon="6.80199">
        <ele>893.20001220703</ele>
        <time>2020-06-26T13:40:13.000Z</time>
      </trkpt>
      <trkpt lat="45.62182" lon="6.80181">
        <ele>892.40002441406</ele>
        <time>2020-06-26T13:40:15.000Z</time>
      </trkpt>
      <trkpt lat="45.62184" lon="6.80173">
        <ele>892.20001220703</ele>
        <time>2020-06-26T13:40:16.000Z</time>
      </trkpt>
      <trkpt lat="45.62186" lon="6.80165">
        <ele>892</ele>
        <time>2020-06-26T13:40:17.000Z</time>
      </trkpt>
      <trkpt lat="45.62188" lon="6.80148">
        <ele>891</ele>
        <time>2020-06-26T13:40:19.000Z</time>
      </trkpt>
      <trkpt lat="45.62189" lon="6.80138">
        <ele>890.79998779297</ele>
        <time>2020-06-26T13:40:20.000Z</time>
      </trkpt>
      <trkpt lat="45.62199" lon="6.80108">
        <ele>890.40002441406</ele>
        <time>2020-06-26T13:40:23.000Z</time>
      </trkpt>
      <trkpt lat="45.62208" lon="6.80088">
        <ele>890.20001220703</ele>
        <time>2020-06-26T13:40:25.000Z</time>
      </trkpt>
      <trkpt lat="45.62222" lon="6.8006">
        <ele>889.20001220703</ele>
        <time>2020-06-26T13:40:28.000Z</time>
      </trkpt>
      <trkpt lat="45.62233" lon="6.80041">
        <ele>888.40002441406</ele>
        <time>2020-06-26T13:40:30.000Z</time>
      </trkpt>
      <trkpt lat="45.62238" lon="6.80033">
        <ele>887.79998779297</ele>
        <time>2020-06-26T13:40:31.000Z</time>
      </trkpt>
      <trkpt lat="45.6225" lon="6.80016">
        <ele>886</ele>
        <time>2020-06-26T13:40:33.000Z</time>
      </trkpt>
      <trkpt lat="45.62266" lon="6.79993">
        <ele>885</ele>
        <time>2020-06-26T13:40:36.000Z</time>
      </trkpt>
      <trkpt lat="45.62272" lon="6.79986">
        <ele>884.79998779297</ele>
        <time>2020-06-26T13:40:37.000Z</time>
      </trkpt>
      <trkpt lat="45.62291" lon="6.79954">
        <ele>884.40002441406</ele>
        <time>2020-06-26T13:40:41.000Z</time>
      </trkpt>
      <trkpt lat="45.62296" lon="6.79946">
        <ele>884.20001220703</ele>
        <time>2020-06-26T13:40:42.000Z</time>
      </trkpt>
      <trkpt lat="45.623" lon="6.79937">
        <ele>883.79998779297</ele>
        <time>2020-06-26T13:40:43.000Z</time>
      </trkpt>
      <trkpt lat="45.62313" lon="6.79908">
        <ele>882.79998779297</ele>
        <time>2020-06-26T13:40:46.000Z</time>
      </trkpt>
      <trkpt lat="45.62321" lon="6.79889">
        <ele>882</ele>
        <time>2020-06-26T13:40:48.000Z</time>
      </trkpt>
      <trkpt lat="45.62325" lon="6.7988">
        <ele>881.20001220703</ele>
        <time>2020-06-26T13:40:49.000Z</time>
      </trkpt>
      <trkpt lat="45.62335" lon="6.79862">
        <ele>880</ele>
        <time>2020-06-26T13:40:51.000Z</time>
      </trkpt>
      <trkpt lat="45.62345" lon="6.79843">
        <ele>879.20001220703</ele>
        <time>2020-06-26T13:40:53.000Z</time>
      </trkpt>
      <trkpt lat="45.6235" lon="6.79833">
        <ele>878.79998779297</ele>
        <time>2020-06-26T13:40:54.000Z</time>
      </trkpt>
      <trkpt lat="45.62377" lon="6.79782">
        <ele>878.20001220703</ele>
        <time>2020-06-26T13:40:59.000Z</time>
      </trkpt>
      <trkpt lat="45.62383" lon="6.79771">
        <ele>877.79998779297</ele>
        <time>2020-06-26T13:41:00.000Z</time>
      </trkpt>
      <trkpt lat="45.62394" lon="6.79749">
        <ele>876.79998779297</ele>
        <time>2020-06-26T13:41:02.000Z</time>
      </trkpt>
      <trkpt lat="45.62409" lon="6.79714">
        <ele>875.59997558594</ele>
        <time>2020-06-26T13:41:05.000Z</time>
      </trkpt>
      <trkpt lat="45.62414" lon="6.79702">
        <ele>875.40002441406</ele>
        <time>2020-06-26T13:41:06.000Z</time>
      </trkpt>
      <trkpt lat="45.62429" lon="6.79669">
        <ele>874.40002441406</ele>
        <time>2020-06-26T13:41:09.000Z</time>
      </trkpt>
      <trkpt lat="45.62444" lon="6.79638">
        <ele>873</ele>
        <time>2020-06-26T13:41:12.000Z</time>
      </trkpt>
      <trkpt lat="45.62449" lon="6.79627">
        <ele>872.79998779297</ele>
        <time>2020-06-26T13:41:13.000Z</time>
      </trkpt>
      <trkpt lat="45.62459" lon="6.79606">
        <ele>872.20001220703</ele>
        <time>2020-06-26T13:41:15.000Z</time>
      </trkpt>
      <trkpt lat="45.62469" lon="6.79584">
        <ele>870.59997558594</ele>
        <time>2020-06-26T13:41:17.000Z</time>
      </trkpt>
      <trkpt lat="45.62481" lon="6.79562">
        <ele>869.79998779297</ele>
        <time>2020-06-26T13:41:19.000Z</time>
      </trkpt>
      <trkpt lat="45.62492" lon="6.79539">
        <ele>869.59997558594</ele>
        <time>2020-06-26T13:41:21.000Z</time>
      </trkpt>
      <trkpt lat="45.62513" lon="6.79494">
        <ele>868</ele>
        <time>2020-06-26T13:41:25.000Z</time>
      </trkpt>
      <trkpt lat="45.62521" lon="6.79479">
        <ele>867.20001220703</ele>
        <time>2020-06-26T13:41:27.000Z</time>
      </trkpt>
      <trkpt lat="45.62527" lon="6.79474">
        <ele>866.79998779297</ele>
        <time>2020-06-26T13:41:28.000Z</time>
      </trkpt>
      <trkpt lat="45.62533" lon="6.79469">
        <ele>866.20001220703</ele>
        <time>2020-06-26T13:41:29.000Z</time>
      </trkpt>
      <trkpt lat="45.62543" lon="6.79456">
        <ele>865</ele>
        <time>2020-06-26T13:41:31.000Z</time>
      </trkpt>
      <trkpt lat="45.62559" lon="6.7943">
        <ele>864.40002441406</ele>
        <time>2020-06-26T13:41:34.000Z</time>
      </trkpt>
      <trkpt lat="45.62566" lon="6.79423">
        <ele>864.40002441406</ele>
        <time>2020-06-26T13:41:35.000Z</time>
      </trkpt>
      <trkpt lat="45.62581" lon="6.79408">
        <ele>863.79998779297</ele>
        <time>2020-06-26T13:41:37.000Z</time>
      </trkpt>
      <trkpt lat="45.62596" lon="6.79392">
        <ele>863</ele>
        <time>2020-06-26T13:41:39.000Z</time>
      </trkpt>
      <trkpt lat="45.62602" lon="6.79383">
        <ele>862.59997558594</ele>
        <time>2020-06-26T13:41:40.000Z</time>
      </trkpt>
      <trkpt lat="45.62614" lon="6.79363">
        <ele>862</ele>
        <time>2020-06-26T13:41:42.000Z</time>
      </trkpt>
      <trkpt lat="45.62624" lon="6.79342">
        <ele>860.59997558594</ele>
        <time>2020-06-26T13:41:44.000Z</time>
      </trkpt>
      <trkpt lat="45.62632" lon="6.79319">
        <ele>859.20001220703</ele>
        <time>2020-06-26T13:41:46.000Z</time>
      </trkpt>
      <trkpt lat="45.6264" lon="6.79296">
        <ele>858</ele>
        <time>2020-06-26T13:41:48.000Z</time>
      </trkpt>
      <trkpt lat="45.62646" lon="6.79271">
        <ele>856.79998779297</ele>
        <time>2020-06-26T13:41:50.000Z</time>
      </trkpt>
      <trkpt lat="45.62653" lon="6.79229">
        <ele>855.40002441406</ele>
        <time>2020-06-26T13:41:53.000Z</time>
      </trkpt>
      <trkpt lat="45.62655" lon="6.79215">
        <ele>854.79998779297</ele>
        <time>2020-06-26T13:41:54.000Z</time>
      </trkpt>
      <trkpt lat="45.62658" lon="6.79201">
        <ele>854.40002441406</ele>
        <time>2020-06-26T13:41:55.000Z</time>
      </trkpt>
      <trkpt lat="45.6267" lon="6.79158">
        <ele>853.59997558594</ele>
        <time>2020-06-26T13:41:58.000Z</time>
      </trkpt>
      <trkpt lat="45.62677" lon="6.7913">
        <ele>853.20001220703</ele>
        <time>2020-06-26T13:42:00.000Z</time>
      </trkpt>
      <trkpt lat="45.6268" lon="6.79116">
        <ele>852.79998779297</ele>
        <time>2020-06-26T13:42:01.000Z</time>
      </trkpt>
      <trkpt lat="45.62682" lon="6.79101">
        <ele>852</ele>
        <time>2020-06-26T13:42:02.000Z</time>
      </trkpt>
      <trkpt lat="45.6269" lon="6.79056">
        <ele>850.59997558594</ele>
        <time>2020-06-26T13:42:05.000Z</time>
      </trkpt>
      <trkpt lat="45.62694" lon="6.79025">
        <ele>849.40002441406</ele>
        <time>2020-06-26T13:42:07.000Z</time>
      </trkpt>
      <trkpt lat="45.62696" lon="6.7901">
        <ele>848.79998779297</ele>
        <time>2020-06-26T13:42:08.000Z</time>
      </trkpt>
      <trkpt lat="45.62697" lon="6.78994">
        <ele>848</ele>
        <time>2020-06-26T13:42:09.000Z</time>
      </trkpt>
      <trkpt lat="45.627" lon="6.78963">
        <ele>846.59997558594</ele>
        <time>2020-06-26T13:42:11.000Z</time>
      </trkpt>
      <trkpt lat="45.62702" lon="6.78931">
        <ele>845.20001220703</ele>
        <time>2020-06-26T13:42:13.000Z</time>
      </trkpt>
      <trkpt lat="45.62703" lon="6.78916">
        <ele>844.20001220703</ele>
        <time>2020-06-26T13:42:14.000Z</time>
      </trkpt>
      <trkpt lat="45.62704" lon="6.78901">
        <ele>843.20001220703</ele>
        <time>2020-06-26T13:42:15.000Z</time>
      </trkpt>
      <trkpt lat="45.62706" lon="6.78857">
        <ele>841.79998779297</ele>
        <time>2020-06-26T13:42:18.000Z</time>
      </trkpt>
      <trkpt lat="45.62707" lon="6.78842">
        <ele>840.40002441406</ele>
        <time>2020-06-26T13:42:19.000Z</time>
      </trkpt>
      <trkpt lat="45.62708" lon="6.78827">
        <ele>839.59997558594</ele>
        <time>2020-06-26T13:42:20.000Z</time>
      </trkpt>
      <trkpt lat="45.62709" lon="6.78811">
        <ele>838.59997558594</ele>
        <time>2020-06-26T13:42:21.000Z</time>
      </trkpt>
      <trkpt lat="45.62711" lon="6.78781">
        <ele>837.59997558594</ele>
        <time>2020-06-26T13:42:23.000Z</time>
      </trkpt>
      <trkpt lat="45.62716" lon="6.78718">
        <ele>835.79998779297</ele>
        <time>2020-06-26T13:42:27.000Z</time>
      </trkpt>
      <trkpt lat="45.62716" lon="6.78702">
        <ele>835.20001220703</ele>
        <time>2020-06-26T13:42:28.000Z</time>
      </trkpt>
      <trkpt lat="45.62716" lon="6.78686">
        <ele>834.79998779297</ele>
        <time>2020-06-26T13:42:29.000Z</time>
      </trkpt>
      <trkpt lat="45.62712" lon="6.78654">
        <ele>834.20001220703</ele>
        <time>2020-06-26T13:42:31.000Z</time>
      </trkpt>
      <trkpt lat="45.62704" lon="6.78625">
        <ele>833.79998779297</ele>
        <time>2020-06-26T13:42:33.000Z</time>
      </trkpt>
      <trkpt lat="45.62699" lon="6.78612">
        <ele>833.40002441406</ele>
        <time>2020-06-26T13:42:34.000Z</time>
      </trkpt>
      <trkpt lat="45.62683" lon="6.78589">
        <ele>832.20001220703</ele>
        <time>2020-06-26T13:42:36.000Z</time>
      </trkpt>
      <trkpt lat="45.62674" lon="6.7858">
        <ele>831.20001220703</ele>
        <time>2020-06-26T13:42:37.000Z</time>
      </trkpt>
      <trkpt lat="45.62665" lon="6.7857">
        <ele>830.59997558594</ele>
        <time>2020-06-26T13:42:38.000Z</time>
      </trkpt>
      <trkpt lat="45.6264" lon="6.78543">
        <ele>829.40002441406</ele>
        <time>2020-06-26T13:42:41.000Z</time>
      </trkpt>
      <trkpt lat="45.62632" lon="6.78533">
        <ele>828.79998779297</ele>
        <time>2020-06-26T13:42:42.000Z</time>
      </trkpt>
      <trkpt lat="45.62623" lon="6.78508">
        <ele>828.20001220703</ele>
        <time>2020-06-26T13:42:44.000Z</time>
      </trkpt>
      <trkpt lat="45.62619" lon="6.78494">
        <ele>828</ele>
        <time>2020-06-26T13:42:45.000Z</time>
      </trkpt>
      <trkpt lat="45.62611" lon="6.78467">
        <ele>826.79998779297</ele>
        <time>2020-06-26T13:42:47.000Z</time>
      </trkpt>
      <trkpt lat="45.62598" lon="6.78424">
        <ele>825.59997558594</ele>
        <time>2020-06-26T13:42:50.000Z</time>
      </trkpt>
      <trkpt lat="45.62589" lon="6.78396">
        <ele>824</ele>
        <time>2020-06-26T13:42:52.000Z</time>
      </trkpt>
      <trkpt lat="45.62585" lon="6.78382">
        <ele>823.40002441406</ele>
        <time>2020-06-26T13:42:53.000Z</time>
      </trkpt>
      <trkpt lat="45.62581" lon="6.78368">
        <ele>823</ele>
        <time>2020-06-26T13:42:54.000Z</time>
      </trkpt>
      <trkpt lat="45.62571" lon="6.78323">
        <ele>821.59997558594</ele>
        <time>2020-06-26T13:42:57.000Z</time>
      </trkpt>
      <trkpt lat="45.62569" lon="6.78307">
        <ele>821.20001220703</ele>
        <time>2020-06-26T13:42:58.000Z</time>
      </trkpt>
      <trkpt lat="45.62567" lon="6.78275">
        <ele>820.40002441406</ele>
        <time>2020-06-26T13:43:00.000Z</time>
      </trkpt>
      <trkpt lat="45.62568" lon="6.78242">
        <ele>819.20001220703</ele>
        <time>2020-06-26T13:43:02.000Z</time>
      </trkpt>
      <trkpt lat="45.62568" lon="6.78194">
        <ele>817.59997558594</ele>
        <time>2020-06-26T13:43:05.000Z</time>
      </trkpt>
      <trkpt lat="45.62566" lon="6.78178">
        <ele>817.20001220703</ele>
        <time>2020-06-26T13:43:06.000Z</time>
      </trkpt>
      <trkpt lat="45.62561" lon="6.78147">
        <ele>816.40002441406</ele>
        <time>2020-06-26T13:43:08.000Z</time>
      </trkpt>
      <trkpt lat="45.62553" lon="6.7812">
        <ele>815.59997558594</ele>
        <time>2020-06-26T13:43:10.000Z</time>
      </trkpt>
      <trkpt lat="45.62548" lon="6.78107">
        <ele>815.40002441406</ele>
        <time>2020-06-26T13:43:11.000Z</time>
      </trkpt>
      <trkpt lat="45.62534" lon="6.7807">
        <ele>814.40002441406</ele>
        <time>2020-06-26T13:43:14.000Z</time>
      </trkpt>
      <trkpt lat="45.62524" lon="6.78045">
        <ele>814</ele>
        <time>2020-06-26T13:43:16.000Z</time>
      </trkpt>
      <trkpt lat="45.625" lon="6.77999">
        <ele>813.20001220703</ele>
        <time>2020-06-26T13:43:20.000Z</time>
      </trkpt>
      <trkpt lat="45.62493" lon="6.77989">
        <ele>813.20001220703</ele>
        <time>2020-06-26T13:43:21.000Z</time>
      </trkpt>
      <trkpt lat="45.62473" lon="6.77963">
        <ele>812</ele>
        <time>2020-06-26T13:43:24.000Z</time>
      </trkpt>
      <trkpt lat="45.62459" lon="6.77948">
        <ele>811.40002441406</ele>
        <time>2020-06-26T13:43:26.000Z</time>
      </trkpt>
      <trkpt lat="45.62446" lon="6.77932">
        <ele>810.79998779297</ele>
        <time>2020-06-26T13:43:28.000Z</time>
      </trkpt>
      <trkpt lat="45.62408" lon="6.77887">
        <ele>810.20001220703</ele>
        <time>2020-06-26T13:43:34.000Z</time>
      </trkpt>
      <trkpt lat="45.62396" lon="6.77873">
        <ele>809.79998779297</ele>
        <time>2020-06-26T13:43:36.000Z</time>
      </trkpt>
      <trkpt lat="45.62383" lon="6.77859">
        <ele>808.79998779297</ele>
        <time>2020-06-26T13:43:39.000Z</time>
      </trkpt>
      <trkpt lat="45.62377" lon="6.77853">
        <ele>808.40002441406</ele>
        <time>2020-06-26T13:43:43.000Z</time>
      </trkpt>
      <trkpt lat="45.62369" lon="6.77847">
        <ele>808</ele>
        <time>2020-06-26T13:43:49.000Z</time>
      </trkpt>
      <trkpt lat="45.62363" lon="6.77841">
        <ele>808</ele>
        <time>2020-06-26T13:43:51.000Z</time>
      </trkpt>
      <trkpt lat="45.62356" lon="6.77831">
        <ele>808.20001220703</ele>
        <time>2020-06-26T13:43:53.000Z</time>
      </trkpt>
      <trkpt lat="45.62339" lon="6.77813">
        <ele>808.20001220703</ele>
        <time>2020-06-26T13:43:57.000Z</time>
      </trkpt>
      <trkpt lat="45.62326" lon="6.77791">
        <ele>808</ele>
        <time>2020-06-26T13:44:01.000Z</time>
      </trkpt>
      <trkpt lat="45.62304" lon="6.77737">
        <ele>807.20001220703</ele>
        <time>2020-06-26T13:44:09.000Z</time>
      </trkpt>
      <trkpt lat="45.62297" lon="6.77723">
        <ele>806.79998779297</ele>
        <time>2020-06-26T13:44:11.000Z</time>
      </trkpt>
      <trkpt lat="45.62273" lon="6.7767">
        <ele>806.20001220703</ele>
        <time>2020-06-26T13:44:18.000Z</time>
      </trkpt>
      <trkpt lat="45.62265" lon="6.77654">
        <ele>806.20001220703</ele>
        <time>2020-06-26T13:44:20.000Z</time>
      </trkpt>
      <trkpt lat="45.62244" lon="6.77606">
        <ele>805.40002441406</ele>
        <time>2020-06-26T13:44:26.000Z</time>
      </trkpt>
      <trkpt lat="45.62232" lon="6.77581">
        <ele>805.20001220703</ele>
        <time>2020-06-26T13:44:30.000Z</time>
      </trkpt>
      <trkpt lat="45.62227" lon="6.7757">
        <ele>805.20001220703</ele>
        <time>2020-06-26T13:44:32.000Z</time>
      </trkpt>
      <trkpt lat="45.6222" lon="6.77554">
        <ele>805.20001220703</ele>
        <time>2020-06-26T13:44:37.000Z</time>
      </trkpt>
      <trkpt lat="45.6222" lon="6.77554">
        <ele>805.20001220703</ele>
        <time>2020-06-26T13:44:39.000Z</time>
      </trkpt>
      <trkpt lat="45.62218" lon="6.77551">
        <ele>805.40002441406</ele>
        <time>2020-06-26T13:44:53.000Z</time>
      </trkpt>
      <trkpt lat="45.62216" lon="6.77549">
        <ele>805.20001220703</ele>
        <time>2020-06-26T13:44:54.000Z</time>
      </trkpt>
      <trkpt lat="45.62211" lon="6.77533">
        <ele>805.40002441406</ele>
        <time>2020-06-26T13:45:00.000Z</time>
      </trkpt>
      <trkpt lat="45.62203" lon="6.77515">
        <ele>805.40002441406</ele>
        <time>2020-06-26T13:45:06.000Z</time>
      </trkpt>
      <trkpt lat="45.62201" lon="6.77504">
        <ele>805.40002441406</ele>
        <time>2020-06-26T13:45:12.000Z</time>
      </trkpt>
      <trkpt lat="45.62197" lon="6.77497">
        <ele>806</ele>
        <time>2020-06-26T13:49:01.000Z</time>
      </trkpt>
      <trkpt lat="45.62196" lon="6.77493">
        <ele>806</ele>
        <time>2020-06-26T13:49:05.000Z</time>
      </trkpt>
      <trkpt lat="45.62196" lon="6.77492">
        <ele>806.20001220703</ele>
        <time>2020-06-26T13:49:07.000Z</time>
      </trkpt>
      <trkpt lat="45.62187" lon="6.77488">
        <ele>805.20001220703</ele>
        <time>2020-06-26T13:51:15.000Z</time>
      </trkpt>
      <trkpt lat="45.62186" lon="6.77486">
        <ele>805.20001220703</ele>
        <time>2020-06-26T13:51:16.000Z</time>
      </trkpt>
      <trkpt lat="45.62182" lon="6.77467">
        <ele>805.40002441406</ele>
        <time>2020-06-26T13:51:22.000Z</time>
      </trkpt>
      <trkpt lat="45.6218" lon="6.77462">
        <ele>805.40002441406</ele>
        <time>2020-06-26T13:51:26.000Z</time>
      </trkpt>
      <trkpt lat="45.62179" lon="6.77461">
        <ele>805.40002441406</ele>
        <time>2020-06-26T13:51:27.000Z</time>
      </trkpt>
      <trkpt lat="45.62178" lon="6.7746">
        <ele>805.20001220703</ele>
        <time>2020-06-26T13:51:30.000Z</time>
      </trkpt>
      <trkpt lat="45.62176" lon="6.77457">
        <ele>805.40002441406</ele>
        <time>2020-06-26T13:51:51.000Z</time>
      </trkpt>
      <trkpt lat="45.62175" lon="6.77455">
        <ele>805.40002441406</ele>
        <time>2020-06-26T13:51:52.000Z</time>
      </trkpt>
      <trkpt lat="45.62168" lon="6.77438">
        <ele>805.20001220703</ele>
        <time>2020-06-26T13:51:57.000Z</time>
      </trkpt>
      <trkpt lat="45.62155" lon="6.77402">
        <ele>805.20001220703</ele>
        <time>2020-06-26T13:52:05.000Z</time>
      </trkpt>
      <trkpt lat="45.62139" lon="6.77357">
        <ele>806</ele>
        <time>2020-06-26T13:52:15.000Z</time>
      </trkpt>
      <trkpt lat="45.62125" lon="6.77322">
        <ele>806.40002441406</ele>
        <time>2020-06-26T13:52:22.000Z</time>
      </trkpt>
      <trkpt lat="45.62117" lon="6.773">
        <ele>806.79998779297</ele>
        <time>2020-06-26T13:52:26.000Z</time>
      </trkpt>
      <trkpt lat="45.62111" lon="6.77285">
        <ele>807</ele>
        <time>2020-06-26T13:52:29.000Z</time>
      </trkpt>
      <trkpt lat="45.62107" lon="6.77275">
        <ele>807.40002441406</ele>
        <time>2020-06-26T13:52:31.000Z</time>
      </trkpt>
      <trkpt lat="45.62094" lon="6.77243">
        <ele>808.40002441406</ele>
        <time>2020-06-26T13:52:38.000Z</time>
      </trkpt>
      <trkpt lat="45.62092" lon="6.77238">
        <ele>808.59997558594</ele>
        <time>2020-06-26T13:52:39.000Z</time>
      </trkpt>
      <trkpt lat="45.62074" lon="6.77195">
        <ele>809.20001220703</ele>
        <time>2020-06-26T13:52:46.000Z</time>
      </trkpt>
      <trkpt lat="45.62054" lon="6.77146">
        <ele>809.59997558594</ele>
        <time>2020-06-26T13:52:55.000Z</time>
      </trkpt>
      <trkpt lat="45.62048" lon="6.77128">
        <ele>809.79998779297</ele>
        <time>2020-06-26T13:53:00.000Z</time>
      </trkpt>
      <trkpt lat="45.62048" lon="6.77122">
        <ele>810</ele>
        <time>2020-06-26T13:53:02.000Z</time>
      </trkpt>
      <trkpt lat="45.62049" lon="6.77113">
        <ele>810.20001220703</ele>
        <time>2020-06-26T13:53:04.000Z</time>
      </trkpt>
      <trkpt lat="45.62042" lon="6.77098">
        <ele>810.40002441406</ele>
        <time>2020-06-26T13:53:08.000Z</time>
      </trkpt>
      <trkpt lat="45.62039" lon="6.77096">
        <ele>810.59997558594</ele>
        <time>2020-06-26T13:53:09.000Z</time>
      </trkpt>
      <trkpt lat="45.6203" lon="6.77095">
        <ele>810.79998779297</ele>
        <time>2020-06-26T13:53:11.000Z</time>
      </trkpt>
      <trkpt lat="45.62011" lon="6.77097">
        <ele>810.79998779297</ele>
        <time>2020-06-26T13:53:15.000Z</time>
      </trkpt>
      <trkpt lat="45.62007" lon="6.77096">
        <ele>810.79998779297</ele>
        <time>2020-06-26T13:53:16.000Z</time>
      </trkpt>
      <trkpt lat="45.61975" lon="6.77091">
        <ele>810.79998779297</ele>
        <time>2020-06-26T13:53:23.000Z</time>
      </trkpt>
      <trkpt lat="45.61939" lon="6.77088">
        <ele>810.40002441406</ele>
        <time>2020-06-26T13:53:30.000Z</time>
      </trkpt>
      <trkpt lat="45.6189" lon="6.77085">
        <ele>809.59997558594</ele>
        <time>2020-06-26T13:53:39.000Z</time>
      </trkpt>
      <trkpt lat="45.61885" lon="6.77085">
        <ele>809.40002441406</ele>
        <time>2020-06-26T13:53:40.000Z</time>
      </trkpt>
      <trkpt lat="45.6188" lon="6.77085">
        <ele>809.40002441406</ele>
        <time>2020-06-26T13:53:41.000Z</time>
      </trkpt>
      <trkpt lat="45.6187" lon="6.77085">
        <ele>809</ele>
        <time>2020-06-26T13:53:43.000Z</time>
      </trkpt>
      <trkpt lat="45.61861" lon="6.77083">
        <ele>808.59997558594</ele>
        <time>2020-06-26T13:53:45.000Z</time>
      </trkpt>
      <trkpt lat="45.61852" lon="6.77082">
        <ele>808.59997558594</ele>
        <time>2020-06-26T13:53:47.000Z</time>
      </trkpt>
      <trkpt lat="45.61838" lon="6.77082">
        <ele>808.59997558594</ele>
        <time>2020-06-26T13:53:50.000Z</time>
      </trkpt>
      <trkpt lat="45.61817" lon="6.77076">
        <ele>809</ele>
        <time>2020-06-26T13:53:55.000Z</time>
      </trkpt>
      <trkpt lat="45.61813" lon="6.77074">
        <ele>809</ele>
        <time>2020-06-26T13:53:56.000Z</time>
      </trkpt>
      <trkpt lat="45.61792" lon="6.77066">
        <ele>810</ele>
        <time>2020-06-26T13:54:01.000Z</time>
      </trkpt>
      <trkpt lat="45.61761" lon="6.77053">
        <ele>811</ele>
        <time>2020-06-26T13:54:08.000Z</time>
      </trkpt>
      <trkpt lat="45.61757" lon="6.77051">
        <ele>811.20001220703</ele>
        <time>2020-06-26T13:54:09.000Z</time>
      </trkpt>
      <trkpt lat="45.6174" lon="6.77044">
        <ele>811.79998779297</ele>
        <time>2020-06-26T13:54:13.000Z</time>
      </trkpt>
      <trkpt lat="45.61736" lon="6.77042">
        <ele>812.20001220703</ele>
        <time>2020-06-26T13:54:14.000Z</time>
      </trkpt>
      <trkpt lat="45.61719" lon="6.77034">
        <ele>812.79998779297</ele>
        <time>2020-06-26T13:54:18.000Z</time>
      </trkpt>
      <trkpt lat="45.61704" lon="6.77027">
        <ele>813.59997558594</ele>
        <time>2020-06-26T13:54:22.000Z</time>
      </trkpt>
      <trkpt lat="45.61688" lon="6.7702">
        <ele>814.79998779297</ele>
        <time>2020-06-26T13:54:26.000Z</time>
      </trkpt>
      <trkpt lat="45.6168" lon="6.77017">
        <ele>815</ele>
        <time>2020-06-26T13:54:28.000Z</time>
      </trkpt>
      <trkpt lat="45.61669" lon="6.77012">
        <ele>815.79998779297</ele>
        <time>2020-06-26T13:54:31.000Z</time>
      </trkpt>
      <trkpt lat="45.61657" lon="6.77005">
        <ele>816.20001220703</ele>
        <time>2020-06-26T13:54:35.000Z</time>
      </trkpt>
      <trkpt lat="45.61651" lon="6.77002">
        <ele>817</ele>
        <time>2020-06-26T13:54:38.000Z</time>
      </trkpt>
      <trkpt lat="45.61647" lon="6.77">
        <ele>817.79998779297</ele>
        <time>2020-06-26T13:54:41.000Z</time>
      </trkpt>
      <trkpt lat="45.61646" lon="6.77">
        <ele>818.20001220703</ele>
        <time>2020-06-26T13:54:43.000Z</time>
      </trkpt>
      <trkpt lat="45.61646" lon="6.77">
        <ele>818.40002441406</ele>
        <time>2020-06-26T13:54:44.000Z</time>
      </trkpt>
      <trkpt lat="45.61643" lon="6.76999">
        <ele>819</ele>
        <time>2020-06-26T13:55:06.000Z</time>
      </trkpt>
      <trkpt lat="45.61642" lon="6.76998">
        <ele>819</ele>
        <time>2020-06-26T13:55:07.000Z</time>
      </trkpt>
      <trkpt lat="45.61631" lon="6.76991">
        <ele>819.20001220703</ele>
        <time>2020-06-26T13:55:13.000Z</time>
      </trkpt>
      <trkpt lat="45.61608" lon="6.76977">
        <ele>819.40002441406</ele>
        <time>2020-06-26T13:55:21.000Z</time>
      </trkpt>
      <trkpt lat="45.61598" lon="6.76969">
        <ele>819.79998779297</ele>
        <time>2020-06-26T13:55:24.000Z</time>
      </trkpt>
      <trkpt lat="45.61583" lon="6.76955">
        <ele>820.59997558594</ele>
        <time>2020-06-26T13:55:29.000Z</time>
      </trkpt>
      <trkpt lat="45.6158" lon="6.76952">
        <ele>820.79998779297</ele>
        <time>2020-06-26T13:55:30.000Z</time>
      </trkpt>
      <trkpt lat="45.6156" lon="6.76928">
        <ele>821.79998779297</ele>
        <time>2020-06-26T13:55:37.000Z</time>
      </trkpt>
      <trkpt lat="45.61557" lon="6.76924">
        <ele>822</ele>
        <time>2020-06-26T13:55:38.000Z</time>
      </trkpt>
      <trkpt lat="45.61545" lon="6.76903">
        <ele>823</ele>
        <time>2020-06-26T13:55:43.000Z</time>
      </trkpt>
      <trkpt lat="45.61538" lon="6.76891">
        <ele>824.20001220703</ele>
        <time>2020-06-26T13:55:46.000Z</time>
      </trkpt>
      <trkpt lat="45.61526" lon="6.76866">
        <ele>825.40002441406</ele>
        <time>2020-06-26T13:55:52.000Z</time>
      </trkpt>
      <trkpt lat="45.61517" lon="6.76849">
        <ele>826.40002441406</ele>
        <time>2020-06-26T13:55:56.000Z</time>
      </trkpt>
      <trkpt lat="45.61515" lon="6.76844">
        <ele>826.59997558594</ele>
        <time>2020-06-26T13:55:57.000Z</time>
      </trkpt>
      <trkpt lat="45.61501" lon="6.7682">
        <ele>827.59997558594</ele>
        <time>2020-06-26T13:56:03.000Z</time>
      </trkpt>
      <trkpt lat="45.61495" lon="6.76808">
        <ele>828.20001220703</ele>
        <time>2020-06-26T13:56:06.000Z</time>
      </trkpt>
      <trkpt lat="45.61491" lon="6.768">
        <ele>828.79998779297</ele>
        <time>2020-06-26T13:56:08.000Z</time>
      </trkpt>
      <trkpt lat="45.6148" lon="6.7678">
        <ele>830.20001220703</ele>
        <time>2020-06-26T13:56:13.000Z</time>
      </trkpt>
      <trkpt lat="45.61474" lon="6.76768">
        <ele>830.79998779297</ele>
        <time>2020-06-26T13:56:16.000Z</time>
      </trkpt>
      <trkpt lat="45.61466" lon="6.76752">
        <ele>831.40002441406</ele>
        <time>2020-06-26T13:56:20.000Z</time>
      </trkpt>
      <trkpt lat="45.61454" lon="6.76728">
        <ele>832.59997558594</ele>
        <time>2020-06-26T13:56:26.000Z</time>
      </trkpt>
      <trkpt lat="45.6145" lon="6.7672">
        <ele>833.20001220703</ele>
        <time>2020-06-26T13:56:28.000Z</time>
      </trkpt>
      <trkpt lat="45.61446" lon="6.76712">
        <ele>833.79998779297</ele>
        <time>2020-06-26T13:56:30.000Z</time>
      </trkpt>
      <trkpt lat="45.61433" lon="6.76689">
        <ele>835</ele>
        <time>2020-06-26T13:56:36.000Z</time>
      </trkpt>
      <trkpt lat="45.61424" lon="6.76674">
        <ele>836.20001220703</ele>
        <time>2020-06-26T13:56:40.000Z</time>
      </trkpt>
      <trkpt lat="45.61414" lon="6.76659">
        <ele>837.20001220703</ele>
        <time>2020-06-26T13:56:44.000Z</time>
      </trkpt>
      <trkpt lat="45.61405" lon="6.76644">
        <ele>838.40002441406</ele>
        <time>2020-06-26T13:56:48.000Z</time>
      </trkpt>
      <trkpt lat="45.61402" lon="6.7664">
        <ele>838.59997558594</ele>
        <time>2020-06-26T13:56:49.000Z</time>
      </trkpt>
      <trkpt lat="45.614" lon="6.76627">
        <ele>839.20001220703</ele>
        <time>2020-06-26T13:56:52.000Z</time>
      </trkpt>
      <trkpt lat="45.61398" lon="6.76619">
        <ele>839.59997558594</ele>
        <time>2020-06-26T13:56:54.000Z</time>
      </trkpt>
      <trkpt lat="45.61394" lon="6.76614">
        <ele>839.79998779297</ele>
        <time>2020-06-26T13:56:56.000Z</time>
      </trkpt>
      <trkpt lat="45.61392" lon="6.76612">
        <ele>840</ele>
        <time>2020-06-26T13:56:57.000Z</time>
      </trkpt>
      <trkpt lat="45.61382" lon="6.76614">
        <ele>840.79998779297</ele>
        <time>2020-06-26T13:57:00.000Z</time>
      </trkpt>
      <trkpt lat="45.6138" lon="6.76618">
        <ele>841</ele>
        <time>2020-06-26T13:57:01.000Z</time>
      </trkpt>
      <trkpt lat="45.61372" lon="6.76641">
        <ele>841.20001220703</ele>
        <time>2020-06-26T13:57:05.000Z</time>
      </trkpt>
      <trkpt lat="45.61362" lon="6.76648">
        <ele>841.40002441406</ele>
        <time>2020-06-26T13:57:08.000Z</time>
      </trkpt>
      <trkpt lat="45.61358" lon="6.76648">
        <ele>841.59997558594</ele>
        <time>2020-06-26T13:57:09.000Z</time>
      </trkpt>
      <trkpt lat="45.61342" lon="6.76655">
        <ele>841.59997558594</ele>
        <time>2020-06-26T13:57:14.000Z</time>
      </trkpt>
      <trkpt lat="45.61333" lon="6.76672">
        <ele>841.20001220703</ele>
        <time>2020-06-26T13:57:18.000Z</time>
      </trkpt>
      <trkpt lat="45.61326" lon="6.76696">
        <ele>841</ele>
        <time>2020-06-26T13:57:22.000Z</time>
      </trkpt>
      <trkpt lat="45.61321" lon="6.76716">
        <ele>840.59997558594</ele>
        <time>2020-06-26T13:57:26.000Z</time>
      </trkpt>
      <trkpt lat="45.6132" lon="6.76719">
        <ele>840.20001220703</ele>
        <time>2020-06-26T13:57:27.000Z</time>
      </trkpt>
      <trkpt lat="45.6132" lon="6.76724">
        <ele>838.59997558594</ele>
        <time>2020-06-26T13:57:30.000Z</time>
      </trkpt>
      <trkpt lat="45.61322" lon="6.76728">
        <ele>837.59997558594</ele>
        <time>2020-06-26T13:57:33.000Z</time>
      </trkpt>
      <trkpt lat="45.61322" lon="6.76729">
        <ele>837</ele>
        <time>2020-06-26T13:57:35.000Z</time>
      </trkpt>
      <trkpt lat="45.61321" lon="6.76732">
        <ele>836.40002441406</ele>
        <time>2020-06-26T13:57:55.000Z</time>
      </trkpt>
      <trkpt lat="45.6132" lon="6.76739">
        <ele>836.40002441406</ele>
        <time>2020-06-26T13:57:58.000Z</time>
      </trkpt>
      <trkpt lat="45.6132" lon="6.7674">
        <ele>836.40002441406</ele>
        <time>2020-06-26T13:57:59.000Z</time>
      </trkpt>
      <trkpt lat="45.61319" lon="6.76743">
        <ele>836.40002441406</ele>
        <time>2020-06-26T13:58:02.000Z</time>
      </trkpt>
      <trkpt lat="45.61324" lon="6.76721">
        <ele>835.79998779297</ele>
        <time>2020-06-26T14:04:03.000Z</time>
      </trkpt>
      <trkpt lat="45.61327" lon="6.76711">
        <ele>835.79998779297</ele>
        <time>2020-06-26T14:04:08.000Z</time>
      </trkpt>
      <trkpt lat="45.61328" lon="6.76708">
        <ele>835.79998779297</ele>
        <time>2020-06-26T14:04:09.000Z</time>
      </trkpt>
      <trkpt lat="45.61336" lon="6.7668">
        <ele>836.40002441406</ele>
        <time>2020-06-26T14:04:18.000Z</time>
      </trkpt>
      <trkpt lat="45.61337" lon="6.76678">
        <ele>837</ele>
        <time>2020-06-26T14:04:19.000Z</time>
      </trkpt>
      <trkpt lat="45.61344" lon="6.76667">
        <ele>838.20001220703</ele>
        <time>2020-06-26T14:04:24.000Z</time>
      </trkpt>
      <trkpt lat="45.61345" lon="6.76665">
        <ele>838.20001220703</ele>
        <time>2020-06-26T14:04:25.000Z</time>
      </trkpt>
      <trkpt lat="45.61351" lon="6.7666">
        <ele>839.20001220703</ele>
        <time>2020-06-26T14:04:29.000Z</time>
      </trkpt>
      <trkpt lat="45.61354" lon="6.76659">
        <ele>839.59997558594</ele>
        <time>2020-06-26T14:04:31.000Z</time>
      </trkpt>
      <trkpt lat="45.61364" lon="6.76656">
        <ele>840.20001220703</ele>
        <time>2020-06-26T14:04:36.000Z</time>
      </trkpt>
      <trkpt lat="45.61366" lon="6.76656">
        <ele>840.40002441406</ele>
        <time>2020-06-26T14:04:37.000Z</time>
      </trkpt>
      <trkpt lat="45.61382" lon="6.76646">
        <ele>840.59997558594</ele>
        <time>2020-06-26T14:04:42.000Z</time>
      </trkpt>
      <trkpt lat="45.61395" lon="6.76636">
        <ele>840.59997558594</ele>
        <time>2020-06-26T14:04:45.000Z</time>
      </trkpt>
      <trkpt lat="45.614" lon="6.76626">
        <ele>840.59997558594</ele>
        <time>2020-06-26T14:04:47.000Z</time>
      </trkpt>
      <trkpt lat="45.61394" lon="6.76612">
        <ele>840.20001220703</ele>
        <time>2020-06-26T14:04:50.000Z</time>
      </trkpt>
      <trkpt lat="45.61378" lon="6.76605">
        <ele>840.20001220703</ele>
        <time>2020-06-26T14:04:54.000Z</time>
      </trkpt>
      <trkpt lat="45.6137" lon="6.76602">
        <ele>840</ele>
        <time>2020-06-26T14:04:56.000Z</time>
      </trkpt>
      <trkpt lat="45.61357" lon="6.76594">
        <ele>840.40002441406</ele>
        <time>2020-06-26T14:05:00.000Z</time>
      </trkpt>
      <trkpt lat="45.61329" lon="6.76581">
        <ele>841.40002441406</ele>
        <time>2020-06-26T14:05:08.000Z</time>
      </trkpt>
      <trkpt lat="45.61325" lon="6.76579">
        <ele>841.59997558594</ele>
        <time>2020-06-26T14:05:09.000Z</time>
      </trkpt>
      <trkpt lat="45.61299" lon="6.76569">
        <ele>842.79998779297</ele>
        <time>2020-06-26T14:05:16.000Z</time>
      </trkpt>
      <trkpt lat="45.61295" lon="6.76568">
        <ele>843</ele>
        <time>2020-06-26T14:05:17.000Z</time>
      </trkpt>
      <trkpt lat="45.61266" lon="6.76555">
        <ele>843.40002441406</ele>
        <time>2020-06-26T14:05:25.000Z</time>
      </trkpt>
      <trkpt lat="45.61238" lon="6.76545">
        <ele>844</ele>
        <time>2020-06-26T14:05:33.000Z</time>
      </trkpt>
      <trkpt lat="45.61234" lon="6.76544">
        <ele>844</ele>
        <time>2020-06-26T14:05:34.000Z</time>
      </trkpt>
      <trkpt lat="45.61212" lon="6.76537">
        <ele>844.40002441406</ele>
        <time>2020-06-26T14:05:40.000Z</time>
      </trkpt>
      <trkpt lat="45.61204" lon="6.76533">
        <ele>844.40002441406</ele>
        <time>2020-06-26T14:05:42.000Z</time>
      </trkpt>
      <trkpt lat="45.61194" lon="6.76524">
        <ele>844.59997558594</ele>
        <time>2020-06-26T14:05:45.000Z</time>
      </trkpt>
      <trkpt lat="45.61179" lon="6.7652">
        <ele>844.79998779297</ele>
        <time>2020-06-26T14:05:49.000Z</time>
      </trkpt>
      <trkpt lat="45.6116" lon="6.76515">
        <ele>845</ele>
        <time>2020-06-26T14:05:53.000Z</time>
      </trkpt>
      <trkpt lat="45.61155" lon="6.76512">
        <ele>845</ele>
        <time>2020-06-26T14:05:54.000Z</time>
      </trkpt>
      <trkpt lat="45.61129" lon="6.76489">
        <ele>845.20001220703</ele>
        <time>2020-06-26T14:06:00.000Z</time>
      </trkpt>
      <trkpt lat="45.61124" lon="6.76485">
        <ele>845.40002441406</ele>
        <time>2020-06-26T14:06:01.000Z</time>
      </trkpt>
      <trkpt lat="45.61101" lon="6.7646">
        <ele>845.59997558594</ele>
        <time>2020-06-26T14:06:07.000Z</time>
      </trkpt>
      <trkpt lat="45.61072" lon="6.76423">
        <ele>845.79998779297</ele>
        <time>2020-06-26T14:06:15.000Z</time>
      </trkpt>
      <trkpt lat="45.61057" lon="6.76397">
        <ele>845.79998779297</ele>
        <time>2020-06-26T14:06:20.000Z</time>
      </trkpt>
      <trkpt lat="45.61052" lon="6.76389">
        <ele>846</ele>
        <time>2020-06-26T14:06:24.000Z</time>
      </trkpt>
      <trkpt lat="45.61048" lon="6.76381">
        <ele>846</ele>
        <time>2020-06-26T14:06:31.000Z</time>
      </trkpt>
      <trkpt lat="45.61045" lon="6.76376">
        <ele>846</ele>
        <time>2020-06-26T14:06:34.000Z</time>
      </trkpt>
      <trkpt lat="45.6104" lon="6.76379">
        <ele>846</ele>
        <time>2020-06-26T14:06:36.000Z</time>
      </trkpt>
      <trkpt lat="45.61038" lon="6.76398">
        <ele>846</ele>
        <time>2020-06-26T14:06:39.000Z</time>
      </trkpt>
      <trkpt lat="45.61049" lon="6.7642">
        <ele>846.20001220703</ele>
        <time>2020-06-26T14:06:42.000Z</time>
      </trkpt>
      <trkpt lat="45.61055" lon="6.76444">
        <ele>845.40002441406</ele>
        <time>2020-06-26T14:06:45.000Z</time>
      </trkpt>
      <trkpt lat="45.61045" lon="6.76448">
        <ele>844.59997558594</ele>
        <time>2020-06-26T14:06:47.000Z</time>
      </trkpt>
      <trkpt lat="45.61029" lon="6.76433">
        <ele>843</ele>
        <time>2020-06-26T14:06:50.000Z</time>
      </trkpt>
      <trkpt lat="45.61023" lon="6.76427">
        <ele>842.40002441406</ele>
        <time>2020-06-26T14:06:51.000Z</time>
      </trkpt>
      <trkpt lat="45.61017" lon="6.76421">
        <ele>841.79998779297</ele>
        <time>2020-06-26T14:06:52.000Z</time>
      </trkpt>
      <trkpt lat="45.60996" lon="6.76402">
        <ele>840.79998779297</ele>
        <time>2020-06-26T14:06:55.000Z</time>
      </trkpt>
      <trkpt lat="45.60989" lon="6.76395">
        <ele>840.40002441406</ele>
        <time>2020-06-26T14:06:56.000Z</time>
      </trkpt>
      <trkpt lat="45.60966" lon="6.76375">
        <ele>839.59997558594</ele>
        <time>2020-06-26T14:06:59.000Z</time>
      </trkpt>
      <trkpt lat="45.60949" lon="6.76361">
        <ele>838.59997558594</ele>
        <time>2020-06-26T14:07:01.000Z</time>
      </trkpt>
      <trkpt lat="45.60941" lon="6.76354">
        <ele>837.79998779297</ele>
        <time>2020-06-26T14:07:02.000Z</time>
      </trkpt>
      <trkpt lat="45.60932" lon="6.76347">
        <ele>837.40002441406</ele>
        <time>2020-06-26T14:07:03.000Z</time>
      </trkpt>
      <trkpt lat="45.60894" lon="6.76316">
        <ele>836.20001220703</ele>
        <time>2020-06-26T14:07:07.000Z</time>
      </trkpt>
      <trkpt lat="45.60875" lon="6.76301">
        <ele>834.79998779297</ele>
        <time>2020-06-26T14:07:09.000Z</time>
      </trkpt>
      <trkpt lat="45.60855" lon="6.76284">
        <ele>833.20001220703</ele>
        <time>2020-06-26T14:07:11.000Z</time>
      </trkpt>
      <trkpt lat="45.60845" lon="6.76275">
        <ele>831.79998779297</ele>
        <time>2020-06-26T14:07:12.000Z</time>
      </trkpt>
      <trkpt lat="45.60824" lon="6.76258">
        <ele>830.40002441406</ele>
        <time>2020-06-26T14:07:14.000Z</time>
      </trkpt>
      <trkpt lat="45.60813" lon="6.76249">
        <ele>830</ele>
        <time>2020-06-26T14:07:15.000Z</time>
      </trkpt>
      <trkpt lat="45.6079" lon="6.7623">
        <ele>829.20001220703</ele>
        <time>2020-06-26T14:07:17.000Z</time>
      </trkpt>
      <trkpt lat="45.60767" lon="6.7621">
        <ele>827.59997558594</ele>
        <time>2020-06-26T14:07:19.000Z</time>
      </trkpt>
      <trkpt lat="45.60744" lon="6.76191">
        <ele>825.40002441406</ele>
        <time>2020-06-26T14:07:21.000Z</time>
      </trkpt>
      <trkpt lat="45.60733" lon="6.76182">
        <ele>824.40002441406</ele>
        <time>2020-06-26T14:07:22.000Z</time>
      </trkpt>
      <trkpt lat="45.60723" lon="6.76174">
        <ele>823.20001220703</ele>
        <time>2020-06-26T14:07:23.000Z</time>
      </trkpt>
      <trkpt lat="45.60713" lon="6.76166">
        <ele>822</ele>
        <time>2020-06-26T14:07:24.000Z</time>
      </trkpt>
      <trkpt lat="45.60704" lon="6.76161">
        <ele>820.59997558594</ele>
        <time>2020-06-26T14:07:25.000Z</time>
      </trkpt>
      <trkpt lat="45.60694" lon="6.76161">
        <ele>819</ele>
        <time>2020-06-26T14:07:26.000Z</time>
      </trkpt>
      <trkpt lat="45.60684" lon="6.76165">
        <ele>817.79998779297</ele>
        <time>2020-06-26T14:07:27.000Z</time>
      </trkpt>
      <trkpt lat="45.60666" lon="6.76182">
        <ele>816.20001220703</ele>
        <time>2020-06-26T14:07:29.000Z</time>
      </trkpt>
      <trkpt lat="45.60657" lon="6.76193">
        <ele>815.40002441406</ele>
        <time>2020-06-26T14:07:30.000Z</time>
      </trkpt>
      <trkpt lat="45.60649" lon="6.76204">
        <ele>814.79998779297</ele>
        <time>2020-06-26T14:07:31.000Z</time>
      </trkpt>
      <trkpt lat="45.60622" lon="6.76237">
        <ele>814</ele>
        <time>2020-06-26T14:07:34.000Z</time>
      </trkpt>
      <trkpt lat="45.60605" lon="6.76259">
        <ele>812.79998779297</ele>
        <time>2020-06-26T14:07:36.000Z</time>
      </trkpt>
      <trkpt lat="45.60596" lon="6.76271">
        <ele>812.40002441406</ele>
        <time>2020-06-26T14:07:37.000Z</time>
      </trkpt>
      <trkpt lat="45.60587" lon="6.76282">
        <ele>811.59997558594</ele>
        <time>2020-06-26T14:07:38.000Z</time>
      </trkpt>
      <trkpt lat="45.60568" lon="6.76305">
        <ele>809.40002441406</ele>
        <time>2020-06-26T14:07:40.000Z</time>
      </trkpt>
      <trkpt lat="45.60559" lon="6.76317">
        <ele>808.20001220703</ele>
        <time>2020-06-26T14:07:41.000Z</time>
      </trkpt>
      <trkpt lat="45.60531" lon="6.76352">
        <ele>806.59997558594</ele>
        <time>2020-06-26T14:07:44.000Z</time>
      </trkpt>
      <trkpt lat="45.60511" lon="6.76376">
        <ele>804.79998779297</ele>
        <time>2020-06-26T14:07:46.000Z</time>
      </trkpt>
      <trkpt lat="45.60491" lon="6.76401">
        <ele>803.20001220703</ele>
        <time>2020-06-26T14:07:48.000Z</time>
      </trkpt>
      <trkpt lat="45.60471" lon="6.76426">
        <ele>802</ele>
        <time>2020-06-26T14:07:50.000Z</time>
      </trkpt>
      <trkpt lat="45.60451" lon="6.7645">
        <ele>800.40002441406</ele>
        <time>2020-06-26T14:07:52.000Z</time>
      </trkpt>
      <trkpt lat="45.60441" lon="6.76463">
        <ele>799.40002441406</ele>
        <time>2020-06-26T14:07:53.000Z</time>
      </trkpt>
      <trkpt lat="45.60431" lon="6.76475">
        <ele>798.20001220703</ele>
        <time>2020-06-26T14:07:54.000Z</time>
      </trkpt>
      <trkpt lat="45.60413" lon="6.76498">
        <ele>796</ele>
        <time>2020-06-26T14:07:56.000Z</time>
      </trkpt>
      <trkpt lat="45.60404" lon="6.76508">
        <ele>794.59997558594</ele>
        <time>2020-06-26T14:07:57.000Z</time>
      </trkpt>
      <trkpt lat="45.60396" lon="6.76518">
        <ele>793.59997558594</ele>
        <time>2020-06-26T14:07:58.000Z</time>
      </trkpt>
      <trkpt lat="45.60388" lon="6.76527">
        <ele>792.59997558594</ele>
        <time>2020-06-26T14:07:59.000Z</time>
      </trkpt>
      <trkpt lat="45.60373" lon="6.76543">
        <ele>791.40002441406</ele>
        <time>2020-06-26T14:08:01.000Z</time>
      </trkpt>
      <trkpt lat="45.60366" lon="6.7655">
        <ele>790.79998779297</ele>
        <time>2020-06-26T14:08:02.000Z</time>
      </trkpt>
      <trkpt lat="45.60358" lon="6.76554">
        <ele>790.40002441406</ele>
        <time>2020-06-26T14:08:03.000Z</time>
      </trkpt>
      <trkpt lat="45.60341" lon="6.76561">
        <ele>789.79998779297</ele>
        <time>2020-06-26T14:08:05.000Z</time>
      </trkpt>
      <trkpt lat="45.60332" lon="6.76565">
        <ele>789.59997558594</ele>
        <time>2020-06-26T14:08:06.000Z</time>
      </trkpt>
      <trkpt lat="45.60323" lon="6.7657">
        <ele>789.40002441406</ele>
        <time>2020-06-26T14:08:07.000Z</time>
      </trkpt>
      <trkpt lat="45.60309" lon="6.76586">
        <ele>788.79998779297</ele>
        <time>2020-06-26T14:08:09.000Z</time>
      </trkpt>
      <trkpt lat="45.60297" lon="6.76606">
        <ele>788.20001220703</ele>
        <time>2020-06-26T14:08:11.000Z</time>
      </trkpt>
      <trkpt lat="45.60292" lon="6.76617">
        <ele>787.40002441406</ele>
        <time>2020-06-26T14:08:12.000Z</time>
      </trkpt>
      <trkpt lat="45.60286" lon="6.76628">
        <ele>786.79998779297</ele>
        <time>2020-06-26T14:08:13.000Z</time>
      </trkpt>
      <trkpt lat="45.60276" lon="6.76648">
        <ele>785.40002441406</ele>
        <time>2020-06-26T14:08:15.000Z</time>
      </trkpt>
      <trkpt lat="45.60267" lon="6.76666">
        <ele>784.20001220703</ele>
        <time>2020-06-26T14:08:17.000Z</time>
      </trkpt>
      <trkpt lat="45.60263" lon="6.76674">
        <ele>783.59997558594</ele>
        <time>2020-06-26T14:08:18.000Z</time>
      </trkpt>
      <trkpt lat="45.60258" lon="6.76681">
        <ele>783.40002441406</ele>
        <time>2020-06-26T14:08:19.000Z</time>
      </trkpt>
      <trkpt lat="45.60252" lon="6.76686">
        <ele>783.20001220703</ele>
        <time>2020-06-26T14:08:20.000Z</time>
      </trkpt>
      <trkpt lat="45.60245" lon="6.76688">
        <ele>783</ele>
        <time>2020-06-26T14:08:21.000Z</time>
      </trkpt>
      <trkpt lat="45.60226" lon="6.76683">
        <ele>782.79998779297</ele>
        <time>2020-06-26T14:08:24.000Z</time>
      </trkpt>
      <trkpt lat="45.60184" lon="6.7666">
        <ele>782.40002441406</ele>
        <time>2020-06-26T14:08:31.000Z</time>
      </trkpt>
      <trkpt lat="45.60158" lon="6.76635">
        <ele>782.79998779297</ele>
        <time>2020-06-26T14:08:37.000Z</time>
      </trkpt>
      <trkpt lat="45.60138" lon="6.76614">
        <ele>782.79998779297</ele>
        <time>2020-06-26T14:08:44.000Z</time>
      </trkpt>
      <trkpt lat="45.60121" lon="6.76595">
        <ele>783.40002441406</ele>
        <time>2020-06-26T14:08:49.000Z</time>
      </trkpt>
      <trkpt lat="45.60094" lon="6.76564">
        <ele>783.40002441406</ele>
        <time>2020-06-26T14:08:55.000Z</time>
      </trkpt>
      <trkpt lat="45.6006" lon="6.76529">
        <ele>783.40002441406</ele>
        <time>2020-06-26T14:09:02.000Z</time>
      </trkpt>
      <trkpt lat="45.60025" lon="6.76494">
        <ele>784</ele>
        <time>2020-06-26T14:09:09.000Z</time>
      </trkpt>
      <trkpt lat="45.60011" lon="6.76481">
        <ele>784.59997558594</ele>
        <time>2020-06-26T14:09:12.000Z</time>
      </trkpt>
      <trkpt lat="45.5999" lon="6.76464">
        <ele>785.79998779297</ele>
        <time>2020-06-26T14:09:17.000Z</time>
      </trkpt>
      <trkpt lat="45.59962" lon="6.76435">
        <ele>786.79998779297</ele>
        <time>2020-06-26T14:09:24.000Z</time>
      </trkpt>
      <trkpt lat="45.5994" lon="6.76403">
        <ele>787.40002441406</ele>
        <time>2020-06-26T14:09:30.000Z</time>
      </trkpt>
      <trkpt lat="45.5993" lon="6.76386">
        <ele>787.79998779297</ele>
        <time>2020-06-26T14:09:33.000Z</time>
      </trkpt>
      <trkpt lat="45.59913" lon="6.7635">
        <ele>788.79998779297</ele>
        <time>2020-06-26T14:09:39.000Z</time>
      </trkpt>
      <trkpt lat="45.5991" lon="6.76344">
        <ele>789</ele>
        <time>2020-06-26T14:09:40.000Z</time>
      </trkpt>
      <trkpt lat="45.59883" lon="6.76289">
        <ele>790</ele>
        <time>2020-06-26T14:09:49.000Z</time>
      </trkpt>
      <trkpt lat="45.59877" lon="6.76277">
        <ele>790.20001220703</ele>
        <time>2020-06-26T14:09:51.000Z</time>
      </trkpt>
      <trkpt lat="45.59874" lon="6.76271">
        <ele>790.20001220703</ele>
        <time>2020-06-26T14:09:52.000Z</time>
      </trkpt>
      <trkpt lat="45.59861" lon="6.76245">
        <ele>790.79998779297</ele>
        <time>2020-06-26T14:09:56.000Z</time>
      </trkpt>
      <trkpt lat="45.5985" lon="6.76226">
        <ele>791.20001220703</ele>
        <time>2020-06-26T14:09:59.000Z</time>
      </trkpt>
      <trkpt lat="45.59831" lon="6.76198">
        <ele>791.79998779297</ele>
        <time>2020-06-26T14:10:04.000Z</time>
      </trkpt>
      <trkpt lat="45.59799" lon="6.76155">
        <ele>792.20001220703</ele>
        <time>2020-06-26T14:10:12.000Z</time>
      </trkpt>
      <trkpt lat="45.59783" lon="6.76133">
        <ele>792.59997558594</ele>
        <time>2020-06-26T14:10:16.000Z</time>
      </trkpt>
      <trkpt lat="45.59768" lon="6.76112">
        <ele>793</ele>
        <time>2020-06-26T14:10:20.000Z</time>
      </trkpt>
      <trkpt lat="45.59764" lon="6.76107">
        <ele>793</ele>
        <time>2020-06-26T14:10:21.000Z</time>
      </trkpt>
      <trkpt lat="45.5975" lon="6.76098">
        <ele>793.59997558594</ele>
        <time>2020-06-26T14:10:24.000Z</time>
      </trkpt>
      <trkpt lat="45.5974" lon="6.76093">
        <ele>793.79998779297</ele>
        <time>2020-06-26T14:10:26.000Z</time>
      </trkpt>
      <trkpt lat="45.59699" lon="6.76073">
        <ele>794.59997558594</ele>
        <time>2020-06-26T14:10:34.000Z</time>
      </trkpt>
      <trkpt lat="45.59688" lon="6.7607">
        <ele>795</ele>
        <time>2020-06-26T14:10:36.000Z</time>
      </trkpt>
      <trkpt lat="45.59663" lon="6.76061">
        <ele>795.59997558594</ele>
        <time>2020-06-26T14:10:41.000Z</time>
      </trkpt>
      <trkpt lat="45.59646" lon="6.76056">
        <ele>796</ele>
        <time>2020-06-26T14:10:44.000Z</time>
      </trkpt>
      <trkpt lat="45.59618" lon="6.76047">
        <ele>796.59997558594</ele>
        <time>2020-06-26T14:10:49.000Z</time>
      </trkpt>
      <trkpt lat="45.59595" lon="6.76033">
        <ele>796.79998779297</ele>
        <time>2020-06-26T14:10:54.000Z</time>
      </trkpt>
      <trkpt lat="45.59591" lon="6.76029">
        <ele>797.20001220703</ele>
        <time>2020-06-26T14:10:55.000Z</time>
      </trkpt>
      <trkpt lat="45.59587" lon="6.76025">
        <ele>797.40002441406</ele>
        <time>2020-06-26T14:10:56.000Z</time>
      </trkpt>
      <trkpt lat="45.59565" lon="6.76">
        <ele>798.20001220703</ele>
        <time>2020-06-26T14:11:02.000Z</time>
      </trkpt>
      <trkpt lat="45.59543" lon="6.75986">
        <ele>798.59997558594</ele>
        <time>2020-06-26T14:11:07.000Z</time>
      </trkpt>
      <trkpt lat="45.59537" lon="6.75984">
        <ele>798.59997558594</ele>
        <time>2020-06-26T14:11:08.000Z</time>
      </trkpt>
      <trkpt lat="45.59506" lon="6.75968">
        <ele>799.40002441406</ele>
        <time>2020-06-26T14:11:14.000Z</time>
      </trkpt>
      <trkpt lat="45.59501" lon="6.75964">
        <ele>799.40002441406</ele>
        <time>2020-06-26T14:11:15.000Z</time>
      </trkpt>
      <trkpt lat="45.59497" lon="6.75959">
        <ele>799.59997558594</ele>
        <time>2020-06-26T14:11:16.000Z</time>
      </trkpt>
      <trkpt lat="45.5949" lon="6.75947">
        <ele>800</ele>
        <time>2020-06-26T14:11:18.000Z</time>
      </trkpt>
      <trkpt lat="45.59485" lon="6.75933">
        <ele>800.20001220703</ele>
        <time>2020-06-26T14:11:20.000Z</time>
      </trkpt>
      <trkpt lat="45.59476" lon="6.75911">
        <ele>800.20001220703</ele>
        <time>2020-06-26T14:11:23.000Z</time>
      </trkpt>
      <trkpt lat="45.59474" lon="6.75903">
        <ele>800.40002441406</ele>
        <time>2020-06-26T14:11:24.000Z</time>
      </trkpt>
      <trkpt lat="45.59463" lon="6.75862">
        <ele>800.40002441406</ele>
        <time>2020-06-26T14:11:29.000Z</time>
      </trkpt>
      <trkpt lat="45.59452" lon="6.75824">
        <ele>799.20001220703</ele>
        <time>2020-06-26T14:11:34.000Z</time>
      </trkpt>
      <trkpt lat="45.59442" lon="6.7581">
        <ele>798.79998779297</ele>
        <time>2020-06-26T14:11:37.000Z</time>
      </trkpt>
      <trkpt lat="45.59435" lon="6.75801">
        <ele>798.59997558594</ele>
        <time>2020-06-26T14:11:39.000Z</time>
      </trkpt>
      <trkpt lat="45.5941" lon="6.75777">
        <ele>798.40002441406</ele>
        <time>2020-06-26T14:11:45.000Z</time>
      </trkpt>
      <trkpt lat="45.59394" lon="6.75761">
        <ele>797.79998779297</ele>
        <time>2020-06-26T14:11:49.000Z</time>
      </trkpt>
      <trkpt lat="45.59384" lon="6.75752">
        <ele>797.20001220703</ele>
        <time>2020-06-26T14:11:51.000Z</time>
      </trkpt>
      <trkpt lat="45.59374" lon="6.75743">
        <ele>797</ele>
        <time>2020-06-26T14:11:53.000Z</time>
      </trkpt>
      <trkpt lat="45.59354" lon="6.75728">
        <ele>796.20001220703</ele>
        <time>2020-06-26T14:11:57.000Z</time>
      </trkpt>
      <trkpt lat="45.59349" lon="6.75724">
        <ele>796</ele>
        <time>2020-06-26T14:11:58.000Z</time>
      </trkpt>
      <trkpt lat="45.59334" lon="6.75715">
        <ele>794.79998779297</ele>
        <time>2020-06-26T14:12:01.000Z</time>
      </trkpt>
      <trkpt lat="45.59325" lon="6.75709">
        <ele>794.40002441406</ele>
        <time>2020-06-26T14:12:03.000Z</time>
      </trkpt>
      <trkpt lat="45.5932" lon="6.75706">
        <ele>794</ele>
        <time>2020-06-26T14:12:04.000Z</time>
      </trkpt>
      <trkpt lat="45.59315" lon="6.75703">
        <ele>793.79998779297</ele>
        <time>2020-06-26T14:12:05.000Z</time>
      </trkpt>
      <trkpt lat="45.59295" lon="6.75687">
        <ele>793</ele>
        <time>2020-06-26T14:12:09.000Z</time>
      </trkpt>
      <trkpt lat="45.59277" lon="6.75676">
        <ele>792.59997558594</ele>
        <time>2020-06-26T14:12:12.000Z</time>
      </trkpt>
      <trkpt lat="45.59257" lon="6.75667">
        <ele>791.40002441406</ele>
        <time>2020-06-26T14:12:15.000Z</time>
      </trkpt>
      <trkpt lat="45.59222" lon="6.75649">
        <ele>790.20001220703</ele>
        <time>2020-06-26T14:12:20.000Z</time>
      </trkpt>
      <trkpt lat="45.59208" lon="6.75638">
        <ele>789.59997558594</ele>
        <time>2020-06-26T14:12:22.000Z</time>
      </trkpt>
      <trkpt lat="45.59194" lon="6.75626">
        <ele>789.40002441406</ele>
        <time>2020-06-26T14:12:24.000Z</time>
      </trkpt>
      <trkpt lat="45.59171" lon="6.75608">
        <ele>788.40002441406</ele>
        <time>2020-06-26T14:12:27.000Z</time>
      </trkpt>
      <trkpt lat="45.59163" lon="6.756">
        <ele>787.59997558594</ele>
        <time>2020-06-26T14:12:28.000Z</time>
      </trkpt>
      <trkpt lat="45.59156" lon="6.75593">
        <ele>786.79998779297</ele>
        <time>2020-06-26T14:12:29.000Z</time>
      </trkpt>
      <trkpt lat="45.59127" lon="6.75555">
        <ele>785.59997558594</ele>
        <time>2020-06-26T14:12:33.000Z</time>
      </trkpt>
      <trkpt lat="45.59113" lon="6.75534">
        <ele>784.59997558594</ele>
        <time>2020-06-26T14:12:35.000Z</time>
      </trkpt>
      <trkpt lat="45.59091" lon="6.75504">
        <ele>783.20001220703</ele>
        <time>2020-06-26T14:12:38.000Z</time>
      </trkpt>
      <trkpt lat="45.59075" lon="6.75486">
        <ele>782</ele>
        <time>2020-06-26T14:12:40.000Z</time>
      </trkpt>
      <trkpt lat="45.59058" lon="6.75472">
        <ele>780.79998779297</ele>
        <time>2020-06-26T14:12:42.000Z</time>
      </trkpt>
      <trkpt lat="45.59049" lon="6.75467">
        <ele>780.20001220703</ele>
        <time>2020-06-26T14:12:43.000Z</time>
      </trkpt>
      <trkpt lat="45.59031" lon="6.75461">
        <ele>779.40002441406</ele>
        <time>2020-06-26T14:12:45.000Z</time>
      </trkpt>
      <trkpt lat="45.59002" lon="6.75451">
        <ele>778</ele>
        <time>2020-06-26T14:12:48.000Z</time>
      </trkpt>
      <trkpt lat="45.58993" lon="6.75448">
        <ele>777.79998779297</ele>
        <time>2020-06-26T14:12:49.000Z</time>
      </trkpt>
      <trkpt lat="45.58947" lon="6.75428">
        <ele>777</ele>
        <time>2020-06-26T14:12:54.000Z</time>
      </trkpt>
      <trkpt lat="45.58918" lon="6.75416">
        <ele>776.20001220703</ele>
        <time>2020-06-26T14:12:57.000Z</time>
      </trkpt>
      <trkpt lat="45.58909" lon="6.75413">
        <ele>775</ele>
        <time>2020-06-26T14:12:58.000Z</time>
      </trkpt>
      <trkpt lat="45.58889" lon="6.75407">
        <ele>773.79998779297</ele>
        <time>2020-06-26T14:13:00.000Z</time>
      </trkpt>
      <trkpt lat="45.58861" lon="6.75401">
        <ele>773</ele>
        <time>2020-06-26T14:13:03.000Z</time>
      </trkpt>
      <trkpt lat="45.58852" lon="6.75398">
        <ele>772.40002441406</ele>
        <time>2020-06-26T14:13:04.000Z</time>
      </trkpt>
      <trkpt lat="45.58818" lon="6.75382">
        <ele>771.20001220703</ele>
        <time>2020-06-26T14:13:08.000Z</time>
      </trkpt>
      <trkpt lat="45.58768" lon="6.75353">
        <ele>770.59997558594</ele>
        <time>2020-06-26T14:13:14.000Z</time>
      </trkpt>
      <trkpt lat="45.58752" lon="6.75343">
        <ele>770.40002441406</ele>
        <time>2020-06-26T14:13:16.000Z</time>
      </trkpt>
      <trkpt lat="45.58728" lon="6.7533">
        <ele>769.20001220703</ele>
        <time>2020-06-26T14:13:19.000Z</time>
      </trkpt>
      <trkpt lat="45.58703" lon="6.75319">
        <ele>768</ele>
        <time>2020-06-26T14:13:22.000Z</time>
      </trkpt>
      <trkpt lat="45.58695" lon="6.75316">
        <ele>768</ele>
        <time>2020-06-26T14:13:23.000Z</time>
      </trkpt>
      <trkpt lat="45.58638" lon="6.75294">
        <ele>767.20001220703</ele>
        <time>2020-06-26T14:13:30.000Z</time>
      </trkpt>
      <trkpt lat="45.58623" lon="6.75282">
        <ele>767</ele>
        <time>2020-06-26T14:13:32.000Z</time>
      </trkpt>
      <trkpt lat="45.58602" lon="6.75262">
        <ele>766.79998779297</ele>
        <time>2020-06-26T14:13:35.000Z</time>
      </trkpt>
      <trkpt lat="45.58595" lon="6.75257">
        <ele>766.79998779297</ele>
        <time>2020-06-26T14:13:36.000Z</time>
      </trkpt>
      <trkpt lat="45.58574" lon="6.75246">
        <ele>766.40002441406</ele>
        <time>2020-06-26T14:13:39.000Z</time>
      </trkpt>
      <trkpt lat="45.58546" lon="6.75233">
        <ele>766.20001220703</ele>
        <time>2020-06-26T14:13:43.000Z</time>
      </trkpt>
      <trkpt lat="45.58526" lon="6.75219">
        <ele>766</ele>
        <time>2020-06-26T14:13:46.000Z</time>
      </trkpt>
      <trkpt lat="45.58496" lon="6.75201">
        <ele>765.79998779297</ele>
        <time>2020-06-26T14:13:51.000Z</time>
      </trkpt>
      <trkpt lat="45.5847" lon="6.75187">
        <ele>766</ele>
        <time>2020-06-26T14:13:56.000Z</time>
      </trkpt>
      <trkpt lat="45.58457" lon="6.75178">
        <ele>766</ele>
        <time>2020-06-26T14:13:59.000Z</time>
      </trkpt>
      <trkpt lat="45.58447" lon="6.75165">
        <ele>766.79998779297</ele>
        <time>2020-06-26T14:14:02.000Z</time>
      </trkpt>
      <trkpt lat="45.58439" lon="6.7514">
        <ele>767</ele>
        <time>2020-06-26T14:14:06.000Z</time>
      </trkpt>
      <trkpt lat="45.58437" lon="6.75133">
        <ele>767.20001220703</ele>
        <time>2020-06-26T14:14:07.000Z</time>
      </trkpt>
      <trkpt lat="45.58435" lon="6.75126">
        <ele>767.20001220703</ele>
        <time>2020-06-26T14:14:08.000Z</time>
      </trkpt>
      <trkpt lat="45.58432" lon="6.75112">
        <ele>767.40002441406</ele>
        <time>2020-06-26T14:14:10.000Z</time>
      </trkpt>
      <trkpt lat="45.58424" lon="6.75092">
        <ele>767.59997558594</ele>
        <time>2020-06-26T14:14:13.000Z</time>
      </trkpt>
      <trkpt lat="45.58407" lon="6.75046">
        <ele>767.59997558594</ele>
        <time>2020-06-26T14:14:20.000Z</time>
      </trkpt>
      <trkpt lat="45.58404" lon="6.7504">
        <ele>767.59997558594</ele>
        <time>2020-06-26T14:14:21.000Z</time>
      </trkpt>
      <trkpt lat="45.5839" lon="6.75017">
        <ele>767.59997558594</ele>
        <time>2020-06-26T14:14:25.000Z</time>
      </trkpt>
      <trkpt lat="45.5838" lon="6.75007">
        <ele>767.59997558594</ele>
        <time>2020-06-26T14:14:27.000Z</time>
      </trkpt>
      <trkpt lat="45.58348" lon="6.74987">
        <ele>767.79998779297</ele>
        <time>2020-06-26T14:14:33.000Z</time>
      </trkpt>
      <trkpt lat="45.58303" lon="6.74963">
        <ele>768</ele>
        <time>2020-06-26T14:14:41.000Z</time>
      </trkpt>
      <trkpt lat="45.58265" lon="6.74944">
        <ele>768</ele>
        <time>2020-06-26T14:14:48.000Z</time>
      </trkpt>
      <trkpt lat="45.58256" lon="6.74944">
        <ele>768.20001220703</ele>
        <time>2020-06-26T14:14:52.000Z</time>
      </trkpt>
      <trkpt lat="45.58241" lon="6.74947">
        <ele>768.79998779297</ele>
        <time>2020-06-26T14:14:57.000Z</time>
      </trkpt>
      <trkpt lat="45.58234" lon="6.74946">
        <ele>769</ele>
        <time>2020-06-26T14:14:59.000Z</time>
      </trkpt>
      <trkpt lat="45.5821" lon="6.74937">
        <ele>769</ele>
        <time>2020-06-26T14:15:05.000Z</time>
      </trkpt>
      <trkpt lat="45.58192" lon="6.74917">
        <ele>768.79998779297</ele>
        <time>2020-06-26T14:15:10.000Z</time>
      </trkpt>
      <trkpt lat="45.58188" lon="6.74912">
        <ele>768.79998779297</ele>
        <time>2020-06-26T14:15:11.000Z</time>
      </trkpt>
      <trkpt lat="45.58182" lon="6.749">
        <ele>768.59997558594</ele>
        <time>2020-06-26T14:15:13.000Z</time>
      </trkpt>
      <trkpt lat="45.58174" lon="6.7488">
        <ele>768.59997558594</ele>
        <time>2020-06-26T14:15:16.000Z</time>
      </trkpt>
      <trkpt lat="45.5816" lon="6.74855">
        <ele>768.59997558594</ele>
        <time>2020-06-26T14:15:20.000Z</time>
      </trkpt>
      <trkpt lat="45.58152" lon="6.74844">
        <ele>768.59997558594</ele>
        <time>2020-06-26T14:15:22.000Z</time>
      </trkpt>
      <trkpt lat="45.5813" lon="6.74831">
        <ele>768.59997558594</ele>
        <time>2020-06-26T14:15:26.000Z</time>
      </trkpt>
      <trkpt lat="45.58124" lon="6.74829">
        <ele>768.59997558594</ele>
        <time>2020-06-26T14:15:27.000Z</time>
      </trkpt>
      <trkpt lat="45.58106" lon="6.74822">
        <ele>768.40002441406</ele>
        <time>2020-06-26T14:15:30.000Z</time>
      </trkpt>
      <trkpt lat="45.58095" lon="6.74813">
        <ele>768.40002441406</ele>
        <time>2020-06-26T14:15:32.000Z</time>
      </trkpt>
      <trkpt lat="45.58079" lon="6.74788">
        <ele>768.40002441406</ele>
        <time>2020-06-26T14:15:36.000Z</time>
      </trkpt>
      <trkpt lat="45.58076" lon="6.74781">
        <ele>768.40002441406</ele>
        <time>2020-06-26T14:15:37.000Z</time>
      </trkpt>
      <trkpt lat="45.58059" lon="6.74746">
        <ele>768</ele>
        <time>2020-06-26T14:15:42.000Z</time>
      </trkpt>
      <trkpt lat="45.58052" lon="6.74732">
        <ele>768</ele>
        <time>2020-06-26T14:15:44.000Z</time>
      </trkpt>
      <trkpt lat="45.58024" lon="6.74675">
        <ele>767.20001220703</ele>
        <time>2020-06-26T14:15:52.000Z</time>
      </trkpt>
      <trkpt lat="45.58021" lon="6.74668">
        <ele>767.20001220703</ele>
        <time>2020-06-26T14:15:53.000Z</time>
      </trkpt>
      <trkpt lat="45.57987" lon="6.74607">
        <ele>767.20001220703</ele>
        <time>2020-06-26T14:16:03.000Z</time>
      </trkpt>
      <trkpt lat="45.57951" lon="6.74559">
        <ele>767.79998779297</ele>
        <time>2020-06-26T14:16:12.000Z</time>
      </trkpt>
      <trkpt lat="45.57924" lon="6.74516">
        <ele>768.59997558594</ele>
        <time>2020-06-26T14:16:20.000Z</time>
      </trkpt>
      <trkpt lat="45.57896" lon="6.74461">
        <ele>769.40002441406</ele>
        <time>2020-06-26T14:16:29.000Z</time>
      </trkpt>
      <trkpt lat="45.57882" lon="6.74437">
        <ele>769.79998779297</ele>
        <time>2020-06-26T14:16:33.000Z</time>
      </trkpt>
      <trkpt lat="45.57862" lon="6.74408">
        <ele>770</ele>
        <time>2020-06-26T14:16:38.000Z</time>
      </trkpt>
      <trkpt lat="45.57854" lon="6.74399">
        <ele>770</ele>
        <time>2020-06-26T14:16:40.000Z</time>
      </trkpt>
      <trkpt lat="45.57834" lon="6.74383">
        <ele>770.20001220703</ele>
        <time>2020-06-26T14:16:44.000Z</time>
      </trkpt>
      <trkpt lat="45.57803" lon="6.74372">
        <ele>770.79998779297</ele>
        <time>2020-06-26T14:16:50.000Z</time>
      </trkpt>
      <trkpt lat="45.5775" lon="6.74361">
        <ele>770.79998779297</ele>
        <time>2020-06-26T14:17:00.000Z</time>
      </trkpt>
      <trkpt lat="45.5773" lon="6.74364">
        <ele>771</ele>
        <time>2020-06-26T14:17:04.000Z</time>
      </trkpt>
      <trkpt lat="45.57715" lon="6.74369">
        <ele>771.40002441406</ele>
        <time>2020-06-26T14:17:07.000Z</time>
      </trkpt>
      <trkpt lat="45.57692" lon="6.74386">
        <ele>772.20001220703</ele>
        <time>2020-06-26T14:17:12.000Z</time>
      </trkpt>
      <trkpt lat="45.57687" lon="6.74391">
        <ele>772.40002441406</ele>
        <time>2020-06-26T14:17:13.000Z</time>
      </trkpt>
      <trkpt lat="45.57653" lon="6.74429">
        <ele>773.20001220703</ele>
        <time>2020-06-26T14:17:21.000Z</time>
      </trkpt>
      <trkpt lat="45.57619" lon="6.74453">
        <ele>773.40002441406</ele>
        <time>2020-06-26T14:17:28.000Z</time>
      </trkpt>
      <trkpt lat="45.57613" lon="6.74455">
        <ele>773.40002441406</ele>
        <time>2020-06-26T14:17:29.000Z</time>
      </trkpt>
      <trkpt lat="45.57585" lon="6.74459">
        <ele>773.59997558594</ele>
        <time>2020-06-26T14:17:34.000Z</time>
      </trkpt>
      <trkpt lat="45.57552" lon="6.7445">
        <ele>773.59997558594</ele>
        <time>2020-06-26T14:17:40.000Z</time>
      </trkpt>
      <trkpt lat="45.57525" lon="6.74433">
        <ele>773.59997558594</ele>
        <time>2020-06-26T14:17:45.000Z</time>
      </trkpt>
      <trkpt lat="45.57509" lon="6.74421">
        <ele>773.79998779297</ele>
        <time>2020-06-26T14:17:48.000Z</time>
      </trkpt>
      <trkpt lat="45.57469" lon="6.74388">
        <ele>774.40002441406</ele>
        <time>2020-06-26T14:17:56.000Z</time>
      </trkpt>
      <trkpt lat="45.57461" lon="6.74379">
        <ele>774.59997558594</ele>
        <time>2020-06-26T14:17:58.000Z</time>
      </trkpt>
      <trkpt lat="45.57441" lon="6.7435">
        <ele>774.79998779297</ele>
        <time>2020-06-26T14:18:03.000Z</time>
      </trkpt>
      <trkpt lat="45.57414" lon="6.74303">
        <ele>775.40002441406</ele>
        <time>2020-06-26T14:18:11.000Z</time>
      </trkpt>
      <trkpt lat="45.57404" lon="6.74286">
        <ele>775.79998779297</ele>
        <time>2020-06-26T14:18:14.000Z</time>
      </trkpt>
      <trkpt lat="45.57388" lon="6.74264">
        <ele>775.79998779297</ele>
        <time>2020-06-26T14:18:18.000Z</time>
      </trkpt>
      <trkpt lat="45.57375" lon="6.74248">
        <ele>775.79998779297</ele>
        <time>2020-06-26T14:18:21.000Z</time>
      </trkpt>
      <trkpt lat="45.57359" lon="6.74239">
        <ele>776</ele>
        <time>2020-06-26T14:18:24.000Z</time>
      </trkpt>
      <trkpt lat="45.57354" lon="6.74237">
        <ele>776</ele>
        <time>2020-06-26T14:18:25.000Z</time>
      </trkpt>
      <trkpt lat="45.57329" lon="6.74224">
        <ele>776</ele>
        <time>2020-06-26T14:18:30.000Z</time>
      </trkpt>
      <trkpt lat="45.573" lon="6.742">
        <ele>776.59997558594</ele>
        <time>2020-06-26T14:18:37.000Z</time>
      </trkpt>
      <trkpt lat="45.57292" lon="6.74194">
        <ele>776.79998779297</ele>
        <time>2020-06-26T14:18:39.000Z</time>
      </trkpt>
      <trkpt lat="45.57285" lon="6.74184">
        <ele>776.79998779297</ele>
        <time>2020-06-26T14:18:41.000Z</time>
      </trkpt>
      <trkpt lat="45.57278" lon="6.74174">
        <ele>777</ele>
        <time>2020-06-26T14:18:43.000Z</time>
      </trkpt>
      <trkpt lat="45.57262" lon="6.74155">
        <ele>777.20001220703</ele>
        <time>2020-06-26T14:18:47.000Z</time>
      </trkpt>
      <trkpt lat="45.5725" lon="6.74136">
        <ele>777.20001220703</ele>
        <time>2020-06-26T14:18:52.000Z</time>
      </trkpt>
      <trkpt lat="45.57238" lon="6.74119">
        <ele>777.40002441406</ele>
        <time>2020-06-26T14:18:57.000Z</time>
      </trkpt>
      <trkpt lat="45.57222" lon="6.74094">
        <ele>778</ele>
        <time>2020-06-26T14:19:03.000Z</time>
      </trkpt>
      <trkpt lat="45.57212" lon="6.7408">
        <ele>778.20001220703</ele>
        <time>2020-06-26T14:19:09.000Z</time>
      </trkpt>
      <trkpt lat="45.57196" lon="6.7406">
        <ele>779</ele>
        <time>2020-06-26T14:19:16.000Z</time>
      </trkpt>
      <trkpt lat="45.57179" lon="6.74037">
        <ele>779.20001220703</ele>
        <time>2020-06-26T14:19:23.000Z</time>
      </trkpt>
      <trkpt lat="45.57176" lon="6.74034">
        <ele>779.20001220703</ele>
        <time>2020-06-26T14:19:24.000Z</time>
      </trkpt>
      <trkpt lat="45.57167" lon="6.7402">
        <ele>779.40002441406</ele>
        <time>2020-06-26T14:19:28.000Z</time>
      </trkpt>
      <trkpt lat="45.57152" lon="6.7399">
        <ele>779.79998779297</ele>
        <time>2020-06-26T14:19:35.000Z</time>
      </trkpt>
      <trkpt lat="45.57146" lon="6.73978">
        <ele>779.79998779297</ele>
        <time>2020-06-26T14:19:37.000Z</time>
      </trkpt>
      <trkpt lat="45.5714" lon="6.73965">
        <ele>779.59997558594</ele>
        <time>2020-06-26T14:19:39.000Z</time>
      </trkpt>
      <trkpt lat="45.57137" lon="6.73958">
        <ele>779.20001220703</ele>
        <time>2020-06-26T14:19:40.000Z</time>
      </trkpt>
      <trkpt lat="45.57121" lon="6.73924">
        <ele>778</ele>
        <time>2020-06-26T14:19:45.000Z</time>
      </trkpt>
      <trkpt lat="45.57116" lon="6.73911">
        <ele>777.79998779297</ele>
        <time>2020-06-26T14:19:47.000Z</time>
      </trkpt>
      <trkpt lat="45.57107" lon="6.73892">
        <ele>777.40002441406</ele>
        <time>2020-06-26T14:19:51.000Z</time>
      </trkpt>
      <trkpt lat="45.57105" lon="6.73872">
        <ele>777</ele>
        <time>2020-06-26T14:19:57.000Z</time>
      </trkpt>
      <trkpt lat="45.57106" lon="6.73869">
        <ele>777</ele>
        <time>2020-06-26T14:19:58.000Z</time>
      </trkpt>
      <trkpt lat="45.5711" lon="6.73865">
        <ele>776.79998779297</ele>
        <time>2020-06-26T14:20:01.000Z</time>
      </trkpt>
      <trkpt lat="45.5711" lon="6.73863">
        <ele>776.79998779297</ele>
        <time>2020-06-26T14:20:04.000Z</time>
      </trkpt>
      <trkpt lat="45.57112" lon="6.7386">
        <ele>776.40002441406</ele>
        <time>2020-06-26T14:20:11.000Z</time>
      </trkpt>
      <trkpt lat="45.57107" lon="6.73848">
        <ele>776.40002441406</ele>
        <time>2020-06-26T14:20:14.000Z</time>
      </trkpt>
      <trkpt lat="45.57105" lon="6.73845">
        <ele>776.40002441406</ele>
        <time>2020-06-26T14:20:15.000Z</time>
      </trkpt>
      <trkpt lat="45.57097" lon="6.7383">
        <ele>776.40002441406</ele>
        <time>2020-06-26T14:20:19.000Z</time>
      </trkpt>
      <trkpt lat="45.57087" lon="6.73802">
        <ele>777</ele>
        <time>2020-06-26T14:20:25.000Z</time>
      </trkpt>
      <trkpt lat="45.57073" lon="6.73762">
        <ele>777.20001220703</ele>
        <time>2020-06-26T14:20:33.000Z</time>
      </trkpt>
      <trkpt lat="45.57069" lon="6.7375">
        <ele>777</ele>
        <time>2020-06-26T14:20:35.000Z</time>
      </trkpt>
      <trkpt lat="45.57062" lon="6.73732">
        <ele>776.79998779297</ele>
        <time>2020-06-26T14:20:38.000Z</time>
      </trkpt>
      <trkpt lat="45.5705" lon="6.73701">
        <ele>776.20001220703</ele>
        <time>2020-06-26T14:20:42.000Z</time>
      </trkpt>
      <trkpt lat="45.57046" lon="6.73693">
        <ele>775.79998779297</ele>
        <time>2020-06-26T14:20:43.000Z</time>
      </trkpt>
      <trkpt lat="45.5704" lon="6.73674">
        <ele>775.20001220703</ele>
        <time>2020-06-26T14:20:45.000Z</time>
      </trkpt>
      <trkpt lat="45.57037" lon="6.73664">
        <ele>774.79998779297</ele>
        <time>2020-06-26T14:20:46.000Z</time>
      </trkpt>
      <trkpt lat="45.57035" lon="6.73653">
        <ele>774.59997558594</ele>
        <time>2020-06-26T14:20:47.000Z</time>
      </trkpt>
      <trkpt lat="45.57027" lon="6.73631">
        <ele>773.79998779297</ele>
        <time>2020-06-26T14:20:49.000Z</time>
      </trkpt>
      <trkpt lat="45.57016" lon="6.73598">
        <ele>772.40002441406</ele>
        <time>2020-06-26T14:20:52.000Z</time>
      </trkpt>
      <trkpt lat="45.57012" lon="6.73587">
        <ele>772</ele>
        <time>2020-06-26T14:20:53.000Z</time>
      </trkpt>
      <trkpt lat="45.57003" lon="6.73564">
        <ele>771.40002441406</ele>
        <time>2020-06-26T14:20:55.000Z</time>
      </trkpt>
      <trkpt lat="45.56995" lon="6.73541">
        <ele>770</ele>
        <time>2020-06-26T14:20:57.000Z</time>
      </trkpt>
      <trkpt lat="45.56986" lon="6.73518">
        <ele>768.59997558594</ele>
        <time>2020-06-26T14:20:59.000Z</time>
      </trkpt>
      <trkpt lat="45.56978" lon="6.73495">
        <ele>767.79998779297</ele>
        <time>2020-06-26T14:21:01.000Z</time>
      </trkpt>
      <trkpt lat="45.56973" lon="6.73483">
        <ele>767.40002441406</ele>
        <time>2020-06-26T14:21:02.000Z</time>
      </trkpt>
      <trkpt lat="45.56961" lon="6.73446">
        <ele>766.40002441406</ele>
        <time>2020-06-26T14:21:05.000Z</time>
      </trkpt>
      <trkpt lat="45.56952" lon="6.73421">
        <ele>765.20001220703</ele>
        <time>2020-06-26T14:21:07.000Z</time>
      </trkpt>
      <trkpt lat="45.56948" lon="6.73408">
        <ele>764.79998779297</ele>
        <time>2020-06-26T14:21:08.000Z</time>
      </trkpt>
      <trkpt lat="45.56937" lon="6.73367">
        <ele>763.79998779297</ele>
        <time>2020-06-26T14:21:11.000Z</time>
      </trkpt>
      <trkpt lat="45.56932" lon="6.73337">
        <ele>763.20001220703</ele>
        <time>2020-06-26T14:21:13.000Z</time>
      </trkpt>
      <trkpt lat="45.56929" lon="6.73322">
        <ele>762.79998779297</ele>
        <time>2020-06-26T14:21:14.000Z</time>
      </trkpt>
      <trkpt lat="45.56924" lon="6.73275">
        <ele>761.40002441406</ele>
        <time>2020-06-26T14:21:17.000Z</time>
      </trkpt>
      <trkpt lat="45.56919" lon="6.73243">
        <ele>760.20001220703</ele>
        <time>2020-06-26T14:21:19.000Z</time>
      </trkpt>
      <trkpt lat="45.56917" lon="6.73227">
        <ele>759.40002441406</ele>
        <time>2020-06-26T14:21:20.000Z</time>
      </trkpt>
      <trkpt lat="45.56915" lon="6.73211">
        <ele>758.79998779297</ele>
        <time>2020-06-26T14:21:21.000Z</time>
      </trkpt>
      <trkpt lat="45.56911" lon="6.73178">
        <ele>757.40002441406</ele>
        <time>2020-06-26T14:21:23.000Z</time>
      </trkpt>
      <trkpt lat="45.56907" lon="6.73145">
        <ele>756.20001220703</ele>
        <time>2020-06-26T14:21:25.000Z</time>
      </trkpt>
      <trkpt lat="45.56902" lon="6.73113">
        <ele>754.59997558594</ele>
        <time>2020-06-26T14:21:27.000Z</time>
      </trkpt>
      <trkpt lat="45.569" lon="6.73097">
        <ele>753.40002441406</ele>
        <time>2020-06-26T14:21:28.000Z</time>
      </trkpt>
      <trkpt lat="45.56898" lon="6.73081">
        <ele>753</ele>
        <time>2020-06-26T14:21:29.000Z</time>
      </trkpt>
      <trkpt lat="45.56897" lon="6.73065">
        <ele>752.40002441406</ele>
        <time>2020-06-26T14:21:30.000Z</time>
      </trkpt>
      <trkpt lat="45.56892" lon="6.73034">
        <ele>751</ele>
        <time>2020-06-26T14:21:32.000Z</time>
      </trkpt>
      <trkpt lat="45.56888" lon="6.73005">
        <ele>749.59997558594</ele>
        <time>2020-06-26T14:21:34.000Z</time>
      </trkpt>
      <trkpt lat="45.56886" lon="6.72991">
        <ele>749.20001220703</ele>
        <time>2020-06-26T14:21:35.000Z</time>
      </trkpt>
      <trkpt lat="45.56879" lon="6.72967">
        <ele>748.59997558594</ele>
        <time>2020-06-26T14:21:37.000Z</time>
      </trkpt>
      <trkpt lat="45.5687" lon="6.72945">
        <ele>748</ele>
        <time>2020-06-26T14:21:39.000Z</time>
      </trkpt>
      <trkpt lat="45.56843" lon="6.72894">
        <ele>747.59997558594</ele>
        <time>2020-06-26T14:21:44.000Z</time>
      </trkpt>
      <trkpt lat="45.56837" lon="6.72883">
        <ele>747.59997558594</ele>
        <time>2020-06-26T14:21:45.000Z</time>
      </trkpt>
      <trkpt lat="45.56821" lon="6.7285">
        <ele>747.20001220703</ele>
        <time>2020-06-26T14:21:48.000Z</time>
      </trkpt>
      <trkpt lat="45.56814" lon="6.72826">
        <ele>746.79998779297</ele>
        <time>2020-06-26T14:21:50.000Z</time>
      </trkpt>
      <trkpt lat="45.56812" lon="6.728">
        <ele>746.20001220703</ele>
        <time>2020-06-26T14:21:52.000Z</time>
      </trkpt>
      <trkpt lat="45.56812" lon="6.72786">
        <ele>745.59997558594</ele>
        <time>2020-06-26T14:21:53.000Z</time>
      </trkpt>
      <trkpt lat="45.56813" lon="6.72773">
        <ele>744.79998779297</ele>
        <time>2020-06-26T14:21:54.000Z</time>
      </trkpt>
      <trkpt lat="45.56816" lon="6.72759">
        <ele>743.79998779297</ele>
        <time>2020-06-26T14:21:55.000Z</time>
      </trkpt>
      <trkpt lat="45.56818" lon="6.72746">
        <ele>743.40002441406</ele>
        <time>2020-06-26T14:21:56.000Z</time>
      </trkpt>
      <trkpt lat="45.56821" lon="6.72733">
        <ele>743</ele>
        <time>2020-06-26T14:21:57.000Z</time>
      </trkpt>
      <trkpt lat="45.56831" lon="6.72674">
        <ele>742.20001220703</ele>
        <time>2020-06-26T14:22:02.000Z</time>
      </trkpt>
      <trkpt lat="45.56833" lon="6.72662">
        <ele>742</ele>
        <time>2020-06-26T14:22:03.000Z</time>
      </trkpt>
      <trkpt lat="45.56837" lon="6.72628">
        <ele>741</ele>
        <time>2020-06-26T14:22:06.000Z</time>
      </trkpt>
      <trkpt lat="45.56839" lon="6.72595">
        <ele>740.40002441406</ele>
        <time>2020-06-26T14:22:09.000Z</time>
      </trkpt>
      <trkpt lat="45.56838" lon="6.72536">
        <ele>740.20001220703</ele>
        <time>2020-06-26T14:22:15.000Z</time>
      </trkpt>
      <trkpt lat="45.56837" lon="6.72526">
        <ele>740.20001220703</ele>
        <time>2020-06-26T14:22:16.000Z</time>
      </trkpt>
      <trkpt lat="45.5683" lon="6.72463">
        <ele>739.20001220703</ele>
        <time>2020-06-26T14:22:23.000Z</time>
      </trkpt>
      <trkpt lat="45.56828" lon="6.72454">
        <ele>739</ele>
        <time>2020-06-26T14:22:24.000Z</time>
      </trkpt>
      <trkpt lat="45.56817" lon="6.72411">
        <ele>738.79998779297</ele>
        <time>2020-06-26T14:22:29.000Z</time>
      </trkpt>
      <trkpt lat="45.56796" lon="6.72352">
        <ele>738.59997558594</ele>
        <time>2020-06-26T14:22:36.000Z</time>
      </trkpt>
      <trkpt lat="45.56791" lon="6.72334">
        <ele>738</ele>
        <time>2020-06-26T14:22:38.000Z</time>
      </trkpt>
      <trkpt lat="45.56787" lon="6.72316">
        <ele>737.59997558594</ele>
        <time>2020-06-26T14:22:40.000Z</time>
      </trkpt>
      <trkpt lat="45.56786" lon="6.72306">
        <ele>737.40002441406</ele>
        <time>2020-06-26T14:22:41.000Z</time>
      </trkpt>
      <trkpt lat="45.56789" lon="6.72267">
        <ele>737.20001220703</ele>
        <time>2020-06-26T14:22:45.000Z</time>
      </trkpt>
      <trkpt lat="45.56789" lon="6.72248">
        <ele>737</ele>
        <time>2020-06-26T14:22:47.000Z</time>
      </trkpt>
      <trkpt lat="45.56788" lon="6.72238">
        <ele>737</ele>
        <time>2020-06-26T14:22:48.000Z</time>
      </trkpt>
      <trkpt lat="45.5678" lon="6.72204">
        <ele>736.20001220703</ele>
        <time>2020-06-26T14:22:52.000Z</time>
      </trkpt>
      <trkpt lat="45.56779" lon="6.72197">
        <ele>736.20001220703</ele>
        <time>2020-06-26T14:22:53.000Z</time>
      </trkpt>
      <trkpt lat="45.5677" lon="6.72159">
        <ele>735.79998779297</ele>
        <time>2020-06-26T14:22:58.000Z</time>
      </trkpt>
      <trkpt lat="45.56764" lon="6.72134">
        <ele>735.40002441406</ele>
        <time>2020-06-26T14:23:01.000Z</time>
      </trkpt>
      <trkpt lat="45.56762" lon="6.72117">
        <ele>735.20001220703</ele>
        <time>2020-06-26T14:23:03.000Z</time>
      </trkpt>
      <trkpt lat="45.56763" lon="6.721">
        <ele>735</ele>
        <time>2020-06-26T14:23:05.000Z</time>
      </trkpt>
      <trkpt lat="45.56764" lon="6.72091">
        <ele>735</ele>
        <time>2020-06-26T14:23:06.000Z</time>
      </trkpt>
      <trkpt lat="45.56764" lon="6.72074">
        <ele>734.79998779297</ele>
        <time>2020-06-26T14:23:08.000Z</time>
      </trkpt>
      <trkpt lat="45.56756" lon="6.72041">
        <ele>734.20001220703</ele>
        <time>2020-06-26T14:23:12.000Z</time>
      </trkpt>
      <trkpt lat="45.56745" lon="6.72016">
        <ele>733.79998779297</ele>
        <time>2020-06-26T14:23:15.000Z</time>
      </trkpt>
      <trkpt lat="45.56742" lon="6.72007">
        <ele>733.40002441406</ele>
        <time>2020-06-26T14:23:16.000Z</time>
      </trkpt>
      <trkpt lat="45.56739" lon="6.71976">
        <ele>733.20001220703</ele>
        <time>2020-06-26T14:23:19.000Z</time>
      </trkpt>
      <trkpt lat="45.56741" lon="6.71966">
        <ele>733</ele>
        <time>2020-06-26T14:23:20.000Z</time>
      </trkpt>
      <trkpt lat="45.56749" lon="6.71936">
        <ele>732.79998779297</ele>
        <time>2020-06-26T14:23:23.000Z</time>
      </trkpt>
      <trkpt lat="45.56755" lon="6.71919">
        <ele>732.20001220703</ele>
        <time>2020-06-26T14:23:25.000Z</time>
      </trkpt>
      <trkpt lat="45.56758" lon="6.71911">
        <ele>731.79998779297</ele>
        <time>2020-06-26T14:23:26.000Z</time>
      </trkpt>
      <trkpt lat="45.56766" lon="6.71882">
        <ele>730.79998779297</ele>
        <time>2020-06-26T14:23:30.000Z</time>
      </trkpt>
      <trkpt lat="45.56763" lon="6.71855">
        <ele>730.40002441406</ele>
        <time>2020-06-26T14:23:33.000Z</time>
      </trkpt>
      <trkpt lat="45.56756" lon="6.71838">
        <ele>730.40002441406</ele>
        <time>2020-06-26T14:23:35.000Z</time>
      </trkpt>
      <trkpt lat="45.56747" lon="6.71822">
        <ele>730.20001220703</ele>
        <time>2020-06-26T14:23:37.000Z</time>
      </trkpt>
      <trkpt lat="45.56733" lon="6.71795">
        <ele>729.79998779297</ele>
        <time>2020-06-26T14:23:40.000Z</time>
      </trkpt>
      <trkpt lat="45.56719" lon="6.71767">
        <ele>728.59997558594</ele>
        <time>2020-06-26T14:23:43.000Z</time>
      </trkpt>
      <trkpt lat="45.56714" lon="6.71758">
        <ele>728.20001220703</ele>
        <time>2020-06-26T14:23:44.000Z</time>
      </trkpt>
      <trkpt lat="45.56695" lon="6.71718">
        <ele>727.20001220703</ele>
        <time>2020-06-26T14:23:48.000Z</time>
      </trkpt>
      <trkpt lat="45.56684" lon="6.71686">
        <ele>726.40002441406</ele>
        <time>2020-06-26T14:23:51.000Z</time>
      </trkpt>
      <trkpt lat="45.56681" lon="6.71675">
        <ele>726.20001220703</ele>
        <time>2020-06-26T14:23:52.000Z</time>
      </trkpt>
      <trkpt lat="45.56674" lon="6.71633">
        <ele>725.59997558594</ele>
        <time>2020-06-26T14:23:56.000Z</time>
      </trkpt>
      <trkpt lat="45.56674" lon="6.71623">
        <ele>725.40002441406</ele>
        <time>2020-06-26T14:23:57.000Z</time>
      </trkpt>
      <trkpt lat="45.56672" lon="6.71567">
        <ele>724.40002441406</ele>
        <time>2020-06-26T14:24:03.000Z</time>
      </trkpt>
      <trkpt lat="45.56669" lon="6.71547">
        <ele>724.40002441406</ele>
        <time>2020-06-26T14:24:06.000Z</time>
      </trkpt>
      <trkpt lat="45.56668" lon="6.71543">
        <ele>724.40002441406</ele>
        <time>2020-06-26T14:24:07.000Z</time>
      </trkpt>
      <trkpt lat="45.56666" lon="6.71536">
        <ele>724.40002441406</ele>
        <time>2020-06-26T14:24:10.000Z</time>
      </trkpt>
      <trkpt lat="45.56667" lon="6.71534">
        <ele>724.40002441406</ele>
        <time>2020-06-26T14:24:11.000Z</time>
      </trkpt>
      <trkpt lat="45.5667" lon="6.71537">
        <ele>724.40002441406</ele>
        <time>2020-06-26T14:24:15.000Z</time>
      </trkpt>
      <trkpt lat="45.5667" lon="6.71539">
        <ele>724.59997558594</ele>
        <time>2020-06-26T14:24:16.000Z</time>
      </trkpt>
      <trkpt lat="45.56674" lon="6.71562">
        <ele>724.59997558594</ele>
        <time>2020-06-26T14:24:23.000Z</time>
      </trkpt>
      <trkpt lat="45.56681" lon="6.71583">
        <ele>724.59997558594</ele>
        <time>2020-06-26T14:24:29.000Z</time>
      </trkpt>
      <trkpt lat="45.56682" lon="6.71606">
        <ele>724.79998779297</ele>
        <time>2020-06-26T14:24:32.000Z</time>
      </trkpt>
      <trkpt lat="45.56682" lon="6.71616">
        <ele>724.79998779297</ele>
        <time>2020-06-26T14:24:33.000Z</time>
      </trkpt>
      <trkpt lat="45.5669" lon="6.71642">
        <ele>724.59997558594</ele>
        <time>2020-06-26T14:24:36.000Z</time>
      </trkpt>
      <trkpt lat="45.56701" lon="6.71656">
        <ele>723.79998779297</ele>
        <time>2020-06-26T14:24:38.000Z</time>
      </trkpt>
      <trkpt lat="45.56707" lon="6.71663">
        <ele>723.20001220703</ele>
        <time>2020-06-26T14:24:39.000Z</time>
      </trkpt>
      <trkpt lat="45.56712" lon="6.71671">
        <ele>722.59997558594</ele>
        <time>2020-06-26T14:24:40.000Z</time>
      </trkpt>
      <trkpt lat="45.56717" lon="6.71679">
        <ele>721.79998779297</ele>
        <time>2020-06-26T14:24:41.000Z</time>
      </trkpt>
      <trkpt lat="45.56726" lon="6.71694">
        <ele>720.79998779297</ele>
        <time>2020-06-26T14:24:43.000Z</time>
      </trkpt>
      <trkpt lat="45.56739" lon="6.71717">
        <ele>719.59997558594</ele>
        <time>2020-06-26T14:24:46.000Z</time>
      </trkpt>
      <trkpt lat="45.56764" lon="6.71749">
        <ele>719.40002441406</ele>
        <time>2020-06-26T14:24:51.000Z</time>
      </trkpt>
      <trkpt lat="45.56787" lon="6.71789">
        <ele>719.79998779297</ele>
        <time>2020-06-26T14:24:57.000Z</time>
      </trkpt>
      <trkpt lat="45.56798" lon="6.71828">
        <ele>720.20001220703</ele>
        <time>2020-06-26T14:25:02.000Z</time>
      </trkpt>
      <trkpt lat="45.56799" lon="6.71836">
        <ele>720.20001220703</ele>
        <time>2020-06-26T14:25:03.000Z</time>
      </trkpt>
      <trkpt lat="45.56802" lon="6.71862">
        <ele>720.40002441406</ele>
        <time>2020-06-26T14:25:06.000Z</time>
      </trkpt>
      <trkpt lat="45.56806" lon="6.7188">
        <ele>720.59997558594</ele>
        <time>2020-06-26T14:25:08.000Z</time>
      </trkpt>
      <trkpt lat="45.56808" lon="6.71888">
        <ele>720.79998779297</ele>
        <time>2020-06-26T14:25:09.000Z</time>
      </trkpt>
      <trkpt lat="45.56814" lon="6.71914">
        <ele>720.79998779297</ele>
        <time>2020-06-26T14:25:12.000Z</time>
      </trkpt>
      <trkpt lat="45.56815" lon="6.71921">
        <ele>720.79998779297</ele>
        <time>2020-06-26T14:25:13.000Z</time>
      </trkpt>
      <trkpt lat="45.56815" lon="6.71947">
        <ele>721</ele>
        <time>2020-06-26T14:25:16.000Z</time>
      </trkpt>
      <trkpt lat="45.56815" lon="6.71954">
        <ele>721</ele>
        <time>2020-06-26T14:25:17.000Z</time>
      </trkpt>
      <trkpt lat="45.56816" lon="6.71968">
        <ele>721</ele>
        <time>2020-06-26T14:25:19.000Z</time>
      </trkpt>
      <trkpt lat="45.56817" lon="6.71982">
        <ele>721</ele>
        <time>2020-06-26T14:25:21.000Z</time>
      </trkpt>
      <trkpt lat="45.56817" lon="6.71998">
        <ele>721.40002441406</ele>
        <time>2020-06-26T14:25:23.000Z</time>
      </trkpt>
      <trkpt lat="45.56814" lon="6.7202">
        <ele>721.79998779297</ele>
        <time>2020-06-26T14:25:26.000Z</time>
      </trkpt>
      <trkpt lat="45.56809" lon="6.72074">
        <ele>722</ele>
        <time>2020-06-26T14:25:32.000Z</time>
      </trkpt>
      <trkpt lat="45.56807" lon="6.7211">
        <ele>722</ele>
        <time>2020-06-26T14:25:36.000Z</time>
      </trkpt>
      <trkpt lat="45.56808" lon="6.72129">
        <ele>722</ele>
        <time>2020-06-26T14:25:38.000Z</time>
      </trkpt>
      <trkpt lat="45.56815" lon="6.72191">
        <ele>722</ele>
        <time>2020-06-26T14:25:45.000Z</time>
      </trkpt>
      <trkpt lat="45.56816" lon="6.722">
        <ele>722</ele>
        <time>2020-06-26T14:25:46.000Z</time>
      </trkpt>
      <trkpt lat="45.56826" lon="6.72249">
        <ele>722</ele>
        <time>2020-06-26T14:25:52.000Z</time>
      </trkpt>
      <trkpt lat="45.56835" lon="6.72278">
        <ele>722.20001220703</ele>
        <time>2020-06-26T14:25:56.000Z</time>
      </trkpt>
      <trkpt lat="45.56839" lon="6.72285">
        <ele>722.40002441406</ele>
        <time>2020-06-26T14:25:58.000Z</time>
      </trkpt>
      <trkpt lat="45.56841" lon="6.72288">
        <ele>722.40002441406</ele>
        <time>2020-06-26T14:26:01.000Z</time>
      </trkpt>
      <trkpt lat="45.56841" lon="6.72288">
        <ele>722.59997558594</ele>
        <time>2020-06-26T14:26:02.000Z</time>
      </trkpt>
      <trkpt lat="45.56841" lon="6.72293">
        <ele>723.59997558594</ele>
        <time>2020-06-26T14:26:46.000Z</time>
      </trkpt>
      <trkpt lat="45.56843" lon="6.72302">
        <ele>723.59997558594</ele>
        <time>2020-06-26T14:26:49.000Z</time>
      </trkpt>
      <trkpt lat="45.56854" lon="6.72322">
        <ele>723.40002441406</ele>
        <time>2020-06-26T14:26:55.000Z</time>
      </trkpt>
      <trkpt lat="45.56866" lon="6.72332">
        <ele>723</ele>
        <time>2020-06-26T14:27:01.000Z</time>
      </trkpt>
      <trkpt lat="45.56876" lon="6.72337">
        <ele>723.20001220703</ele>
        <time>2020-06-26T14:27:08.000Z</time>
      </trkpt>
      <trkpt lat="45.56881" lon="6.72339">
        <ele>723.79998779297</ele>
        <time>2020-06-26T14:27:14.000Z</time>
      </trkpt>
      <trkpt lat="45.56884" lon="6.72339">
        <ele>724</ele>
        <time>2020-06-26T14:28:19.000Z</time>
      </trkpt>
      <trkpt lat="45.56897" lon="6.72347">
        <ele>724</ele>
        <time>2020-06-26T14:28:25.000Z</time>
      </trkpt>
      <trkpt lat="45.56911" lon="6.72359">
        <ele>724</ele>
        <time>2020-06-26T14:28:31.000Z</time>
      </trkpt>
      <trkpt lat="45.5692" lon="6.72365">
        <ele>724</ele>
        <time>2020-06-26T14:28:34.000Z</time>
      </trkpt>
      <trkpt lat="45.56923" lon="6.72368">
        <ele>724</ele>
        <time>2020-06-26T14:28:35.000Z</time>
      </trkpt>
      <trkpt lat="45.56952" lon="6.72389">
        <ele>724</ele>
        <time>2020-06-26T14:28:42.000Z</time>
      </trkpt>
      <trkpt lat="45.56982" lon="6.72412">
        <ele>724.40002441406</ele>
        <time>2020-06-26T14:28:49.000Z</time>
      </trkpt>
      <trkpt lat="45.57016" lon="6.72443">
        <ele>724.59997558594</ele>
        <time>2020-06-26T14:28:57.000Z</time>
      </trkpt>
      <trkpt lat="45.57049" lon="6.72471">
        <ele>724.79998779297</ele>
        <time>2020-06-26T14:29:04.000Z</time>
      </trkpt>
      <trkpt lat="45.57065" lon="6.72489">
        <ele>725</ele>
        <time>2020-06-26T14:29:08.000Z</time>
      </trkpt>
      <trkpt lat="45.57068" lon="6.72495">
        <ele>725</ele>
        <time>2020-06-26T14:29:09.000Z</time>
      </trkpt>
      <trkpt lat="45.57073" lon="6.72509">
        <ele>725</ele>
        <time>2020-06-26T14:29:11.000Z</time>
      </trkpt>
      <trkpt lat="45.57082" lon="6.72525">
        <ele>725.20001220703</ele>
        <time>2020-06-26T14:29:14.000Z</time>
      </trkpt>
      <trkpt lat="45.57086" lon="6.7253">
        <ele>725.20001220703</ele>
        <time>2020-06-26T14:29:15.000Z</time>
      </trkpt>
      <trkpt lat="45.57098" lon="6.72545">
        <ele>725.59997558594</ele>
        <time>2020-06-26T14:29:18.000Z</time>
      </trkpt>
      <trkpt lat="45.57111" lon="6.72559">
        <ele>726.20001220703</ele>
        <time>2020-06-26T14:29:21.000Z</time>
      </trkpt>
      <trkpt lat="45.57125" lon="6.72569">
        <ele>726.40002441406</ele>
        <time>2020-06-26T14:29:24.000Z</time>
      </trkpt>
      <trkpt lat="45.57136" lon="6.72575">
        <ele>726.40002441406</ele>
        <time>2020-06-26T14:29:26.000Z</time>
      </trkpt>
      <trkpt lat="45.57152" lon="6.72585">
        <ele>726.59997558594</ele>
        <time>2020-06-26T14:29:29.000Z</time>
      </trkpt>
      <trkpt lat="45.57159" lon="6.72597">
        <ele>726.59997558594</ele>
        <time>2020-06-26T14:29:31.000Z</time>
      </trkpt>
      <trkpt lat="45.57165" lon="6.7261">
        <ele>726.59997558594</ele>
        <time>2020-06-26T14:29:33.000Z</time>
      </trkpt>
      <trkpt lat="45.5717" lon="6.72624">
        <ele>726.59997558594</ele>
        <time>2020-06-26T14:29:35.000Z</time>
      </trkpt>
      <trkpt lat="45.57174" lon="6.72638">
        <ele>726.59997558594</ele>
        <time>2020-06-26T14:29:37.000Z</time>
      </trkpt>
      <trkpt lat="45.57179" lon="6.72651">
        <ele>726.59997558594</ele>
        <time>2020-06-26T14:29:39.000Z</time>
      </trkpt>
      <trkpt lat="45.5719" lon="6.72668">
        <ele>726.79998779297</ele>
        <time>2020-06-26T14:29:42.000Z</time>
      </trkpt>
      <trkpt lat="45.57223" lon="6.72717">
        <ele>727.40002441406</ele>
        <time>2020-06-26T14:29:50.000Z</time>
      </trkpt>
      <trkpt lat="45.5725" lon="6.72764">
        <ele>727.79998779297</ele>
        <time>2020-06-26T14:29:57.000Z</time>
      </trkpt>
      <trkpt lat="45.57255" lon="6.72769">
        <ele>727.79998779297</ele>
        <time>2020-06-26T14:29:58.000Z</time>
      </trkpt>
      <trkpt lat="45.57279" lon="6.72794">
        <ele>727.79998779297</ele>
        <time>2020-06-26T14:30:03.000Z</time>
      </trkpt>
      <trkpt lat="45.57323" lon="6.72817">
        <ele>728.20001220703</ele>
        <time>2020-06-26T14:30:11.000Z</time>
      </trkpt>
      <trkpt lat="45.57379" lon="6.72844">
        <ele>728.59997558594</ele>
        <time>2020-06-26T14:30:21.000Z</time>
      </trkpt>
      <trkpt lat="45.57395" lon="6.72853">
        <ele>728.59997558594</ele>
        <time>2020-06-26T14:30:24.000Z</time>
      </trkpt>
      <trkpt lat="45.57403" lon="6.72863">
        <ele>728.59997558594</ele>
        <time>2020-06-26T14:30:26.000Z</time>
      </trkpt>
      <trkpt lat="45.57414" lon="6.72893">
        <ele>728.59997558594</ele>
        <time>2020-06-26T14:30:31.000Z</time>
      </trkpt>
      <trkpt lat="45.57415" lon="6.72906">
        <ele>728.79998779297</ele>
        <time>2020-06-26T14:30:33.000Z</time>
      </trkpt>
      <trkpt lat="45.57414" lon="6.72933">
        <ele>729</ele>
        <time>2020-06-26T14:30:37.000Z</time>
      </trkpt>
      <trkpt lat="45.5741" lon="6.72965">
        <ele>729.40002441406</ele>
        <time>2020-06-26T14:30:42.000Z</time>
      </trkpt>
      <trkpt lat="45.57408" lon="6.72977">
        <ele>729.59997558594</ele>
        <time>2020-06-26T14:30:44.000Z</time>
      </trkpt>
      <trkpt lat="45.57409" lon="6.72991">
        <ele>730.40002441406</ele>
        <time>2020-06-26T14:30:46.000Z</time>
      </trkpt>
      <trkpt lat="45.5741" lon="6.72997">
        <ele>730.40002441406</ele>
        <time>2020-06-26T14:30:47.000Z</time>
      </trkpt>
      <trkpt lat="45.57411" lon="6.73005">
        <ele>730.40002441406</ele>
        <time>2020-06-26T14:30:48.000Z</time>
      </trkpt>
      <trkpt lat="45.57419" lon="6.73052">
        <ele>730.59997558594</ele>
        <time>2020-06-26T14:30:55.000Z</time>
      </trkpt>
      <trkpt lat="45.57434" lon="6.731">
        <ele>730.59997558594</ele>
        <time>2020-06-26T14:31:03.000Z</time>
      </trkpt>
      <trkpt lat="45.57449" lon="6.73145">
        <ele>730.59997558594</ele>
        <time>2020-06-26T14:31:10.000Z</time>
      </trkpt>
      <trkpt lat="45.57469" lon="6.73175">
        <ele>731</ele>
        <time>2020-06-26T14:31:16.000Z</time>
      </trkpt>
      <trkpt lat="45.57491" lon="6.73197">
        <ele>731.40002441406</ele>
        <time>2020-06-26T14:31:22.000Z</time>
      </trkpt>
      <trkpt lat="45.57505" lon="6.73214">
        <ele>731.59997558594</ele>
        <time>2020-06-26T14:31:27.000Z</time>
      </trkpt>
      <trkpt lat="45.57522" lon="6.73229">
        <ele>731.79998779297</ele>
        <time>2020-06-26T14:31:32.000Z</time>
      </trkpt>
      <trkpt lat="45.57528" lon="6.73236">
        <ele>732</ele>
        <time>2020-06-26T14:31:34.000Z</time>
      </trkpt>
      <trkpt lat="45.57539" lon="6.73247">
        <ele>732</ele>
        <time>2020-06-26T14:31:37.000Z</time>
      </trkpt>
      <trkpt lat="45.57562" lon="6.73268">
        <ele>732.20001220703</ele>
        <time>2020-06-26T14:31:42.000Z</time>
      </trkpt>
      <trkpt lat="45.57578" lon="6.73282">
        <ele>732.20001220703</ele>
        <time>2020-06-26T14:31:45.000Z</time>
      </trkpt>
      <trkpt lat="45.57612" lon="6.73318">
        <ele>732.40002441406</ele>
        <time>2020-06-26T14:31:52.000Z</time>
      </trkpt>
      <trkpt lat="45.5762" lon="6.73328">
        <ele>732.59997558594</ele>
        <time>2020-06-26T14:31:54.000Z</time>
      </trkpt>
      <trkpt lat="45.57633" lon="6.73346">
        <ele>732.79998779297</ele>
        <time>2020-06-26T14:31:57.000Z</time>
      </trkpt>
      <trkpt lat="45.57636" lon="6.73353">
        <ele>732.79998779297</ele>
        <time>2020-06-26T14:31:58.000Z</time>
      </trkpt>
      <trkpt lat="45.57645" lon="6.73372">
        <ele>732.79998779297</ele>
        <time>2020-06-26T14:32:01.000Z</time>
      </trkpt>
      <trkpt lat="45.57655" lon="6.7339">
        <ele>733.20001220703</ele>
        <time>2020-06-26T14:32:04.000Z</time>
      </trkpt>
      <trkpt lat="45.57661" lon="6.73418">
        <ele>733.40002441406</ele>
        <time>2020-06-26T14:32:08.000Z</time>
      </trkpt>
      <trkpt lat="45.57662" lon="6.73425">
        <ele>733.59997558594</ele>
        <time>2020-06-26T14:32:09.000Z</time>
      </trkpt>
      <trkpt lat="45.57663" lon="6.73433">
        <ele>733.79998779297</ele>
        <time>2020-06-26T14:32:10.000Z</time>
      </trkpt>
      <trkpt lat="45.57663" lon="6.7346">
        <ele>734.20001220703</ele>
        <time>2020-06-26T14:32:14.000Z</time>
      </trkpt>
      <trkpt lat="45.57663" lon="6.73466">
        <ele>734.40002441406</ele>
        <time>2020-06-26T14:32:15.000Z</time>
      </trkpt>
      <trkpt lat="45.57665" lon="6.73478">
        <ele>734.59997558594</ele>
        <time>2020-06-26T14:32:17.000Z</time>
      </trkpt>
      <trkpt lat="45.5767" lon="6.73489">
        <ele>735</ele>
        <time>2020-06-26T14:32:19.000Z</time>
      </trkpt>
      <trkpt lat="45.57685" lon="6.7353">
        <ele>736</ele>
        <time>2020-06-26T14:32:26.000Z</time>
      </trkpt>
      <trkpt lat="45.57688" lon="6.73537">
        <ele>736.20001220703</ele>
        <time>2020-06-26T14:32:27.000Z</time>
      </trkpt>
      <trkpt lat="45.57698" lon="6.73564">
        <ele>736.40002441406</ele>
        <time>2020-06-26T14:32:31.000Z</time>
      </trkpt>
      <trkpt lat="45.57699" lon="6.73572">
        <ele>736.40002441406</ele>
        <time>2020-06-26T14:32:32.000Z</time>
      </trkpt>
      <trkpt lat="45.57701" lon="6.73587">
        <ele>736.40002441406</ele>
        <time>2020-06-26T14:32:34.000Z</time>
      </trkpt>
      <trkpt lat="45.57701" lon="6.73609">
        <ele>736.59997558594</ele>
        <time>2020-06-26T14:32:37.000Z</time>
      </trkpt>
      <trkpt lat="45.57695" lon="6.73663">
        <ele>736.59997558594</ele>
        <time>2020-06-26T14:32:45.000Z</time>
      </trkpt>
      <trkpt lat="45.5769" lon="6.73683">
        <ele>736.79998779297</ele>
        <time>2020-06-26T14:32:48.000Z</time>
      </trkpt>
      <trkpt lat="45.57685" lon="6.73694">
        <ele>736.79998779297</ele>
        <time>2020-06-26T14:32:50.000Z</time>
      </trkpt>
      <trkpt lat="45.57676" lon="6.737">
        <ele>737</ele>
        <time>2020-06-26T14:32:53.000Z</time>
      </trkpt>
      <trkpt lat="45.57672" lon="6.73708">
        <ele>737.20001220703</ele>
        <time>2020-06-26T14:32:56.000Z</time>
      </trkpt>
      <trkpt lat="45.57673" lon="6.73713">
        <ele>737.20001220703</ele>
        <time>2020-06-26T14:32:57.000Z</time>
      </trkpt>
      <trkpt lat="45.57675" lon="6.73734">
        <ele>738.20001220703</ele>
        <time>2020-06-26T14:33:01.000Z</time>
      </trkpt>
      <trkpt lat="45.57673" lon="6.73741">
        <ele>738.59997558594</ele>
        <time>2020-06-26T14:33:02.000Z</time>
      </trkpt>
      <trkpt lat="45.5766" lon="6.73789">
        <ele>739</ele>
        <time>2020-06-26T14:33:08.000Z</time>
      </trkpt>
      <trkpt lat="45.57653" lon="6.73822">
        <ele>738.59997558594</ele>
        <time>2020-06-26T14:33:12.000Z</time>
      </trkpt>
      <trkpt lat="45.57652" lon="6.7384">
        <ele>738.40002441406</ele>
        <time>2020-06-26T14:33:14.000Z</time>
      </trkpt>
      <trkpt lat="45.57651" lon="6.73866">
        <ele>738.20001220703</ele>
        <time>2020-06-26T14:33:17.000Z</time>
      </trkpt>
      <trkpt lat="45.57652" lon="6.7391">
        <ele>738.20001220703</ele>
        <time>2020-06-26T14:33:22.000Z</time>
      </trkpt>
      <trkpt lat="45.57654" lon="6.73952">
        <ele>738</ele>
        <time>2020-06-26T14:33:27.000Z</time>
      </trkpt>
      <trkpt lat="45.57658" lon="6.73967">
        <ele>738</ele>
        <time>2020-06-26T14:33:29.000Z</time>
      </trkpt>
      <trkpt lat="45.5767" lon="6.74007">
        <ele>738.20001220703</ele>
        <time>2020-06-26T14:33:35.000Z</time>
      </trkpt>
      <trkpt lat="45.57671" lon="6.74013">
        <ele>738.20001220703</ele>
        <time>2020-06-26T14:33:36.000Z</time>
      </trkpt>
      <trkpt lat="45.57679" lon="6.74045">
        <ele>738.79998779297</ele>
        <time>2020-06-26T14:33:42.000Z</time>
      </trkpt>
      <trkpt lat="45.57687" lon="6.74065">
        <ele>739.79998779297</ele>
        <time>2020-06-26T14:33:46.000Z</time>
      </trkpt>
      <trkpt lat="45.57693" lon="6.74073">
        <ele>740.40002441406</ele>
        <time>2020-06-26T14:33:48.000Z</time>
      </trkpt>
      <trkpt lat="45.57701" lon="6.74082">
        <ele>741</ele>
        <time>2020-06-26T14:33:50.000Z</time>
      </trkpt>
      <trkpt lat="45.57719" lon="6.74098">
        <ele>742.40002441406</ele>
        <time>2020-06-26T14:33:55.000Z</time>
      </trkpt>
      <trkpt lat="45.57744" lon="6.74109">
        <ele>743.40002441406</ele>
        <time>2020-06-26T14:34:01.000Z</time>
      </trkpt>
      <trkpt lat="45.5776" lon="6.74118">
        <ele>744.20001220703</ele>
        <time>2020-06-26T14:34:06.000Z</time>
      </trkpt>
      <trkpt lat="45.57765" lon="6.74122">
        <ele>744.79998779297</ele>
        <time>2020-06-26T14:34:08.000Z</time>
      </trkpt>
      <trkpt lat="45.57775" lon="6.74128">
        <ele>745.59997558594</ele>
        <time>2020-06-26T14:34:11.000Z</time>
      </trkpt>
      <trkpt lat="45.5778" lon="6.74131">
        <ele>745.79998779297</ele>
        <time>2020-06-26T14:34:12.000Z</time>
      </trkpt>
      <trkpt lat="45.57785" lon="6.74135">
        <ele>745.79998779297</ele>
        <time>2020-06-26T14:34:13.000Z</time>
      </trkpt>
      <trkpt lat="45.57812" lon="6.74149">
        <ele>745.79998779297</ele>
        <time>2020-06-26T14:34:17.000Z</time>
      </trkpt>
      <trkpt lat="45.57835" lon="6.74143">
        <ele>745.59997558594</ele>
        <time>2020-06-26T14:34:20.000Z</time>
      </trkpt>
      <trkpt lat="45.57857" lon="6.74135">
        <ele>744.40002441406</ele>
        <time>2020-06-26T14:34:23.000Z</time>
      </trkpt>
      <trkpt lat="45.5787" lon="6.7413">
        <ele>742.79998779297</ele>
        <time>2020-06-26T14:34:25.000Z</time>
      </trkpt>
      <trkpt lat="45.57906" lon="6.74116">
        <ele>741.79998779297</ele>
        <time>2020-06-26T14:34:31.000Z</time>
      </trkpt>
      <trkpt lat="45.57923" lon="6.74105">
        <ele>741.79998779297</ele>
        <time>2020-06-26T14:34:34.000Z</time>
      </trkpt>
      <trkpt lat="45.57936" lon="6.74102">
        <ele>742</ele>
        <time>2020-06-26T14:34:36.000Z</time>
      </trkpt>
      <trkpt lat="45.5797" lon="6.74099">
        <ele>742.20001220703</ele>
        <time>2020-06-26T14:34:42.000Z</time>
      </trkpt>
      <trkpt lat="45.58007" lon="6.74107">
        <ele>742.79998779297</ele>
        <time>2020-06-26T14:34:49.000Z</time>
      </trkpt>
      <trkpt lat="45.58018" lon="6.74111">
        <ele>743</ele>
        <time>2020-06-26T14:34:51.000Z</time>
      </trkpt>
      <trkpt lat="45.58054" lon="6.74127">
        <ele>743.40002441406</ele>
        <time>2020-06-26T14:34:58.000Z</time>
      </trkpt>
      <trkpt lat="45.58064" lon="6.74134">
        <ele>743.59997558594</ele>
        <time>2020-06-26T14:35:00.000Z</time>
      </trkpt>
      <trkpt lat="45.58073" lon="6.74145">
        <ele>743.79998779297</ele>
        <time>2020-06-26T14:35:02.000Z</time>
      </trkpt>
      <trkpt lat="45.58079" lon="6.74157">
        <ele>743.79998779297</ele>
        <time>2020-06-26T14:35:04.000Z</time>
      </trkpt>
      <trkpt lat="45.58082" lon="6.74163">
        <ele>743.79998779297</ele>
        <time>2020-06-26T14:35:05.000Z</time>
      </trkpt>
      <trkpt lat="45.58087" lon="6.74176">
        <ele>744</ele>
        <time>2020-06-26T14:35:07.000Z</time>
      </trkpt>
      <trkpt lat="45.58101" lon="6.74214">
        <ele>744.20001220703</ele>
        <time>2020-06-26T14:35:13.000Z</time>
      </trkpt>
      <trkpt lat="45.58115" lon="6.74261">
        <ele>744.40002441406</ele>
        <time>2020-06-26T14:35:20.000Z</time>
      </trkpt>
      <trkpt lat="45.58118" lon="6.74297">
        <ele>744.79998779297</ele>
        <time>2020-06-26T14:35:25.000Z</time>
      </trkpt>
      <trkpt lat="45.5812" lon="6.74304">
        <ele>745</ele>
        <time>2020-06-26T14:35:26.000Z</time>
      </trkpt>
      <trkpt lat="45.58123" lon="6.74312">
        <ele>745.20001220703</ele>
        <time>2020-06-26T14:35:27.000Z</time>
      </trkpt>
      <trkpt lat="45.58135" lon="6.7434">
        <ele>745.40002441406</ele>
        <time>2020-06-26T14:35:31.000Z</time>
      </trkpt>
      <trkpt lat="45.58165" lon="6.74409">
        <ele>745.79998779297</ele>
        <time>2020-06-26T14:35:40.000Z</time>
      </trkpt>
      <trkpt lat="45.58182" lon="6.74445">
        <ele>745.79998779297</ele>
        <time>2020-06-26T14:35:45.000Z</time>
      </trkpt>
      <trkpt lat="45.58185" lon="6.74453">
        <ele>745.79998779297</ele>
        <time>2020-06-26T14:35:46.000Z</time>
      </trkpt>
      <trkpt lat="45.58189" lon="6.74487">
        <ele>746.20001220703</ele>
        <time>2020-06-26T14:35:50.000Z</time>
      </trkpt>
      <trkpt lat="45.58195" lon="6.7454">
        <ele>746.20001220703</ele>
        <time>2020-06-26T14:35:56.000Z</time>
      </trkpt>
      <trkpt lat="45.58199" lon="6.74557">
        <ele>746.40002441406</ele>
        <time>2020-06-26T14:35:58.000Z</time>
      </trkpt>
      <trkpt lat="45.58202" lon="6.74565">
        <ele>746.40002441406</ele>
        <time>2020-06-26T14:35:59.000Z</time>
      </trkpt>
      <trkpt lat="45.58207" lon="6.7458">
        <ele>746.40002441406</ele>
        <time>2020-06-26T14:36:01.000Z</time>
      </trkpt>
      <trkpt lat="45.58214" lon="6.74602">
        <ele>746.40002441406</ele>
        <time>2020-06-26T14:36:04.000Z</time>
      </trkpt>
      <trkpt lat="45.58218" lon="6.74617">
        <ele>746.40002441406</ele>
        <time>2020-06-26T14:36:06.000Z</time>
      </trkpt>
      <trkpt lat="45.58221" lon="6.74631">
        <ele>746.59997558594</ele>
        <time>2020-06-26T14:36:08.000Z</time>
      </trkpt>
      <trkpt lat="45.5823" lon="6.7465">
        <ele>746.79998779297</ele>
        <time>2020-06-26T14:36:11.000Z</time>
      </trkpt>
      <trkpt lat="45.58253" lon="6.74676">
        <ele>747.40002441406</ele>
        <time>2020-06-26T14:36:16.000Z</time>
      </trkpt>
      <trkpt lat="45.58292" lon="6.74718">
        <ele>748</ele>
        <time>2020-06-26T14:36:24.000Z</time>
      </trkpt>
      <trkpt lat="45.58328" lon="6.74749">
        <ele>748.40002441406</ele>
        <time>2020-06-26T14:36:31.000Z</time>
      </trkpt>
      <trkpt lat="45.58366" lon="6.74773">
        <ele>748.59997558594</ele>
        <time>2020-06-26T14:36:38.000Z</time>
      </trkpt>
      <trkpt lat="45.58378" lon="6.74778">
        <ele>748.59997558594</ele>
        <time>2020-06-26T14:36:40.000Z</time>
      </trkpt>
      <trkpt lat="45.58398" lon="6.74781">
        <ele>748.59997558594</ele>
        <time>2020-06-26T14:36:43.000Z</time>
      </trkpt>
      <trkpt lat="45.58429" lon="6.74788">
        <ele>748.20001220703</ele>
        <time>2020-06-26T14:36:48.000Z</time>
      </trkpt>
      <trkpt lat="45.58475" lon="6.74799">
        <ele>748.79998779297</ele>
        <time>2020-06-26T14:36:56.000Z</time>
      </trkpt>
      <trkpt lat="45.58491" lon="6.74804">
        <ele>749.20001220703</ele>
        <time>2020-06-26T14:37:00.000Z</time>
      </trkpt>
      <trkpt lat="45.58499" lon="6.74808">
        <ele>749.20001220703</ele>
        <time>2020-06-26T14:37:05.000Z</time>
      </trkpt>
      <trkpt lat="45.58505" lon="6.74811">
        <ele>749.79998779297</ele>
        <time>2020-06-26T14:37:08.000Z</time>
      </trkpt>
      <trkpt lat="45.58506" lon="6.74813">
        <ele>750</ele>
        <time>2020-06-26T14:37:09.000Z</time>
      </trkpt>
      <trkpt lat="45.58508" lon="6.74817">
        <ele>750</ele>
        <time>2020-06-26T14:37:10.000Z</time>
      </trkpt>
      <trkpt lat="45.58519" lon="6.74835">
        <ele>750.79998779297</ele>
        <time>2020-06-26T14:37:16.000Z</time>
      </trkpt>
      <trkpt lat="45.58536" lon="6.74843">
        <ele>751</ele>
        <time>2020-06-26T14:37:22.000Z</time>
      </trkpt>
      <trkpt lat="45.58568" lon="6.74855">
        <ele>750.79998779297</ele>
        <time>2020-06-26T14:37:30.000Z</time>
      </trkpt>
      <trkpt lat="45.58579" lon="6.74863">
        <ele>750.59997558594</ele>
        <time>2020-06-26T14:37:33.000Z</time>
      </trkpt>
      <trkpt lat="45.58589" lon="6.74874">
        <ele>751</ele>
        <time>2020-06-26T14:37:36.000Z</time>
      </trkpt>
      <trkpt lat="45.586" lon="6.74884">
        <ele>750.79998779297</ele>
        <time>2020-06-26T14:37:39.000Z</time>
      </trkpt>
      <trkpt lat="45.58613" lon="6.7489">
        <ele>750.79998779297</ele>
        <time>2020-06-26T14:37:42.000Z</time>
      </trkpt>
      <trkpt lat="45.58646" lon="6.74894">
        <ele>750.79998779297</ele>
        <time>2020-06-26T14:37:49.000Z</time>
      </trkpt>
      <trkpt lat="45.58674" lon="6.74894">
        <ele>750.79998779297</ele>
        <time>2020-06-26T14:37:55.000Z</time>
      </trkpt>
      <trkpt lat="45.58705" lon="6.749">
        <ele>750.79998779297</ele>
        <time>2020-06-26T14:38:01.000Z</time>
      </trkpt>
      <trkpt lat="45.58739" lon="6.74903">
        <ele>750.79998779297</ele>
        <time>2020-06-26T14:38:08.000Z</time>
      </trkpt>
      <trkpt lat="45.58758" lon="6.7491">
        <ele>750.59997558594</ele>
        <time>2020-06-26T14:38:12.000Z</time>
      </trkpt>
      <trkpt lat="45.58768" lon="6.74911">
        <ele>750.59997558594</ele>
        <time>2020-06-26T14:38:14.000Z</time>
      </trkpt>
      <trkpt lat="45.58808" lon="6.74909">
        <ele>750.79998779297</ele>
        <time>2020-06-26T14:38:22.000Z</time>
      </trkpt>
      <trkpt lat="45.58823" lon="6.74908">
        <ele>751.20001220703</ele>
        <time>2020-06-26T14:38:25.000Z</time>
      </trkpt>
      <trkpt lat="45.58847" lon="6.74909">
        <ele>751.79998779297</ele>
        <time>2020-06-26T14:38:29.000Z</time>
      </trkpt>
      <trkpt lat="45.58867" lon="6.74911">
        <ele>751.79998779297</ele>
        <time>2020-06-26T14:38:33.000Z</time>
      </trkpt>
      <trkpt lat="45.5888" lon="6.74908">
        <ele>751.79998779297</ele>
        <time>2020-06-26T14:38:36.000Z</time>
      </trkpt>
      <trkpt lat="45.58886" lon="6.74908">
        <ele>752</ele>
        <time>2020-06-26T14:38:37.000Z</time>
      </trkpt>
      <trkpt lat="45.58901" lon="6.74911">
        <ele>752.40002441406</ele>
        <time>2020-06-26T14:38:40.000Z</time>
      </trkpt>
      <trkpt lat="45.58906" lon="6.74912">
        <ele>752.59997558594</ele>
        <time>2020-06-26T14:38:41.000Z</time>
      </trkpt>
      <trkpt lat="45.58915" lon="6.74915">
        <ele>752.79998779297</ele>
        <time>2020-06-26T14:38:43.000Z</time>
      </trkpt>
      <trkpt lat="45.5893" lon="6.74916">
        <ele>753</ele>
        <time>2020-06-26T14:38:46.000Z</time>
      </trkpt>
      <trkpt lat="45.58945" lon="6.74922">
        <ele>753.20001220703</ele>
        <time>2020-06-26T14:38:49.000Z</time>
      </trkpt>
      <trkpt lat="45.58954" lon="6.74927">
        <ele>753.59997558594</ele>
        <time>2020-06-26T14:38:51.000Z</time>
      </trkpt>
      <trkpt lat="45.58959" lon="6.7493">
        <ele>753.79998779297</ele>
        <time>2020-06-26T14:38:52.000Z</time>
      </trkpt>
      <trkpt lat="45.58985" lon="6.74944">
        <ele>754.20001220703</ele>
        <time>2020-06-26T14:38:58.000Z</time>
      </trkpt>
      <trkpt lat="45.59003" lon="6.7495">
        <ele>754.79998779297</ele>
        <time>2020-06-26T14:39:02.000Z</time>
      </trkpt>
      <trkpt lat="45.59009" lon="6.74951">
        <ele>754.79998779297</ele>
        <time>2020-06-26T14:39:03.000Z</time>
      </trkpt>
      <trkpt lat="45.59026" lon="6.74957">
        <ele>755</ele>
        <time>2020-06-26T14:39:06.000Z</time>
      </trkpt>
      <trkpt lat="45.59039" lon="6.74965">
        <ele>755</ele>
        <time>2020-06-26T14:39:08.000Z</time>
      </trkpt>
      <trkpt lat="45.59058" lon="6.7499">
        <ele>755.20001220703</ele>
        <time>2020-06-26T14:39:12.000Z</time>
      </trkpt>
      <trkpt lat="45.59076" lon="6.74998">
        <ele>754.79998779297</ele>
        <time>2020-06-26T14:39:15.000Z</time>
      </trkpt>
      <trkpt lat="45.59082" lon="6.74999">
        <ele>754.79998779297</ele>
        <time>2020-06-26T14:39:16.000Z</time>
      </trkpt>
      <trkpt lat="45.59132" lon="6.75005">
        <ele>754.40002441406</ele>
        <time>2020-06-26T14:39:24.000Z</time>
      </trkpt>
      <trkpt lat="45.59155" lon="6.75009">
        <ele>754.59997558594</ele>
        <time>2020-06-26T14:39:28.000Z</time>
      </trkpt>
      <trkpt lat="45.59166" lon="6.75014">
        <ele>754.59997558594</ele>
        <time>2020-06-26T14:39:30.000Z</time>
      </trkpt>
      <trkpt lat="45.59176" lon="6.7502">
        <ele>754.79998779297</ele>
        <time>2020-06-26T14:39:32.000Z</time>
      </trkpt>
      <trkpt lat="45.59189" lon="6.75035">
        <ele>754.79998779297</ele>
        <time>2020-06-26T14:39:35.000Z</time>
      </trkpt>
      <trkpt lat="45.59219" lon="6.7507">
        <ele>755.79998779297</ele>
        <time>2020-06-26T14:39:42.000Z</time>
      </trkpt>
      <trkpt lat="45.59234" lon="6.75089">
        <ele>756</ele>
        <time>2020-06-26T14:39:46.000Z</time>
      </trkpt>
      <trkpt lat="45.59244" lon="6.75105">
        <ele>756.20001220703</ele>
        <time>2020-06-26T14:39:49.000Z</time>
      </trkpt>
      <trkpt lat="45.59261" lon="6.75134">
        <ele>757.20001220703</ele>
        <time>2020-06-26T14:39:54.000Z</time>
      </trkpt>
      <trkpt lat="45.59266" lon="6.75139">
        <ele>757.20001220703</ele>
        <time>2020-06-26T14:39:55.000Z</time>
      </trkpt>
      <trkpt lat="45.5929" lon="6.75151">
        <ele>757.59997558594</ele>
        <time>2020-06-26T14:40:00.000Z</time>
      </trkpt>
      <trkpt lat="45.59296" lon="6.75152">
        <ele>757.59997558594</ele>
        <time>2020-06-26T14:40:01.000Z</time>
      </trkpt>
      <trkpt lat="45.59323" lon="6.75161">
        <ele>758.40002441406</ele>
        <time>2020-06-26T14:40:06.000Z</time>
      </trkpt>
      <trkpt lat="45.59329" lon="6.75165">
        <ele>758.40002441406</ele>
        <time>2020-06-26T14:40:07.000Z</time>
      </trkpt>
      <trkpt lat="45.59379" lon="6.75187">
        <ele>758.59997558594</ele>
        <time>2020-06-26T14:40:16.000Z</time>
      </trkpt>
      <trkpt lat="45.59402" lon="6.75193">
        <ele>758.79998779297</ele>
        <time>2020-06-26T14:40:20.000Z</time>
      </trkpt>
      <trkpt lat="45.59413" lon="6.75201">
        <ele>758.79998779297</ele>
        <time>2020-06-26T14:40:22.000Z</time>
      </trkpt>
      <trkpt lat="45.5943" lon="6.75228">
        <ele>758.59997558594</ele>
        <time>2020-06-26T14:40:26.000Z</time>
      </trkpt>
      <trkpt lat="45.59433" lon="6.75236">
        <ele>758.59997558594</ele>
        <time>2020-06-26T14:40:27.000Z</time>
      </trkpt>
      <trkpt lat="45.59444" lon="6.75257">
        <ele>758.59997558594</ele>
        <time>2020-06-26T14:40:30.000Z</time>
      </trkpt>
      <trkpt lat="45.59457" lon="6.75275">
        <ele>758.79998779297</ele>
        <time>2020-06-26T14:40:33.000Z</time>
      </trkpt>
      <trkpt lat="45.59499" lon="6.75319">
        <ele>759</ele>
        <time>2020-06-26T14:40:42.000Z</time>
      </trkpt>
      <trkpt lat="45.59521" lon="6.75352">
        <ele>759.79998779297</ele>
        <time>2020-06-26T14:40:48.000Z</time>
      </trkpt>
      <trkpt lat="45.59525" lon="6.75357">
        <ele>760</ele>
        <time>2020-06-26T14:40:49.000Z</time>
      </trkpt>
      <trkpt lat="45.59542" lon="6.75376">
        <ele>761</ele>
        <time>2020-06-26T14:40:53.000Z</time>
      </trkpt>
      <trkpt lat="45.59551" lon="6.75383">
        <ele>761.40002441406</ele>
        <time>2020-06-26T14:40:55.000Z</time>
      </trkpt>
      <trkpt lat="45.59556" lon="6.75386">
        <ele>761.59997558594</ele>
        <time>2020-06-26T14:40:56.000Z</time>
      </trkpt>
      <trkpt lat="45.59565" lon="6.75393">
        <ele>761.79998779297</ele>
        <time>2020-06-26T14:40:58.000Z</time>
      </trkpt>
      <trkpt lat="45.59572" lon="6.75404">
        <ele>761.79998779297</ele>
        <time>2020-06-26T14:41:00.000Z</time>
      </trkpt>
      <trkpt lat="45.59576" lon="6.75409">
        <ele>761.79998779297</ele>
        <time>2020-06-26T14:41:01.000Z</time>
      </trkpt>
      <trkpt lat="45.5958" lon="6.75413">
        <ele>762</ele>
        <time>2020-06-26T14:41:02.000Z</time>
      </trkpt>
      <trkpt lat="45.59586" lon="6.75416">
        <ele>762</ele>
        <time>2020-06-26T14:41:03.000Z</time>
      </trkpt>
      <trkpt lat="45.59597" lon="6.7542">
        <ele>762</ele>
        <time>2020-06-26T14:41:05.000Z</time>
      </trkpt>
      <trkpt lat="45.59607" lon="6.75427">
        <ele>762</ele>
        <time>2020-06-26T14:41:07.000Z</time>
      </trkpt>
      <trkpt lat="45.59635" lon="6.75445">
        <ele>762</ele>
        <time>2020-06-26T14:41:12.000Z</time>
      </trkpt>
      <trkpt lat="45.5964" lon="6.75448">
        <ele>762</ele>
        <time>2020-06-26T14:41:13.000Z</time>
      </trkpt>
      <trkpt lat="45.59662" lon="6.75464">
        <ele>761.79998779297</ele>
        <time>2020-06-26T14:41:17.000Z</time>
      </trkpt>
      <trkpt lat="45.59666" lon="6.75469">
        <ele>761.79998779297</ele>
        <time>2020-06-26T14:41:18.000Z</time>
      </trkpt>
      <trkpt lat="45.59686" lon="6.7548">
        <ele>761.59997558594</ele>
        <time>2020-06-26T14:41:22.000Z</time>
      </trkpt>
      <trkpt lat="45.59691" lon="6.75481">
        <ele>761.59997558594</ele>
        <time>2020-06-26T14:41:23.000Z</time>
      </trkpt>
      <trkpt lat="45.59696" lon="6.75482">
        <ele>761.59997558594</ele>
        <time>2020-06-26T14:41:24.000Z</time>
      </trkpt>
      <trkpt lat="45.59708" lon="6.75484">
        <ele>761.59997558594</ele>
        <time>2020-06-26T14:41:26.000Z</time>
      </trkpt>
      <trkpt lat="45.59714" lon="6.75486">
        <ele>761.59997558594</ele>
        <time>2020-06-26T14:41:27.000Z</time>
      </trkpt>
      <trkpt lat="45.59728" lon="6.75502">
        <ele>762</ele>
        <time>2020-06-26T14:41:30.000Z</time>
      </trkpt>
      <trkpt lat="45.5975" lon="6.75533">
        <ele>762.40002441406</ele>
        <time>2020-06-26T14:41:35.000Z</time>
      </trkpt>
      <trkpt lat="45.59754" lon="6.75539">
        <ele>762.40002441406</ele>
        <time>2020-06-26T14:41:36.000Z</time>
      </trkpt>
      <trkpt lat="45.59775" lon="6.75583">
        <ele>762.59997558594</ele>
        <time>2020-06-26T14:41:42.000Z</time>
      </trkpt>
      <trkpt lat="45.59783" lon="6.75605">
        <ele>763</ele>
        <time>2020-06-26T14:41:45.000Z</time>
      </trkpt>
      <trkpt lat="45.59795" lon="6.75632">
        <ele>763.59997558594</ele>
        <time>2020-06-26T14:41:49.000Z</time>
      </trkpt>
      <trkpt lat="45.59795" lon="6.75647">
        <ele>764</ele>
        <time>2020-06-26T14:41:51.000Z</time>
      </trkpt>
      <trkpt lat="45.59796" lon="6.75663">
        <ele>764.40002441406</ele>
        <time>2020-06-26T14:41:53.000Z</time>
      </trkpt>
      <trkpt lat="45.59797" lon="6.75695">
        <ele>765.40002441406</ele>
        <time>2020-06-26T14:41:57.000Z</time>
      </trkpt>
      <trkpt lat="45.59799" lon="6.7571">
        <ele>765.59997558594</ele>
        <time>2020-06-26T14:41:59.000Z</time>
      </trkpt>
      <trkpt lat="45.59801" lon="6.75718">
        <ele>765.59997558594</ele>
        <time>2020-06-26T14:42:00.000Z</time>
      </trkpt>
      <trkpt lat="45.59811" lon="6.75735">
        <ele>766</ele>
        <time>2020-06-26T14:42:03.000Z</time>
      </trkpt>
      <trkpt lat="45.59815" lon="6.7574">
        <ele>766</ele>
        <time>2020-06-26T14:42:04.000Z</time>
      </trkpt>
      <trkpt lat="45.59819" lon="6.75745">
        <ele>766.20001220703</ele>
        <time>2020-06-26T14:42:05.000Z</time>
      </trkpt>
      <trkpt lat="45.59822" lon="6.75751">
        <ele>766.40002441406</ele>
        <time>2020-06-26T14:42:06.000Z</time>
      </trkpt>
      <trkpt lat="45.59827" lon="6.75764">
        <ele>766.79998779297</ele>
        <time>2020-06-26T14:42:08.000Z</time>
      </trkpt>
      <trkpt lat="45.5983" lon="6.75778">
        <ele>767</ele>
        <time>2020-06-26T14:42:10.000Z</time>
      </trkpt>
      <trkpt lat="45.59831" lon="6.75784">
        <ele>767</ele>
        <time>2020-06-26T14:42:11.000Z</time>
      </trkpt>
      <trkpt lat="45.59837" lon="6.75796">
        <ele>767.20001220703</ele>
        <time>2020-06-26T14:42:13.000Z</time>
      </trkpt>
      <trkpt lat="45.59845" lon="6.75803">
        <ele>767.59997558594</ele>
        <time>2020-06-26T14:42:15.000Z</time>
      </trkpt>
      <trkpt lat="45.59854" lon="6.7581">
        <ele>768.20001220703</ele>
        <time>2020-06-26T14:42:17.000Z</time>
      </trkpt>
      <trkpt lat="45.59857" lon="6.75815">
        <ele>768.40002441406</ele>
        <time>2020-06-26T14:42:18.000Z</time>
      </trkpt>
      <trkpt lat="45.59864" lon="6.75825">
        <ele>768.59997558594</ele>
        <time>2020-06-26T14:42:20.000Z</time>
      </trkpt>
      <trkpt lat="45.59876" lon="6.75846">
        <ele>769.40002441406</ele>
        <time>2020-06-26T14:42:24.000Z</time>
      </trkpt>
      <trkpt lat="45.59878" lon="6.75852">
        <ele>769.59997558594</ele>
        <time>2020-06-26T14:42:25.000Z</time>
      </trkpt>
      <trkpt lat="45.5988" lon="6.75858">
        <ele>769.79998779297</ele>
        <time>2020-06-26T14:42:26.000Z</time>
      </trkpt>
      <trkpt lat="45.59886" lon="6.75875">
        <ele>770.20001220703</ele>
        <time>2020-06-26T14:42:29.000Z</time>
      </trkpt>
      <trkpt lat="45.59892" lon="6.75884">
        <ele>770.40002441406</ele>
        <time>2020-06-26T14:42:31.000Z</time>
      </trkpt>
      <trkpt lat="45.59905" lon="6.75886">
        <ele>771</ele>
        <time>2020-06-26T14:42:34.000Z</time>
      </trkpt>
      <trkpt lat="45.59911" lon="6.75885">
        <ele>771.40002441406</ele>
        <time>2020-06-26T14:42:35.000Z</time>
      </trkpt>
      <trkpt lat="45.59923" lon="6.75885">
        <ele>771.59997558594</ele>
        <time>2020-06-26T14:42:37.000Z</time>
      </trkpt>
      <trkpt lat="45.59928" lon="6.75888">
        <ele>771.59997558594</ele>
        <time>2020-06-26T14:42:38.000Z</time>
      </trkpt>
      <trkpt lat="45.59944" lon="6.75903">
        <ele>771.59997558594</ele>
        <time>2020-06-26T14:42:41.000Z</time>
      </trkpt>
      <trkpt lat="45.59948" lon="6.75909">
        <ele>771.59997558594</ele>
        <time>2020-06-26T14:42:42.000Z</time>
      </trkpt>
      <trkpt lat="45.59953" lon="6.75927">
        <ele>772.20001220703</ele>
        <time>2020-06-26T14:42:45.000Z</time>
      </trkpt>
      <trkpt lat="45.59959" lon="6.75937">
        <ele>772.20001220703</ele>
        <time>2020-06-26T14:42:47.000Z</time>
      </trkpt>
      <trkpt lat="45.59963" lon="6.7594">
        <ele>772.20001220703</ele>
        <time>2020-06-26T14:42:48.000Z</time>
      </trkpt>
      <trkpt lat="45.59967" lon="6.75942">
        <ele>772.20001220703</ele>
        <time>2020-06-26T14:42:49.000Z</time>
      </trkpt>
      <trkpt lat="45.59972" lon="6.75945">
        <ele>772.20001220703</ele>
        <time>2020-06-26T14:42:50.000Z</time>
      </trkpt>
      <trkpt lat="45.59986" lon="6.75957">
        <ele>772.59997558594</ele>
        <time>2020-06-26T14:42:53.000Z</time>
      </trkpt>
      <trkpt lat="45.59995" lon="6.75967">
        <ele>773.59997558594</ele>
        <time>2020-06-26T14:42:55.000Z</time>
      </trkpt>
      <trkpt lat="45.60013" lon="6.75988">
        <ele>774.20001220703</ele>
        <time>2020-06-26T14:42:59.000Z</time>
      </trkpt>
      <trkpt lat="45.60037" lon="6.76014">
        <ele>774.20001220703</ele>
        <time>2020-06-26T14:43:04.000Z</time>
      </trkpt>
      <trkpt lat="45.60044" lon="6.76027">
        <ele>774</ele>
        <time>2020-06-26T14:43:06.000Z</time>
      </trkpt>
      <trkpt lat="45.60068" lon="6.76076">
        <ele>774</ele>
        <time>2020-06-26T14:43:13.000Z</time>
      </trkpt>
      <trkpt lat="45.6007" lon="6.76104">
        <ele>774</ele>
        <time>2020-06-26T14:43:16.000Z</time>
      </trkpt>
      <trkpt lat="45.60069" lon="6.76113">
        <ele>774</ele>
        <time>2020-06-26T14:43:17.000Z</time>
      </trkpt>
      <trkpt lat="45.6007" lon="6.76154">
        <ele>774.20001220703</ele>
        <time>2020-06-26T14:43:22.000Z</time>
      </trkpt>
      <trkpt lat="45.60074" lon="6.76195">
        <ele>774.59997558594</ele>
        <time>2020-06-26T14:43:27.000Z</time>
      </trkpt>
      <trkpt lat="45.60078" lon="6.76212">
        <ele>775.40002441406</ele>
        <time>2020-06-26T14:43:29.000Z</time>
      </trkpt>
      <trkpt lat="45.60086" lon="6.76252">
        <ele>775.40002441406</ele>
        <time>2020-06-26T14:43:34.000Z</time>
      </trkpt>
      <trkpt lat="45.60086" lon="6.7626">
        <ele>775.59997558594</ele>
        <time>2020-06-26T14:43:35.000Z</time>
      </trkpt>
      <trkpt lat="45.6008" lon="6.76299">
        <ele>775.79998779297</ele>
        <time>2020-06-26T14:43:40.000Z</time>
      </trkpt>
      <trkpt lat="45.6008" lon="6.76306">
        <ele>775.79998779297</ele>
        <time>2020-06-26T14:43:41.000Z</time>
      </trkpt>
      <trkpt lat="45.6008" lon="6.76314">
        <ele>775.79998779297</ele>
        <time>2020-06-26T14:43:42.000Z</time>
      </trkpt>
      <trkpt lat="45.60083" lon="6.76333">
        <ele>776.20001220703</ele>
        <time>2020-06-26T14:43:45.000Z</time>
      </trkpt>
      <trkpt lat="45.60085" lon="6.76353">
        <ele>776.40002441406</ele>
        <time>2020-06-26T14:43:48.000Z</time>
      </trkpt>
      <trkpt lat="45.60084" lon="6.76367">
        <ele>776.59997558594</ele>
        <time>2020-06-26T14:43:50.000Z</time>
      </trkpt>
      <trkpt lat="45.60083" lon="6.76388">
        <ele>777</ele>
        <time>2020-06-26T14:43:53.000Z</time>
      </trkpt>
      <trkpt lat="45.60084" lon="6.76401">
        <ele>777</ele>
        <time>2020-06-26T14:43:55.000Z</time>
      </trkpt>
      <trkpt lat="45.60085" lon="6.76407">
        <ele>777</ele>
        <time>2020-06-26T14:43:56.000Z</time>
      </trkpt>
      <trkpt lat="45.60092" lon="6.76455">
        <ele>777.79998779297</ele>
        <time>2020-06-26T14:44:04.000Z</time>
      </trkpt>
      <trkpt lat="45.60093" lon="6.76461">
        <ele>778</ele>
        <time>2020-06-26T14:44:05.000Z</time>
      </trkpt>
      <trkpt lat="45.601" lon="6.76478">
        <ele>778.59997558594</ele>
        <time>2020-06-26T14:44:08.000Z</time>
      </trkpt>
      <trkpt lat="45.60102" lon="6.76483">
        <ele>778.79998779297</ele>
        <time>2020-06-26T14:44:09.000Z</time>
      </trkpt>
      <trkpt lat="45.60105" lon="6.76488">
        <ele>779</ele>
        <time>2020-06-26T14:44:10.000Z</time>
      </trkpt>
      <trkpt lat="45.60124" lon="6.76521">
        <ele>780</ele>
        <time>2020-06-26T14:44:17.000Z</time>
      </trkpt>
      <trkpt lat="45.6013" lon="6.76529">
        <ele>780.20001220703</ele>
        <time>2020-06-26T14:44:19.000Z</time>
      </trkpt>
      <trkpt lat="45.60143" lon="6.7655">
        <ele>781.40002441406</ele>
        <time>2020-06-26T14:44:24.000Z</time>
      </trkpt>
      <trkpt lat="45.60149" lon="6.76558">
        <ele>782</ele>
        <time>2020-06-26T14:44:26.000Z</time>
      </trkpt>
      <trkpt lat="45.60155" lon="6.76567">
        <ele>782.59997558594</ele>
        <time>2020-06-26T14:44:28.000Z</time>
      </trkpt>
      <trkpt lat="45.60159" lon="6.76578">
        <ele>783</ele>
        <time>2020-06-26T14:44:30.000Z</time>
      </trkpt>
      <trkpt lat="45.60163" lon="6.76589">
        <ele>783</ele>
        <time>2020-06-26T14:44:32.000Z</time>
      </trkpt>
      <trkpt lat="45.60168" lon="6.76606">
        <ele>783.20001220703</ele>
        <time>2020-06-26T14:44:35.000Z</time>
      </trkpt>
      <trkpt lat="45.60176" lon="6.76617">
        <ele>783.20001220703</ele>
        <time>2020-06-26T14:44:37.000Z</time>
      </trkpt>
      <trkpt lat="45.60185" lon="6.76628">
        <ele>783.20001220703</ele>
        <time>2020-06-26T14:44:39.000Z</time>
      </trkpt>
      <trkpt lat="45.60196" lon="6.76635">
        <ele>783.20001220703</ele>
        <time>2020-06-26T14:44:41.000Z</time>
      </trkpt>
      <trkpt lat="45.60234" lon="6.76655">
        <ele>782.40002441406</ele>
        <time>2020-06-26T14:44:49.000Z</time>
      </trkpt>
      <trkpt lat="45.60243" lon="6.76661">
        <ele>782.40002441406</ele>
        <time>2020-06-26T14:44:51.000Z</time>
      </trkpt>
      <trkpt lat="45.60256" lon="6.76673">
        <ele>782.20001220703</ele>
        <time>2020-06-26T14:44:54.000Z</time>
      </trkpt>
      <trkpt lat="45.60274" lon="6.76687">
        <ele>782.20001220703</ele>
        <time>2020-06-26T14:44:58.000Z</time>
      </trkpt>
      <trkpt lat="45.60283" lon="6.76691">
        <ele>782.20001220703</ele>
        <time>2020-06-26T14:45:00.000Z</time>
      </trkpt>
      <trkpt lat="45.60303" lon="6.76698">
        <ele>782.20001220703</ele>
        <time>2020-06-26T14:45:05.000Z</time>
      </trkpt>
      <trkpt lat="45.60311" lon="6.76705">
        <ele>783</ele>
        <time>2020-06-26T14:45:10.000Z</time>
      </trkpt>
      <trkpt lat="45.60314" lon="6.76708">
        <ele>783.59997558594</ele>
        <time>2020-06-26T14:45:12.000Z</time>
      </trkpt>
      <trkpt lat="45.60315" lon="6.76711">
        <ele>785</ele>
        <time>2020-06-26T14:45:15.000Z</time>
      </trkpt>
      <trkpt lat="45.60315" lon="6.7671">
        <ele>785.20001220703</ele>
        <time>2020-06-26T14:45:16.000Z</time>
      </trkpt>
      <trkpt lat="45.60312" lon="6.76706">
        <ele>785.40002441406</ele>
        <time>2020-06-26T14:45:18.000Z</time>
      </trkpt>
      <trkpt lat="45.60296" lon="6.7669">
        <ele>785.40002441406</ele>
        <time>2020-06-26T14:45:24.000Z</time>
      </trkpt>
      <trkpt lat="45.60278" lon="6.7668">
        <ele>785.79998779297</ele>
        <time>2020-06-26T14:45:29.000Z</time>
      </trkpt>
      <trkpt lat="45.60276" lon="6.76678">
        <ele>786</ele>
        <time>2020-06-26T14:45:30.000Z</time>
      </trkpt>
      <trkpt lat="45.60275" lon="6.76675">
        <ele>786</ele>
        <time>2020-06-26T14:45:31.000Z</time>
      </trkpt>
      <trkpt lat="45.60275" lon="6.76672">
        <ele>786</ele>
        <time>2020-06-26T14:45:32.000Z</time>
      </trkpt>
      <trkpt lat="45.60285" lon="6.76653">
        <ele>786.40002441406</ele>
        <time>2020-06-26T14:45:36.000Z</time>
      </trkpt>
      <trkpt lat="45.60287" lon="6.76648">
        <ele>786.59997558594</ele>
        <time>2020-06-26T14:45:37.000Z</time>
      </trkpt>
      <trkpt lat="45.60298" lon="6.76628">
        <ele>787</ele>
        <time>2020-06-26T14:45:41.000Z</time>
      </trkpt>
      <trkpt lat="45.603" lon="6.76623">
        <ele>787</ele>
        <time>2020-06-26T14:45:42.000Z</time>
      </trkpt>
      <trkpt lat="45.60306" lon="6.76616">
        <ele>787</ele>
        <time>2020-06-26T14:45:44.000Z</time>
      </trkpt>
      <trkpt lat="45.60311" lon="6.76611">
        <ele>787.20001220703</ele>
        <time>2020-06-26T14:45:47.000Z</time>
      </trkpt>
      <trkpt lat="45.60311" lon="6.76609">
        <ele>787.20001220703</ele>
        <time>2020-06-26T14:45:48.000Z</time>
      </trkpt>
      <trkpt lat="45.60308" lon="6.76607">
        <ele>787.20001220703</ele>
        <time>2020-06-26T14:45:52.000Z</time>
      </trkpt>
      <trkpt lat="45.60305" lon="6.76608">
        <ele>787.79998779297</ele>
        <time>2020-06-26T14:46:18.000Z</time>
      </trkpt>
      <trkpt lat="45.60307" lon="6.76603">
        <ele>787.79998779297</ele>
        <time>2020-06-26T14:46:22.000Z</time>
      </trkpt>
      <trkpt lat="45.60309" lon="6.76602">
        <ele>787.79998779297</ele>
        <time>2020-06-26T14:46:23.000Z</time>
      </trkpt>
      <trkpt lat="45.60318" lon="6.76588">
        <ele>787.79998779297</ele>
        <time>2020-06-26T14:46:28.000Z</time>
      </trkpt>
      <trkpt lat="45.60337" lon="6.76573">
        <ele>788.20001220703</ele>
        <time>2020-06-26T14:46:34.000Z</time>
      </trkpt>
      <trkpt lat="45.60344" lon="6.7657">
        <ele>788.20001220703</ele>
        <time>2020-06-26T14:46:36.000Z</time>
      </trkpt>
      <trkpt lat="45.60358" lon="6.76562">
        <ele>788.59997558594</ele>
        <time>2020-06-26T14:46:41.000Z</time>
      </trkpt>
      <trkpt lat="45.60367" lon="6.76557">
        <ele>789.40002441406</ele>
        <time>2020-06-26T14:46:44.000Z</time>
      </trkpt>
      <trkpt lat="45.60375" lon="6.76551">
        <ele>790.40002441406</ele>
        <time>2020-06-26T14:46:47.000Z</time>
      </trkpt>
      <trkpt lat="45.60383" lon="6.76543">
        <ele>791.40002441406</ele>
        <time>2020-06-26T14:46:50.000Z</time>
      </trkpt>
      <trkpt lat="45.60386" lon="6.76541">
        <ele>791.59997558594</ele>
        <time>2020-06-26T14:46:51.000Z</time>
      </trkpt>
      <trkpt lat="45.60396" lon="6.7653">
        <ele>792.59997558594</ele>
        <time>2020-06-26T14:46:55.000Z</time>
      </trkpt>
      <trkpt lat="45.60408" lon="6.76515">
        <ele>793.40002441406</ele>
        <time>2020-06-26T14:47:00.000Z</time>
      </trkpt>
      <trkpt lat="45.6041" lon="6.76512">
        <ele>793.79998779297</ele>
        <time>2020-06-26T14:47:01.000Z</time>
      </trkpt>
      <trkpt lat="45.60422" lon="6.76498">
        <ele>794.79998779297</ele>
        <time>2020-06-26T14:47:06.000Z</time>
      </trkpt>
      <trkpt lat="45.60424" lon="6.76495">
        <ele>795</ele>
        <time>2020-06-26T14:47:07.000Z</time>
      </trkpt>
      <trkpt lat="45.60436" lon="6.7648">
        <ele>796</ele>
        <time>2020-06-26T14:47:12.000Z</time>
      </trkpt>
      <trkpt lat="45.60446" lon="6.76469">
        <ele>797</ele>
        <time>2020-06-26T14:47:16.000Z</time>
      </trkpt>
      <trkpt lat="45.60466" lon="6.76447">
        <ele>798.20001220703</ele>
        <time>2020-06-26T14:47:24.000Z</time>
      </trkpt>
      <trkpt lat="45.60473" lon="6.76439">
        <ele>798.59997558594</ele>
        <time>2020-06-26T14:47:27.000Z</time>
      </trkpt>
      <trkpt lat="45.60488" lon="6.76423">
        <ele>799.20001220703</ele>
        <time>2020-06-26T14:47:33.000Z</time>
      </trkpt>
      <trkpt lat="45.60497" lon="6.76412">
        <ele>800</ele>
        <time>2020-06-26T14:47:37.000Z</time>
      </trkpt>
      <trkpt lat="45.60502" lon="6.76406">
        <ele>800.20001220703</ele>
        <time>2020-06-26T14:47:39.000Z</time>
      </trkpt>
      <trkpt lat="45.60517" lon="6.76387">
        <ele>801.40002441406</ele>
        <time>2020-06-26T14:47:46.000Z</time>
      </trkpt>
      <trkpt lat="45.60522" lon="6.76381">
        <ele>802</ele>
        <time>2020-06-26T14:47:48.000Z</time>
      </trkpt>
      <trkpt lat="45.60526" lon="6.76375">
        <ele>802.40002441406</ele>
        <time>2020-06-26T14:47:50.000Z</time>
      </trkpt>
      <trkpt lat="45.60538" lon="6.76363">
        <ele>803.59997558594</ele>
        <time>2020-06-26T14:47:55.000Z</time>
      </trkpt>
      <trkpt lat="45.60544" lon="6.76355">
        <ele>803.79998779297</ele>
        <time>2020-06-26T14:47:58.000Z</time>
      </trkpt>
      <trkpt lat="45.60549" lon="6.7635">
        <ele>804.59997558594</ele>
        <time>2020-06-26T14:48:00.000Z</time>
      </trkpt>
      <trkpt lat="45.60561" lon="6.76334">
        <ele>805.79998779297</ele>
        <time>2020-06-26T14:48:06.000Z</time>
      </trkpt>
      <trkpt lat="45.60563" lon="6.76332">
        <ele>806</ele>
        <time>2020-06-26T14:48:07.000Z</time>
      </trkpt>
      <trkpt lat="45.60567" lon="6.76327">
        <ele>806.40002441406</ele>
        <time>2020-06-26T14:48:09.000Z</time>
      </trkpt>
      <trkpt lat="45.60574" lon="6.76319">
        <ele>807</ele>
        <time>2020-06-26T14:48:12.000Z</time>
      </trkpt>
      <trkpt lat="45.60586" lon="6.76302">
        <ele>808</ele>
        <time>2020-06-26T14:48:18.000Z</time>
      </trkpt>
      <trkpt lat="45.60588" lon="6.76299">
        <ele>808.20001220703</ele>
        <time>2020-06-26T14:48:19.000Z</time>
      </trkpt>
      <trkpt lat="45.606" lon="6.76282">
        <ele>809</ele>
        <time>2020-06-26T14:48:25.000Z</time>
      </trkpt>
      <trkpt lat="45.60611" lon="6.76268">
        <ele>810.20001220703</ele>
        <time>2020-06-26T14:48:30.000Z</time>
      </trkpt>
      <trkpt lat="45.60623" lon="6.76253">
        <ele>811.40002441406</ele>
        <time>2020-06-26T14:48:36.000Z</time>
      </trkpt>
      <trkpt lat="45.60629" lon="6.76245">
        <ele>811.59997558594</ele>
        <time>2020-06-26T14:48:39.000Z</time>
      </trkpt>
      <trkpt lat="45.60638" lon="6.76235">
        <ele>812.40002441406</ele>
        <time>2020-06-26T14:48:43.000Z</time>
      </trkpt>
      <trkpt lat="45.60652" lon="6.76219">
        <ele>813.40002441406</ele>
        <time>2020-06-26T14:48:49.000Z</time>
      </trkpt>
      <trkpt lat="45.60654" lon="6.76216">
        <ele>813.59997558594</ele>
        <time>2020-06-26T14:48:50.000Z</time>
      </trkpt>
      <trkpt lat="45.60665" lon="6.76203">
        <ele>814.79998779297</ele>
        <time>2020-06-26T14:48:55.000Z</time>
      </trkpt>
      <trkpt lat="45.60671" lon="6.76195">
        <ele>815</ele>
        <time>2020-06-26T14:48:58.000Z</time>
      </trkpt>
      <trkpt lat="45.60684" lon="6.76178">
        <ele>816</ele>
        <time>2020-06-26T14:49:04.000Z</time>
      </trkpt>
      <trkpt lat="45.60692" lon="6.76172">
        <ele>816.40002441406</ele>
        <time>2020-06-26T14:49:07.000Z</time>
      </trkpt>
      <trkpt lat="45.60702" lon="6.76168">
        <ele>817.20001220703</ele>
        <time>2020-06-26T14:49:11.000Z</time>
      </trkpt>
      <trkpt lat="45.60707" lon="6.76168">
        <ele>817.40002441406</ele>
        <time>2020-06-26T14:49:13.000Z</time>
      </trkpt>
      <trkpt lat="45.6071" lon="6.76169">
        <ele>817.59997558594</ele>
        <time>2020-06-26T14:49:14.000Z</time>
      </trkpt>
      <trkpt lat="45.60715" lon="6.76172">
        <ele>818.20001220703</ele>
        <time>2020-06-26T14:49:16.000Z</time>
      </trkpt>
      <trkpt lat="45.60724" lon="6.76179">
        <ele>819.20001220703</ele>
        <time>2020-06-26T14:49:20.000Z</time>
      </trkpt>
      <trkpt lat="45.60727" lon="6.76181">
        <ele>819.40002441406</ele>
        <time>2020-06-26T14:49:21.000Z</time>
      </trkpt>
      <trkpt lat="45.60736" lon="6.76189">
        <ele>820.79998779297</ele>
        <time>2020-06-26T14:49:25.000Z</time>
      </trkpt>
      <trkpt lat="45.60749" lon="6.76199">
        <ele>822.20001220703</ele>
        <time>2020-06-26T14:49:30.000Z</time>
      </trkpt>
      <trkpt lat="45.60751" lon="6.76202">
        <ele>822.40002441406</ele>
        <time>2020-06-26T14:49:31.000Z</time>
      </trkpt>
      <trkpt lat="45.60761" lon="6.7621">
        <ele>823.20001220703</ele>
        <time>2020-06-26T14:49:35.000Z</time>
      </trkpt>
      <trkpt lat="45.60772" lon="6.76219">
        <ele>824.20001220703</ele>
        <time>2020-06-26T14:49:40.000Z</time>
      </trkpt>
      <trkpt lat="45.60773" lon="6.76222">
        <ele>824.40002441406</ele>
        <time>2020-06-26T14:49:41.000Z</time>
      </trkpt>
      <trkpt lat="45.60782" lon="6.76233">
        <ele>825.59997558594</ele>
        <time>2020-06-26T14:49:47.000Z</time>
      </trkpt>
      <trkpt lat="45.60791" lon="6.76241">
        <ele>826.79998779297</ele>
        <time>2020-06-26T14:49:52.000Z</time>
      </trkpt>
      <trkpt lat="45.60792" lon="6.76243">
        <ele>827</ele>
        <time>2020-06-26T14:49:53.000Z</time>
      </trkpt>
      <trkpt lat="45.60799" lon="6.76249">
        <ele>828</ele>
        <time>2020-06-26T14:49:57.000Z</time>
      </trkpt>
      <trkpt lat="45.60802" lon="6.76253">
        <ele>828.40002441406</ele>
        <time>2020-06-26T14:49:59.000Z</time>
      </trkpt>
      <trkpt lat="45.60807" lon="6.76257">
        <ele>829</ele>
        <time>2020-06-26T14:50:01.000Z</time>
      </trkpt>
      <trkpt lat="45.60814" lon="6.76263">
        <ele>830.20001220703</ele>
        <time>2020-06-26T14:50:05.000Z</time>
      </trkpt>
      <trkpt lat="45.60829" lon="6.76274">
        <ele>831</ele>
        <time>2020-06-26T14:50:10.000Z</time>
      </trkpt>
      <trkpt lat="45.60835" lon="6.76279">
        <ele>831.40002441406</ele>
        <time>2020-06-26T14:50:12.000Z</time>
      </trkpt>
      <trkpt lat="45.60848" lon="6.7629">
        <ele>832.40002441406</ele>
        <time>2020-06-26T14:50:17.000Z</time>
      </trkpt>
      <trkpt lat="45.60853" lon="6.76295">
        <ele>832.59997558594</ele>
        <time>2020-06-26T14:50:19.000Z</time>
      </trkpt>
      <trkpt lat="45.60863" lon="6.76301">
        <ele>833.40002441406</ele>
        <time>2020-06-26T14:50:22.000Z</time>
      </trkpt>
      <trkpt lat="45.60878" lon="6.7631">
        <ele>834</ele>
        <time>2020-06-26T14:50:26.000Z</time>
      </trkpt>
      <trkpt lat="45.60885" lon="6.76315">
        <ele>834.59997558594</ele>
        <time>2020-06-26T14:50:28.000Z</time>
      </trkpt>
      <trkpt lat="45.60904" lon="6.7633">
        <ele>835.79998779297</ele>
        <time>2020-06-26T14:50:33.000Z</time>
      </trkpt>
      <trkpt lat="45.60919" lon="6.76342">
        <ele>836.59997558594</ele>
        <time>2020-06-26T14:50:37.000Z</time>
      </trkpt>
      <trkpt lat="45.60922" lon="6.76345">
        <ele>836.79998779297</ele>
        <time>2020-06-26T14:50:38.000Z</time>
      </trkpt>
      <trkpt lat="45.60942" lon="6.76361">
        <ele>837.79998779297</ele>
        <time>2020-06-26T14:50:44.000Z</time>
      </trkpt>
      <trkpt lat="45.60955" lon="6.76371">
        <ele>839</ele>
        <time>2020-06-26T14:50:48.000Z</time>
      </trkpt>
      <trkpt lat="45.60973" lon="6.76387">
        <ele>840.20001220703</ele>
        <time>2020-06-26T14:50:54.000Z</time>
      </trkpt>
      <trkpt lat="45.60986" lon="6.76398">
        <ele>841</ele>
        <time>2020-06-26T14:50:58.000Z</time>
      </trkpt>
      <trkpt lat="45.6099" lon="6.76401">
        <ele>841.20001220703</ele>
        <time>2020-06-26T14:50:59.000Z</time>
      </trkpt>
      <trkpt lat="45.61003" lon="6.76412">
        <ele>842.40002441406</ele>
        <time>2020-06-26T14:51:03.000Z</time>
      </trkpt>
      <trkpt lat="45.6102" lon="6.7643">
        <ele>842.79998779297</ele>
        <time>2020-06-26T14:51:09.000Z</time>
      </trkpt>
      <trkpt lat="45.61029" lon="6.76441">
        <ele>843.40002441406</ele>
        <time>2020-06-26T14:51:12.000Z</time>
      </trkpt>
      <trkpt lat="45.61045" lon="6.76454">
        <ele>844.20001220703</ele>
        <time>2020-06-26T14:51:17.000Z</time>
      </trkpt>
      <trkpt lat="45.61049" lon="6.76454">
        <ele>844.40002441406</ele>
        <time>2020-06-26T14:51:18.000Z</time>
      </trkpt>
      <trkpt lat="45.61055" lon="6.76449">
        <ele>844.79998779297</ele>
        <time>2020-06-26T14:51:20.000Z</time>
      </trkpt>
      <trkpt lat="45.6106" lon="6.76435">
        <ele>845.40002441406</ele>
        <time>2020-06-26T14:51:23.000Z</time>
      </trkpt>
      <trkpt lat="45.61059" lon="6.7643">
        <ele>845.59997558594</ele>
        <time>2020-06-26T14:51:24.000Z</time>
      </trkpt>
      <trkpt lat="45.61052" lon="6.76418">
        <ele>846.20001220703</ele>
        <time>2020-06-26T14:51:27.000Z</time>
      </trkpt>
      <trkpt lat="45.61049" lon="6.76414">
        <ele>846.40002441406</ele>
        <time>2020-06-26T14:51:28.000Z</time>
      </trkpt>
      <trkpt lat="45.61044" lon="6.76406">
        <ele>846.40002441406</ele>
        <time>2020-06-26T14:51:30.000Z</time>
      </trkpt>
      <trkpt lat="45.61043" lon="6.76398">
        <ele>846.59997558594</ele>
        <time>2020-06-26T14:51:32.000Z</time>
      </trkpt>
      <trkpt lat="45.61047" lon="6.76393">
        <ele>847</ele>
        <time>2020-06-26T14:51:35.000Z</time>
      </trkpt>
      <trkpt lat="45.61053" lon="6.76398">
        <ele>847.79998779297</ele>
        <time>2020-06-26T14:51:38.000Z</time>
      </trkpt>
      <trkpt lat="45.61055" lon="6.76401">
        <ele>848.20001220703</ele>
        <time>2020-06-26T14:51:39.000Z</time>
      </trkpt>
      <trkpt lat="45.61059" lon="6.76409">
        <ele>849</ele>
        <time>2020-06-26T14:51:41.000Z</time>
      </trkpt>
      <trkpt lat="45.61071" lon="6.7643">
        <ele>850.40002441406</ele>
        <time>2020-06-26T14:51:46.000Z</time>
      </trkpt>
      <trkpt lat="45.61073" lon="6.76434">
        <ele>850.79998779297</ele>
        <time>2020-06-26T14:51:47.000Z</time>
      </trkpt>
      <trkpt lat="45.6109" lon="6.76459">
        <ele>851.20001220703</ele>
        <time>2020-06-26T14:51:53.000Z</time>
      </trkpt>
      <trkpt lat="45.61115" lon="6.76489">
        <ele>851.20001220703</ele>
        <time>2020-06-26T14:51:59.000Z</time>
      </trkpt>
      <trkpt lat="45.61151" lon="6.76523">
        <ele>850.40002441406</ele>
        <time>2020-06-26T14:52:07.000Z</time>
      </trkpt>
      <trkpt lat="45.61169" lon="6.76539">
        <ele>850.20001220703</ele>
        <time>2020-06-26T14:52:11.000Z</time>
      </trkpt>
      <trkpt lat="45.61178" lon="6.76549">
        <ele>850.20001220703</ele>
        <time>2020-06-26T14:52:13.000Z</time>
      </trkpt>
      <trkpt lat="45.61194" lon="6.76552">
        <ele>849.79998779297</ele>
        <time>2020-06-26T14:52:16.000Z</time>
      </trkpt>
      <trkpt lat="45.61209" lon="6.76552">
        <ele>849.59997558594</ele>
        <time>2020-06-26T14:52:19.000Z</time>
      </trkpt>
      <trkpt lat="45.61219" lon="6.76553">
        <ele>849.59997558594</ele>
        <time>2020-06-26T14:52:21.000Z</time>
      </trkpt>
      <trkpt lat="45.61225" lon="6.76555">
        <ele>849.40002441406</ele>
        <time>2020-06-26T14:52:22.000Z</time>
      </trkpt>
      <trkpt lat="45.61255" lon="6.76564">
        <ele>849</ele>
        <time>2020-06-26T14:52:27.000Z</time>
      </trkpt>
      <trkpt lat="45.61304" lon="6.76583">
        <ele>848.59997558594</ele>
        <time>2020-06-26T14:52:35.000Z</time>
      </trkpt>
      <trkpt lat="45.6131" lon="6.76585">
        <ele>848.40002441406</ele>
        <time>2020-06-26T14:52:36.000Z</time>
      </trkpt>
      <trkpt lat="45.61349" lon="6.76605">
        <ele>847.40002441406</ele>
        <time>2020-06-26T14:52:42.000Z</time>
      </trkpt>
      <trkpt lat="45.61356" lon="6.76609">
        <ele>847.20001220703</ele>
        <time>2020-06-26T14:52:43.000Z</time>
      </trkpt>
      <trkpt lat="45.61369" lon="6.76616">
        <ele>846.79998779297</ele>
        <time>2020-06-26T14:52:45.000Z</time>
      </trkpt>
      <trkpt lat="45.61374" lon="6.76622">
        <ele>846.40002441406</ele>
        <time>2020-06-26T14:52:46.000Z</time>
      </trkpt>
      <trkpt lat="45.61375" lon="6.76639">
        <ele>846</ele>
        <time>2020-06-26T14:52:48.000Z</time>
      </trkpt>
      <trkpt lat="45.61367" lon="6.76648">
        <ele>845.59997558594</ele>
        <time>2020-06-26T14:52:50.000Z</time>
      </trkpt>
      <trkpt lat="45.61346" lon="6.76643">
        <ele>845</ele>
        <time>2020-06-26T14:52:54.000Z</time>
      </trkpt>
      <trkpt lat="45.61336" lon="6.76626">
        <ele>845</ele>
        <time>2020-06-26T14:52:57.000Z</time>
      </trkpt>
      <trkpt lat="45.61322" lon="6.7662">
        <ele>845</ele>
        <time>2020-06-26T14:53:01.000Z</time>
      </trkpt>
      <trkpt lat="45.61316" lon="6.7663">
        <ele>845</ele>
        <time>2020-06-26T14:53:04.000Z</time>
      </trkpt>
      <trkpt lat="45.61311" lon="6.76638">
        <ele>846.20001220703</ele>
        <time>2020-06-26T14:53:06.000Z</time>
      </trkpt>
      <trkpt lat="45.61304" lon="6.76644">
        <ele>847</ele>
        <time>2020-06-26T14:53:08.000Z</time>
      </trkpt>
      <trkpt lat="45.613" lon="6.76646">
        <ele>847.20001220703</ele>
        <time>2020-06-26T14:53:09.000Z</time>
      </trkpt>
      <trkpt lat="45.61296" lon="6.76648">
        <ele>847.59997558594</ele>
        <time>2020-06-26T14:53:10.000Z</time>
      </trkpt>
      <trkpt lat="45.61283" lon="6.76657">
        <ele>847.59997558594</ele>
        <time>2020-06-26T14:53:14.000Z</time>
      </trkpt>
      <trkpt lat="45.61273" lon="6.76665">
        <ele>848</ele>
        <time>2020-06-26T14:53:19.000Z</time>
      </trkpt>
      <trkpt lat="45.61272" lon="6.76666">
        <ele>848</ele>
        <time>2020-06-26T14:53:22.000Z</time>
      </trkpt>
    </trkseg>
  </trk>
</gpx>